<?xml version='1.0' encoding='UTF-8'?><gpx version="1.1" creator="JPX - https://github.com/jenetics/jpx" xmlns="http://www.topografix.com/GPX/1/1"><trk><trkseg><trkpt lat="45.71854782652561" lon="9.771036201810945"><ele>337.79999999999995</ele><time>2026-04-11T08:47:52Z</time></trkpt><trkpt lat="45.71846929765501" lon="9.770957983109453"><ele>336.59999999999997</ele><time>2026-04-11T08:47:54Z</time></trkpt><trkpt lat="45.71836883553643" lon="9.770866154451685"><ele>335.4</ele><time>2026-04-11T08:47:56Z</time></trkpt><trkpt lat="45.718308338824265" lon="9.770826579672226"><ele>334.2</ele><time>2026-04-11T08:47:57Z</time></trkpt><trkpt lat="45.71825121693319" lon="9.770788564067317"><ele>333.0</ele><time>2026-04-11T08:47:58Z</time></trkpt><trkpt lat="45.7181460729918" lon="9.770713831046592"><ele>333.0</ele><time>2026-04-11T08:48:00Z</time></trkpt><trkpt lat="45.7180426397631" lon="9.770653887243492"><ele>333.0</ele><time>2026-04-11T08:48:02Z</time></trkpt><trkpt lat="45.717963034600714" lon="9.770573986931687"><ele>333.0</ele><time>2026-04-11T08:48:04Z</time></trkpt><trkpt lat="45.717884062477545" lon="9.770559020586045"><ele>333.0</ele><time>2026-04-11T08:48:06Z</time></trkpt><trkpt lat="45.71780897777133" lon="9.770657841567296"><ele>333.0</ele><time>2026-04-11T08:48:08Z</time></trkpt><trkpt lat="45.71774690082619" lon="9.770768477762047"><ele>332.0</ele><time>2026-04-11T08:48:10Z</time></trkpt><trkpt lat="45.71766893635975" lon="9.770882893976061"><ele>331.0</ele><time>2026-04-11T08:48:12Z</time></trkpt><trkpt lat="45.71758979732512" lon="9.771007811040494"><ele>330.0</ele><time>2026-04-11T08:48:14Z</time></trkpt><trkpt lat="45.71754454334039" lon="9.77116821834503"><ele>329.0</ele><time>2026-04-11T08:48:16Z</time></trkpt><trkpt lat="45.717508919244" lon="9.771328397798131"><ele>329.0</ele><time>2026-04-11T08:48:18Z</time></trkpt><trkpt lat="45.71746161464785" lon="9.771469141023566"><ele>329.0</ele><time>2026-04-11T08:48:20Z</time></trkpt><trkpt lat="45.71738701115374" lon="9.771505007782745"><ele>329.0</ele><time>2026-04-11T08:48:22Z</time></trkpt><trkpt lat="45.717279848505406" lon="9.771454299728873"><ele>329.0</ele><time>2026-04-11T08:48:24Z</time></trkpt><trkpt lat="45.71721393979066" lon="9.771434523694232"><ele>329.0</ele><time>2026-04-11T08:48:25Z</time></trkpt><trkpt lat="45.71714591434304" lon="9.771415292056224"><ele>329.0</ele><time>2026-04-11T08:48:26Z</time></trkpt><trkpt lat="45.71707583436842" lon="9.77139826571084"><ele>329.0</ele><time>2026-04-11T08:48:27Z</time></trkpt><trkpt lat="45.71700351912425" lon="9.77137731002184"><ele>329.0</ele><time>2026-04-11T08:48:28Z</time></trkpt><trkpt lat="45.71692581843794" lon="9.771362782065484"><ele>329.0</ele><time>2026-04-11T08:48:29Z</time></trkpt><trkpt lat="45.71685232160602" lon="9.771370800534262"><ele>329.0</ele><time>2026-04-11T08:48:30Z</time></trkpt><trkpt lat="45.71678036110432" lon="9.77140927333432"><ele>329.0</ele><time>2026-04-11T08:48:31Z</time></trkpt><trkpt lat="45.71671422861282" lon="9.771434683388218"><ele>329.0</ele><time>2026-04-11T08:48:32Z</time></trkpt><trkpt lat="45.716661168919764" lon="9.771484887117577"><ele>329.0</ele><time>2026-04-11T08:48:33Z</time></trkpt><trkpt lat="45.716613741883855" lon="9.77155499726503"><ele>328.2</ele><time>2026-04-11T08:48:34Z</time></trkpt><trkpt lat="45.71656686603833" lon="9.771616303750427"><ele>327.4</ele><time>2026-04-11T08:48:35Z</time></trkpt><trkpt lat="45.71652665693466" lon="9.771691823466325"><ele>326.6</ele><time>2026-04-11T08:48:36Z</time></trkpt><trkpt lat="45.71643608007216" lon="9.771816294545996"><ele>325.8</ele><time>2026-04-11T08:48:38Z</time></trkpt><trkpt lat="45.71632206500736" lon="9.771900312393404"><ele>325.0</ele><time>2026-04-11T08:48:40Z</time></trkpt><trkpt lat="45.716218774953894" lon="9.77199304412577"><ele>325.0</ele><time>2026-04-11T08:48:42Z</time></trkpt><trkpt lat="45.71611939301974" lon="9.772101549162668"><ele>325.0</ele><time>2026-04-11T08:48:44Z</time></trkpt><trkpt lat="45.71606924889248" lon="9.77216055831571"><ele>325.0</ele><time>2026-04-11T08:48:45Z</time></trkpt><trkpt lat="45.715984084396396" lon="9.772278012313276"><ele>325.0</ele><time>2026-04-11T08:48:47Z</time></trkpt><trkpt lat="45.71589929252609" lon="9.772388973761155"><ele>325.0</ele><time>2026-04-11T08:48:49Z</time></trkpt><trkpt lat="45.71585233593764" lon="9.772450959507381"><ele>326.0</ele><time>2026-04-11T08:48:50Z</time></trkpt><trkpt lat="45.71577991468021" lon="9.772557192983976"><ele>327.0</ele><time>2026-04-11T08:48:52Z</time></trkpt><trkpt lat="45.71569552241021" lon="9.772673705445794"><ele>328.0</ele><time>2026-04-11T08:48:54Z</time></trkpt><trkpt lat="45.7156233983403" lon="9.77277015080169"><ele>329.0</ele><time>2026-04-11T08:48:56Z</time></trkpt><trkpt lat="45.71555109395841" lon="9.772869104342229"><ele>330.0</ele><time>2026-04-11T08:48:58Z</time></trkpt><trkpt lat="45.71548445091604" lon="9.772961437455919"><ele>330.0</ele><time>2026-04-11T08:49:00Z</time></trkpt><trkpt lat="45.71539989526334" lon="9.773043674056105"><ele>330.0</ele><time>2026-04-11T08:49:02Z</time></trkpt><trkpt lat="45.7153021050705" lon="9.773074212380623"><ele>330.0</ele><time>2026-04-11T08:49:04Z</time></trkpt><trkpt lat="45.71521346942676" lon="9.77311114437958"><ele>330.0</ele><time>2026-04-11T08:49:06Z</time></trkpt><trkpt lat="45.71517644893499" lon="9.773241516947003"><ele>330.0</ele><time>2026-04-11T08:49:08Z</time></trkpt><trkpt lat="45.715175618738876" lon="9.773401614927373"><ele>331.0</ele><time>2026-04-11T08:49:10Z</time></trkpt><trkpt lat="45.71517082231176" lon="9.773558000310796"><ele>332.0</ele><time>2026-04-11T08:49:12Z</time></trkpt><trkpt lat="45.7151467383953" lon="9.773708440483311"><ele>333.0</ele><time>2026-04-11T08:49:14Z</time></trkpt><trkpt lat="45.71512838922494" lon="9.773859675076359"><ele>334.0</ele><time>2026-04-11T08:49:16Z</time></trkpt><trkpt lat="45.715128077601534" lon="9.77399367945012"><ele>335.0</ele><time>2026-04-11T08:49:18Z</time></trkpt><trkpt lat="45.715152871395624" lon="9.774131540020388"><ele>335.0</ele><time>2026-04-11T08:49:20Z</time></trkpt><trkpt lat="45.71516362477724" lon="9.77427058464264"><ele>335.0</ele><time>2026-04-11T08:49:22Z</time></trkpt><trkpt lat="45.71517013518047" lon="9.77440438833129"><ele>335.0</ele><time>2026-04-11T08:49:24Z</time></trkpt><trkpt lat="45.71516725530704" lon="9.774516305841198"><ele>335.0</ele><time>2026-04-11T08:49:26Z</time></trkpt><trkpt lat="45.71515839590949" lon="9.774646416323112"><ele>335.0</ele><time>2026-04-11T08:49:28Z</time></trkpt><trkpt lat="45.71512802290335" lon="9.774786492765694"><ele>336.1666666666667</ele><time>2026-04-11T08:49:30Z</time></trkpt><trkpt lat="45.71510610265203" lon="9.774915020132333"><ele>337.33333333333337</ele><time>2026-04-11T08:49:32Z</time></trkpt><trkpt lat="45.715079000067256" lon="9.775037705155476"><ele>338.5</ele><time>2026-04-11T08:49:34Z</time></trkpt><trkpt lat="45.71505006502798" lon="9.775160342896813"><ele>339.6666666666667</ele><time>2026-04-11T08:49:36Z</time></trkpt><trkpt lat="45.715010338760415" lon="9.775264817046107"><ele>340.8333333333333</ele><time>2026-04-11T08:49:38Z</time></trkpt><trkpt lat="45.71495044156335" lon="9.775362432506643"><ele>342.0</ele><time>2026-04-11T08:49:40Z</time></trkpt><trkpt lat="45.7148837340968" lon="9.775447512428087"><ele>342.20000000000005</ele><time>2026-04-11T08:49:42Z</time></trkpt><trkpt lat="45.71481902874865" lon="9.775534962115763"><ele>342.4</ele><time>2026-04-11T08:49:44Z</time></trkpt><trkpt lat="45.71472818214881" lon="9.775623075005788"><ele>342.6</ele><time>2026-04-11T08:49:46Z</time></trkpt><trkpt lat="45.71466236490761" lon="9.775727046611305"><ele>342.79999999999995</ele><time>2026-04-11T08:49:48Z</time></trkpt><trkpt lat="45.7146175401293" lon="9.7757932416633"><ele>343.0</ele><time>2026-04-11T08:49:49Z</time></trkpt><trkpt lat="45.71455394601914" lon="9.775937220336573"><ele>343.2</ele><time>2026-04-11T08:49:51Z</time></trkpt><trkpt lat="45.71452149498887" lon="9.776074256598273"><ele>343.4</ele><time>2026-04-11T08:49:53Z</time></trkpt><trkpt lat="45.71449434614891" lon="9.77622141584839"><ele>343.59999999999997</ele><time>2026-04-11T08:49:55Z</time></trkpt><trkpt lat="45.71447369470256" lon="9.776369085573315"><ele>343.79999999999995</ele><time>2026-04-11T08:49:57Z</time></trkpt><trkpt lat="45.7144738330612" lon="9.776534766028623"><ele>344.0</ele><time>2026-04-11T08:49:59Z</time></trkpt><trkpt lat="45.71448802514563" lon="9.776682291788953"><ele>344.0</ele><time>2026-04-11T08:50:01Z</time></trkpt><trkpt lat="45.71452411269957" lon="9.776832983144962"><ele>344.0</ele><time>2026-04-11T08:50:03Z</time></trkpt><trkpt lat="45.71457942345053" lon="9.776968018296099"><ele>344.0</ele><time>2026-04-11T08:50:05Z</time></trkpt><trkpt lat="45.714653519951646" lon="9.777095508626555"><ele>344.0</ele><time>2026-04-11T08:50:07Z</time></trkpt><trkpt lat="45.71473554106255" lon="9.777206957419349"><ele>344.0</ele><time>2026-04-11T08:50:09Z</time></trkpt><trkpt lat="45.71481054978932" lon="9.77732689163184"><ele>345.25</ele><time>2026-04-11T08:50:11Z</time></trkpt><trkpt lat="45.714870932155115" lon="9.77745293469655"><ele>346.5</ele><time>2026-04-11T08:50:13Z</time></trkpt><trkpt lat="45.7149193327256" lon="9.77760513949714"><ele>347.75</ele><time>2026-04-11T08:50:15Z</time></trkpt><trkpt lat="45.71493791169725" lon="9.777765524137653"><ele>349.0</ele><time>2026-04-11T08:50:17Z</time></trkpt><trkpt lat="45.71494936176176" lon="9.777926882321891"><ele>350.0</ele><time>2026-04-11T08:50:19Z</time></trkpt><trkpt lat="45.71495361821074" lon="9.778089806600399"><ele>351.0</ele><time>2026-04-11T08:50:21Z</time></trkpt><trkpt lat="45.71496081524458" lon="9.778328769567741"><ele>352.0</ele><time>2026-04-11T08:50:24Z</time></trkpt><trkpt lat="45.71496645950023" lon="9.77848579051381"><ele>353.0</ele><time>2026-04-11T08:50:26Z</time></trkpt><trkpt lat="45.71498294679686" lon="9.778657262868409"><ele>353.0</ele><time>2026-04-11T08:50:28Z</time></trkpt><trkpt lat="45.714981035038626" lon="9.778821454263857"><ele>353.0</ele><time>2026-04-11T08:50:30Z</time></trkpt><trkpt lat="45.714959426726644" lon="9.778973855904344"><ele>353.0</ele><time>2026-04-11T08:50:32Z</time></trkpt><trkpt lat="45.714911102562915" lon="9.779110808502951"><ele>353.0</ele><time>2026-04-11T08:50:34Z</time></trkpt><trkpt lat="45.71485550564592" lon="9.779257347903908"><ele>353.0</ele><time>2026-04-11T08:50:36Z</time></trkpt><trkpt lat="45.714800733529515" lon="9.779372586527062"><ele>351.4</ele><time>2026-04-11T08:50:38Z</time></trkpt><trkpt lat="45.71474963251991" lon="9.779475344516804"><ele>349.79999999999995</ele><time>2026-04-11T08:50:40Z</time></trkpt><trkpt lat="45.714676003843415" lon="9.779588325585427"><ele>348.2</ele><time>2026-04-11T08:50:42Z</time></trkpt><trkpt lat="45.7146203073948" lon="9.779706818978518"><ele>346.6</ele><time>2026-04-11T08:50:44Z</time></trkpt><trkpt lat="45.7145245946377" lon="9.779794205274632"><ele>345.0</ele><time>2026-04-11T08:50:46Z</time></trkpt><trkpt lat="45.71443168594442" lon="9.779894620511365"><ele>347.0</ele><time>2026-04-11T08:50:48Z</time></trkpt><trkpt lat="45.71435769041782" lon="9.78000603323085"><ele>349.0</ele><time>2026-04-11T08:50:50Z</time></trkpt><trkpt lat="45.71429327298123" lon="9.780123139460535"><ele>351.0</ele><time>2026-04-11T08:50:52Z</time></trkpt><trkpt lat="45.714246519374335" lon="9.780258488155775"><ele>353.0</ele><time>2026-04-11T08:50:54Z</time></trkpt><trkpt lat="45.71421424466383" lon="9.780417341090336"><ele>355.0</ele><time>2026-04-11T08:50:56Z</time></trkpt><trkpt lat="45.714194318482164" lon="9.780579250845845"><ele>355.8</ele><time>2026-04-11T08:50:58Z</time></trkpt><trkpt lat="45.714172593346376" lon="9.780735109398744"><ele>356.6</ele><time>2026-04-11T08:51:00Z</time></trkpt><trkpt lat="45.71415234957784" lon="9.78088634130619"><ele>357.4</ele><time>2026-04-11T08:51:02Z</time></trkpt><trkpt lat="45.71413483759557" lon="9.781036854245155"><ele>358.2</ele><time>2026-04-11T08:51:04Z</time></trkpt><trkpt lat="45.71413274876106" lon="9.781203170546819"><ele>359.0</ele><time>2026-04-11T08:51:06Z</time></trkpt><trkpt lat="45.71412194936351" lon="9.781348191850109"><ele>359.6</ele><time>2026-04-11T08:51:08Z</time></trkpt><trkpt lat="45.71411473325348" lon="9.781503242371938"><ele>360.2</ele><time>2026-04-11T08:51:10Z</time></trkpt><trkpt lat="45.71410401804434" lon="9.781651384826912"><ele>360.8</ele><time>2026-04-11T08:51:12Z</time></trkpt><trkpt lat="45.71408660370747" lon="9.781795103887298"><ele>361.40000000000003</ele><time>2026-04-11T08:51:14Z</time></trkpt><trkpt lat="45.714049971284986" lon="9.781930822987036"><ele>362.0</ele><time>2026-04-11T08:51:16Z</time></trkpt><trkpt lat="45.714006556162474" lon="9.78206038501918"><ele>362.0</ele><time>2026-04-11T08:51:18Z</time></trkpt><trkpt lat="45.71395871629791" lon="9.782189902787875"><ele>362.0</ele><time>2026-04-11T08:51:20Z</time></trkpt><trkpt lat="45.713922785564364" lon="9.78232725773907"><ele>362.0</ele><time>2026-04-11T08:51:22Z</time></trkpt><trkpt lat="45.71388832477013" lon="9.782435324320739"><ele>362.0</ele><time>2026-04-11T08:51:24Z</time></trkpt><trkpt lat="45.713864411500246" lon="9.78253954679476"><ele>362.0</ele><time>2026-04-11T08:51:26Z</time></trkpt><trkpt lat="45.713846149510694" lon="9.782641706260284"><ele>362.0</ele><time>2026-04-11T08:51:28Z</time></trkpt><trkpt lat="45.71383964478658" lon="9.78274540953031"><ele>361.8</ele><time>2026-04-11T08:51:30Z</time></trkpt><trkpt lat="45.7138343790296" lon="9.782852094042086"><ele>361.6</ele><time>2026-04-11T08:51:32Z</time></trkpt><trkpt lat="45.71384345656537" lon="9.78299708855735"><ele>361.40000000000003</ele><time>2026-04-11T08:51:34Z</time></trkpt><trkpt lat="45.713855165928614" lon="9.783159956673316"><ele>361.20000000000005</ele><time>2026-04-11T08:51:36Z</time></trkpt><trkpt lat="45.71386945874339" lon="9.78332824987073"><ele>361.0</ele><time>2026-04-11T08:51:38Z</time></trkpt><trkpt lat="45.71387100988869" lon="9.783493647147244"><ele>361.6</ele><time>2026-04-11T08:51:40Z</time></trkpt><trkpt lat="45.71388480146711" lon="9.78358200530676"><ele>362.20000000000005</ele><time>2026-04-11T08:51:41Z</time></trkpt><trkpt lat="45.71387937417628" lon="9.783759180785754"><ele>362.79999999999995</ele><time>2026-04-11T08:51:43Z</time></trkpt><trkpt lat="45.713883902420434" lon="9.783930327630234"><ele>363.4</ele><time>2026-04-11T08:51:45Z</time></trkpt><trkpt lat="45.713889364109015" lon="9.784098078257859"><ele>364.0</ele><time>2026-04-11T08:51:47Z</time></trkpt><trkpt lat="45.713892433804425" lon="9.784265048792452"><ele>365.2</ele><time>2026-04-11T08:51:49Z</time></trkpt><trkpt lat="45.713885054100984" lon="9.784430403395826"><ele>366.4</ele><time>2026-04-11T08:51:51Z</time></trkpt><trkpt lat="45.71386893031513" lon="9.78459014554674"><ele>367.6</ele><time>2026-04-11T08:51:53Z</time></trkpt><trkpt lat="45.71384867572858" lon="9.784746089601407"><ele>368.8</ele><time>2026-04-11T08:51:55Z</time></trkpt><trkpt lat="45.71383514168654" lon="9.784901900886869"><ele>370.0</ele><time>2026-04-11T08:51:57Z</time></trkpt><trkpt lat="45.71382100374581" lon="9.78506194968607"><ele>370.8</ele><time>2026-04-11T08:51:59Z</time></trkpt><trkpt lat="45.713822125949996" lon="9.785219889830026"><ele>371.6</ele><time>2026-04-11T08:52:01Z</time></trkpt><trkpt lat="45.71379961624542" lon="9.785371724010908"><ele>372.4</ele><time>2026-04-11T08:52:03Z</time></trkpt><trkpt lat="45.71377462439072" lon="9.785525818106283"><ele>373.2</ele><time>2026-04-11T08:52:05Z</time></trkpt><trkpt lat="45.713756705511095" lon="9.785681042895252"><ele>374.0</ele><time>2026-04-11T08:52:07Z</time></trkpt><trkpt lat="45.71373926884301" lon="9.78584173597893"><ele>374.0</ele><time>2026-04-11T08:52:09Z</time></trkpt><trkpt lat="45.71371944538714" lon="9.785999575192719"><ele>374.0</ele><time>2026-04-11T08:52:11Z</time></trkpt><trkpt lat="45.71369603200986" lon="9.786157866138696"><ele>374.0</ele><time>2026-04-11T08:52:13Z</time></trkpt><trkpt lat="45.7136862251309" lon="9.786307080040087"><ele>374.0</ele><time>2026-04-11T08:52:15Z</time></trkpt><trkpt lat="45.71364345134959" lon="9.78646229799846"><ele>374.0</ele><time>2026-04-11T08:52:17Z</time></trkpt><trkpt lat="45.71364770704116" lon="9.786557945475861"><ele>374.4</ele><time>2026-04-11T08:52:18Z</time></trkpt><trkpt lat="45.713626186969016" lon="9.786726721133782"><ele>374.79999999999995</ele><time>2026-04-11T08:52:20Z</time></trkpt><trkpt lat="45.71361532848154" lon="9.78688222529071"><ele>375.20000000000005</ele><time>2026-04-11T08:52:22Z</time></trkpt><trkpt lat="45.713622004897" lon="9.78697355840702"><ele>375.6</ele><time>2026-04-11T08:52:23Z</time></trkpt><trkpt lat="45.71364765812194" lon="9.787115596934791"><ele>376.0</ele><time>2026-04-11T08:52:25Z</time></trkpt><trkpt lat="45.71369724584287" lon="9.78726491596465"><ele>376.8</ele><time>2026-04-11T08:52:27Z</time></trkpt><trkpt lat="45.71374912141897" lon="9.78742943741201"><ele>377.6</ele><time>2026-04-11T08:52:29Z</time></trkpt><trkpt lat="45.71381756867545" lon="9.787591201243112"><ele>378.4</ele><time>2026-04-11T08:52:31Z</time></trkpt><trkpt lat="45.713865426005675" lon="9.787739845296816"><ele>379.2</ele><time>2026-04-11T08:52:33Z</time></trkpt><trkpt lat="45.71388967637969" lon="9.787839961276951"><ele>380.0</ele><time>2026-04-11T08:52:34Z</time></trkpt><trkpt lat="45.71389264590946" lon="9.788010054976297"><ele>380.0</ele><time>2026-04-11T08:52:36Z</time></trkpt><trkpt lat="45.71388341468826" lon="9.788188156285761"><ele>380.0</ele><time>2026-04-11T08:52:38Z</time></trkpt><trkpt lat="45.71385683334104" lon="9.788361245085044"><ele>380.0</ele><time>2026-04-11T08:52:40Z</time></trkpt><trkpt lat="45.713801733715805" lon="9.788510892406556"><ele>380.0</ele><time>2026-04-11T08:52:42Z</time></trkpt><trkpt lat="45.71376569209639" lon="9.788584940317968"><ele>380.0</ele><time>2026-04-11T08:52:43Z</time></trkpt><trkpt lat="45.71370777515158" lon="9.788727712513706"><ele>380.0</ele><time>2026-04-11T08:52:45Z</time></trkpt><trkpt lat="45.71364739090947" lon="9.788876079259243"><ele>380.0</ele><time>2026-04-11T08:52:47Z</time></trkpt><trkpt lat="45.71358781659334" lon="9.789012300119083"><ele>380.0</ele><time>2026-04-11T08:52:49Z</time></trkpt><trkpt lat="45.713550928858474" lon="9.789091118674332"><ele>380.0</ele><time>2026-04-11T08:52:50Z</time></trkpt><trkpt lat="45.7134763603851" lon="9.789211191572088"><ele>380.0</ele><time>2026-04-11T08:52:52Z</time></trkpt><trkpt lat="45.71343394766887" lon="9.789286377750011"><ele>381.0</ele><time>2026-04-11T08:52:53Z</time></trkpt><trkpt lat="45.71334070584971" lon="9.78938910771001"><ele>382.0</ele><time>2026-04-11T08:52:55Z</time></trkpt><trkpt lat="45.7132386101606" lon="9.789470744532135"><ele>383.0</ele><time>2026-04-11T08:52:57Z</time></trkpt><trkpt lat="45.71312958806572" lon="9.789542090242614"><ele>384.0</ele><time>2026-04-11T08:52:59Z</time></trkpt><trkpt lat="45.71301812480104" lon="9.789595396131983"><ele>384.0</ele><time>2026-04-11T08:53:01Z</time></trkpt><trkpt lat="45.71290291099033" lon="9.789623644191531"><ele>384.0</ele><time>2026-04-11T08:53:03Z</time></trkpt><trkpt lat="45.71280643796584" lon="9.789710239649995"><ele>384.0</ele><time>2026-04-11T08:53:05Z</time></trkpt><trkpt lat="45.71274329329261" lon="9.789743878863883"><ele>384.0</ele><time>2026-04-11T08:53:06Z</time></trkpt><trkpt lat="45.71265128339015" lon="9.789851353592443"><ele>384.0</ele><time>2026-04-11T08:53:08Z</time></trkpt><trkpt lat="45.71257088011476" lon="9.789975347706662"><ele>384.6</ele><time>2026-04-11T08:53:10Z</time></trkpt><trkpt lat="45.71247334569579" lon="9.790095789254485"><ele>385.2</ele><time>2026-04-11T08:53:12Z</time></trkpt><trkpt lat="45.71239230227659" lon="9.790211414104808"><ele>385.8</ele><time>2026-04-11T08:53:14Z</time></trkpt><trkpt lat="45.71230688442315" lon="9.790337121555478"><ele>386.40000000000003</ele><time>2026-04-11T08:53:16Z</time></trkpt><trkpt lat="45.71225688997959" lon="9.790393645711765"><ele>387.0</ele><time>2026-04-11T08:53:17Z</time></trkpt><trkpt lat="45.7121738954251" lon="9.79051152669627"><ele>387.0</ele><time>2026-04-11T08:53:19Z</time></trkpt><trkpt lat="45.71208440391092" lon="9.790628088750978"><ele>387.0</ele><time>2026-04-11T08:53:21Z</time></trkpt><trkpt lat="45.7120089567291" lon="9.790750735906991"><ele>387.0</ele><time>2026-04-11T08:53:23Z</time></trkpt><trkpt lat="45.711928325805" lon="9.790870423044504"><ele>387.0</ele><time>2026-04-11T08:53:25Z</time></trkpt><trkpt lat="45.71185174067814" lon="9.790988192251824"><ele>389.6</ele><time>2026-04-11T08:53:27Z</time></trkpt><trkpt lat="45.71177794879602" lon="9.791109525066153"><ele>392.20000000000005</ele><time>2026-04-11T08:53:29Z</time></trkpt><trkpt lat="45.7117185570347" lon="9.791226010865275"><ele>394.8</ele><time>2026-04-11T08:53:31Z</time></trkpt><trkpt lat="45.711696928473245" lon="9.791314161293316"><ele>397.4</ele><time>2026-04-11T08:53:32Z</time></trkpt><trkpt lat="45.711650284978504" lon="9.791457636785355"><ele>400.0</ele><time>2026-04-11T08:53:34Z</time></trkpt><trkpt lat="45.71161751485585" lon="9.791606649832605"><ele>400.0</ele><time>2026-04-11T08:53:36Z</time></trkpt><trkpt lat="45.71157917600095" lon="9.79175194404035"><ele>400.0</ele><time>2026-04-11T08:53:38Z</time></trkpt><trkpt lat="45.71153656868711" lon="9.791899462347645"><ele>400.0</ele><time>2026-04-11T08:53:40Z</time></trkpt><trkpt lat="45.71148529745832" lon="9.792036607849676"><ele>400.0</ele><time>2026-04-11T08:53:42Z</time></trkpt><trkpt lat="45.71143778265769" lon="9.792158522448357"><ele>400.0</ele><time>2026-04-11T08:53:44Z</time></trkpt><trkpt lat="45.71138749087345" lon="9.792278759829099"><ele>400.0</ele><time>2026-04-11T08:53:46Z</time></trkpt><trkpt lat="45.71132655063873" lon="9.792391312494512"><ele>400.0</ele><time>2026-04-11T08:53:48Z</time></trkpt><trkpt lat="45.71128909149562" lon="9.792526255427008"><ele>400.0</ele><time>2026-04-11T08:53:50Z</time></trkpt><trkpt lat="45.71122554753119" lon="9.792649393467775"><ele>400.0</ele><time>2026-04-11T08:53:52Z</time></trkpt><trkpt lat="45.711182998501876" lon="9.792801759645489"><ele>400.0</ele><time>2026-04-11T08:53:54Z</time></trkpt><trkpt lat="45.71115240643965" lon="9.79296039485073"><ele>400.0</ele><time>2026-04-11T08:53:56Z</time></trkpt><trkpt lat="45.71114808496548" lon="9.79307068040484"><ele>400.0</ele><time>2026-04-11T08:53:57Z</time></trkpt><trkpt lat="45.711131944947326" lon="9.793250829580048"><ele>400.0</ele><time>2026-04-11T08:53:59Z</time></trkpt><trkpt lat="45.71112664816306" lon="9.793445710927479"><ele>400.0</ele><time>2026-04-11T08:54:01Z</time></trkpt><trkpt lat="45.71112412022461" lon="9.793539049142558"><ele>400.0</ele><time>2026-04-11T08:54:02Z</time></trkpt><trkpt lat="45.711128540637816" lon="9.79363618462703"><ele>400.5714285714286</ele><time>2026-04-11T08:54:03Z</time></trkpt><trkpt lat="45.711135706800846" lon="9.793732531360552"><ele>401.14285714285717</ele><time>2026-04-11T08:54:04Z</time></trkpt><trkpt lat="45.71114788162256" lon="9.793829536683686"><ele>401.7142857142857</ele><time>2026-04-11T08:54:05Z</time></trkpt><trkpt lat="45.71116142438715" lon="9.793921079202608"><ele>402.28571428571433</ele><time>2026-04-11T08:54:06Z</time></trkpt><trkpt lat="45.71118313715711" lon="9.794013423215747"><ele>402.85714285714283</ele><time>2026-04-11T08:54:07Z</time></trkpt><trkpt lat="45.71121027045162" lon="9.794098534990582"><ele>403.42857142857144</ele><time>2026-04-11T08:54:08Z</time></trkpt><trkpt lat="45.711239928601174" lon="9.794181370212714"><ele>404.0</ele><time>2026-04-11T08:54:09Z</time></trkpt><trkpt lat="45.711273455932734" lon="9.794264705718811"><ele>405.99999999999994</ele><time>2026-04-11T08:54:10Z</time></trkpt><trkpt lat="45.71131113434122" lon="9.794345706563345"><ele>408.0</ele><time>2026-04-11T08:54:11Z</time></trkpt><trkpt lat="45.711352475329676" lon="9.794425407344123"><ele>410.0</ele><time>2026-04-11T08:54:12Z</time></trkpt><trkpt lat="45.71139292332705" lon="9.794502933792751"><ele>412.0</ele><time>2026-04-11T08:54:13Z</time></trkpt><trkpt lat="45.711428351583784" lon="9.794578432129516"><ele>413.99999999999994</ele><time>2026-04-11T08:54:14Z</time></trkpt><trkpt lat="45.711467190433055" lon="9.794671696750678"><ele>416.0</ele><time>2026-04-11T08:54:15Z</time></trkpt><trkpt lat="45.711561567083415" lon="9.79479858275661"><ele>415.99999999999994</ele><time>2026-04-11T08:54:17Z</time></trkpt><trkpt lat="45.711626358293884" lon="9.794850898535499"><ele>416.0</ele><time>2026-04-11T08:54:18Z</time></trkpt><trkpt lat="45.71168471174528" lon="9.794889552544724"><ele>416.0</ele><time>2026-04-11T08:54:19Z</time></trkpt><trkpt lat="45.7117461256782" lon="9.794914080299593"><ele>416.0</ele><time>2026-04-11T08:54:20Z</time></trkpt><trkpt lat="45.71180820144855" lon="9.794947832440236"><ele>415.99999999999994</ele><time>2026-04-11T08:54:21Z</time></trkpt><trkpt lat="45.711872266107825" lon="9.794976431565392"><ele>416.0</ele><time>2026-04-11T08:54:22Z</time></trkpt><trkpt lat="45.711993395620546" lon="9.79500575650774"><ele>416.20000000000005</ele><time>2026-04-11T08:54:24Z</time></trkpt><trkpt lat="45.71211282175242" lon="9.795043690778886"><ele>416.40000000000003</ele><time>2026-04-11T08:54:26Z</time></trkpt><trkpt lat="45.71222039072338" lon="9.795113540499624"><ele>416.6</ele><time>2026-04-11T08:54:28Z</time></trkpt><trkpt lat="45.712272842369416" lon="9.795174212122946"><ele>416.8</ele><time>2026-04-11T08:54:29Z</time></trkpt><trkpt lat="45.71232887965436" lon="9.79522359864141"><ele>417.0</ele><time>2026-04-11T08:54:30Z</time></trkpt><trkpt lat="45.712380443565046" lon="9.795358883095483"><ele>417.0</ele><time>2026-04-11T08:54:32Z</time></trkpt><trkpt lat="45.712412917891555" lon="9.795502774980461"><ele>417.0</ele><time>2026-04-11T08:54:34Z</time></trkpt><trkpt lat="45.71239211699204" lon="9.795637408902923"><ele>417.0</ele><time>2026-04-11T08:54:36Z</time></trkpt><trkpt lat="45.712385521319085" lon="9.795730311044482"><ele>417.0</ele><time>2026-04-11T08:54:37Z</time></trkpt><trkpt lat="45.71234026795769" lon="9.795848591865486"><ele>417.0</ele><time>2026-04-11T08:54:39Z</time></trkpt><trkpt lat="45.71230330705899" lon="9.79599856077068"><ele>416.6</ele><time>2026-04-11T08:54:41Z</time></trkpt><trkpt lat="45.7122593521895" lon="9.796143404652527"><ele>416.20000000000005</ele><time>2026-04-11T08:54:43Z</time></trkpt><trkpt lat="45.71221545098584" lon="9.796298054275871"><ele>415.8</ele><time>2026-04-11T08:54:45Z</time></trkpt><trkpt lat="45.712157158697615" lon="9.796455102422161"><ele>415.4</ele><time>2026-04-11T08:54:47Z</time></trkpt><trkpt lat="45.71212056712411" lon="9.796531583702592"><ele>415.0</ele><time>2026-04-11T08:54:48Z</time></trkpt><trkpt lat="45.71207426994662" lon="9.796617224595133"><ele>415.00000000000006</ele><time>2026-04-11T08:54:49Z</time></trkpt><trkpt lat="45.71201271756086" lon="9.796679753447327"><ele>415.0</ele><time>2026-04-11T08:54:50Z</time></trkpt><trkpt lat="45.711940237152795" lon="9.79674305872965"><ele>415.0</ele><time>2026-04-11T08:54:51Z</time></trkpt><trkpt lat="45.71187179718877" lon="9.796814619774363"><ele>415.0</ele><time>2026-04-11T08:54:52Z</time></trkpt><trkpt lat="45.71179996966999" lon="9.796903589307007"><ele>415.00000000000006</ele><time>2026-04-11T08:54:53Z</time></trkpt><trkpt lat="45.711735266669685" lon="9.797007986704276"><ele>415.0</ele><time>2026-04-11T08:54:54Z</time></trkpt><trkpt lat="45.71167514373263" lon="9.797132312841732"><ele>413.4</ele><time>2026-04-11T08:54:55Z</time></trkpt><trkpt lat="45.71161969506051" lon="9.797261088697951"><ele>411.8</ele><time>2026-04-11T08:54:56Z</time></trkpt><trkpt lat="45.71156341872477" lon="9.797389328262831"><ele>410.20000000000005</ele><time>2026-04-11T08:54:57Z</time></trkpt><trkpt lat="45.71152711744056" lon="9.797537049901864"><ele>408.6</ele><time>2026-04-11T08:54:58Z</time></trkpt><trkpt lat="45.711486194037995" lon="9.797680207143998"><ele>407.0</ele><time>2026-04-11T08:54:59Z</time></trkpt><trkpt lat="45.711438497562575" lon="9.7978198637584"><ele>405.40000000000003</ele><time>2026-04-11T08:55:00Z</time></trkpt><trkpt lat="45.71138655807936" lon="9.797956441901382"><ele>403.8</ele><time>2026-04-11T08:55:01Z</time></trkpt><trkpt lat="45.71132726672101" lon="9.798082209762173"><ele>402.2</ele><time>2026-04-11T08:55:02Z</time></trkpt><trkpt lat="45.71125917732376" lon="9.798195097671012"><ele>400.6</ele><time>2026-04-11T08:55:03Z</time></trkpt><trkpt lat="45.71118493779136" lon="9.798295545434788"><ele>399.0</ele><time>2026-04-11T08:55:04Z</time></trkpt><trkpt lat="45.7111109910558" lon="9.798389635777946"><ele>400.2</ele><time>2026-04-11T08:55:05Z</time></trkpt><trkpt lat="45.711041651017744" lon="9.79848685578971"><ele>401.4</ele><time>2026-04-11T08:55:06Z</time></trkpt><trkpt lat="45.710983719261606" lon="9.798593809945366"><ele>402.6</ele><time>2026-04-11T08:55:07Z</time></trkpt><trkpt lat="45.710939826613426" lon="9.798699445566307"><ele>403.8</ele><time>2026-04-11T08:55:08Z</time></trkpt><trkpt lat="45.71091757384759" lon="9.798826245530613"><ele>405.0</ele><time>2026-04-11T08:55:09Z</time></trkpt><trkpt lat="45.71090399016071" lon="9.79896313279286"><ele>405.0</ele><time>2026-04-11T08:55:10Z</time></trkpt><trkpt lat="45.7109052363414" lon="9.799088336998262"><ele>405.0</ele><time>2026-04-11T08:55:11Z</time></trkpt><trkpt lat="45.710910514065766" lon="9.799212955715802"><ele>405.0</ele><time>2026-04-11T08:55:12Z</time></trkpt><trkpt lat="45.71093659891132" lon="9.799332967523753"><ele>405.0</ele><time>2026-04-11T08:55:13Z</time></trkpt><trkpt lat="45.710971548703526" lon="9.799435596697009"><ele>405.0</ele><time>2026-04-11T08:55:14Z</time></trkpt><trkpt lat="45.71099425473668" lon="9.799543676323044"><ele>405.0</ele><time>2026-04-11T08:55:15Z</time></trkpt><trkpt lat="45.71100862638915" lon="9.79966580419529"><ele>404.3333333333333</ele><time>2026-04-11T08:55:16Z</time></trkpt><trkpt lat="45.711009110608316" lon="9.799770369839488"><ele>403.66666666666663</ele><time>2026-04-11T08:55:17Z</time></trkpt><trkpt lat="45.71099197420869" lon="9.799892075449849"><ele>403.0</ele><time>2026-04-11T08:55:18Z</time></trkpt><trkpt lat="45.7109708792403" lon="9.800010756366092"><ele>402.3333333333333</ele><time>2026-04-11T08:55:19Z</time></trkpt><trkpt lat="45.710963429962" lon="9.800127137770982"><ele>401.66666666666663</ele><time>2026-04-11T08:55:20Z</time></trkpt><trkpt lat="45.71093027403105" lon="9.800234043305533"><ele>401.0</ele><time>2026-04-11T08:55:21Z</time></trkpt><trkpt lat="45.71090243967555" lon="9.800342820111759"><ele>400.16666666666663</ele><time>2026-04-11T08:55:22Z</time></trkpt><trkpt lat="45.710877843601295" lon="9.800447173228074"><ele>399.3333333333333</ele><time>2026-04-11T08:55:23Z</time></trkpt><trkpt lat="45.710857062033774" lon="9.800557365674308"><ele>398.5</ele><time>2026-04-11T08:55:24Z</time></trkpt><trkpt lat="45.71084333847912" lon="9.800663401660612"><ele>397.66666666666663</ele><time>2026-04-11T08:55:25Z</time></trkpt><trkpt lat="45.710857670317516" lon="9.80078385015923"><ele>396.8333333333333</ele><time>2026-04-11T08:55:26Z</time></trkpt><trkpt lat="45.71088365088126" lon="9.800907490726345"><ele>396.0</ele><time>2026-04-11T08:55:27Z</time></trkpt><trkpt lat="45.71091126373981" lon="9.80104237385486"><ele>396.0</ele><time>2026-04-11T08:55:28Z</time></trkpt><trkpt lat="45.71095360885227" lon="9.801184411114523"><ele>396.0</ele><time>2026-04-11T08:55:29Z</time></trkpt><trkpt lat="45.71102416608893" lon="9.801314674298043"><ele>396.0</ele><time>2026-04-11T08:55:30Z</time></trkpt><trkpt lat="45.71110942353596" lon="9.801425934686124"><ele>396.0</ele><time>2026-04-11T08:55:31Z</time></trkpt><trkpt lat="45.71121139368801" lon="9.80151601377182"><ele>393.75</ele><time>2026-04-11T08:55:32Z</time></trkpt><trkpt lat="45.711320862502156" lon="9.801598919428587"><ele>391.5</ele><time>2026-04-11T08:55:33Z</time></trkpt><trkpt lat="45.71143112834379" lon="9.80168577033744"><ele>389.25</ele><time>2026-04-11T08:55:34Z</time></trkpt><trkpt lat="45.71154205326959" lon="9.80178469685119"><ele>387.0</ele><time>2026-04-11T08:55:35Z</time></trkpt><trkpt lat="45.71164969934818" lon="9.801892530887175"><ele>387.0</ele><time>2026-04-11T08:55:36Z</time></trkpt><trkpt lat="45.71175120309811" lon="9.802005508195688"><ele>387.0</ele><time>2026-04-11T08:55:37Z</time></trkpt><trkpt lat="45.711843535396774" lon="9.802139679741614"><ele>387.0</ele><time>2026-04-11T08:55:38Z</time></trkpt><trkpt lat="45.711918286118" lon="9.802292472604595"><ele>387.0</ele><time>2026-04-11T08:55:39Z</time></trkpt><trkpt lat="45.71198623601172" lon="9.8024631340705"><ele>381.25</ele><time>2026-04-11T08:55:40Z</time></trkpt><trkpt lat="45.712054043607004" lon="9.802640755949433"><ele>375.5</ele><time>2026-04-11T08:55:41Z</time></trkpt><trkpt lat="45.71212519953237" lon="9.80281941579992"><ele>369.75</ele><time>2026-04-11T08:55:42Z</time></trkpt><trkpt lat="45.71218630843882" lon="9.802986892740295"><ele>364.0</ele><time>2026-04-11T08:55:43Z</time></trkpt><trkpt lat="45.71223161482818" lon="9.80313926412793"><ele>364.0</ele><time>2026-04-11T08:55:44Z</time></trkpt><trkpt lat="45.71225535227329" lon="9.803281808626155"><ele>364.0</ele><time>2026-04-11T08:55:45Z</time></trkpt><trkpt lat="45.71226341443703" lon="9.803399232817828"><ele>364.0</ele><time>2026-04-11T08:55:46Z</time></trkpt><trkpt lat="45.712293171705916" lon="9.803488794359895"><ele>364.0</ele><time>2026-04-11T08:55:47Z</time></trkpt><trkpt lat="45.712358870282614" lon="9.803528833451464"><ele>364.0</ele><time>2026-04-11T08:55:48Z</time></trkpt><trkpt lat="45.71243482008182" lon="9.80349238106017"><ele>364.0</ele><time>2026-04-11T08:55:49Z</time></trkpt><trkpt lat="45.71248856148379" lon="9.803395143182724"><ele>364.0</ele><time>2026-04-11T08:55:50Z</time></trkpt><trkpt lat="45.71250162450923" lon="9.803260935108673"><ele>364.0</ele><time>2026-04-11T08:55:51Z</time></trkpt><trkpt lat="45.7124631214939" lon="9.803125694876291"><ele>364.0</ele><time>2026-04-11T08:55:52Z</time></trkpt><trkpt lat="45.71239288069945" lon="9.803017426835247"><ele>364.0</ele><time>2026-04-11T08:55:53Z</time></trkpt><trkpt lat="45.712327161192334" lon="9.80291658726479"><ele>364.0</ele><time>2026-04-11T08:55:54Z</time></trkpt><trkpt lat="45.71232546670195" lon="9.802796073647075"><ele>364.0</ele><time>2026-04-11T08:55:55Z</time></trkpt><trkpt lat="45.71237595823167" lon="9.802718868759923"><ele>364.0</ele><time>2026-04-11T08:55:56Z</time></trkpt><trkpt lat="45.712461464781" lon="9.802713443070711"><ele>364.0</ele><time>2026-04-11T08:55:57Z</time></trkpt><trkpt lat="45.712531169608596" lon="9.802779497516896"><ele>364.0</ele><time>2026-04-11T08:55:58Z</time></trkpt><trkpt lat="45.71258055831822" lon="9.802881853829932"><ele>364.0</ele><time>2026-04-11T08:55:59Z</time></trkpt><trkpt lat="45.71262659403574" lon="9.802984661297902"><ele>364.0</ele><time>2026-04-11T08:56:00Z</time></trkpt><trkpt lat="45.71267542526002" lon="9.803096478552757"><ele>364.0</ele><time>2026-04-11T08:56:01Z</time></trkpt><trkpt lat="45.71271980897473" lon="9.803225391335598"><ele>364.0</ele><time>2026-04-11T08:56:02Z</time></trkpt><trkpt lat="45.71274364037503" lon="9.803373083966743"><ele>364.0</ele><time>2026-04-11T08:56:03Z</time></trkpt><trkpt lat="45.71275773759407" lon="9.803528644911275"><ele>364.0</ele><time>2026-04-11T08:56:04Z</time></trkpt><trkpt lat="45.71277101079233" lon="9.803694944063675"><ele>364.0</ele><time>2026-04-11T08:56:05Z</time></trkpt><trkpt lat="45.712781774995705" lon="9.803870360504648"><ele>359.0</ele><time>2026-04-11T08:56:06Z</time></trkpt><trkpt lat="45.712795259202124" lon="9.804053537517095"><ele>354.0</ele><time>2026-04-11T08:56:07Z</time></trkpt><trkpt lat="45.712810851752195" lon="9.804245267340216"><ele>349.0</ele><time>2026-04-11T08:56:08Z</time></trkpt><trkpt lat="45.71282141166945" lon="9.804439264128748"><ele>344.0</ele><time>2026-04-11T08:56:09Z</time></trkpt><trkpt lat="45.71283059561783" lon="9.804640876119247"><ele>343.0</ele><time>2026-04-11T08:56:10Z</time></trkpt><trkpt lat="45.71284596411278" lon="9.804848137266607"><ele>342.0</ele><time>2026-04-11T08:56:11Z</time></trkpt><trkpt lat="45.71285525703358" lon="9.805059971532392"><ele>341.0</ele><time>2026-04-11T08:56:12Z</time></trkpt><trkpt lat="45.712856437279704" lon="9.805272578703997"><ele>340.0</ele><time>2026-04-11T08:56:13Z</time></trkpt><trkpt lat="45.712860525275445" lon="9.80549451603557"><ele>339.25</ele><time>2026-04-11T08:56:14Z</time></trkpt><trkpt lat="45.71286227782847" lon="9.80571551583247"><ele>338.5</ele><time>2026-04-11T08:56:15Z</time></trkpt><trkpt lat="45.71286654715658" lon="9.805929973892752"><ele>337.75</ele><time>2026-04-11T08:56:16Z</time></trkpt><trkpt lat="45.71287827381979" lon="9.806133573808546"><ele>337.0</ele><time>2026-04-11T08:56:17Z</time></trkpt><trkpt lat="45.712891857321516" lon="9.806326027706948"><ele>337.0</ele><time>2026-04-11T08:56:18Z</time></trkpt><trkpt lat="45.712900586202046" lon="9.806517089842574"><ele>337.0</ele><time>2026-04-11T08:56:19Z</time></trkpt><trkpt lat="45.712907607254294" lon="9.806691496627286"><ele>337.0</ele><time>2026-04-11T08:56:20Z</time></trkpt><trkpt lat="45.71291800016645" lon="9.80687316172779"><ele>337.0</ele><time>2026-04-11T08:56:21Z</time></trkpt><trkpt lat="45.71293214323339" lon="9.80704547924729"><ele>337.0</ele><time>2026-04-11T08:56:22Z</time></trkpt><trkpt lat="45.71294584396447" lon="9.807216204723892"><ele>337.0</ele><time>2026-04-11T08:56:23Z</time></trkpt><trkpt lat="45.71295758842657" lon="9.807384912326839"><ele>337.0</ele><time>2026-04-11T08:56:24Z</time></trkpt><trkpt lat="45.712964006379835" lon="9.80754862776355"><ele>337.0</ele><time>2026-04-11T08:56:25Z</time></trkpt><trkpt lat="45.71297370360476" lon="9.807713050050795"><ele>336.6</ele><time>2026-04-11T08:56:26Z</time></trkpt><trkpt lat="45.71298517184257" lon="9.807873472784506"><ele>336.20000000000005</ele><time>2026-04-11T08:56:27Z</time></trkpt><trkpt lat="45.71299649237318" lon="9.808031821561109"><ele>335.8</ele><time>2026-04-11T08:56:28Z</time></trkpt><trkpt lat="45.71300355616737" lon="9.808189261439022"><ele>335.4</ele><time>2026-04-11T08:56:29Z</time></trkpt><trkpt lat="45.71301249188974" lon="9.808342452733703"><ele>335.0</ele><time>2026-04-11T08:56:30Z</time></trkpt><trkpt lat="45.713021860956" lon="9.808496490454294"><ele>334.2</ele><time>2026-04-11T08:56:31Z</time></trkpt><trkpt lat="45.71303194157172" lon="9.80864724889738"><ele>333.4</ele><time>2026-04-11T08:56:32Z</time></trkpt><trkpt lat="45.71304207522187" lon="9.808795821801398"><ele>332.6</ele><time>2026-04-11T08:56:33Z</time></trkpt><trkpt lat="45.71305352201904" lon="9.80894321716439"><ele>331.8</ele><time>2026-04-11T08:56:34Z</time></trkpt><trkpt lat="45.71306274209381" lon="9.809088603443028"><ele>331.0</ele><time>2026-04-11T08:56:35Z</time></trkpt><trkpt lat="45.71306915689438" lon="9.809230834887785"><ele>330.8</ele><time>2026-04-11T08:56:36Z</time></trkpt><trkpt lat="45.71307576617542" lon="9.809372386663876"><ele>330.6</ele><time>2026-04-11T08:56:37Z</time></trkpt><trkpt lat="45.71307379970857" lon="9.809511859548794"><ele>330.4</ele><time>2026-04-11T08:56:38Z</time></trkpt><trkpt lat="45.71305935979564" lon="9.809646952580719"><ele>330.2</ele><time>2026-04-11T08:56:39Z</time></trkpt><trkpt lat="45.71302879194211" lon="9.809778390908571"><ele>330.0</ele><time>2026-04-11T08:56:40Z</time></trkpt><trkpt lat="45.71298341881293" lon="9.809896706518598"><ele>330.0</ele><time>2026-04-11T08:56:41Z</time></trkpt><trkpt lat="45.712933490587766" lon="9.810007011222003"><ele>330.0</ele><time>2026-04-11T08:56:42Z</time></trkpt><trkpt lat="45.7128746514404" lon="9.810107997258427"><ele>330.0</ele><time>2026-04-11T08:56:43Z</time></trkpt><trkpt lat="45.712816806277104" lon="9.810199862539314"><ele>330.0</ele><time>2026-04-11T08:56:44Z</time></trkpt><trkpt lat="45.7127540796193" lon="9.810291386285934"><ele>330.0</ele><time>2026-04-11T08:56:45Z</time></trkpt><trkpt lat="45.71269210735267" lon="9.810374627468043"><ele>330.0</ele><time>2026-04-11T08:56:46Z</time></trkpt><trkpt lat="45.71263157055519" lon="9.810460750828819"><ele>329.5</ele><time>2026-04-11T08:56:47Z</time></trkpt><trkpt lat="45.71257183642829" lon="9.810542079560674"><ele>329.0</ele><time>2026-04-11T08:56:48Z</time></trkpt><trkpt lat="45.71250963449688" lon="9.810630489799307"><ele>328.5</ele><time>2026-04-11T08:56:49Z</time></trkpt><trkpt lat="45.7124545154526" lon="9.810718006180485"><ele>328.0</ele><time>2026-04-11T08:56:50Z</time></trkpt><trkpt lat="45.712393798014446" lon="9.81080141609329"><ele>327.5</ele><time>2026-04-11T08:56:51Z</time></trkpt><trkpt lat="45.712332192955195" lon="9.810884440260095"><ele>327.0</ele><time>2026-04-11T08:56:52Z</time></trkpt><trkpt lat="45.7122770456932" lon="9.810974454217316"><ele>327.0</ele><time>2026-04-11T08:56:53Z</time></trkpt><trkpt lat="45.71220079794061" lon="9.811052702081241"><ele>327.0</ele><time>2026-04-11T08:56:54Z</time></trkpt><trkpt lat="45.712154402082845" lon="9.811150834248984"><ele>327.0</ele><time>2026-04-11T08:56:55Z</time></trkpt><trkpt lat="45.712092005504076" lon="9.811233414203217"><ele>327.0</ele><time>2026-04-11T08:56:56Z</time></trkpt><trkpt lat="45.71203293033618" lon="9.811323439558326"><ele>327.0</ele><time>2026-04-11T08:56:57Z</time></trkpt><trkpt lat="45.7119720183111" lon="9.811410974618223"><ele>327.0</ele><time>2026-04-11T08:56:58Z</time></trkpt><trkpt lat="45.71191331616028" lon="9.81149863560074"><ele>326.8333333333333</ele><time>2026-04-11T08:56:59Z</time></trkpt><trkpt lat="45.711852848921346" lon="9.81158711528239"><ele>326.6666666666667</ele><time>2026-04-11T08:57:00Z</time></trkpt><trkpt lat="45.711794572783646" lon="9.81167759174255"><ele>326.5</ele><time>2026-04-11T08:57:01Z</time></trkpt><trkpt lat="45.711734300940364" lon="9.811765938528941"><ele>326.33333333333337</ele><time>2026-04-11T08:57:02Z</time></trkpt><trkpt lat="45.711676372066925" lon="9.81186096895153"><ele>326.1666666666667</ele><time>2026-04-11T08:57:03Z</time></trkpt><trkpt lat="45.7116203177039" lon="9.811957488516654"><ele>326.0</ele><time>2026-04-11T08:57:04Z</time></trkpt><trkpt lat="45.711562690250226" lon="9.812055892161453"><ele>325.4</ele><time>2026-04-11T08:57:05Z</time></trkpt><trkpt lat="45.711505856835515" lon="9.812160894551683"><ele>324.8</ele><time>2026-04-11T08:57:06Z</time></trkpt><trkpt lat="45.711451079266745" lon="9.812260402825355"><ele>324.2</ele><time>2026-04-11T08:57:07Z</time></trkpt><trkpt lat="45.711397732826825" lon="9.812374148774438"><ele>323.59999999999997</ele><time>2026-04-11T08:57:08Z</time></trkpt><trkpt lat="45.711344740553145" lon="9.812486563423425"><ele>323.0</ele><time>2026-04-11T08:57:09Z</time></trkpt><trkpt lat="45.71129919270602" lon="9.812610334154389"><ele>323.2</ele><time>2026-04-11T08:57:10Z</time></trkpt><trkpt lat="45.711249006961104" lon="9.812729756009558"><ele>323.4</ele><time>2026-04-11T08:57:11Z</time></trkpt><trkpt lat="45.71119275420598" lon="9.812850810172419"><ele>323.59999999999997</ele><time>2026-04-11T08:57:12Z</time></trkpt><trkpt lat="45.71113570747105" lon="9.812970809313803"><ele>323.79999999999995</ele><time>2026-04-11T08:57:13Z</time></trkpt><trkpt lat="45.71108271568893" lon="9.81309121103168"><ele>324.0</ele><time>2026-04-11T08:57:14Z</time></trkpt><trkpt lat="45.71103067207423" lon="9.813210677823125"><ele>323.0</ele><time>2026-04-11T08:57:15Z</time></trkpt><trkpt lat="45.7109816230407" lon="9.813329518665478"><ele>322.0</ele><time>2026-04-11T08:57:16Z</time></trkpt><trkpt lat="45.710928501888326" lon="9.813441399185695"><ele>321.0</ele><time>2026-04-11T08:57:17Z</time></trkpt><trkpt lat="45.71088047018775" lon="9.813563117860491"><ele>320.0</ele><time>2026-04-11T08:57:18Z</time></trkpt><trkpt lat="45.710830133235625" lon="9.813672788641686"><ele>319.0</ele><time>2026-04-11T08:57:19Z</time></trkpt><trkpt lat="45.71078245472614" lon="9.813787399330161"><ele>318.8333333333333</ele><time>2026-04-11T08:57:20Z</time></trkpt><trkpt lat="45.710733477579" lon="9.813898323274206"><ele>318.66666666666663</ele><time>2026-04-11T08:57:21Z</time></trkpt><trkpt lat="45.71068504021342" lon="9.814007519673511"><ele>318.5</ele><time>2026-04-11T08:57:22Z</time></trkpt><trkpt lat="45.71063840631676" lon="9.81411675910391"><ele>318.3333333333333</ele><time>2026-04-11T08:57:23Z</time></trkpt><trkpt lat="45.71059115926669" lon="9.81422382287297"><ele>318.1666666666667</ele><time>2026-04-11T08:57:24Z</time></trkpt><trkpt lat="45.710547873836134" lon="9.814330504221674"><ele>318.0</ele><time>2026-04-11T08:57:25Z</time></trkpt><trkpt lat="45.71050539065386" lon="9.814437902863041"><ele>318.0</ele><time>2026-04-11T08:57:26Z</time></trkpt><trkpt lat="45.710464943434424" lon="9.814545206569568"><ele>318.0</ele><time>2026-04-11T08:57:27Z</time></trkpt><trkpt lat="45.71043065430735" lon="9.814654993205096"><ele>318.0</ele><time>2026-04-11T08:57:28Z</time></trkpt><trkpt lat="45.710396542701176" lon="9.814764850503659"><ele>318.0</ele><time>2026-04-11T08:57:29Z</time></trkpt><trkpt lat="45.71036681610628" lon="9.81487532435568"><ele>318.0</ele><time>2026-04-11T08:57:30Z</time></trkpt><trkpt lat="45.71034409360756" lon="9.814990405413472"><ele>318.0</ele><time>2026-04-11T08:57:31Z</time></trkpt><trkpt lat="45.710322797798995" lon="9.815109719426584"><ele>318.1666666666667</ele><time>2026-04-11T08:57:32Z</time></trkpt><trkpt lat="45.71030607355466" lon="9.815228744906305"><ele>318.3333333333333</ele><time>2026-04-11T08:57:33Z</time></trkpt><trkpt lat="45.71028542820197" lon="9.81535213310503"><ele>318.5</ele><time>2026-04-11T08:57:34Z</time></trkpt><trkpt lat="45.710264084696675" lon="9.81547526186702"><ele>318.66666666666663</ele><time>2026-04-11T08:57:35Z</time></trkpt><trkpt lat="45.71024065575014" lon="9.815597954365375"><ele>318.8333333333333</ele><time>2026-04-11T08:57:36Z</time></trkpt><trkpt lat="45.710222817571086" lon="9.815724217220543"><ele>319.0</ele><time>2026-04-11T08:57:37Z</time></trkpt><trkpt lat="45.710202357611614" lon="9.815849092815364"><ele>318.3333333333333</ele><time>2026-04-11T08:57:38Z</time></trkpt><trkpt lat="45.71018228020052" lon="9.815975553544513"><ele>317.66666666666663</ele><time>2026-04-11T08:57:39Z</time></trkpt><trkpt lat="45.71016284568835" lon="9.8161018784654"><ele>317.0</ele><time>2026-04-11T08:57:40Z</time></trkpt><trkpt lat="45.710150177537884" lon="9.816228046412101"><ele>316.3333333333333</ele><time>2026-04-11T08:57:41Z</time></trkpt><trkpt lat="45.71014058334957" lon="9.816354782227679"><ele>315.6666666666667</ele><time>2026-04-11T08:57:42Z</time></trkpt><trkpt lat="45.71013553643462" lon="9.816481306553518"><ele>315.0</ele><time>2026-04-11T08:57:43Z</time></trkpt><trkpt lat="45.71013416232017" lon="9.816608330158658"><ele>314.6666666666667</ele><time>2026-04-11T08:57:44Z</time></trkpt><trkpt lat="45.71013505962677" lon="9.816735718389296"><ele>314.3333333333333</ele><time>2026-04-11T08:57:45Z</time></trkpt><trkpt lat="45.710136868925616" lon="9.816860856194745"><ele>314.0</ele><time>2026-04-11T08:57:46Z</time></trkpt><trkpt lat="45.71014129161449" lon="9.81698138627852"><ele>313.66666666666663</ele><time>2026-04-11T08:57:47Z</time></trkpt><trkpt lat="45.71014599699224" lon="9.817103612788031"><ele>313.3333333333333</ele><time>2026-04-11T08:57:48Z</time></trkpt><trkpt lat="45.710148380841545" lon="9.817225778023632"><ele>313.0</ele><time>2026-04-11T08:57:49Z</time></trkpt><trkpt lat="45.71015211843713" lon="9.817347639732033"><ele>313.0</ele><time>2026-04-11T08:57:50Z</time></trkpt><trkpt lat="45.7101541152546" lon="9.817465561873567"><ele>313.0</ele><time>2026-04-11T08:57:51Z</time></trkpt><trkpt lat="45.710155548029604" lon="9.8175845609534"><ele>313.0</ele><time>2026-04-11T08:57:52Z</time></trkpt><trkpt lat="45.71015807688727" lon="9.81770324434428"><ele>313.0</ele><time>2026-04-11T08:57:53Z</time></trkpt><trkpt lat="45.71016183753737" lon="9.817820390063597"><ele>313.0</ele><time>2026-04-11T08:57:54Z</time></trkpt><trkpt lat="45.71016392360617" lon="9.817936290545912"><ele>313.0</ele><time>2026-04-11T08:57:55Z</time></trkpt><trkpt lat="45.71016706725958" lon="9.81805299824367"><ele>313.0</ele><time>2026-04-11T08:57:56Z</time></trkpt><trkpt lat="45.71016995153001" lon="9.818167178536433"><ele>313.0</ele><time>2026-04-11T08:57:57Z</time></trkpt><trkpt lat="45.71016549728225" lon="9.818280274908389"><ele>313.0</ele><time>2026-04-11T08:57:58Z</time></trkpt><trkpt lat="45.71016964576333" lon="9.818392036178054"><ele>313.0</ele><time>2026-04-11T08:57:59Z</time></trkpt><trkpt lat="45.710175401524886" lon="9.818500653453867"><ele>313.0</ele><time>2026-04-11T08:58:00Z</time></trkpt><trkpt lat="45.71017946055446" lon="9.818612816104462"><ele>313.0</ele><time>2026-04-11T08:58:01Z</time></trkpt><trkpt lat="45.710182833949" lon="9.818715454916179"><ele>313.0</ele><time>2026-04-11T08:58:02Z</time></trkpt><trkpt lat="45.71018406987971" lon="9.818816669825427"><ele>313.0</ele><time>2026-04-11T08:58:03Z</time></trkpt><trkpt lat="45.710187184213794" lon="9.818912636336139"><ele>313.0</ele><time>2026-04-11T08:58:04Z</time></trkpt><trkpt lat="45.71018937870911" lon="9.819005482830354"><ele>313.0</ele><time>2026-04-11T08:58:05Z</time></trkpt><trkpt lat="45.710193549014896" lon="9.819180801660481"><ele>313.0</ele><time>2026-04-11T08:58:07Z</time></trkpt><trkpt lat="45.710194922737635" lon="9.819358055515098"><ele>313.0</ele><time>2026-04-11T08:58:09Z</time></trkpt><trkpt lat="45.71020288394863" lon="9.81953386058827"><ele>313.2</ele><time>2026-04-11T08:58:11Z</time></trkpt><trkpt lat="45.71020719927522" lon="9.819626259284114"><ele>313.4</ele><time>2026-04-11T08:58:12Z</time></trkpt><trkpt lat="45.710211573155014" lon="9.819797760922771"><ele>313.59999999999997</ele><time>2026-04-11T08:58:14Z</time></trkpt><trkpt lat="45.710217942672564" lon="9.8199743706457"><ele>313.8</ele><time>2026-04-11T08:58:16Z</time></trkpt><trkpt lat="45.7102252307378" lon="9.820147483724044"><ele>314.0</ele><time>2026-04-11T08:58:18Z</time></trkpt><trkpt lat="45.71023026439018" lon="9.820321947810722"><ele>314.5</ele><time>2026-04-11T08:58:20Z</time></trkpt><trkpt lat="45.710229803104234" lon="9.820495636858448"><ele>315.0</ele><time>2026-04-11T08:58:22Z</time></trkpt><trkpt lat="45.71023506425447" lon="9.820670878137891"><ele>315.5</ele><time>2026-04-11T08:58:24Z</time></trkpt><trkpt lat="45.71023825853288" lon="9.82083991459979"><ele>316.0</ele><time>2026-04-11T08:58:26Z</time></trkpt><trkpt lat="45.71024357441819" lon="9.821008156227697"><ele>317.0</ele><time>2026-04-11T08:58:28Z</time></trkpt><trkpt lat="45.710242210627314" lon="9.821173690661878"><ele>318.0</ele><time>2026-04-11T08:58:30Z</time></trkpt><trkpt lat="45.71023162775089" lon="9.82134015917503"><ele>319.0</ele><time>2026-04-11T08:58:32Z</time></trkpt><trkpt lat="45.71022306985931" lon="9.82150993174604"><ele>320.0</ele><time>2026-04-11T08:58:34Z</time></trkpt><trkpt lat="45.710205225738534" lon="9.821680782969679"><ele>320.5</ele><time>2026-04-11T08:58:36Z</time></trkpt><trkpt lat="45.71018891546376" lon="9.821847177563269"><ele>321.0</ele><time>2026-04-11T08:58:38Z</time></trkpt><trkpt lat="45.71016380969127" lon="9.822017633298241"><ele>321.5</ele><time>2026-04-11T08:58:40Z</time></trkpt><trkpt lat="45.710136123108256" lon="9.822188753982958"><ele>322.0</ele><time>2026-04-11T08:58:42Z</time></trkpt><trkpt lat="45.71011304620456" lon="9.822360811001174"><ele>322.0</ele><time>2026-04-11T08:58:44Z</time></trkpt><trkpt lat="45.710101431364514" lon="9.822449880125209"><ele>322.0</ele><time>2026-04-11T08:58:45Z</time></trkpt><trkpt lat="45.71008700953123" lon="9.822537685795139"><ele>322.0</ele><time>2026-04-11T08:58:46Z</time></trkpt><trkpt lat="45.71007431977051" lon="9.822626295893874"><ele>322.0</ele><time>2026-04-11T08:58:47Z</time></trkpt><trkpt lat="45.710060288145684" lon="9.822717112617454"><ele>322.0</ele><time>2026-04-11T08:58:48Z</time></trkpt><trkpt lat="45.71004744167215" lon="9.822807337021818"><ele>322.0</ele><time>2026-04-11T08:58:49Z</time></trkpt><trkpt lat="45.710036311566704" lon="9.822898304664886"><ele>322.0</ele><time>2026-04-11T08:58:50Z</time></trkpt><trkpt lat="45.71002322094603" lon="9.822987583038621"><ele>322.0</ele><time>2026-04-11T08:58:51Z</time></trkpt><trkpt lat="45.71000665711952" lon="9.8230811171601"><ele>322.0</ele><time>2026-04-11T08:58:52Z</time></trkpt><trkpt lat="45.70999377193941" lon="9.82317046296576"><ele>322.0</ele><time>2026-04-11T08:58:53Z</time></trkpt><trkpt lat="45.709973326689656" lon="9.823258143923729"><ele>322.0</ele><time>2026-04-11T08:58:54Z</time></trkpt><trkpt lat="45.709930809131244" lon="9.823438595740651"><ele>322.0</ele><time>2026-04-11T08:58:56Z</time></trkpt><trkpt lat="45.7098880539655" lon="9.823608513650003"><ele>322.0</ele><time>2026-04-11T08:58:58Z</time></trkpt><trkpt lat="45.709871707193805" lon="9.823704734298788"><ele>321.8333333333333</ele><time>2026-04-11T08:58:59Z</time></trkpt><trkpt lat="45.70984321614602" lon="9.82388675261306"><ele>321.66666666666663</ele><time>2026-04-11T08:59:01Z</time></trkpt><trkpt lat="45.709830881576416" lon="9.823980361430749"><ele>321.5</ele><time>2026-04-11T08:59:02Z</time></trkpt><trkpt lat="45.709817954284716" lon="9.82407128425068"><ele>321.3333333333333</ele><time>2026-04-11T08:59:03Z</time></trkpt><trkpt lat="45.70980197622723" lon="9.824166450506452"><ele>321.1666666666667</ele><time>2026-04-11T08:59:04Z</time></trkpt><trkpt lat="45.70978134973815" lon="9.824256538950388"><ele>321.0</ele><time>2026-04-11T08:59:05Z</time></trkpt><trkpt lat="45.70975712707553" lon="9.82434871727012"><ele>320.8333333333333</ele><time>2026-04-11T08:59:06Z</time></trkpt><trkpt lat="45.7097271142741" lon="9.824441012349043"><ele>320.6666666666667</ele><time>2026-04-11T08:59:07Z</time></trkpt><trkpt lat="45.709691602717335" lon="9.824529196844779"><ele>320.5</ele><time>2026-04-11T08:59:08Z</time></trkpt><trkpt lat="45.709654376806526" lon="9.824623849889708"><ele>320.33333333333337</ele><time>2026-04-11T08:59:09Z</time></trkpt><trkpt lat="45.709618315895945" lon="9.824721332030776"><ele>320.1666666666667</ele><time>2026-04-11T08:59:10Z</time></trkpt><trkpt lat="45.7095826894482" lon="9.824821734881544"><ele>320.0</ele><time>2026-04-11T08:59:11Z</time></trkpt><trkpt lat="45.70954391229552" lon="9.824923338770953"><ele>320.0</ele><time>2026-04-11T08:59:12Z</time></trkpt><trkpt lat="45.709506577957306" lon="9.82502724134581"><ele>320.0</ele><time>2026-04-11T08:59:13Z</time></trkpt><trkpt lat="45.70946488422571" lon="9.825132298667564"><ele>320.0</ele><time>2026-04-11T08:59:14Z</time></trkpt><trkpt lat="45.709421055224645" lon="9.82523800379856"><ele>320.0</ele><time>2026-04-11T08:59:15Z</time></trkpt><trkpt lat="45.70938043477762" lon="9.825344524899862"><ele>320.0</ele><time>2026-04-11T08:59:16Z</time></trkpt><trkpt lat="45.709335251509074" lon="9.82545252775183"><ele>320.0</ele><time>2026-04-11T08:59:17Z</time></trkpt><trkpt lat="45.709288255086186" lon="9.825562689640055"><ele>319.0</ele><time>2026-04-11T08:59:18Z</time></trkpt><trkpt lat="45.70924438378824" lon="9.82567236144008"><ele>318.0</ele><time>2026-04-11T08:59:19Z</time></trkpt><trkpt lat="45.709198429098244" lon="9.82578567451408"><ele>317.0</ele><time>2026-04-11T08:59:20Z</time></trkpt><trkpt lat="45.70914124263335" lon="9.825894052145266"><ele>316.0</ele><time>2026-04-11T08:59:21Z</time></trkpt><trkpt lat="45.709086305170295" lon="9.825997885234244"><ele>315.0</ele><time>2026-04-11T08:59:22Z</time></trkpt><trkpt lat="45.70902853263194" lon="9.826104689189652"><ele>314.4</ele><time>2026-04-11T08:59:23Z</time></trkpt><trkpt lat="45.70897252706804" lon="9.826207944385121"><ele>313.8</ele><time>2026-04-11T08:59:24Z</time></trkpt><trkpt lat="45.70891824797451" lon="9.82631404730971"><ele>313.2</ele><time>2026-04-11T08:59:25Z</time></trkpt><trkpt lat="45.70886009725309" lon="9.826416160564538"><ele>312.6</ele><time>2026-04-11T08:59:26Z</time></trkpt><trkpt lat="45.70880179420718" lon="9.826517712622179"><ele>312.0</ele><time>2026-04-11T08:59:27Z</time></trkpt><trkpt lat="45.70874189682033" lon="9.82661594787183"><ele>312.0</ele><time>2026-04-11T08:59:28Z</time></trkpt><trkpt lat="45.70868484752335" lon="9.82671763201312"><ele>312.0</ele><time>2026-04-11T08:59:29Z</time></trkpt><trkpt lat="45.708628704507134" lon="9.826821982790895"><ele>312.0</ele><time>2026-04-11T08:59:30Z</time></trkpt><trkpt lat="45.70857056092821" lon="9.82692528741882"><ele>312.0</ele><time>2026-04-11T08:59:31Z</time></trkpt><trkpt lat="45.708513153394804" lon="9.827027992194573"><ele>312.0</ele><time>2026-04-11T08:59:32Z</time></trkpt><trkpt lat="45.70845722527461" lon="9.827134295095876"><ele>311.0</ele><time>2026-04-11T08:59:33Z</time></trkpt><trkpt lat="45.708397749091375" lon="9.82724011309161"><ele>310.0</ele><time>2026-04-11T08:59:34Z</time></trkpt><trkpt lat="45.70833623693806" lon="9.827347279664163"><ele>309.0</ele><time>2026-04-11T08:59:35Z</time></trkpt><trkpt lat="45.70827395970935" lon="9.827453268563675"><ele>308.0</ele><time>2026-04-11T08:59:36Z</time></trkpt><trkpt lat="45.7082075715836" lon="9.827562446253383"><ele>307.0</ele><time>2026-04-11T08:59:37Z</time></trkpt><trkpt lat="45.70813556413186" lon="9.827665852415647"><ele>306.4</ele><time>2026-04-11T08:59:38Z</time></trkpt><trkpt lat="45.708056692436365" lon="9.827762163077507"><ele>305.79999999999995</ele><time>2026-04-11T08:59:39Z</time></trkpt><trkpt lat="45.70797199933964" lon="9.82785239199499"><ele>305.2</ele><time>2026-04-11T08:59:40Z</time></trkpt><trkpt lat="45.707889341181726" lon="9.827942884276334"><ele>304.59999999999997</ele><time>2026-04-11T08:59:41Z</time></trkpt><trkpt lat="45.70780806632275" lon="9.828029719079048"><ele>304.0</ele><time>2026-04-11T08:59:42Z</time></trkpt><trkpt lat="45.707720044956965" lon="9.828117038812444"><ele>304.0</ele><time>2026-04-11T08:59:43Z</time></trkpt><trkpt lat="45.70763491538246" lon="9.828199988042783"><ele>304.0</ele><time>2026-04-11T08:59:44Z</time></trkpt><trkpt lat="45.70754811791789" lon="9.828285740627688"><ele>304.0</ele><time>2026-04-11T08:59:45Z</time></trkpt><trkpt lat="45.70745796108963" lon="9.82836972148574"><ele>304.0</ele><time>2026-04-11T08:59:46Z</time></trkpt><trkpt lat="45.70737127578866" lon="9.828455694304637"><ele>304.0</ele><time>2026-04-11T08:59:47Z</time></trkpt><trkpt lat="45.707282346366355" lon="9.828540196417697"><ele>303.59999999999997</ele><time>2026-04-11T08:59:48Z</time></trkpt><trkpt lat="45.70719200415955" lon="9.8286236920593"><ele>303.2</ele><time>2026-04-11T08:59:49Z</time></trkpt><trkpt lat="45.70710533005984" lon="9.828712224166972"><ele>302.79999999999995</ele><time>2026-04-11T08:59:50Z</time></trkpt><trkpt lat="45.707016108258316" lon="9.828804646854254"><ele>302.4</ele><time>2026-04-11T08:59:51Z</time></trkpt><trkpt lat="45.706926009239695" lon="9.828882448062787"><ele>302.0</ele><time>2026-04-11T08:59:52Z</time></trkpt><trkpt lat="45.706838210379665" lon="9.828970227635141"><ele>301.4</ele><time>2026-04-11T08:59:53Z</time></trkpt><trkpt lat="45.706750635527165" lon="9.829061368858449"><ele>300.79999999999995</ele><time>2026-04-11T08:59:54Z</time></trkpt><trkpt lat="45.70666304283715" lon="9.8291495559388"><ele>300.2</ele><time>2026-04-11T08:59:55Z</time></trkpt><trkpt lat="45.7065726878781" lon="9.829238226125181"><ele>299.59999999999997</ele><time>2026-04-11T08:59:56Z</time></trkpt><trkpt lat="45.70648560891971" lon="9.829326372713167"><ele>299.0</ele><time>2026-04-11T08:59:57Z</time></trkpt><trkpt lat="45.706398326995796" lon="9.829421366338462"><ele>298.5</ele><time>2026-04-11T08:59:58Z</time></trkpt><trkpt lat="45.70630756748992" lon="9.829514247413728"><ele>298.0</ele><time>2026-04-11T08:59:59Z</time></trkpt><trkpt lat="45.70621157679914" lon="9.829603058433719"><ele>297.5</ele><time>2026-04-11T09:00:00Z</time></trkpt><trkpt lat="45.706118121177575" lon="9.82969224116276"><ele>297.0</ele><time>2026-04-11T09:00:01Z</time></trkpt><trkpt lat="45.70602209761544" lon="9.829783208823379"><ele>296.4</ele><time>2026-04-11T09:00:02Z</time></trkpt><trkpt lat="45.705927659569646" lon="9.829869342260203"><ele>295.79999999999995</ele><time>2026-04-11T09:00:03Z</time></trkpt><trkpt lat="45.7058350936547" lon="9.829960181197155"><ele>295.2</ele><time>2026-04-11T09:00:04Z</time></trkpt><trkpt lat="45.70574636611716" lon="9.830052897001574"><ele>294.59999999999997</ele><time>2026-04-11T09:00:05Z</time></trkpt><trkpt lat="45.70566296806617" lon="9.830147489173383"><ele>294.0</ele><time>2026-04-11T09:00:06Z</time></trkpt><trkpt lat="45.70558729132584" lon="9.830248522096165"><ele>294.0</ele><time>2026-04-11T09:00:07Z</time></trkpt><trkpt lat="45.705525825601775" lon="9.830361312051016"><ele>294.0</ele><time>2026-04-11T09:00:08Z</time></trkpt><trkpt lat="45.70547825510695" lon="9.83048377860813"><ele>294.0</ele><time>2026-04-11T09:00:09Z</time></trkpt><trkpt lat="45.70543723322293" lon="9.83060652098017"><ele>294.0</ele><time>2026-04-11T09:00:10Z</time></trkpt><trkpt lat="45.70539943149721" lon="9.830727501514026"><ele>294.0</ele><time>2026-04-11T09:00:11Z</time></trkpt><trkpt lat="45.7053588220315" lon="9.83083956690619"><ele>294.0</ele><time>2026-04-11T09:00:12Z</time></trkpt><trkpt lat="45.705321729213765" lon="9.83094849475365"><ele>294.0</ele><time>2026-04-11T09:00:13Z</time></trkpt><trkpt lat="45.70528663918712" lon="9.831055250389191"><ele>294.0</ele><time>2026-04-11T09:00:14Z</time></trkpt><trkpt lat="45.70525416584392" lon="9.831160323311549"><ele>294.0</ele><time>2026-04-11T09:00:15Z</time></trkpt><trkpt lat="45.70522722355791" lon="9.831260325881193"><ele>294.0</ele><time>2026-04-11T09:00:16Z</time></trkpt><trkpt lat="45.70520182071992" lon="9.831361672721124"><ele>294.0</ele><time>2026-04-11T09:00:17Z</time></trkpt><trkpt lat="45.7051788706641" lon="9.831460742148497"><ele>294.0</ele><time>2026-04-11T09:00:18Z</time></trkpt><trkpt lat="45.705156585907176" lon="9.831556996571226"><ele>294.0</ele><time>2026-04-11T09:00:19Z</time></trkpt><trkpt lat="45.705132787333675" lon="9.831651255548165"><ele>294.0</ele><time>2026-04-11T09:00:20Z</time></trkpt><trkpt lat="45.705107218080855" lon="9.831742252273788"><ele>294.0</ele><time>2026-04-11T09:00:21Z</time></trkpt><trkpt lat="45.70508246422851" lon="9.83182976376127"><ele>294.0</ele><time>2026-04-11T09:00:22Z</time></trkpt><trkpt lat="45.70505836602408" lon="9.831914546233214"><ele>294.0</ele><time>2026-04-11T09:00:23Z</time></trkpt><trkpt lat="45.705032956857565" lon="9.831998420609315"><ele>294.0</ele><time>2026-04-11T09:00:24Z</time></trkpt><trkpt lat="45.70497905720015" lon="9.832162502458784"><ele>294.0</ele><time>2026-04-11T09:00:26Z</time></trkpt><trkpt lat="45.70494879632944" lon="9.832243769887953"><ele>294.0</ele><time>2026-04-11T09:00:27Z</time></trkpt><trkpt lat="45.70491817747849" lon="9.83232290627639"><ele>294.0</ele><time>2026-04-11T09:00:28Z</time></trkpt><trkpt lat="45.70488599973352" lon="9.83240339619095"><ele>294.0</ele><time>2026-04-11T09:00:29Z</time></trkpt><trkpt lat="45.70485445058741" lon="9.832487023818928"><ele>294.0</ele><time>2026-04-11T09:00:30Z</time></trkpt><trkpt lat="45.70482274674365" lon="9.83257043566548"><ele>294.0</ele><time>2026-04-11T09:00:31Z</time></trkpt><trkpt lat="45.70479232904494" lon="9.832651824324996"><ele>294.0</ele><time>2026-04-11T09:00:32Z</time></trkpt><trkpt lat="45.70475925253534" lon="9.832736690382573"><ele>293.85714285714283</ele><time>2026-04-11T09:00:33Z</time></trkpt><trkpt lat="45.704727190724086" lon="9.832822306185795"><ele>293.7142857142857</ele><time>2026-04-11T09:00:34Z</time></trkpt><trkpt lat="45.704692539377085" lon="9.832906263950612"><ele>293.57142857142856</ele><time>2026-04-11T09:00:35Z</time></trkpt><trkpt lat="45.7046635328622" lon="9.832990506842874"><ele>293.42857142857144</ele><time>2026-04-11T09:00:36Z</time></trkpt><trkpt lat="45.704631355535106" lon="9.833077425213533"><ele>293.2857142857143</ele><time>2026-04-11T09:00:37Z</time></trkpt><trkpt lat="45.704597607230625" lon="9.833161867204948"><ele>293.1428571428571</ele><time>2026-04-11T09:00:38Z</time></trkpt><trkpt lat="45.70456197150832" lon="9.833245733592722"><ele>293.0</ele><time>2026-04-11T09:00:39Z</time></trkpt><trkpt lat="45.70453034842689" lon="9.833332274426947"><ele>292.99999999999994</ele><time>2026-04-11T09:00:40Z</time></trkpt><trkpt lat="45.70449448316984" lon="9.833415969906248"><ele>293.0</ele><time>2026-04-11T09:00:41Z</time></trkpt><trkpt lat="45.70446281535063" lon="9.83350012600398"><ele>293.0</ele><time>2026-04-11T09:00:42Z</time></trkpt><trkpt lat="45.70442841190872" lon="9.833585189769408"><ele>293.0</ele><time>2026-04-11T09:00:43Z</time></trkpt><trkpt lat="45.7043967705234" lon="9.833672911817022"><ele>293.0</ele><time>2026-04-11T09:00:44Z</time></trkpt><trkpt lat="45.70436339474118" lon="9.833759418441204"><ele>292.99999999999994</ele><time>2026-04-11T09:00:45Z</time></trkpt><trkpt lat="45.70432883051749" lon="9.83384875647017"><ele>293.0</ele><time>2026-04-11T09:00:46Z</time></trkpt><trkpt lat="45.704291468829226" lon="9.833936003001329"><ele>292.57142857142856</ele><time>2026-04-11T09:00:47Z</time></trkpt><trkpt lat="45.704257583650026" lon="9.83402427620137"><ele>292.1428571428571</ele><time>2026-04-11T09:00:48Z</time></trkpt><trkpt lat="45.704222973748855" lon="9.834116902604405"><ele>291.7142857142857</ele><time>2026-04-11T09:00:49Z</time></trkpt><trkpt lat="45.7041883338684" lon="9.834207499210855"><ele>291.2857142857143</ele><time>2026-04-11T09:00:50Z</time></trkpt><trkpt lat="45.704149134322606" lon="9.834297575623015"><ele>290.8571428571429</ele><time>2026-04-11T09:00:51Z</time></trkpt><trkpt lat="45.70411207928569" lon="9.834391086546939"><ele>290.42857142857144</ele><time>2026-04-11T09:00:52Z</time></trkpt><trkpt lat="45.70408132926082" lon="9.834485153298326"><ele>290.0</ele><time>2026-04-11T09:00:53Z</time></trkpt><trkpt lat="45.70404056583388" lon="9.834578579696228"><ele>289.6666666666667</ele><time>2026-04-11T09:00:54Z</time></trkpt><trkpt lat="45.70400303632035" lon="9.834669192656529"><ele>289.33333333333337</ele><time>2026-04-11T09:00:55Z</time></trkpt><trkpt lat="45.703966979457945" lon="9.834766161254466"><ele>289.0</ele><time>2026-04-11T09:00:56Z</time></trkpt><trkpt lat="45.703928144366685" lon="9.834861805760317"><ele>288.6666666666667</ele><time>2026-04-11T09:00:57Z</time></trkpt><trkpt lat="45.70389264379242" lon="9.834959814392871"><ele>288.3333333333333</ele><time>2026-04-11T09:00:58Z</time></trkpt><trkpt lat="45.70385514817143" lon="9.835057801162476"><ele>288.0</ele><time>2026-04-11T09:00:59Z</time></trkpt><trkpt lat="45.70381693531103" lon="9.835152173061054"><ele>288.0</ele><time>2026-04-11T09:01:00Z</time></trkpt><trkpt lat="45.70377678319363" lon="9.835250072945898"><ele>288.0</ele><time>2026-04-11T09:01:01Z</time></trkpt><trkpt lat="45.70373943484059" lon="9.835346229882006"><ele>288.0</ele><time>2026-04-11T09:01:02Z</time></trkpt><trkpt lat="45.70370332609627" lon="9.835441048478193"><ele>288.0</ele><time>2026-04-11T09:01:03Z</time></trkpt><trkpt lat="45.70366677922983" lon="9.835535180283962"><ele>288.0</ele><time>2026-04-11T09:01:04Z</time></trkpt><trkpt lat="45.70363300289367" lon="9.835629638143027"><ele>288.0</ele><time>2026-04-11T09:01:05Z</time></trkpt><trkpt lat="45.70359708454629" lon="9.835720426780195"><ele>287.8571428571429</ele><time>2026-04-11T09:01:06Z</time></trkpt><trkpt lat="45.70355806850316" lon="9.835808706084963"><ele>287.7142857142857</ele><time>2026-04-11T09:01:07Z</time></trkpt><trkpt lat="45.70352390316653" lon="9.835897922916471"><ele>287.57142857142856</ele><time>2026-04-11T09:01:08Z</time></trkpt><trkpt lat="45.70349193240958" lon="9.835987547978645"><ele>287.42857142857144</ele><time>2026-04-11T09:01:09Z</time></trkpt><trkpt lat="45.70345794639195" lon="9.836076438854715"><ele>287.2857142857143</ele><time>2026-04-11T09:01:10Z</time></trkpt><trkpt lat="45.70342322431634" lon="9.836169422388807"><ele>287.14285714285717</ele><time>2026-04-11T09:01:11Z</time></trkpt><trkpt lat="45.703388065217354" lon="9.836258518039438"><ele>287.0</ele><time>2026-04-11T09:01:12Z</time></trkpt><trkpt lat="45.70335648765513" lon="9.836348208513916"><ele>287.0</ele><time>2026-04-11T09:01:13Z</time></trkpt><trkpt lat="45.70332289504022" lon="9.836439386081386"><ele>287.0</ele><time>2026-04-11T09:01:14Z</time></trkpt><trkpt lat="45.70328819439646" lon="9.83652925046506"><ele>287.0</ele><time>2026-04-11T09:01:15Z</time></trkpt><trkpt lat="45.70325497557013" lon="9.836620264959572"><ele>287.0</ele><time>2026-04-11T09:01:16Z</time></trkpt><trkpt lat="45.70321714972251" lon="9.836709169027145"><ele>287.0</ele><time>2026-04-11T09:01:17Z</time></trkpt><trkpt lat="45.70318205473784" lon="9.836795447830164"><ele>287.0</ele><time>2026-04-11T09:01:18Z</time></trkpt><trkpt lat="45.70314635555271" lon="9.836883737050325"><ele>287.0</ele><time>2026-04-11T09:01:19Z</time></trkpt><trkpt lat="45.70311311487722" lon="9.83697125004747"><ele>286.85714285714283</ele><time>2026-04-11T09:01:20Z</time></trkpt><trkpt lat="45.703078796761204" lon="9.837060866545102"><ele>286.7142857142857</ele><time>2026-04-11T09:01:21Z</time></trkpt><trkpt lat="45.703046658443384" lon="9.837147329451232"><ele>286.57142857142856</ele><time>2026-04-11T09:01:22Z</time></trkpt><trkpt lat="45.703012504112344" lon="9.837235729547793"><ele>286.42857142857144</ele><time>2026-04-11T09:01:23Z</time></trkpt><trkpt lat="45.70297731995987" lon="9.837321943828725"><ele>286.2857142857143</ele><time>2026-04-11T09:01:24Z</time></trkpt><trkpt lat="45.70294219758088" lon="9.837402959791305"><ele>286.1428571428571</ele><time>2026-04-11T09:01:25Z</time></trkpt><trkpt lat="45.70290688430529" lon="9.837482579894443"><ele>286.0</ele><time>2026-04-11T09:01:26Z</time></trkpt><trkpt lat="45.702875872784645" lon="9.837565654582823"><ele>285.99999999999994</ele><time>2026-04-11T09:01:27Z</time></trkpt><trkpt lat="45.70284249956856" lon="9.837647693212181"><ele>286.0</ele><time>2026-04-11T09:01:28Z</time></trkpt><trkpt lat="45.70280753427091" lon="9.83773096830388"><ele>286.0</ele><time>2026-04-11T09:01:29Z</time></trkpt><trkpt lat="45.70277567022185" lon="9.837813853769669"><ele>286.0</ele><time>2026-04-11T09:01:30Z</time></trkpt><trkpt lat="45.70274605058724" lon="9.837897393603763"><ele>286.0</ele><time>2026-04-11T09:01:31Z</time></trkpt><trkpt lat="45.70271574540212" lon="9.83798172607104"><ele>285.99999999999994</ele><time>2026-04-11T09:01:32Z</time></trkpt><trkpt lat="45.702684509932375" lon="9.83806873400911"><ele>286.0</ele><time>2026-04-11T09:01:33Z</time></trkpt><trkpt lat="45.702652498832656" lon="9.838149870597617"><ele>285.57142857142856</ele><time>2026-04-11T09:01:34Z</time></trkpt><trkpt lat="45.70261942691573" lon="9.838233377947125"><ele>285.1428571428571</ele><time>2026-04-11T09:01:35Z</time></trkpt><trkpt lat="45.70258619666611" lon="9.838318318830853"><ele>284.7142857142857</ele><time>2026-04-11T09:01:36Z</time></trkpt><trkpt lat="45.70255468721803" lon="9.838400459150453"><ele>284.2857142857143</ele><time>2026-04-11T09:01:37Z</time></trkpt><trkpt lat="45.70252555615688" lon="9.83848474860879"><ele>283.8571428571429</ele><time>2026-04-11T09:01:38Z</time></trkpt><trkpt lat="45.70249824979649" lon="9.838568946511659"><ele>283.42857142857144</ele><time>2026-04-11T09:01:39Z</time></trkpt><trkpt lat="45.70246748648319" lon="9.83865479635428"><ele>283.0</ele><time>2026-04-11T09:01:40Z</time></trkpt><trkpt lat="45.70243356774994" lon="9.838736650052386"><ele>282.8</ele><time>2026-04-11T09:01:41Z</time></trkpt><trkpt lat="45.70239998242068" lon="9.83881944678869"><ele>282.6</ele><time>2026-04-11T09:01:42Z</time></trkpt><trkpt lat="45.702366994540064" lon="9.838900475669194"><ele>282.4</ele><time>2026-04-11T09:01:43Z</time></trkpt><trkpt lat="45.702328894439404" lon="9.83897962924961"><ele>282.2</ele><time>2026-04-11T09:01:44Z</time></trkpt><trkpt lat="45.702247031513814" lon="9.83912105264814"><ele>282.0</ele><time>2026-04-11T09:01:46Z</time></trkpt><trkpt lat="45.70215915395477" lon="9.839255146324891"><ele>282.3333333333333</ele><time>2026-04-11T09:01:48Z</time></trkpt><trkpt lat="45.70211426835581" lon="9.839321156670385"><ele>282.6666666666667</ele><time>2026-04-11T09:01:49Z</time></trkpt><trkpt lat="45.70206789192439" lon="9.839384481281002"><ele>283.0</ele><time>2026-04-11T09:01:50Z</time></trkpt><trkpt lat="45.701965640808815" lon="9.839492875752176"><ele>283.33333333333337</ele><time>2026-04-11T09:01:52Z</time></trkpt><trkpt lat="45.701910422541154" lon="9.839539767498719"><ele>283.6666666666667</ele><time>2026-04-11T09:01:53Z</time></trkpt><trkpt lat="45.70184754796265" lon="9.83956781311755"><ele>284.0</ele><time>2026-04-11T09:01:54Z</time></trkpt><trkpt lat="45.70172182690014" lon="9.839587286220208"><ele>284.0</ele><time>2026-04-11T09:01:56Z</time></trkpt><trkpt lat="45.701593932212575" lon="9.839582339154987"><ele>284.0</ele><time>2026-04-11T09:01:58Z</time></trkpt><trkpt lat="45.70153055258349" lon="9.839577080269601"><ele>284.0</ele><time>2026-04-11T09:01:59Z</time></trkpt><trkpt lat="45.7014676165299" lon="9.83956872644409"><ele>284.0</ele><time>2026-04-11T09:02:00Z</time></trkpt><trkpt lat="45.70140347009022" lon="9.839572913120122"><ele>284.0</ele><time>2026-04-11T09:02:01Z</time></trkpt><trkpt lat="45.70133738769946" lon="9.839571201915394"><ele>284.0</ele><time>2026-04-11T09:02:02Z</time></trkpt><trkpt lat="45.701209685772035" lon="9.839575797324162"><ele>284.0</ele><time>2026-04-11T09:02:04Z</time></trkpt><trkpt lat="45.70114392546621" lon="9.839568450160488"><ele>284.0</ele><time>2026-04-11T09:02:05Z</time></trkpt><trkpt lat="45.701077963369485" lon="9.839567546799506"><ele>284.0</ele><time>2026-04-11T09:02:06Z</time></trkpt><trkpt lat="45.70101329650949" lon="9.839566311119158"><ele>284.0</ele><time>2026-04-11T09:02:07Z</time></trkpt><trkpt lat="45.700945804285205" lon="9.839559059425575"><ele>284.0</ele><time>2026-04-11T09:02:08Z</time></trkpt><trkpt lat="45.700880005960066" lon="9.839557307837946"><ele>284.0</ele><time>2026-04-11T09:02:09Z</time></trkpt><trkpt lat="45.7008145794905" lon="9.839549224700752"><ele>284.0</ele><time>2026-04-11T09:02:10Z</time></trkpt><trkpt lat="45.700747748296045" lon="9.83954238229493"><ele>284.0</ele><time>2026-04-11T09:02:11Z</time></trkpt><trkpt lat="45.70067809967179" lon="9.839541553903391"><ele>284.0</ele><time>2026-04-11T09:02:12Z</time></trkpt><trkpt lat="45.70061280085291" lon="9.839536566716692"><ele>284.0</ele><time>2026-04-11T09:02:13Z</time></trkpt><trkpt lat="45.700546375478375" lon="9.839536758535997"><ele>284.0</ele><time>2026-04-11T09:02:14Z</time></trkpt><trkpt lat="45.70048039413062" lon="9.839528584893717"><ele>284.0</ele><time>2026-04-11T09:02:15Z</time></trkpt><trkpt lat="45.700416102551685" lon="9.8395315844274"><ele>284.0</ele><time>2026-04-11T09:02:16Z</time></trkpt><trkpt lat="45.700349971909944" lon="9.839531424449463"><ele>284.0</ele><time>2026-04-11T09:02:17Z</time></trkpt><trkpt lat="45.70028281064407" lon="9.839530815670562"><ele>283.85714285714283</ele><time>2026-04-11T09:02:18Z</time></trkpt><trkpt lat="45.700215900217025" lon="9.839527210123032"><ele>283.71428571428567</ele><time>2026-04-11T09:02:19Z</time></trkpt><trkpt lat="45.70014847372971" lon="9.839526861132347"><ele>283.57142857142856</ele><time>2026-04-11T09:02:20Z</time></trkpt><trkpt lat="45.70008059029793" lon="9.839519497625933"><ele>283.42857142857144</ele><time>2026-04-11T09:02:21Z</time></trkpt><trkpt lat="45.700014435098836" lon="9.839517663163347"><ele>283.28571428571433</ele><time>2026-04-11T09:02:22Z</time></trkpt><trkpt lat="45.69994867970768" lon="9.839523149685503"><ele>283.14285714285717</ele><time>2026-04-11T09:02:23Z</time></trkpt><trkpt lat="45.699885325849166" lon="9.839538950181893"><ele>283.0</ele><time>2026-04-11T09:02:24Z</time></trkpt><trkpt lat="45.69977564897009" lon="9.839625789404755"><ele>283.0</ele><time>2026-04-11T09:02:26Z</time></trkpt><trkpt lat="45.69970229114528" lon="9.839769637533584"><ele>283.0</ele><time>2026-04-11T09:02:28Z</time></trkpt><trkpt lat="45.699637800859605" lon="9.839921624961114"><ele>283.0</ele><time>2026-04-11T09:02:30Z</time></trkpt><trkpt lat="45.69957261152642" lon="9.84007076770168"><ele>283.0</ele><time>2026-04-11T09:02:32Z</time></trkpt><trkpt lat="45.699538694742664" lon="9.840147163575049"><ele>283.0</ele><time>2026-04-11T09:02:33Z</time></trkpt><trkpt lat="45.69950555037971" lon="9.840224986318526"><ele>282.6</ele><time>2026-04-11T09:02:34Z</time></trkpt><trkpt lat="45.69943813900649" lon="9.840382899817136"><ele>282.20000000000005</ele><time>2026-04-11T09:02:36Z</time></trkpt><trkpt lat="45.69937201912984" lon="9.840537362647787"><ele>281.8</ele><time>2026-04-11T09:02:38Z</time></trkpt><trkpt lat="45.69931490089658" lon="9.840698840554406"><ele>281.40000000000003</ele><time>2026-04-11T09:02:40Z</time></trkpt><trkpt lat="45.699282252441584" lon="9.840778327537095"><ele>281.0</ele><time>2026-04-11T09:02:41Z</time></trkpt><trkpt lat="45.699250869909775" lon="9.840858398167537"><ele>281.0</ele><time>2026-04-11T09:02:42Z</time></trkpt><trkpt lat="45.699214816559575" lon="9.840934546964686"><ele>281.0</ele><time>2026-04-11T09:02:43Z</time></trkpt><trkpt lat="45.699179667834066" lon="9.84101501692942"><ele>281.0</ele><time>2026-04-11T09:02:44Z</time></trkpt><trkpt lat="45.69911795859499" lon="9.841179302860867"><ele>281.0</ele><time>2026-04-11T09:02:46Z</time></trkpt><trkpt lat="45.69909379858116" lon="9.841269345815435"><ele>281.0</ele><time>2026-04-11T09:02:47Z</time></trkpt><trkpt lat="45.6990782655309" lon="9.841358407806172"><ele>281.0</ele><time>2026-04-11T09:02:48Z</time></trkpt><trkpt lat="45.69905994158573" lon="9.841445302488887"><ele>281.42857142857144</ele><time>2026-04-11T09:02:49Z</time></trkpt><trkpt lat="45.699046192918765" lon="9.841535988675691"><ele>281.8571428571429</ele><time>2026-04-11T09:02:50Z</time></trkpt><trkpt lat="45.69904315110584" lon="9.84162730196562"><ele>282.2857142857143</ele><time>2026-04-11T09:02:51Z</time></trkpt><trkpt lat="45.69903128694219" lon="9.841805258331314"><ele>282.7142857142857</ele><time>2026-04-11T09:02:53Z</time></trkpt><trkpt lat="45.69900764731605" lon="9.841889977764628"><ele>283.1428571428571</ele><time>2026-04-11T09:02:54Z</time></trkpt><trkpt lat="45.69898108082897" lon="9.841973057968909"><ele>283.57142857142856</ele><time>2026-04-11T09:02:55Z</time></trkpt><trkpt lat="45.69894795140875" lon="9.842053697249952"><ele>284.0</ele><time>2026-04-11T09:02:56Z</time></trkpt><trkpt lat="45.6989114408697" lon="9.84213254884098"><ele>284.6666666666667</ele><time>2026-04-11T09:02:57Z</time></trkpt><trkpt lat="45.69884515280483" lon="9.842286650631953"><ele>285.33333333333337</ele><time>2026-04-11T09:02:59Z</time></trkpt><trkpt lat="45.69881100444524" lon="9.84236290347571"><ele>286.0</ele><time>2026-04-11T09:03:00Z</time></trkpt><trkpt lat="45.698784603823604" lon="9.842446477818385"><ele>286.6666666666667</ele><time>2026-04-11T09:03:01Z</time></trkpt><trkpt lat="45.69875115851973" lon="9.84252445697267"><ele>287.3333333333333</ele><time>2026-04-11T09:03:02Z</time></trkpt><trkpt lat="45.69868945029226" lon="9.842682383349906"><ele>288.0</ele><time>2026-04-11T09:03:04Z</time></trkpt><trkpt lat="45.698663780864635" lon="9.842764706605125"><ele>286.6666666666667</ele><time>2026-04-11T09:03:05Z</time></trkpt><trkpt lat="45.698636466751665" lon="9.84284716511827"><ele>285.3333333333333</ele><time>2026-04-11T09:03:06Z</time></trkpt><trkpt lat="45.69861787916897" lon="9.84293420773723"><ele>284.0</ele><time>2026-04-11T09:03:07Z</time></trkpt><trkpt lat="45.698601721334974" lon="9.843023645003182"><ele>282.66666666666663</ele><time>2026-04-11T09:03:08Z</time></trkpt><trkpt lat="45.69857434083798" lon="9.84319907200368"><ele>281.3333333333333</ele><time>2026-04-11T09:03:10Z</time></trkpt><trkpt lat="45.69855564426762" lon="9.843289179345032"><ele>280.0</ele><time>2026-04-11T09:03:11Z</time></trkpt><trkpt lat="45.69852484940658" lon="9.843462733553455"><ele>280.4</ele><time>2026-04-11T09:03:13Z</time></trkpt><trkpt lat="45.69849185126989" lon="9.84363489115294"><ele>280.8</ele><time>2026-04-11T09:03:15Z</time></trkpt><trkpt lat="45.69847372500671" lon="9.843724066863189"><ele>281.2</ele><time>2026-04-11T09:03:16Z</time></trkpt><trkpt lat="45.698439733305236" lon="9.84389522200398"><ele>281.6</ele><time>2026-04-11T09:03:18Z</time></trkpt><trkpt lat="45.698413055761776" lon="9.84407083351545"><ele>282.0</ele><time>2026-04-11T09:03:20Z</time></trkpt><trkpt lat="45.698378592755866" lon="9.844245491147246"><ele>282.6</ele><time>2026-04-11T09:03:22Z</time></trkpt><trkpt lat="45.69836221747714" lon="9.844335457533022"><ele>283.2</ele><time>2026-04-11T09:03:23Z</time></trkpt><trkpt lat="45.698330173415975" lon="9.844504115618646"><ele>283.8</ele><time>2026-04-11T09:03:25Z</time></trkpt><trkpt lat="45.69830109886948" lon="9.84466742790562"><ele>284.4</ele><time>2026-04-11T09:03:27Z</time></trkpt><trkpt lat="45.69827238248948" lon="9.844829396553205"><ele>285.0</ele><time>2026-04-11T09:03:29Z</time></trkpt><trkpt lat="45.69824506805196" lon="9.844980929693204"><ele>284.8</ele><time>2026-04-11T09:03:31Z</time></trkpt><trkpt lat="45.69821319052642" lon="9.845141060701312"><ele>284.6</ele><time>2026-04-11T09:03:33Z</time></trkpt><trkpt lat="45.69818050033779" lon="9.84531553634882"><ele>284.4</ele><time>2026-04-11T09:03:35Z</time></trkpt><trkpt lat="45.69816077443757" lon="9.845401603333293"><ele>284.2</ele><time>2026-04-11T09:03:36Z</time></trkpt><trkpt lat="45.69813453593084" lon="9.845569774895052"><ele>284.0</ele><time>2026-04-11T09:03:38Z</time></trkpt><trkpt lat="45.69809716903176" lon="9.845732092355657"><ele>284.0</ele><time>2026-04-11T09:03:40Z</time></trkpt><trkpt lat="45.698065671579975" lon="9.845892166800809"><ele>284.0</ele><time>2026-04-11T09:03:42Z</time></trkpt><trkpt lat="45.69803698993694" lon="9.846035512721512"><ele>284.0</ele><time>2026-04-11T09:03:44Z</time></trkpt><trkpt lat="45.697995581750234" lon="9.846185045307113"><ele>284.0</ele><time>2026-04-11T09:03:46Z</time></trkpt><trkpt lat="45.69794632887766" lon="9.846319496035626"><ele>284.0</ele><time>2026-04-11T09:03:48Z</time></trkpt><trkpt lat="45.69785296617747" lon="9.846412388269014"><ele>282.59999999999997</ele><time>2026-04-11T09:03:50Z</time></trkpt><trkpt lat="45.69773677737126" lon="9.846453159936402"><ele>281.2</ele><time>2026-04-11T09:03:52Z</time></trkpt><trkpt lat="45.697614857728595" lon="9.846426316889833"><ele>279.79999999999995</ele><time>2026-04-11T09:03:54Z</time></trkpt><trkpt lat="45.69749466371456" lon="9.84637150441104"><ele>278.4</ele><time>2026-04-11T09:03:56Z</time></trkpt><trkpt lat="45.697435789691255" lon="9.846338387820083"><ele>277.0</ele><time>2026-04-11T09:03:57Z</time></trkpt><trkpt lat="45.6973219145204" lon="9.84629044367663"><ele>277.0</ele><time>2026-04-11T09:03:59Z</time></trkpt><trkpt lat="45.697214399457245" lon="9.846360821049036"><ele>277.0</ele><time>2026-04-11T09:04:01Z</time></trkpt><trkpt lat="45.69718725373579" lon="9.846452854227651"><ele>277.0</ele><time>2026-04-11T09:04:02Z</time></trkpt><trkpt lat="45.69719456698956" lon="9.84655067871873"><ele>277.0</ele><time>2026-04-11T09:04:03Z</time></trkpt><trkpt lat="45.69720487712452" lon="9.846645923248486"><ele>277.0</ele><time>2026-04-11T09:04:04Z</time></trkpt><trkpt lat="45.697212760167766" lon="9.846744532241793"><ele>277.0</ele><time>2026-04-11T09:04:05Z</time></trkpt><trkpt lat="45.69721906896899" lon="9.84683904493274"><ele>277.0</ele><time>2026-04-11T09:04:06Z</time></trkpt><trkpt lat="45.6972268659603" lon="9.846936914454268"><ele>277.0</ele><time>2026-04-11T09:04:07Z</time></trkpt><trkpt lat="45.697233414288995" lon="9.84703353911474"><ele>277.0</ele><time>2026-04-11T09:04:08Z</time></trkpt><trkpt lat="45.69723917969349" lon="9.847130903597268"><ele>277.0</ele><time>2026-04-11T09:04:09Z</time></trkpt><trkpt lat="45.69724697124388" lon="9.847225616745652"><ele>277.0</ele><time>2026-04-11T09:04:10Z</time></trkpt><trkpt lat="45.697252819474535" lon="9.847322624171754"><ele>277.0</ele><time>2026-04-11T09:04:11Z</time></trkpt><trkpt lat="45.69725965525572" lon="9.847419205712582"><ele>277.0</ele><time>2026-04-11T09:04:12Z</time></trkpt><trkpt lat="45.697264218819605" lon="9.847515854066257"><ele>277.0</ele><time>2026-04-11T09:04:13Z</time></trkpt><trkpt lat="45.697271508960576" lon="9.847613044876457"><ele>277.0</ele><time>2026-04-11T09:04:14Z</time></trkpt><trkpt lat="45.6972817324325" lon="9.847712219825635"><ele>277.0</ele><time>2026-04-11T09:04:15Z</time></trkpt><trkpt lat="45.6972847707287" lon="9.847811962242229"><ele>277.0</ele><time>2026-04-11T09:04:16Z</time></trkpt><trkpt lat="45.697287358212854" lon="9.847911620410796"><ele>277.0</ele><time>2026-04-11T09:04:17Z</time></trkpt><trkpt lat="45.69728972721157" lon="9.848013787958662"><ele>277.0</ele><time>2026-04-11T09:04:18Z</time></trkpt><trkpt lat="45.697296454248765" lon="9.848112151601843"><ele>277.0</ele><time>2026-04-11T09:04:19Z</time></trkpt><trkpt lat="45.697305201519136" lon="9.848211300243685"><ele>277.0</ele><time>2026-04-11T09:04:20Z</time></trkpt><trkpt lat="45.69731249816058" lon="9.848312251012628"><ele>277.0</ele><time>2026-04-11T09:04:21Z</time></trkpt><trkpt lat="45.69731963236183" lon="9.848412737896716"><ele>277.0</ele><time>2026-04-11T09:04:22Z</time></trkpt><trkpt lat="45.69732394413191" lon="9.848512482541148"><ele>277.0</ele><time>2026-04-11T09:04:23Z</time></trkpt><trkpt lat="45.6973323550471" lon="9.84861126633752"><ele>277.0</ele><time>2026-04-11T09:04:24Z</time></trkpt><trkpt lat="45.69733955461372" lon="9.848709443155583"><ele>277.0</ele><time>2026-04-11T09:04:25Z</time></trkpt><trkpt lat="45.69734746629121" lon="9.848809706224124"><ele>277.0</ele><time>2026-04-11T09:04:26Z</time></trkpt><trkpt lat="45.697367723442746" lon="9.848901580862474"><ele>276.42857142857144</ele><time>2026-04-11T09:04:27Z</time></trkpt><trkpt lat="45.69738004141067" lon="9.84899647524458"><ele>275.85714285714283</ele><time>2026-04-11T09:04:28Z</time></trkpt><trkpt lat="45.69740220377703" lon="9.849089250003733"><ele>275.2857142857143</ele><time>2026-04-11T09:04:29Z</time></trkpt><trkpt lat="45.6974223537005" lon="9.84917738515561"><ele>274.7142857142857</ele><time>2026-04-11T09:04:30Z</time></trkpt><trkpt lat="45.69744592675951" lon="9.84926289563177"><ele>274.1428571428571</ele><time>2026-04-11T09:04:31Z</time></trkpt><trkpt lat="45.69747119009075" lon="9.849348091583323"><ele>273.57142857142856</ele><time>2026-04-11T09:04:32Z</time></trkpt><trkpt lat="45.69749932880395" lon="9.849430946905626"><ele>273.0</ele><time>2026-04-11T09:04:33Z</time></trkpt><trkpt lat="45.69752901308612" lon="9.849514839199786"><ele>272.4</ele><time>2026-04-11T09:04:34Z</time></trkpt><trkpt lat="45.697559980461804" lon="9.849595661319517"><ele>271.8</ele><time>2026-04-11T09:04:35Z</time></trkpt><trkpt lat="45.69759046672294" lon="9.849681825051688"><ele>271.2</ele><time>2026-04-11T09:04:36Z</time></trkpt><trkpt lat="45.69764819927473" lon="9.849846213966183"><ele>270.6</ele><time>2026-04-11T09:04:38Z</time></trkpt><trkpt lat="45.69771203183098" lon="9.85001082081744"><ele>270.0</ele><time>2026-04-11T09:04:40Z</time></trkpt><trkpt lat="45.69774112675894" lon="9.850091674594328"><ele>273.0</ele><time>2026-04-11T09:04:41Z</time></trkpt><trkpt lat="45.69777386590995" lon="9.850171806443642"><ele>276.0</ele><time>2026-04-11T09:04:42Z</time></trkpt><trkpt lat="45.697804587383594" lon="9.850253062853296"><ele>279.0</ele><time>2026-04-11T09:04:43Z</time></trkpt><trkpt lat="45.69783431997161" lon="9.85033886524431"><ele>282.0</ele><time>2026-04-11T09:04:44Z</time></trkpt><trkpt lat="45.697868598364835" lon="9.850417312391238"><ele>285.0</ele><time>2026-04-11T09:04:45Z</time></trkpt><trkpt lat="45.69793321501731" lon="9.850572737342333"><ele>288.0</ele><time>2026-04-11T09:04:47Z</time></trkpt><trkpt lat="45.69796987914484" lon="9.850650285693263"><ele>288.0</ele><time>2026-04-11T09:04:48Z</time></trkpt><trkpt lat="45.69800769698185" lon="9.850725781902003"><ele>288.0</ele><time>2026-04-11T09:04:49Z</time></trkpt><trkpt lat="45.69804482256311" lon="9.850801759611057"><ele>288.0</ele><time>2026-04-11T09:04:50Z</time></trkpt><trkpt lat="45.69812849428831" lon="9.850948517615793"><ele>288.0</ele><time>2026-04-11T09:04:52Z</time></trkpt><trkpt lat="45.69817004033683" lon="9.851018617671153"><ele>288.0</ele><time>2026-04-11T09:04:53Z</time></trkpt><trkpt lat="45.698211878420196" lon="9.851092647304215"><ele>288.0</ele><time>2026-04-11T09:04:54Z</time></trkpt><trkpt lat="45.69825743035821" lon="9.851168367755108"><ele>284.6666666666667</ele><time>2026-04-11T09:04:55Z</time></trkpt><trkpt lat="45.69834717249255" lon="9.851306866734692"><ele>281.3333333333333</ele><time>2026-04-11T09:04:57Z</time></trkpt><trkpt lat="45.6983898637914" lon="9.851377399133678"><ele>278.0</ele><time>2026-04-11T09:04:58Z</time></trkpt><trkpt lat="45.69843005696688" lon="9.851451330021083"><ele>274.66666666666663</ele><time>2026-04-11T09:04:59Z</time></trkpt><trkpt lat="45.698475458057096" lon="9.85152300354073"><ele>271.3333333333333</ele><time>2026-04-11T09:05:00Z</time></trkpt><trkpt lat="45.6985184044039" lon="9.85159595836351"><ele>268.0</ele><time>2026-04-11T09:05:01Z</time></trkpt><trkpt lat="45.69856282241033" lon="9.851664686765654"><ele>270.16666666666663</ele><time>2026-04-11T09:05:02Z</time></trkpt><trkpt lat="45.69860681695815" lon="9.851735129680637"><ele>272.3333333333333</ele><time>2026-04-11T09:05:03Z</time></trkpt><trkpt lat="45.69869094492627" lon="9.851873388135804"><ele>274.5</ele><time>2026-04-11T09:05:05Z</time></trkpt><trkpt lat="45.698734078772084" lon="9.851942329250699"><ele>276.6666666666667</ele><time>2026-04-11T09:05:06Z</time></trkpt><trkpt lat="45.698815977463696" lon="9.852079270110346"><ele>278.83333333333337</ele><time>2026-04-11T09:05:08Z</time></trkpt><trkpt lat="45.698858833127204" lon="9.852149007597587"><ele>281.0</ele><time>2026-04-11T09:05:09Z</time></trkpt><trkpt lat="45.69890464541496" lon="9.852217432161186"><ele>281.0</ele><time>2026-04-11T09:05:10Z</time></trkpt><trkpt lat="45.6989452375285" lon="9.852287139914756"><ele>281.0</ele><time>2026-04-11T09:05:11Z</time></trkpt><trkpt lat="45.69902935281776" lon="9.852432020603308"><ele>281.0</ele><time>2026-04-11T09:05:13Z</time></trkpt><trkpt lat="45.699111621055636" lon="9.852576566556126"><ele>281.0</ele><time>2026-04-11T09:05:15Z</time></trkpt><trkpt lat="45.69918404016654" lon="9.852715455876279"><ele>281.0</ele><time>2026-04-11T09:05:17Z</time></trkpt><trkpt lat="45.69921821254633" lon="9.852796404572022"><ele>282.40000000000003</ele><time>2026-04-11T09:05:18Z</time></trkpt><trkpt lat="45.699252890373046" lon="9.852875037150737"><ele>283.8</ele><time>2026-04-11T09:05:19Z</time></trkpt><trkpt lat="45.69932966237044" lon="9.853028526898141"><ele>285.20000000000005</ele><time>2026-04-11T09:05:21Z</time></trkpt><trkpt lat="45.699390285707" lon="9.853171849237922"><ele>286.6</ele><time>2026-04-11T09:05:23Z</time></trkpt><trkpt lat="45.6994548003277" lon="9.853319380467223"><ele>288.0</ele><time>2026-04-11T09:05:25Z</time></trkpt><trkpt lat="45.69951694866673" lon="9.853459382141523"><ele>288.0</ele><time>2026-04-11T09:05:27Z</time></trkpt><trkpt lat="45.69957940994127" lon="9.853603094501501"><ele>288.0</ele><time>2026-04-11T09:05:29Z</time></trkpt><trkpt lat="45.6996424988282" lon="9.853747073877203"><ele>288.0</ele><time>2026-04-11T09:05:31Z</time></trkpt><trkpt lat="45.69970705026449" lon="9.853900188065621"><ele>288.0</ele><time>2026-04-11T09:05:33Z</time></trkpt><trkpt lat="45.69977820289215" lon="9.854061949646281"><ele>288.0</ele><time>2026-04-11T09:05:35Z</time></trkpt><trkpt lat="45.699844849155134" lon="9.854218702196192"><ele>288.0</ele><time>2026-04-11T09:05:37Z</time></trkpt><trkpt lat="45.69988327084698" lon="9.854300921262249"><ele>288.0</ele><time>2026-04-11T09:05:38Z</time></trkpt><trkpt lat="45.69991851786408" lon="9.854386346275659"><ele>288.0</ele><time>2026-04-11T09:05:39Z</time></trkpt><trkpt lat="45.699988724473165" lon="9.85454430548951"><ele>288.0</ele><time>2026-04-11T09:05:41Z</time></trkpt><trkpt lat="45.700028184822926" lon="9.854636336387466"><ele>287.8571428571429</ele><time>2026-04-11T09:05:42Z</time></trkpt><trkpt lat="45.70006208990606" lon="9.854726823984976"><ele>287.7142857142857</ele><time>2026-04-11T09:05:43Z</time></trkpt><trkpt lat="45.70010310423505" lon="9.854804272738026"><ele>287.57142857142856</ele><time>2026-04-11T09:05:44Z</time></trkpt><trkpt lat="45.70013963992548" lon="9.854895108815864"><ele>287.42857142857144</ele><time>2026-04-11T09:05:45Z</time></trkpt><trkpt lat="45.700179985495225" lon="9.85499089836365"><ele>287.2857142857143</ele><time>2026-04-11T09:05:46Z</time></trkpt><trkpt lat="45.700216552259974" lon="9.855072508485827"><ele>287.14285714285717</ele><time>2026-04-11T09:05:47Z</time></trkpt><trkpt lat="45.700258805598466" lon="9.855169134347749"><ele>287.0</ele><time>2026-04-11T09:05:48Z</time></trkpt><trkpt lat="45.70029800842023" lon="9.855255211369805"><ele>287.0</ele><time>2026-04-11T09:05:49Z</time></trkpt><trkpt lat="45.700335219414384" lon="9.855345748312555"><ele>287.0</ele><time>2026-04-11T09:05:50Z</time></trkpt><trkpt lat="45.70037423359555" lon="9.85543488992222"><ele>287.0</ele><time>2026-04-11T09:05:51Z</time></trkpt><trkpt lat="45.70041290814895" lon="9.855533335343626"><ele>287.0</ele><time>2026-04-11T09:05:52Z</time></trkpt><trkpt lat="45.70045109599772" lon="9.855618709004332"><ele>287.0</ele><time>2026-04-11T09:05:53Z</time></trkpt><trkpt lat="45.700487959426255" lon="9.855717199662386"><ele>287.0</ele><time>2026-04-11T09:05:54Z</time></trkpt><trkpt lat="45.7005214324721" lon="9.85581633296008"><ele>287.0</ele><time>2026-04-11T09:05:55Z</time></trkpt><trkpt lat="45.700563626116654" lon="9.855903015784941"><ele>287.0</ele><time>2026-04-11T09:05:56Z</time></trkpt><trkpt lat="45.700607115044455" lon="9.855999169927555"><ele>287.0</ele><time>2026-04-11T09:05:57Z</time></trkpt><trkpt lat="45.700647032305994" lon="9.856092004430025"><ele>287.0</ele><time>2026-04-11T09:05:58Z</time></trkpt><trkpt lat="45.700680932274736" lon="9.856176600489372"><ele>287.0</ele><time>2026-04-11T09:05:59Z</time></trkpt><trkpt lat="45.7007258160858" lon="9.856270737750902"><ele>287.0</ele><time>2026-04-11T09:06:00Z</time></trkpt><trkpt lat="45.700778466189526" lon="9.85635515655939"><ele>284.0</ele><time>2026-04-11T09:06:01Z</time></trkpt><trkpt lat="45.70082778291222" lon="9.856445532307012"><ele>281.0</ele><time>2026-04-11T09:06:02Z</time></trkpt><trkpt lat="45.70089251862388" lon="9.856612070454403"><ele>278.0</ele><time>2026-04-11T09:06:04Z</time></trkpt><trkpt lat="45.70093614474559" lon="9.85669974235852"><ele>275.0</ele><time>2026-04-11T09:06:05Z</time></trkpt><trkpt lat="45.70097554068766" lon="9.856777465190476"><ele>272.0</ele><time>2026-04-11T09:06:06Z</time></trkpt><trkpt lat="45.70101657273545" lon="9.856866715817683"><ele>269.0</ele><time>2026-04-11T09:06:07Z</time></trkpt><trkpt lat="45.70110431973119" lon="9.857004406932472"><ele>268.5</ele><time>2026-04-11T09:06:09Z</time></trkpt><trkpt lat="45.701155245161225" lon="9.857072079778161"><ele>268.0</ele><time>2026-04-11T09:06:10Z</time></trkpt><trkpt lat="45.70124910724278" lon="9.857208613578596"><ele>267.5</ele><time>2026-04-11T09:06:12Z</time></trkpt><trkpt lat="45.701293834437664" lon="9.857273213152935"><ele>267.0</ele><time>2026-04-11T09:06:13Z</time></trkpt><trkpt lat="45.701342802614185" lon="9.857335573802809"><ele>266.5</ele><time>2026-04-11T09:06:14Z</time></trkpt><trkpt lat="45.70139548779358" lon="9.857399101296235"><ele>266.0</ele><time>2026-04-11T09:06:15Z</time></trkpt><trkpt lat="45.70144346095743" lon="9.85746397984396"><ele>266.0</ele><time>2026-04-11T09:06:16Z</time></trkpt><trkpt lat="45.70149372094277" lon="9.857521302921612"><ele>266.0</ele><time>2026-04-11T09:06:17Z</time></trkpt><trkpt lat="45.70155597607368" lon="9.857574323833656"><ele>266.0</ele><time>2026-04-11T09:06:18Z</time></trkpt><trkpt lat="45.70160748055064" lon="9.857626978550774"><ele>266.0</ele><time>2026-04-11T09:06:19Z</time></trkpt><trkpt lat="45.70166094086726" lon="9.857682215548413"><ele>266.0</ele><time>2026-04-11T09:06:20Z</time></trkpt><trkpt lat="45.70176775537104" lon="9.857772518541857"><ele>266.0</ele><time>2026-04-11T09:06:22Z</time></trkpt><trkpt lat="45.70182557506978" lon="9.857818271459424"><ele>265.5</ele><time>2026-04-11T09:06:23Z</time></trkpt><trkpt lat="45.70192193045313" lon="9.857911499420291"><ele>265.0</ele><time>2026-04-11T09:06:25Z</time></trkpt><trkpt lat="45.70203515370864" lon="9.858002591887237"><ele>264.5</ele><time>2026-04-11T09:06:27Z</time></trkpt><trkpt lat="45.70214517120078" lon="9.858075880402861"><ele>264.0</ele><time>2026-04-11T09:06:29Z</time></trkpt><trkpt lat="45.70226096146207" lon="9.858167845174004"><ele>264.0</ele><time>2026-04-11T09:06:31Z</time></trkpt><trkpt lat="45.702320275512875" lon="9.858200154653616"><ele>264.0</ele><time>2026-04-11T09:06:32Z</time></trkpt><trkpt lat="45.70243566894969" lon="9.85828423105221"><ele>264.0</ele><time>2026-04-11T09:06:34Z</time></trkpt><trkpt lat="45.70248984485862" lon="9.858330639351706"><ele>264.0</ele><time>2026-04-11T09:06:35Z</time></trkpt><trkpt lat="45.702582362584224" lon="9.85845350127272"><ele>264.0</ele><time>2026-04-11T09:06:37Z</time></trkpt><trkpt lat="45.70261192362338" lon="9.858577950201708"><ele>263.3333333333333</ele><time>2026-04-11T09:06:39Z</time></trkpt><trkpt lat="45.70263584306418" lon="9.85867118709409"><ele>262.6666666666667</ele><time>2026-04-11T09:06:41Z</time></trkpt><trkpt lat="45.702718983712906" lon="9.85876085387413"><ele>262.0</ele><time>2026-04-11T09:06:43Z</time></trkpt><trkpt lat="45.7028458502175" lon="9.85876436592606"><ele>261.33333333333337</ele><time>2026-04-11T09:06:45Z</time></trkpt><trkpt lat="45.70290835731694" lon="9.858725735303889"><ele>260.6666666666667</ele><time>2026-04-11T09:06:46Z</time></trkpt><trkpt lat="45.702959604948035" lon="9.858669505198334"><ele>260.0</ele><time>2026-04-11T09:06:47Z</time></trkpt><trkpt lat="45.70305599666891" lon="9.858552405619418"><ele>260.00000000000006</ele><time>2026-04-11T09:06:49Z</time></trkpt><trkpt lat="45.70310810264632" lon="9.85850181233063"><ele>260.0</ele><time>2026-04-11T09:06:50Z</time></trkpt><trkpt lat="45.7031635863698" lon="9.858452191613726"><ele>260.0</ele><time>2026-04-11T09:06:51Z</time></trkpt><trkpt lat="45.70322197773142" lon="9.858409057425241"><ele>260.0</ele><time>2026-04-11T09:06:52Z</time></trkpt><trkpt lat="45.70328433802078" lon="9.858386220119163"><ele>260.0</ele><time>2026-04-11T09:06:53Z</time></trkpt><trkpt lat="45.703351783449705" lon="9.85837708359995"><ele>260.00000000000006</ele><time>2026-04-11T09:06:54Z</time></trkpt><trkpt lat="45.703416397848436" lon="9.858372668490155"><ele>260.0</ele><time>2026-04-11T09:06:55Z</time></trkpt><trkpt lat="45.70347960948616" lon="9.858386507051032"><ele>260.0</ele><time>2026-04-11T09:06:56Z</time></trkpt><trkpt lat="45.703580598540775" lon="9.858434904231618"><ele>260.0</ele><time>2026-04-11T09:06:58Z</time></trkpt><trkpt lat="45.70358688073694" lon="9.858577356251187"><ele>260.0</ele><time>2026-04-11T09:07:00Z</time></trkpt><trkpt lat="45.70355839519804" lon="9.858660454628351"><ele>260.0</ele><time>2026-04-11T09:07:01Z</time></trkpt><trkpt lat="45.70352644734235" lon="9.858821227393847"><ele>260.0</ele><time>2026-04-11T09:07:03Z</time></trkpt><trkpt lat="45.70348663882629" lon="9.858988218745033"><ele>260.0</ele><time>2026-04-11T09:07:05Z</time></trkpt><trkpt lat="45.703458534937575" lon="9.859154655820666"><ele>260.0</ele><time>2026-04-11T09:07:07Z</time></trkpt><trkpt lat="45.70345187150137" lon="9.859285799559375"><ele>260.0</ele><time>2026-04-11T09:07:09Z</time></trkpt><trkpt lat="45.70349391709754" lon="9.8593967496579"><ele>260.0</ele><time>2026-04-11T09:07:11Z</time></trkpt><trkpt lat="45.70355497733946" lon="9.859440445260683"><ele>260.0</ele><time>2026-04-11T09:07:12Z</time></trkpt><trkpt lat="45.703616150156336" lon="9.859486140435695"><ele>260.0</ele><time>2026-04-11T09:07:13Z</time></trkpt><trkpt lat="45.70367225733278" lon="9.8595399647688"><ele>260.5</ele><time>2026-04-11T09:07:14Z</time></trkpt><trkpt lat="45.70372426113606" lon="9.859596026826482"><ele>261.0</ele><time>2026-04-11T09:07:15Z</time></trkpt><trkpt lat="45.70376953979975" lon="9.859658985424307"><ele>261.5</ele><time>2026-04-11T09:07:16Z</time></trkpt><trkpt lat="45.7038064867153" lon="9.859737210287673"><ele>262.0</ele><time>2026-04-11T09:07:17Z</time></trkpt><trkpt lat="45.70387877672674" lon="9.859879469362067"><ele>262.5</ele><time>2026-04-11T09:07:19Z</time></trkpt><trkpt lat="45.70395364970667" lon="9.860024863960273"><ele>263.0</ele><time>2026-04-11T09:07:21Z</time></trkpt><trkpt lat="45.704033260001296" lon="9.860162895960162"><ele>263.1666666666667</ele><time>2026-04-11T09:07:23Z</time></trkpt><trkpt lat="45.704073865187944" lon="9.86023180064861"><ele>263.33333333333337</ele><time>2026-04-11T09:07:24Z</time></trkpt><trkpt lat="45.70415053115605" lon="9.860372485485394"><ele>263.5</ele><time>2026-04-11T09:07:26Z</time></trkpt><trkpt lat="45.70419181880229" lon="9.860441900338149"><ele>263.6666666666667</ele><time>2026-04-11T09:07:27Z</time></trkpt><trkpt lat="45.7042355649537" lon="9.860518212594526"><ele>263.8333333333333</ele><time>2026-04-11T09:07:28Z</time></trkpt><trkpt lat="45.70427549304944" lon="9.860587960700347"><ele>264.0</ele><time>2026-04-11T09:07:29Z</time></trkpt><trkpt lat="45.70435355149847" lon="9.860726653158066"><ele>264.0</ele><time>2026-04-11T09:07:31Z</time></trkpt><trkpt lat="45.70443181378296" lon="9.860862667753523"><ele>264.0</ele><time>2026-04-11T09:07:33Z</time></trkpt><trkpt lat="45.70451339201318" lon="9.860996130242444"><ele>264.0</ele><time>2026-04-11T09:07:35Z</time></trkpt><trkpt lat="45.704547480844035" lon="9.861072168430862"><ele>264.0</ele><time>2026-04-11T09:07:36Z</time></trkpt><trkpt lat="45.70457633441866" lon="9.8612400836655"><ele>264.0</ele><time>2026-04-11T09:07:38Z</time></trkpt><trkpt lat="45.70456504709367" lon="9.86133086323638"><ele>264.0</ele><time>2026-04-11T09:07:39Z</time></trkpt><trkpt lat="45.704537414057604" lon="9.861414130609145"><ele>264.0</ele><time>2026-04-11T09:07:40Z</time></trkpt><trkpt lat="45.704467077852435" lon="9.86156303082543"><ele>264.0</ele><time>2026-04-11T09:07:42Z</time></trkpt><trkpt lat="45.70437429784866" lon="9.861679405634375"><ele>264.0</ele><time>2026-04-11T09:07:44Z</time></trkpt><trkpt lat="45.704278693034674" lon="9.861785874821596"><ele>264.0</ele><time>2026-04-11T09:07:46Z</time></trkpt><trkpt lat="45.704183167748944" lon="9.861892847638734"><ele>264.2</ele><time>2026-04-11T09:07:48Z</time></trkpt><trkpt lat="45.704112934956875" lon="9.862038369218615"><ele>264.4</ele><time>2026-04-11T09:07:50Z</time></trkpt><trkpt lat="45.704111557473965" lon="9.862219572391538"><ele>264.6</ele><time>2026-04-11T09:07:52Z</time></trkpt><trkpt lat="45.70414305512825" lon="9.86238435011417"><ele>264.8</ele><time>2026-04-11T09:07:54Z</time></trkpt><trkpt lat="45.704172279919966" lon="9.86247105439041"><ele>265.0</ele><time>2026-04-11T09:07:55Z</time></trkpt><trkpt lat="45.70419346046779" lon="9.862558356326893"><ele>265.4285714285714</ele><time>2026-04-11T09:07:56Z</time></trkpt><trkpt lat="45.70422243106667" lon="9.862641925018666"><ele>265.85714285714283</ele><time>2026-04-11T09:07:57Z</time></trkpt><trkpt lat="45.704247981102455" lon="9.862728550036417"><ele>266.2857142857143</ele><time>2026-04-11T09:07:58Z</time></trkpt><trkpt lat="45.70426677954312" lon="9.862817121589245"><ele>266.71428571428567</ele><time>2026-04-11T09:07:59Z</time></trkpt><trkpt lat="45.70428768975053" lon="9.862902417970997"><ele>267.1428571428571</ele><time>2026-04-11T09:08:00Z</time></trkpt><trkpt lat="45.7043078256049" lon="9.862990314949391"><ele>267.57142857142856</ele><time>2026-04-11T09:08:01Z</time></trkpt><trkpt lat="45.70433064380655" lon="9.863080371058954"><ele>268.0</ele><time>2026-04-11T09:08:02Z</time></trkpt><trkpt lat="45.704373900472966" lon="9.863258082148002"><ele>267.6</ele><time>2026-04-11T09:08:04Z</time></trkpt><trkpt lat="45.70441428378254" lon="9.863430195815406"><ele>267.20000000000005</ele><time>2026-04-11T09:08:06Z</time></trkpt><trkpt lat="45.70446137835018" lon="9.863598066951333"><ele>266.8</ele><time>2026-04-11T09:08:08Z</time></trkpt><trkpt lat="45.704487347531455" lon="9.863682550012602"><ele>266.40000000000003</ele><time>2026-04-11T09:08:09Z</time></trkpt><trkpt lat="45.70452526057873" lon="9.863853451865246"><ele>266.0</ele><time>2026-04-11T09:08:11Z</time></trkpt><trkpt lat="45.70454623049975" lon="9.863939618773648"><ele>266.0</ele><time>2026-04-11T09:08:12Z</time></trkpt><trkpt lat="45.70456841853137" lon="9.864024431485023"><ele>266.0</ele><time>2026-04-11T09:08:13Z</time></trkpt><trkpt lat="45.70459354996382" lon="9.864108581105151"><ele>266.0</ele><time>2026-04-11T09:08:14Z</time></trkpt><trkpt lat="45.70463614691364" lon="9.864278549670484"><ele>266.0</ele><time>2026-04-11T09:08:16Z</time></trkpt><trkpt lat="45.70467423462234" lon="9.86444915529994"><ele>266.0</ele><time>2026-04-11T09:08:18Z</time></trkpt><trkpt lat="45.70471022707834" lon="9.864623770331711"><ele>266.0</ele><time>2026-04-11T09:08:20Z</time></trkpt><trkpt lat="45.7047418561676" lon="9.864793668986659"><ele>266.0</ele><time>2026-04-11T09:08:22Z</time></trkpt><trkpt lat="45.704771964677526" lon="9.864965292896395"><ele>266.0</ele><time>2026-04-11T09:08:24Z</time></trkpt><trkpt lat="45.70479411532628" lon="9.865137965067664"><ele>266.0</ele><time>2026-04-11T09:08:26Z</time></trkpt><trkpt lat="45.70480827409002" lon="9.865226598432356"><ele>266.0</ele><time>2026-04-11T09:08:27Z</time></trkpt><trkpt lat="45.704818406370514" lon="9.865317352172806"><ele>265.83333333333337</ele><time>2026-04-11T09:08:28Z</time></trkpt><trkpt lat="45.704841945248084" lon="9.86549837302759"><ele>265.6666666666667</ele><time>2026-04-11T09:08:30Z</time></trkpt><trkpt lat="45.704852933717035" lon="9.865588772622491"><ele>265.5</ele><time>2026-04-11T09:08:31Z</time></trkpt><trkpt lat="45.704864623153426" lon="9.86567902849778"><ele>265.3333333333333</ele><time>2026-04-11T09:08:32Z</time></trkpt><trkpt lat="45.70486980503424" lon="9.865770731570315"><ele>265.16666666666663</ele><time>2026-04-11T09:08:33Z</time></trkpt><trkpt lat="45.70487215604863" lon="9.865861928255368"><ele>265.0</ele><time>2026-04-11T09:08:34Z</time></trkpt><trkpt lat="45.704879204071744" lon="9.865955492103728"><ele>265.5</ele><time>2026-04-11T09:08:35Z</time></trkpt><trkpt lat="45.704891034781056" lon="9.866046045222681"><ele>266.0</ele><time>2026-04-11T09:08:36Z</time></trkpt><trkpt lat="45.7048975498501" lon="9.866138733207082"><ele>266.5</ele><time>2026-04-11T09:08:37Z</time></trkpt><trkpt lat="45.7049126958386" lon="9.866322108227102"><ele>267.0</ele><time>2026-04-11T09:08:39Z</time></trkpt><trkpt lat="45.70491451659634" lon="9.866415259190427"><ele>267.5</ele><time>2026-04-11T09:08:40Z</time></trkpt><trkpt lat="45.70493138483861" lon="9.866592007629949"><ele>268.0</ele><time>2026-04-11T09:08:42Z</time></trkpt><trkpt lat="45.70493915413149" lon="9.866684801743475"><ele>269.0</ele><time>2026-04-11T09:08:43Z</time></trkpt><trkpt lat="45.70495058259462" lon="9.866856059710464"><ele>270.0</ele><time>2026-04-11T09:08:45Z</time></trkpt><trkpt lat="45.70496638174245" lon="9.867029311457564"><ele>271.0</ele><time>2026-04-11T09:08:47Z</time></trkpt><trkpt lat="45.70498114281843" lon="9.86720368718782"><ele>272.0</ele><time>2026-04-11T09:08:49Z</time></trkpt><trkpt lat="45.70499452043186" lon="9.867378059325018"><ele>272.0</ele><time>2026-04-11T09:08:51Z</time></trkpt><trkpt lat="45.70501027585222" lon="9.867552280921307"><ele>272.0</ele><time>2026-04-11T09:08:53Z</time></trkpt><trkpt lat="45.70502576788431" lon="9.867727235250333"><ele>272.0</ele><time>2026-04-11T09:08:55Z</time></trkpt><trkpt lat="45.70504982946576" lon="9.867901011247165"><ele>272.0</ele><time>2026-04-11T09:08:57Z</time></trkpt><trkpt lat="45.70506460258678" lon="9.868076931718406"><ele>271.75</ele><time>2026-04-11T09:08:59Z</time></trkpt><trkpt lat="45.705082168175466" lon="9.868248323074546"><ele>271.5</ele><time>2026-04-11T09:09:01Z</time></trkpt><trkpt lat="45.705097616589995" lon="9.868416020553264"><ele>271.25</ele><time>2026-04-11T09:09:03Z</time></trkpt><trkpt lat="45.70505788066105" lon="9.868576226219258"><ele>271.0</ele><time>2026-04-11T09:09:05Z</time></trkpt><trkpt lat="45.70496216202392" lon="9.868691569859656"><ele>271.0</ele><time>2026-04-11T09:09:07Z</time></trkpt><trkpt lat="45.704847104553124" lon="9.868758319489707"><ele>271.0</ele><time>2026-04-11T09:09:09Z</time></trkpt><trkpt lat="45.70475525485087" lon="9.868872445074507"><ele>271.0</ele><time>2026-04-11T09:09:11Z</time></trkpt><trkpt lat="45.70472722400913" lon="9.869047595880359"><ele>271.0</ele><time>2026-04-11T09:09:13Z</time></trkpt><trkpt lat="45.70472642645641" lon="9.869138080149238"><ele>271.0</ele><time>2026-04-11T09:09:14Z</time></trkpt><trkpt lat="45.70472996291463" lon="9.869312296866523"><ele>271.25</ele><time>2026-04-11T09:09:16Z</time></trkpt><trkpt lat="45.70474198975463" lon="9.869484847474979"><ele>271.5</ele><time>2026-04-11T09:09:18Z</time></trkpt><trkpt lat="45.70476034824327" lon="9.869653145395594"><ele>271.75</ele><time>2026-04-11T09:09:20Z</time></trkpt><trkpt lat="45.70477469169478" lon="9.869818560625168"><ele>272.0</ele><time>2026-04-11T09:09:22Z</time></trkpt><trkpt lat="45.704787029486084" lon="9.869991374310521"><ele>271.75</ele><time>2026-04-11T09:09:24Z</time></trkpt><trkpt lat="45.70478633629792" lon="9.870159369372224"><ele>271.5</ele><time>2026-04-11T09:09:26Z</time></trkpt><trkpt lat="45.70478271920585" lon="9.870327392498071"><ele>271.25</ele><time>2026-04-11T09:09:28Z</time></trkpt><trkpt lat="45.704767794766816" lon="9.870493427041218"><ele>271.0</ele><time>2026-04-11T09:09:30Z</time></trkpt><trkpt lat="45.704725025505" lon="9.870645398424587"><ele>271.0</ele><time>2026-04-11T09:09:32Z</time></trkpt><trkpt lat="45.70464055797929" lon="9.870682280926927"><ele>271.0</ele><time>2026-04-11T09:09:34Z</time></trkpt><trkpt lat="45.70455419135271" lon="9.870592473851381"><ele>271.0</ele><time>2026-04-11T09:09:36Z</time></trkpt><trkpt lat="45.70451473511" lon="9.87044116545417"><ele>271.0</ele><time>2026-04-11T09:09:38Z</time></trkpt><trkpt lat="45.704516438478514" lon="9.870283236317709"><ele>271.0</ele><time>2026-04-11T09:09:40Z</time></trkpt><trkpt lat="45.70451009871035" lon="9.870134737388012"><ele>271.2</ele><time>2026-04-11T09:09:42Z</time></trkpt><trkpt lat="45.704487774058435" lon="9.870011064364236"><ele>271.40000000000003</ele><time>2026-04-11T09:09:44Z</time></trkpt><trkpt lat="45.70445516141253" lon="9.869908955442977"><ele>271.6</ele><time>2026-04-11T09:09:46Z</time></trkpt><trkpt lat="45.7043717177276" lon="9.869831502222507"><ele>271.8</ele><time>2026-04-11T09:09:48Z</time></trkpt><trkpt lat="45.70426776896827" lon="9.86979145455069"><ele>272.0</ele><time>2026-04-11T09:09:50Z</time></trkpt><trkpt lat="45.70416978710769" lon="9.869758083797555"><ele>274.2</ele><time>2026-04-11T09:09:52Z</time></trkpt><trkpt lat="45.70408763187939" lon="9.869672833193942"><ele>276.4</ele><time>2026-04-11T09:09:54Z</time></trkpt><trkpt lat="45.704074759556235" lon="9.869520744012386"><ele>278.6</ele><time>2026-04-11T09:09:56Z</time></trkpt><trkpt lat="45.70406776495936" lon="9.869377667571909"><ele>280.8</ele><time>2026-04-11T09:09:58Z</time></trkpt><trkpt lat="45.70407010599745" lon="9.869236771245946"><ele>283.0</ele><time>2026-04-11T09:10:00Z</time></trkpt><trkpt lat="45.70405686208203" lon="9.869096313202238"><ele>284.0</ele><time>2026-04-11T09:10:02Z</time></trkpt><trkpt lat="45.7040475601612" lon="9.868955513445384"><ele>285.0</ele><time>2026-04-11T09:10:04Z</time></trkpt><trkpt lat="45.704037397276686" lon="9.868819074108359"><ele>286.0</ele><time>2026-04-11T09:10:06Z</time></trkpt><trkpt lat="45.70401744763949" lon="9.86867847763832"><ele>287.0</ele><time>2026-04-11T09:10:08Z</time></trkpt><trkpt lat="45.704006781355744" lon="9.868538485815208"><ele>288.0</ele><time>2026-04-11T09:10:10Z</time></trkpt><trkpt lat="45.70399838131671" lon="9.868400979382628"><ele>288.8</ele><time>2026-04-11T09:10:12Z</time></trkpt><trkpt lat="45.70399570793503" lon="9.868254905335512"><ele>289.6</ele><time>2026-04-11T09:10:14Z</time></trkpt><trkpt lat="45.70398513735589" lon="9.86811694998657"><ele>290.4</ele><time>2026-04-11T09:10:16Z</time></trkpt><trkpt lat="45.703979475872075" lon="9.867982118604248"><ele>291.2</ele><time>2026-04-11T09:10:18Z</time></trkpt><trkpt lat="45.70396947492028" lon="9.867850261308497"><ele>292.0</ele><time>2026-04-11T09:10:20Z</time></trkpt><trkpt lat="45.70395963768857" lon="9.867714660539205"><ele>292.2</ele><time>2026-04-11T09:10:22Z</time></trkpt><trkpt lat="45.70395217301867" lon="9.867579204532898"><ele>292.4</ele><time>2026-04-11T09:10:24Z</time></trkpt><trkpt lat="45.7039465928799" lon="9.867439793470636"><ele>292.6</ele><time>2026-04-11T09:10:26Z</time></trkpt><trkpt lat="45.703941431710696" lon="9.867301840938282"><ele>292.8</ele><time>2026-04-11T09:10:28Z</time></trkpt><trkpt lat="45.70392496778247" lon="9.867163586019572"><ele>293.0</ele><time>2026-04-11T09:10:30Z</time></trkpt><trkpt lat="45.70390860897594" lon="9.867033909942045"><ele>293.0</ele><time>2026-04-11T09:10:32Z</time></trkpt><trkpt lat="45.70388650385365" lon="9.866906114647946"><ele>293.0</ele><time>2026-04-11T09:10:34Z</time></trkpt><trkpt lat="45.70385974232505" lon="9.866778589323438"><ele>293.0</ele><time>2026-04-11T09:10:36Z</time></trkpt><trkpt lat="45.70381906748299" lon="9.866666536799308"><ele>293.0</ele><time>2026-04-11T09:10:38Z</time></trkpt><trkpt lat="45.703787195366814" lon="9.866561205276607"><ele>293.0</ele><time>2026-04-11T09:10:40Z</time></trkpt><trkpt lat="45.70374297484222" lon="9.86646787685951"><ele>293.0</ele><time>2026-04-11T09:10:42Z</time></trkpt><trkpt lat="45.70366580104642" lon="9.86645775958467"><ele>293.0</ele><time>2026-04-11T09:10:44Z</time></trkpt><trkpt lat="45.70362780437953" lon="9.866565021288126"><ele>293.0</ele><time>2026-04-11T09:10:46Z</time></trkpt><trkpt lat="45.70363539785079" lon="9.866689201400941"><ele>293.0</ele><time>2026-04-11T09:10:48Z</time></trkpt><trkpt lat="45.70363705230224" lon="9.866801243444236"><ele>293.0</ele><time>2026-04-11T09:10:50Z</time></trkpt><trkpt lat="45.70363720010118" lon="9.866913214840965"><ele>293.0</ele><time>2026-04-11T09:10:52Z</time></trkpt><trkpt lat="45.70363325637016" lon="9.86702679962569"><ele>293.0</ele><time>2026-04-11T09:10:54Z</time></trkpt><trkpt lat="45.70361480625699" lon="9.867127776860109"><ele>293.0</ele><time>2026-04-11T09:10:56Z</time></trkpt><trkpt lat="45.703598133238415" lon="9.867229075939317"><ele>293.0</ele><time>2026-04-11T09:10:58Z</time></trkpt><trkpt lat="45.703560167075324" lon="9.867307183291326"><ele>293.0</ele><time>2026-04-11T09:11:00Z</time></trkpt><trkpt lat="45.70350192194373" lon="9.867235563683234"><ele>293.0</ele><time>2026-04-11T09:11:02Z</time></trkpt><trkpt lat="45.70350948109963" lon="9.867119842800067"><ele>293.0</ele><time>2026-04-11T09:11:04Z</time></trkpt><trkpt lat="45.70343146607959" lon="9.86709883148748"><ele>293.0</ele><time>2026-04-11T09:11:06Z</time></trkpt><trkpt lat="45.7034008163991" lon="9.867227175533367"><ele>297.57142857142856</ele><time>2026-04-11T09:11:08Z</time></trkpt><trkpt lat="45.70340430029143" lon="9.867329830106218"><ele>302.1428571428571</ele><time>2026-04-11T09:11:10Z</time></trkpt><trkpt lat="45.703381974762934" lon="9.867426378564563"><ele>306.71428571428567</ele><time>2026-04-11T09:11:12Z</time></trkpt><trkpt lat="45.70335202404048" lon="9.867517553387462"><ele>311.2857142857143</ele><time>2026-04-11T09:11:14Z</time></trkpt><trkpt lat="45.703327079586614" lon="9.867608157541639"><ele>315.8571428571429</ele><time>2026-04-11T09:11:16Z</time></trkpt><trkpt lat="45.703284782643124" lon="9.867696812730546"><ele>320.4285714285714</ele><time>2026-04-11T09:11:18Z</time></trkpt><trkpt lat="45.70325239105577" lon="9.867785980507499"><ele>325.0</ele><time>2026-04-11T09:11:20Z</time></trkpt><trkpt lat="45.703208608879194" lon="9.867863549132485"><ele>326.0</ele><time>2026-04-11T09:11:22Z</time></trkpt><trkpt lat="45.70318210475946" lon="9.867951070673017"><ele>327.0</ele><time>2026-04-11T09:11:24Z</time></trkpt><trkpt lat="45.7031354778014" lon="9.868062202260123"><ele>328.0</ele><time>2026-04-11T09:11:27Z</time></trkpt><trkpt lat="45.70308350421384" lon="9.868159114373036"><ele>329.0</ele><time>2026-04-11T09:11:30Z</time></trkpt><trkpt lat="45.70303416333871" lon="9.8682530392659"><ele>330.0</ele><time>2026-04-11T09:11:33Z</time></trkpt><trkpt lat="45.70300358885649" lon="9.868358741734237"><ele>331.0</ele><time>2026-04-11T09:11:36Z</time></trkpt><trkpt lat="45.702964539529326" lon="9.868475978499879"><ele>331.0</ele><time>2026-04-11T09:11:39Z</time></trkpt><trkpt lat="45.70293768266199" lon="9.868560119460467"><ele>331.0</ele><time>2026-04-11T09:11:41Z</time></trkpt><trkpt lat="45.702908681615924" lon="9.868641341069635"><ele>331.0</ele><time>2026-04-11T09:11:43Z</time></trkpt><trkpt lat="45.70288553614735" lon="9.868726242685494"><ele>331.0</ele><time>2026-04-11T09:11:45Z</time></trkpt><trkpt lat="45.702842778948785" lon="9.868798007206122"><ele>331.0</ele><time>2026-04-11T09:11:47Z</time></trkpt><trkpt lat="45.70279790469692" lon="9.86886833133929"><ele>331.0</ele><time>2026-04-11T09:11:49Z</time></trkpt><trkpt lat="45.70274714562425" lon="9.868925853545072"><ele>331.0</ele><time>2026-04-11T09:11:51Z</time></trkpt><trkpt lat="45.702675170762014" lon="9.869008858769227"><ele>335.0</ele><time>2026-04-11T09:11:54Z</time></trkpt><trkpt lat="45.70259905382507" lon="9.86907282424993"><ele>339.0</ele><time>2026-04-11T09:11:57Z</time></trkpt><trkpt lat="45.70252145028448" lon="9.869132348193123"><ele>343.0</ele><time>2026-04-11T09:12:00Z</time></trkpt><trkpt lat="45.70244678803799" lon="9.86919381748834"><ele>347.0</ele><time>2026-04-11T09:12:03Z</time></trkpt><trkpt lat="45.70236866860731" lon="9.869256613126858"><ele>351.0</ele><time>2026-04-11T09:12:06Z</time></trkpt><trkpt lat="45.70228959183596" lon="9.86932526783172"><ele>355.0</ele><time>2026-04-11T09:12:09Z</time></trkpt><trkpt lat="45.702217462370285" lon="9.86940587507534"><ele>355.0</ele><time>2026-04-11T09:12:12Z</time></trkpt><trkpt lat="45.70217485619138" lon="9.869473061778375"><ele>355.0</ele><time>2026-04-11T09:12:14Z</time></trkpt><trkpt lat="45.70211415387315" lon="9.869574778488428"><ele>355.0</ele><time>2026-04-11T09:12:17Z</time></trkpt><trkpt lat="45.702071128027065" lon="9.86964134642994"><ele>355.0</ele><time>2026-04-11T09:12:19Z</time></trkpt><trkpt lat="45.7020120495583" lon="9.869736000561772"><ele>355.0</ele><time>2026-04-11T09:12:22Z</time></trkpt><trkpt lat="45.70195347391711" lon="9.869828092472721"><ele>355.0</ele><time>2026-04-11T09:12:25Z</time></trkpt><trkpt lat="45.701889526574845" lon="9.86992558642646"><ele>357.85714285714283</ele><time>2026-04-11T09:12:28Z</time></trkpt><trkpt lat="45.70183966601614" lon="9.86998629343366"><ele>360.7142857142857</ele><time>2026-04-11T09:12:30Z</time></trkpt><trkpt lat="45.70179632978085" lon="9.870053764556934"><ele>363.57142857142856</ele><time>2026-04-11T09:12:32Z</time></trkpt><trkpt lat="45.701751137904445" lon="9.870116976651234"><ele>366.42857142857144</ele><time>2026-04-11T09:12:34Z</time></trkpt><trkpt lat="45.70169789809268" lon="9.870176247156994"><ele>369.2857142857143</ele><time>2026-04-11T09:12:36Z</time></trkpt><trkpt lat="45.7016326393277" lon="9.87025989587637"><ele>372.14285714285717</ele><time>2026-04-11T09:12:39Z</time></trkpt><trkpt lat="45.70157534149313" lon="9.870344726141491"><ele>375.0</ele><time>2026-04-11T09:12:42Z</time></trkpt><trkpt lat="45.7015032504089" lon="9.870422691967878"><ele>375.5714285714286</ele><time>2026-04-11T09:12:45Z</time></trkpt><trkpt lat="45.701434393891105" lon="9.870499177540264"><ele>376.1428571428571</ele><time>2026-04-11T09:12:48Z</time></trkpt><trkpt lat="45.70138606256333" lon="9.870574484914489"><ele>376.7142857142857</ele><time>2026-04-11T09:12:50Z</time></trkpt><trkpt lat="45.70133254378855" lon="9.870631895916194"><ele>377.28571428571433</ele><time>2026-04-11T09:12:52Z</time></trkpt><trkpt lat="45.701262870961884" lon="9.87072221868063"><ele>377.8571428571429</ele><time>2026-04-11T09:12:55Z</time></trkpt><trkpt lat="45.70121862344791" lon="9.870788000240617"><ele>378.42857142857144</ele><time>2026-04-11T09:12:57Z</time></trkpt><trkpt lat="45.701169890144556" lon="9.870845854010467"><ele>379.0</ele><time>2026-04-11T09:12:59Z</time></trkpt><trkpt lat="45.70110140957805" lon="9.870928450437068"><ele>383.2</ele><time>2026-04-11T09:13:02Z</time></trkpt><trkpt lat="45.701031398134795" lon="9.871002214505666"><ele>387.4</ele><time>2026-04-11T09:13:05Z</time></trkpt><trkpt lat="45.700963823799086" lon="9.871085746916947"><ele>391.6</ele><time>2026-04-11T09:13:08Z</time></trkpt><trkpt lat="45.700898099412534" lon="9.871168121921567"><ele>395.8</ele><time>2026-04-11T09:13:11Z</time></trkpt><trkpt lat="45.70082728845836" lon="9.871249553711527"><ele>400.0</ele><time>2026-04-11T09:13:14Z</time></trkpt><trkpt lat="45.700753110933" lon="9.871334966262179"><ele>400.00000000000006</ele><time>2026-04-11T09:13:17Z</time></trkpt><trkpt lat="45.70070159456675" lon="9.871394175036682"><ele>400.0</ele><time>2026-04-11T09:13:19Z</time></trkpt><trkpt lat="45.700627191718134" lon="9.8714758959333"><ele>400.0</ele><time>2026-04-11T09:13:22Z</time></trkpt><trkpt lat="45.700548283820396" lon="9.871545536765337"><ele>400.0</ele><time>2026-04-11T09:13:25Z</time></trkpt><trkpt lat="45.70046227886561" lon="9.87159839361969"><ele>400.00000000000006</ele><time>2026-04-11T09:13:28Z</time></trkpt><trkpt lat="45.70037967757678" lon="9.871647056687015"><ele>400.0</ele><time>2026-04-11T09:13:31Z</time></trkpt><trkpt lat="45.70029634879545" lon="9.871692371372163"><ele>400.5714285714286</ele><time>2026-04-11T09:13:34Z</time></trkpt><trkpt lat="45.700230479329164" lon="9.871705085260894"><ele>401.14285714285717</ele><time>2026-04-11T09:13:36Z</time></trkpt><trkpt lat="45.700148676865815" lon="9.871760082907565"><ele>401.7142857142857</ele><time>2026-04-11T09:13:39Z</time></trkpt><trkpt lat="45.70008562854807" lon="9.871775739607713"><ele>402.28571428571433</ele><time>2026-04-11T09:13:41Z</time></trkpt><trkpt lat="45.70001963886345" lon="9.871786875557238"><ele>402.85714285714283</ele><time>2026-04-11T09:13:43Z</time></trkpt><trkpt lat="45.69995502901012" lon="9.871810687001606"><ele>403.42857142857144</ele><time>2026-04-11T09:13:45Z</time></trkpt><trkpt lat="45.699888435762496" lon="9.871829666186319"><ele>404.0</ele><time>2026-04-11T09:13:47Z</time></trkpt><trkpt lat="45.69981962375364" lon="9.871840733476535"><ele>404.57142857142856</ele><time>2026-04-11T09:13:49Z</time></trkpt><trkpt lat="45.6997535699096" lon="9.871861771101333"><ele>405.1428571428571</ele><time>2026-04-11T09:13:51Z</time></trkpt><trkpt lat="45.69965271018974" lon="9.871893525718738"><ele>405.7142857142857</ele><time>2026-04-11T09:13:54Z</time></trkpt><trkpt lat="45.699588981559394" lon="9.871927540764593"><ele>406.2857142857143</ele><time>2026-04-11T09:13:56Z</time></trkpt><trkpt lat="45.69952360870321" lon="9.871958725502077"><ele>406.8571428571429</ele><time>2026-04-11T09:13:58Z</time></trkpt><trkpt lat="45.69946357856064" lon="9.871996231321745"><ele>407.42857142857144</ele><time>2026-04-11T09:14:00Z</time></trkpt><trkpt lat="45.69940582471713" lon="9.872035257705068"><ele>408.0</ele><time>2026-04-11T09:14:02Z</time></trkpt><trkpt lat="45.69931839050757" lon="9.872084993137607"><ele>410.0</ele><time>2026-04-11T09:14:05Z</time></trkpt><trkpt lat="45.69923009471618" lon="9.872124162534544"><ele>412.0</ele><time>2026-04-11T09:14:08Z</time></trkpt><trkpt lat="45.69914139917251" lon="9.872151307717097"><ele>414.0</ele><time>2026-04-11T09:14:11Z</time></trkpt><trkpt lat="45.69907813459559" lon="9.872145278427045"><ele>416.0</ele><time>2026-04-11T09:14:13Z</time></trkpt><trkpt lat="45.69901153250305" lon="9.87213369450236"><ele>418.0</ele><time>2026-04-11T09:14:15Z</time></trkpt><trkpt lat="45.69894715459548" lon="9.872133939865982"><ele>420.0</ele><time>2026-04-11T09:14:17Z</time></trkpt><trkpt lat="45.698854415692274" lon="9.872121572618735"><ele>420.0</ele><time>2026-04-11T09:14:20Z</time></trkpt><trkpt lat="45.69876234189535" lon="9.872124455646365"><ele>420.0</ele><time>2026-04-11T09:14:23Z</time></trkpt><trkpt lat="45.69866817721094" lon="9.872143856147012"><ele>420.0</ele><time>2026-04-11T09:14:26Z</time></trkpt><trkpt lat="45.69857999894276" lon="9.872178528918182"><ele>420.0</ele><time>2026-04-11T09:14:29Z</time></trkpt><trkpt lat="45.69852189408424" lon="9.872217560933137"><ele>420.0</ele><time>2026-04-11T09:14:31Z</time></trkpt><trkpt lat="45.69846242814149" lon="9.872270791649584"><ele>420.0</ele><time>2026-04-11T09:14:33Z</time></trkpt><trkpt lat="45.69841282836956" lon="9.872328350947747"><ele>422.5</ele><time>2026-04-11T09:14:35Z</time></trkpt><trkpt lat="45.698362929978884" lon="9.872395679838174"><ele>425.0</ele><time>2026-04-11T09:14:37Z</time></trkpt><trkpt lat="45.69829522695071" lon="9.872490196555365"><ele>427.5</ele><time>2026-04-11T09:14:40Z</time></trkpt><trkpt lat="45.69823830850258" lon="9.872600694495892"><ele>430.0</ele><time>2026-04-11T09:14:43Z</time></trkpt><trkpt lat="45.698192489241755" lon="9.872672333386044"><ele>432.5</ele><time>2026-04-11T09:14:45Z</time></trkpt><trkpt lat="45.698154987866026" lon="9.872754805946006"><ele>435.0</ele><time>2026-04-11T09:14:47Z</time></trkpt><trkpt lat="45.69811115272946" lon="9.872835349251375"><ele>435.28571428571433</ele><time>2026-04-11T09:14:49Z</time></trkpt><trkpt lat="45.69805470714078" lon="9.872895794648898"><ele>435.57142857142856</ele><time>2026-04-11T09:14:51Z</time></trkpt><trkpt lat="45.69801762090734" lon="9.872971091622565"><ele>435.8571428571429</ele><time>2026-04-11T09:14:53Z</time></trkpt><trkpt lat="45.6979740188746" lon="9.87304081399111"><ele>436.14285714285717</ele><time>2026-04-11T09:14:55Z</time></trkpt><trkpt lat="45.69790857180251" lon="9.873132613547845"><ele>436.42857142857144</ele><time>2026-04-11T09:14:58Z</time></trkpt><trkpt lat="45.697854530602584" lon="9.873185374291017"><ele>436.7142857142857</ele><time>2026-04-11T09:15:00Z</time></trkpt><trkpt lat="45.69780247622913" lon="9.873249169766583"><ele>437.0</ele><time>2026-04-11T09:15:02Z</time></trkpt><trkpt lat="45.697754768599744" lon="9.873316512543102"><ele>438.0</ele><time>2026-04-11T09:15:04Z</time></trkpt><trkpt lat="45.69770546091696" lon="9.873383068584602"><ele>439.0</ele><time>2026-04-11T09:15:06Z</time></trkpt><trkpt lat="45.69765676557326" lon="9.873452142678456"><ele>440.0</ele><time>2026-04-11T09:15:08Z</time></trkpt><trkpt lat="45.697613009603835" lon="9.873521055969023"><ele>441.0</ele><time>2026-04-11T09:15:10Z</time></trkpt><trkpt lat="45.6975659724887" lon="9.87358111224631"><ele>442.0</ele><time>2026-04-11T09:15:12Z</time></trkpt><trkpt lat="45.697512942489006" lon="9.873635134907419"><ele>443.0</ele><time>2026-04-11T09:15:14Z</time></trkpt><trkpt lat="45.6974613691999" lon="9.873691026679765"><ele>444.0</ele><time>2026-04-11T09:15:16Z</time></trkpt><trkpt lat="45.69741172500164" lon="9.873748412619937"><ele>444.0</ele><time>2026-04-11T09:15:18Z</time></trkpt><trkpt lat="45.6973575654012" lon="9.873795782888552"><ele>444.0</ele><time>2026-04-11T09:15:20Z</time></trkpt><trkpt lat="45.69727838695509" lon="9.873862241682588"><ele>444.0</ele><time>2026-04-11T09:15:23Z</time></trkpt><trkpt lat="45.6972052747511" lon="9.8739377490476"><ele>444.0</ele><time>2026-04-11T09:15:26Z</time></trkpt><trkpt lat="45.69714504805871" lon="9.87397652541078"><ele>444.0</ele><time>2026-04-11T09:15:28Z</time></trkpt><trkpt lat="45.697078501888726" lon="9.874017594619191"><ele>444.0</ele><time>2026-04-11T09:15:30Z</time></trkpt><trkpt lat="45.69701998139856" lon="9.874086767793148"><ele>444.0</ele><time>2026-04-11T09:15:32Z</time></trkpt><trkpt lat="45.696961796143796" lon="9.874167100342605"><ele>444.0</ele><time>2026-04-11T09:15:34Z</time></trkpt><trkpt lat="45.69690458616722" lon="9.874242270394058"><ele>444.0</ele><time>2026-04-11T09:15:36Z</time></trkpt><trkpt lat="45.696848544130596" lon="9.874310911307933"><ele>444.0</ele><time>2026-04-11T09:15:38Z</time></trkpt><trkpt lat="45.6967932444946" lon="9.87436125553273"><ele>444.0</ele><time>2026-04-11T09:15:40Z</time></trkpt><trkpt lat="45.696735826794274" lon="9.874409118812776"><ele>444.0</ele><time>2026-04-11T09:15:42Z</time></trkpt><trkpt lat="45.696678358180144" lon="9.874453131319173"><ele>444.0</ele><time>2026-04-11T09:15:44Z</time></trkpt><trkpt lat="45.69661860141441" lon="9.874492614023795"><ele>446.3333333333333</ele><time>2026-04-11T09:15:46Z</time></trkpt><trkpt lat="45.69655655870138" lon="9.874524370215198"><ele>448.66666666666663</ele><time>2026-04-11T09:15:48Z</time></trkpt><trkpt lat="45.69646916448769" lon="9.87456649393757"><ele>451.0</ele><time>2026-04-11T09:15:51Z</time></trkpt><trkpt lat="45.696381442090484" lon="9.874617621367047"><ele>453.3333333333333</ele><time>2026-04-11T09:15:54Z</time></trkpt><trkpt lat="45.69629981536568" lon="9.874673389286734"><ele>455.66666666666663</ele><time>2026-04-11T09:15:57Z</time></trkpt><trkpt lat="45.69621288352824" lon="9.87472458617819"><ele>458.0</ele><time>2026-04-11T09:16:00Z</time></trkpt><trkpt lat="45.69614936221154" lon="9.874748011418568"><ele>461.16666666666663</ele><time>2026-04-11T09:16:02Z</time></trkpt><trkpt lat="45.696076470642794" lon="9.87475863961775"><ele>464.3333333333333</ele><time>2026-04-11T09:16:04Z</time></trkpt><trkpt lat="45.69600360374187" lon="9.87475434763587"><ele>467.5</ele><time>2026-04-11T09:16:06Z</time></trkpt><trkpt lat="45.69592867735457" lon="9.874726620964749"><ele>470.66666666666663</ele><time>2026-04-11T09:16:08Z</time></trkpt><trkpt lat="45.69585711747801" lon="9.874677461560347"><ele>473.8333333333333</ele><time>2026-04-11T09:16:10Z</time></trkpt><trkpt lat="45.69579050211481" lon="9.874605241044112"><ele>477.0</ele><time>2026-04-11T09:16:12Z</time></trkpt><trkpt lat="45.695738912509356" lon="9.874505587512292"><ele>477.0</ele><time>2026-04-11T09:16:14Z</time></trkpt><trkpt lat="45.69569979662277" lon="9.874394109408478"><ele>477.0</ele><time>2026-04-11T09:16:16Z</time></trkpt><trkpt lat="45.695674978263774" lon="9.874273205677431"><ele>477.0</ele><time>2026-04-11T09:16:18Z</time></trkpt><trkpt lat="45.69564470375845" lon="9.8741489615502"><ele>477.0</ele><time>2026-04-11T09:16:20Z</time></trkpt><trkpt lat="45.69561684873339" lon="9.874027993929833"><ele>477.0</ele><time>2026-04-11T09:16:22Z</time></trkpt><trkpt lat="45.69559524561341" lon="9.873916959288"><ele>477.0</ele><time>2026-04-11T09:16:24Z</time></trkpt><trkpt lat="45.69556849332791" lon="9.873796684865798"><ele>476.5</ele><time>2026-04-11T09:16:26Z</time></trkpt><trkpt lat="45.6955423707449" lon="9.873675173316878"><ele>476.0</ele><time>2026-04-11T09:16:28Z</time></trkpt><trkpt lat="45.695515067110854" lon="9.87354739960783"><ele>475.5</ele><time>2026-04-11T09:16:30Z</time></trkpt><trkpt lat="45.6954845887268" lon="9.873427160563761"><ele>475.0</ele><time>2026-04-11T09:16:32Z</time></trkpt><trkpt lat="45.69544709022422" lon="9.873318557698964"><ele>474.5</ele><time>2026-04-11T09:16:34Z</time></trkpt><trkpt lat="45.69538295784456" lon="9.873232938423877"><ele>474.0</ele><time>2026-04-11T09:16:36Z</time></trkpt><trkpt lat="45.695291203693266" lon="9.873219927933523"><ele>475.6666666666667</ele><time>2026-04-11T09:16:38Z</time></trkpt><trkpt lat="45.69520402301212" lon="9.873255831885936"><ele>477.33333333333337</ele><time>2026-04-11T09:16:40Z</time></trkpt><trkpt lat="45.6951269991441" lon="9.873304932704912"><ele>479.0</ele><time>2026-04-11T09:16:42Z</time></trkpt><trkpt lat="45.69504828169159" lon="9.873332040520062"><ele>480.6666666666667</ele><time>2026-04-11T09:16:44Z</time></trkpt><trkpt lat="45.694968935023724" lon="9.873359624199956"><ele>482.33333333333337</ele><time>2026-04-11T09:16:46Z</time></trkpt><trkpt lat="45.694891908415784" lon="9.873394339888272"><ele>484.0</ele><time>2026-04-11T09:16:48Z</time></trkpt><trkpt lat="45.69481785194258" lon="9.87343508848324"><ele>484.6666666666667</ele><time>2026-04-11T09:16:50Z</time></trkpt><trkpt lat="45.69474157968549" lon="9.873472252546023"><ele>485.33333333333337</ele><time>2026-04-11T09:16:52Z</time></trkpt><trkpt lat="45.694668130378496" lon="9.873521634244451"><ele>486.0</ele><time>2026-04-11T09:16:54Z</time></trkpt><trkpt lat="45.694597066156504" lon="9.873557383250825"><ele>486.66666666666663</ele><time>2026-04-11T09:16:56Z</time></trkpt><trkpt lat="45.694528117661754" lon="9.873604865319743"><ele>487.3333333333333</ele><time>2026-04-11T09:16:58Z</time></trkpt><trkpt lat="45.69445950780088" lon="9.873663119682886"><ele>488.0</ele><time>2026-04-11T09:17:00Z</time></trkpt><trkpt lat="45.6943922079948" lon="9.873721958271132"><ele>491.66666666666663</ele><time>2026-04-11T09:17:02Z</time></trkpt><trkpt lat="45.69433966154388" lon="9.873798010545473"><ele>495.3333333333333</ele><time>2026-04-11T09:17:04Z</time></trkpt><trkpt lat="45.69430078977035" lon="9.873884838094758"><ele>499.0</ele><time>2026-04-11T09:17:06Z</time></trkpt><trkpt lat="45.69426161181217" lon="9.873956922082195"><ele>502.66666666666663</ele><time>2026-04-11T09:17:08Z</time></trkpt><trkpt lat="45.69423084433013" lon="9.87404481927546"><ele>506.3333333333333</ele><time>2026-04-11T09:17:10Z</time></trkpt><trkpt lat="45.69419558199337" lon="9.87416109849655"><ele>510.0</ele><time>2026-04-11T09:17:13Z</time></trkpt><trkpt lat="45.694160187618046" lon="9.874281294626764"><ele>510.0</ele><time>2026-04-11T09:17:16Z</time></trkpt><trkpt lat="45.69414444174643" lon="9.874407428569246"><ele>510.0</ele><time>2026-04-11T09:17:19Z</time></trkpt><trkpt lat="45.69412090648511" lon="9.874531004065464"><ele>510.0</ele><time>2026-04-11T09:17:22Z</time></trkpt><trkpt lat="45.69407514335517" lon="9.874649477111443"><ele>510.0</ele><time>2026-04-11T09:17:25Z</time></trkpt><trkpt lat="45.69401873064378" lon="9.874750265876637"><ele>510.0</ele><time>2026-04-11T09:17:28Z</time></trkpt><trkpt lat="45.693968112402956" lon="9.87485579832931"><ele>510.0</ele><time>2026-04-11T09:17:31Z</time></trkpt><trkpt lat="45.693922349304806" lon="9.874957298651875"><ele>510.00000000000006</ele><time>2026-04-11T09:17:34Z</time></trkpt><trkpt lat="45.69387359363127" lon="9.875072642627474"><ele>510.0</ele><time>2026-04-11T09:17:37Z</time></trkpt><trkpt lat="45.69382289815102" lon="9.87513143308238"><ele>510.0</ele><time>2026-04-11T09:17:39Z</time></trkpt><trkpt lat="45.69376847099218" lon="9.87519285923922"><ele>510.00000000000006</ele><time>2026-04-11T09:17:41Z</time></trkpt><trkpt lat="45.6937146842527" lon="9.875245741534162"><ele>510.0</ele><time>2026-04-11T09:17:43Z</time></trkpt><trkpt lat="45.69365886170098" lon="9.875305787912772"><ele>510.0</ele><time>2026-04-11T09:17:45Z</time></trkpt><trkpt lat="45.693583708929786" lon="9.87538484062256"><ele>511.6666666666667</ele><time>2026-04-11T09:17:48Z</time></trkpt><trkpt lat="45.693530449781434" lon="9.875447908502668"><ele>513.3333333333334</ele><time>2026-04-11T09:17:50Z</time></trkpt><trkpt lat="45.6934630680996" lon="9.875513794564245"><ele>515.0</ele><time>2026-04-11T09:17:52Z</time></trkpt><trkpt lat="45.69339556376287" lon="9.875582634558176"><ele>516.6666666666667</ele><time>2026-04-11T09:17:54Z</time></trkpt><trkpt lat="45.69332549685326" lon="9.875666085209689"><ele>518.3333333333334</ele><time>2026-04-11T09:17:56Z</time></trkpt><trkpt lat="45.69326118139651" lon="9.875767325780169"><ele>520.0</ele><time>2026-04-11T09:17:58Z</time></trkpt><trkpt lat="45.69319943968177" lon="9.875882434563291"><ele>520.6</ele><time>2026-04-11T09:18:00Z</time></trkpt><trkpt lat="45.69313385655888" lon="9.876003010108613"><ele>521.2</ele><time>2026-04-11T09:18:02Z</time></trkpt><trkpt lat="45.69307041463995" lon="9.876132141537965"><ele>521.8</ele><time>2026-04-11T09:18:04Z</time></trkpt><trkpt lat="45.69301148902442" lon="9.87626421158115"><ele>522.4</ele><time>2026-04-11T09:18:06Z</time></trkpt><trkpt lat="45.692956633481124" lon="9.876404344572617"><ele>523.0</ele><time>2026-04-11T09:18:08Z</time></trkpt><trkpt lat="45.6929078619443" lon="9.876519518471687"><ele>523.0</ele><time>2026-04-11T09:18:10Z</time></trkpt><trkpt lat="45.69286680547957" lon="9.876626855344872"><ele>523.0</ele><time>2026-04-11T09:18:12Z</time></trkpt><trkpt lat="45.69282476765577" lon="9.876753588170658"><ele>523.0</ele><time>2026-04-11T09:18:14Z</time></trkpt><trkpt lat="45.692783675172485" lon="9.876893428821502"><ele>523.0</ele><time>2026-04-11T09:18:16Z</time></trkpt><trkpt lat="45.69273724661819" lon="9.87703393664192"><ele>523.0</ele><time>2026-04-11T09:18:18Z</time></trkpt><trkpt lat="45.6926986072811" lon="9.877182464878846"><ele>522.8</ele><time>2026-04-11T09:18:20Z</time></trkpt><trkpt lat="45.69266858398101" lon="9.877339370821007"><ele>522.5999999999999</ele><time>2026-04-11T09:18:22Z</time></trkpt><trkpt lat="45.69264238100664" lon="9.877494695466652"><ele>522.4000000000001</ele><time>2026-04-11T09:18:24Z</time></trkpt><trkpt lat="45.692600913112344" lon="9.877656890762816"><ele>522.2</ele><time>2026-04-11T09:18:26Z</time></trkpt><trkpt lat="45.692600097128455" lon="9.877755610329785"><ele>522.0</ele><time>2026-04-11T09:18:27Z</time></trkpt><trkpt lat="45.692610527431015" lon="9.87786318351972"><ele>521.8571428571429</ele><time>2026-04-11T09:18:28Z</time></trkpt><trkpt lat="45.69261807111895" lon="9.877956716360481"><ele>521.7142857142857</ele><time>2026-04-11T09:18:29Z</time></trkpt><trkpt lat="45.69262647212715" lon="9.87805239622331"><ele>521.5714285714286</ele><time>2026-04-11T09:18:30Z</time></trkpt><trkpt lat="45.6926314252168" lon="9.878155922082952"><ele>521.4285714285714</ele><time>2026-04-11T09:18:31Z</time></trkpt><trkpt lat="45.69263610775703" lon="9.878254402183698"><ele>521.2857142857143</ele><time>2026-04-11T09:18:32Z</time></trkpt><trkpt lat="45.692635187478615" lon="9.878352720965044"><ele>521.1428571428571</ele><time>2026-04-11T09:18:33Z</time></trkpt><trkpt lat="45.692623462020265" lon="9.878454237225679"><ele>521.0</ele><time>2026-04-11T09:18:34Z</time></trkpt><trkpt lat="45.69256933581189" lon="9.878619226953399"><ele>520.8</ele><time>2026-04-11T09:18:36Z</time></trkpt><trkpt lat="45.692503398769254" lon="9.8787643491535"><ele>520.6</ele><time>2026-04-11T09:18:38Z</time></trkpt><trkpt lat="45.692434048861706" lon="9.878901646498852"><ele>520.4</ele><time>2026-04-11T09:18:40Z</time></trkpt><trkpt lat="45.69239438267447" lon="9.878971724987851"><ele>520.2</ele><time>2026-04-11T09:18:41Z</time></trkpt><trkpt lat="45.692325960301794" lon="9.879113506008371"><ele>520.0</ele><time>2026-04-11T09:18:43Z</time></trkpt><trkpt lat="45.692261038685906" lon="9.879249482440034"><ele>520.0</ele><time>2026-04-11T09:18:45Z</time></trkpt><trkpt lat="45.69219755213977" lon="9.879379240300254"><ele>520.0</ele><time>2026-04-11T09:18:47Z</time></trkpt><trkpt lat="45.69213070875255" lon="9.879501572075327"><ele>520.0</ele><time>2026-04-11T09:18:49Z</time></trkpt><trkpt lat="45.692056038322285" lon="9.879606264876353"><ele>520.0</ele><time>2026-04-11T09:18:51Z</time></trkpt><trkpt lat="45.691952235967456" lon="9.879627383852423"><ele>520.0</ele><time>2026-04-11T09:18:53Z</time></trkpt><trkpt lat="45.691839962841264" lon="9.879623175617143"><ele>521.6</ele><time>2026-04-11T09:18:55Z</time></trkpt><trkpt lat="45.691726989705494" lon="9.879628202834038"><ele>523.2</ele><time>2026-04-11T09:18:57Z</time></trkpt><trkpt lat="45.69161313005815" lon="9.879637727127141"><ele>524.8</ele><time>2026-04-11T09:18:59Z</time></trkpt><trkpt lat="45.691503491707266" lon="9.879642948708488"><ele>526.4</ele><time>2026-04-11T09:19:01Z</time></trkpt><trkpt lat="45.69139532930445" lon="9.879642732571378"><ele>528.0</ele><time>2026-04-11T09:19:03Z</time></trkpt><trkpt lat="45.69129307683125" lon="9.879617722856116"><ele>528.0</ele><time>2026-04-11T09:19:05Z</time></trkpt><trkpt lat="45.69119510572785" lon="9.879572898373416"><ele>528.0</ele><time>2026-04-11T09:19:07Z</time></trkpt><trkpt lat="45.6911064755909" lon="9.87949461645135"><ele>528.0</ele><time>2026-04-11T09:19:09Z</time></trkpt><trkpt lat="45.69101317213044" lon="9.879403502799063"><ele>528.0</ele><time>2026-04-11T09:19:11Z</time></trkpt><trkpt lat="45.69092302478405" lon="9.87930398805752"><ele>528.0</ele><time>2026-04-11T09:19:13Z</time></trkpt><trkpt lat="45.69084568154004" lon="9.879193830524791"><ele>530.4</ele><time>2026-04-11T09:19:15Z</time></trkpt><trkpt lat="45.690784106634496" lon="9.879091487195176"><ele>532.8</ele><time>2026-04-11T09:19:17Z</time></trkpt><trkpt lat="45.69072077027009" lon="9.878984666087065"><ele>535.2</ele><time>2026-04-11T09:19:19Z</time></trkpt><trkpt lat="45.6906455536023" lon="9.878908921161491"><ele>537.6</ele><time>2026-04-11T09:19:21Z</time></trkpt><trkpt lat="45.69055702220788" lon="9.878869527576786"><ele>540.0</ele><time>2026-04-11T09:19:23Z</time></trkpt><trkpt lat="45.69048277830171" lon="9.878830663876034"><ele>540.0</ele><time>2026-04-11T09:19:25Z</time></trkpt><trkpt lat="45.690410383472596" lon="9.878788224348517"><ele>540.0</ele><time>2026-04-11T09:19:27Z</time></trkpt><trkpt lat="45.69035027013709" lon="9.878732909212067"><ele>540.0</ele><time>2026-04-11T09:19:29Z</time></trkpt><trkpt lat="45.69029238162194" lon="9.878667893931462"><ele>540.0</ele><time>2026-04-11T09:19:31Z</time></trkpt><trkpt lat="45.69022985208051" lon="9.878632260655088"><ele>540.0</ele><time>2026-04-11T09:19:33Z</time></trkpt><trkpt lat="45.690153789042625" lon="9.87865246858138"><ele>540.0</ele><time>2026-04-11T09:19:35Z</time></trkpt><trkpt lat="45.69009280526706" lon="9.878732286532708"><ele>540.8333333333334</ele><time>2026-04-11T09:19:37Z</time></trkpt><trkpt lat="45.6901117823333" lon="9.87886746012734"><ele>541.6666666666666</ele><time>2026-04-11T09:19:39Z</time></trkpt><trkpt lat="45.690135473431795" lon="9.878979526819295"><ele>542.5</ele><time>2026-04-11T09:19:41Z</time></trkpt><trkpt lat="45.69014817421551" lon="9.87908199943588"><ele>543.3333333333333</ele><time>2026-04-11T09:19:43Z</time></trkpt><trkpt lat="45.69014441047481" lon="9.879181908979293"><ele>544.1666666666666</ele><time>2026-04-11T09:19:45Z</time></trkpt><trkpt lat="45.69013290731173" lon="9.879279478696224"><ele>545.0</ele><time>2026-04-11T09:19:47Z</time></trkpt><trkpt lat="45.69010768917612" lon="9.879384853218161"><ele>547.4</ele><time>2026-04-11T09:19:49Z</time></trkpt><trkpt lat="45.6900706076085" lon="9.879490373821497"><ele>549.8</ele><time>2026-04-11T09:19:51Z</time></trkpt><trkpt lat="45.69002357571673" lon="9.879613844678405"><ele>552.2</ele><time>2026-04-11T09:19:53Z</time></trkpt><trkpt lat="45.68997132852993" lon="9.879734963018265"><ele>554.6</ele><time>2026-04-11T09:19:55Z</time></trkpt><trkpt lat="45.689902153972" lon="9.879860290715927"><ele>557.0</ele><time>2026-04-11T09:19:57Z</time></trkpt><trkpt lat="45.689823097600325" lon="9.87998314754169"><ele>557.0</ele><time>2026-04-11T09:19:59Z</time></trkpt><trkpt lat="45.68974187810731" lon="9.880092699344406"><ele>557.0</ele><time>2026-04-11T09:20:01Z</time></trkpt><trkpt lat="45.6896745726525" lon="9.880236167596362"><ele>557.0</ele><time>2026-04-11T09:20:03Z</time></trkpt><trkpt lat="45.68965931960742" lon="9.880401070134413"><ele>557.0</ele><time>2026-04-11T09:20:05Z</time></trkpt><trkpt lat="45.689671006668014" lon="9.880559244023681"><ele>557.2</ele><time>2026-04-11T09:20:07Z</time></trkpt><trkpt lat="45.68968620256731" lon="9.880714169729874"><ele>557.4000000000001</ele><time>2026-04-11T09:20:09Z</time></trkpt><trkpt lat="45.68972727322813" lon="9.880844780428804"><ele>557.5999999999999</ele><time>2026-04-11T09:20:11Z</time></trkpt><trkpt lat="45.68975520577189" lon="9.880961846222654"><ele>557.8</ele><time>2026-04-11T09:20:13Z</time></trkpt><trkpt lat="45.6898087996296" lon="9.881083730860635"><ele>558.0</ele><time>2026-04-11T09:20:15Z</time></trkpt><trkpt lat="45.68985686455174" lon="9.881201388255642"><ele>558.0</ele><time>2026-04-11T09:20:17Z</time></trkpt><trkpt lat="45.68987120360545" lon="9.881345413298565"><ele>558.0</ele><time>2026-04-11T09:20:19Z</time></trkpt><trkpt lat="45.68980746822553" lon="9.881501978576472"><ele>558.0</ele><time>2026-04-11T09:20:21Z</time></trkpt><trkpt lat="45.68974892662585" lon="9.881553719651293"><ele>558.0</ele><time>2026-04-11T09:20:22Z</time></trkpt><trkpt lat="45.68967480046703" lon="9.881589075048366"><ele>558.0</ele><time>2026-04-11T09:20:23Z</time></trkpt><trkpt lat="45.68958331928947" lon="9.881580486526603"><ele>558.0</ele><time>2026-04-11T09:20:24Z</time></trkpt><trkpt lat="45.689487792757404" lon="9.881561092440572"><ele>558.0</ele><time>2026-04-11T09:20:25Z</time></trkpt><trkpt lat="45.68938906924966" lon="9.881548705039732"><ele>558.0</ele><time>2026-04-11T09:20:26Z</time></trkpt><trkpt lat="45.68928819692678" lon="9.881535121588069"><ele>558.0</ele><time>2026-04-11T09:20:27Z</time></trkpt><trkpt lat="45.68919491980677" lon="9.881517153165266"><ele>558.0</ele><time>2026-04-11T09:20:28Z</time></trkpt><trkpt lat="45.689115221351" lon="9.881503495585019"><ele>556.1666666666666</ele><time>2026-04-11T09:20:29Z</time></trkpt><trkpt lat="45.68904851364046" lon="9.881526959889023"><ele>554.3333333333334</ele><time>2026-04-11T09:20:30Z</time></trkpt><trkpt lat="45.68899906842754" lon="9.881597519789805"><ele>552.5</ele><time>2026-04-11T09:20:31Z</time></trkpt><trkpt lat="45.68896478757485" lon="9.881717670131051"><ele>550.6666666666667</ele><time>2026-04-11T09:20:32Z</time></trkpt><trkpt lat="45.68895755329955" lon="9.881863618138611"><ele>548.8333333333334</ele><time>2026-04-11T09:20:33Z</time></trkpt><trkpt lat="45.68895914303944" lon="9.882011461290535"><ele>547.0</ele><time>2026-04-11T09:20:34Z</time></trkpt><trkpt lat="45.68896771157991" lon="9.882162721818652"><ele>545.6</ele><time>2026-04-11T09:20:35Z</time></trkpt><trkpt lat="45.68896712912475" lon="9.882311331868781"><ele>544.2</ele><time>2026-04-11T09:20:36Z</time></trkpt><trkpt lat="45.688945740942295" lon="9.882453809905384"><ele>542.8</ele><time>2026-04-11T09:20:37Z</time></trkpt><trkpt lat="45.6888998220034" lon="9.88257757116576"><ele>541.4</ele><time>2026-04-11T09:20:38Z</time></trkpt><trkpt lat="45.68883157921257" lon="9.882686823127514"><ele>540.0</ele><time>2026-04-11T09:20:39Z</time></trkpt><trkpt lat="45.68875726328982" lon="9.882781837449501"><ele>539.8333333333334</ele><time>2026-04-11T09:20:40Z</time></trkpt><trkpt lat="45.68867756814149" lon="9.882847116929396"><ele>539.6666666666666</ele><time>2026-04-11T09:20:41Z</time></trkpt><trkpt lat="45.688594860467035" lon="9.882886560486712"><ele>539.5</ele><time>2026-04-11T09:20:42Z</time></trkpt><trkpt lat="45.68851016127285" lon="9.882904692416787"><ele>539.3333333333333</ele><time>2026-04-11T09:20:43Z</time></trkpt><trkpt lat="45.688420025966" lon="9.882914628280448"><ele>539.1666666666666</ele><time>2026-04-11T09:20:44Z</time></trkpt><trkpt lat="45.68833081445992" lon="9.882927485698673"><ele>539.0</ele><time>2026-04-11T09:20:45Z</time></trkpt><trkpt lat="45.688236602156046" lon="9.882936438428018"><ele>535.8</ele><time>2026-04-11T09:20:46Z</time></trkpt><trkpt lat="45.68813986045446" lon="9.882923660945671"><ele>532.5999999999999</ele><time>2026-04-11T09:20:47Z</time></trkpt><trkpt lat="45.68806238879662" lon="9.882901394135837"><ele>529.4</ele><time>2026-04-11T09:20:48Z</time></trkpt><trkpt lat="45.687976347232535" lon="9.882966465889101"><ele>526.1999999999999</ele><time>2026-04-11T09:20:50Z</time></trkpt><trkpt lat="45.6880172292436" lon="9.883175192432843"><ele>523.0</ele><time>2026-04-11T09:20:52Z</time></trkpt><trkpt lat="45.68804570889392" lon="9.883264165109072"><ele>523.0</ele><time>2026-04-11T09:20:53Z</time></trkpt><trkpt lat="45.688054164823754" lon="9.883367877062835"><ele>523.0</ele><time>2026-04-11T09:20:54Z</time></trkpt><trkpt lat="45.688020672865235" lon="9.883457076756562"><ele>523.0</ele><time>2026-04-11T09:20:55Z</time></trkpt><trkpt lat="45.68795367203542" lon="9.883527448469271"><ele>523.0</ele><time>2026-04-11T09:20:56Z</time></trkpt><trkpt lat="45.687873580711006" lon="9.8835439670403"><ele>523.0</ele><time>2026-04-11T09:20:57Z</time></trkpt><trkpt lat="45.68779915621216" lon="9.88352221700492"><ele>523.0</ele><time>2026-04-11T09:20:58Z</time></trkpt><trkpt lat="45.68772875434977" lon="9.883494169185669"><ele>522.8333333333334</ele><time>2026-04-11T09:20:59Z</time></trkpt><trkpt lat="45.687660475573246" lon="9.883472035110726"><ele>522.6666666666667</ele><time>2026-04-11T09:21:00Z</time></trkpt><trkpt lat="45.68759516892297" lon="9.883442585261154"><ele>522.5</ele><time>2026-04-11T09:21:01Z</time></trkpt><trkpt lat="45.687531615044804" lon="9.883416210475513"><ele>522.3333333333334</ele><time>2026-04-11T09:21:02Z</time></trkpt><trkpt lat="45.68741990808222" lon="9.883348426101984"><ele>522.1666666666666</ele><time>2026-04-11T09:21:04Z</time></trkpt><trkpt lat="45.68730101257945" lon="9.883329701186724"><ele>522.0</ele><time>2026-04-11T09:21:06Z</time></trkpt><trkpt lat="45.687182727926505" lon="9.88334332432507"><ele>522.0</ele><time>2026-04-11T09:21:08Z</time></trkpt><trkpt lat="45.687069364711284" lon="9.88336831965561"><ele>522.0</ele><time>2026-04-11T09:21:10Z</time></trkpt><trkpt lat="45.68696046327423" lon="9.883431455932717"><ele>522.0</ele><time>2026-04-11T09:21:12Z</time></trkpt><trkpt lat="45.686901143944986" lon="9.883469239398046"><ele>522.0</ele><time>2026-04-11T09:21:13Z</time></trkpt><trkpt lat="45.68683952269169" lon="9.883501988188135"><ele>522.0</ele><time>2026-04-11T09:21:14Z</time></trkpt><trkpt lat="45.686772242708074" lon="9.88352671425481"><ele>522.0</ele><time>2026-04-11T09:21:15Z</time></trkpt><trkpt lat="45.68670396249469" lon="9.883557820242773"><ele>520.5</ele><time>2026-04-11T09:21:16Z</time></trkpt><trkpt lat="45.68663230741691" lon="9.883586711022314"><ele>519.0</ele><time>2026-04-11T09:21:17Z</time></trkpt><trkpt lat="45.68655588529061" lon="9.88361978013235"><ele>517.5</ele><time>2026-04-11T09:21:18Z</time></trkpt><trkpt lat="45.686477523816095" lon="9.88364958060813"><ele>516.0</ele><time>2026-04-11T09:21:19Z</time></trkpt><trkpt lat="45.68639737965947" lon="9.883670602828555"><ele>514.5</ele><time>2026-04-11T09:21:20Z</time></trkpt><trkpt lat="45.68630771700453" lon="9.88369804664612"><ele>513.0</ele><time>2026-04-11T09:21:21Z</time></trkpt><trkpt lat="45.68621797901207" lon="9.883737576271885"><ele>513.0</ele><time>2026-04-11T09:21:22Z</time></trkpt><trkpt lat="45.686128719233615" lon="9.883783546589733"><ele>513.0</ele><time>2026-04-11T09:21:23Z</time></trkpt><trkpt lat="45.686050283814936" lon="9.883813955822665"><ele>513.0</ele><time>2026-04-11T09:21:24Z</time></trkpt><trkpt lat="45.685980748833174" lon="9.883828802090436"><ele>513.0</ele><time>2026-04-11T09:21:25Z</time></trkpt><trkpt lat="45.68591733058006" lon="9.883839638922232"><ele>513.0</ele><time>2026-04-11T09:21:26Z</time></trkpt><trkpt lat="45.68582913166129" lon="9.88395068301753"><ele>513.0</ele><time>2026-04-11T09:21:28Z</time></trkpt><trkpt lat="45.68581040281251" lon="9.884072070890001"><ele>513.0</ele><time>2026-04-11T09:21:29Z</time></trkpt><trkpt lat="45.68579777899407" lon="9.884183603700851"><ele>513.0</ele><time>2026-04-11T09:21:30Z</time></trkpt><trkpt lat="45.68578514722303" lon="9.884296450118498"><ele>513.0</ele><time>2026-04-11T09:21:31Z</time></trkpt><trkpt lat="45.685765923145794" lon="9.884402754470607"><ele>513.0</ele><time>2026-04-11T09:21:32Z</time></trkpt><trkpt lat="45.68573237297305" lon="9.884521556982843"><ele>513.0</ele><time>2026-04-11T09:21:33Z</time></trkpt><trkpt lat="45.685695443425296" lon="9.88463238963502"><ele>513.0</ele><time>2026-04-11T09:21:34Z</time></trkpt><trkpt lat="45.68564086451825" lon="9.88473229208184"><ele>513.0</ele><time>2026-04-11T09:21:35Z</time></trkpt><trkpt lat="45.685581425739144" lon="9.884821373813631"><ele>513.0</ele><time>2026-04-11T09:21:36Z</time></trkpt><trkpt lat="45.68551914029025" lon="9.884894668695486"><ele>513.0</ele><time>2026-04-11T09:21:37Z</time></trkpt><trkpt lat="45.68545189173641" lon="9.884973065852508"><ele>513.0</ele><time>2026-04-11T09:21:38Z</time></trkpt><trkpt lat="45.68538697079412" lon="9.88504205261287"><ele>513.0</ele><time>2026-04-11T09:21:39Z</time></trkpt><trkpt lat="45.68532194401525" lon="9.885109249949648"><ele>513.0</ele><time>2026-04-11T09:21:40Z</time></trkpt><trkpt lat="45.685259259755384" lon="9.885180268080086"><ele>511.8333333333333</ele><time>2026-04-11T09:21:41Z</time></trkpt><trkpt lat="45.68519967654225" lon="9.885252884579828"><ele>510.66666666666663</ele><time>2026-04-11T09:21:42Z</time></trkpt><trkpt lat="45.68513648233729" lon="9.885329956451256"><ele>509.5</ele><time>2026-04-11T09:21:43Z</time></trkpt><trkpt lat="45.685077905112" lon="9.885402818003751"><ele>508.3333333333333</ele><time>2026-04-11T09:21:44Z</time></trkpt><trkpt lat="45.685014863850625" lon="9.885466222042613"><ele>507.16666666666663</ele><time>2026-04-11T09:21:45Z</time></trkpt><trkpt lat="45.684956438456844" lon="9.885553372360597"><ele>506.0</ele><time>2026-04-11T09:21:46Z</time></trkpt><trkpt lat="45.68490320378835" lon="9.885650381987666"><ele>506.0</ele><time>2026-04-11T09:21:47Z</time></trkpt><trkpt lat="45.68486107058176" lon="9.88576435831267"><ele>506.0</ele><time>2026-04-11T09:21:48Z</time></trkpt><trkpt lat="45.684832073252004" lon="9.885880654842346"><ele>506.0</ele><time>2026-04-11T09:21:49Z</time></trkpt><trkpt lat="45.68481425617909" lon="9.886024232486164"><ele>506.0</ele><time>2026-04-11T09:21:50Z</time></trkpt><trkpt lat="45.68481437375057" lon="9.886178945016221"><ele>506.0</ele><time>2026-04-11T09:21:51Z</time></trkpt><trkpt lat="45.68482653340346" lon="9.886325845671704"><ele>505.20000000000005</ele><time>2026-04-11T09:21:52Z</time></trkpt><trkpt lat="45.68484656025343" lon="9.886476617527688"><ele>504.40000000000003</ele><time>2026-04-11T09:21:53Z</time></trkpt><trkpt lat="45.684867131206765" lon="9.88662394619565"><ele>503.6</ele><time>2026-04-11T09:21:54Z</time></trkpt><trkpt lat="45.684899173987915" lon="9.886760226189507"><ele>502.8</ele><time>2026-04-11T09:21:55Z</time></trkpt><trkpt lat="45.68494577209151" lon="9.886890681003276"><ele>502.0</ele><time>2026-04-11T09:21:56Z</time></trkpt><trkpt lat="45.68500400802367" lon="9.887014849665338"><ele>502.40000000000003</ele><time>2026-04-11T09:21:57Z</time></trkpt><trkpt lat="45.68507170218034" lon="9.887130754988624"><ele>502.80000000000007</ele><time>2026-04-11T09:21:58Z</time></trkpt><trkpt lat="45.68514781804437" lon="9.887237871190182"><ele>503.2</ele><time>2026-04-11T09:21:59Z</time></trkpt><trkpt lat="45.68522582142628" lon="9.887345533279417"><ele>503.6</ele><time>2026-04-11T09:22:00Z</time></trkpt><trkpt lat="45.68530201752958" lon="9.887450847858057"><ele>504.0</ele><time>2026-04-11T09:22:01Z</time></trkpt><trkpt lat="45.68536776457039" lon="9.887567758982682"><ele>502.25</ele><time>2026-04-11T09:22:02Z</time></trkpt><trkpt lat="45.68542820583876" lon="9.887714930972624"><ele>500.5</ele><time>2026-04-11T09:22:03Z</time></trkpt><trkpt lat="45.685479242557584" lon="9.88786094500338"><ele>498.75</ele><time>2026-04-11T09:22:04Z</time></trkpt><trkpt lat="45.68551838222014" lon="9.888016838109465"><ele>497.0</ele><time>2026-04-11T09:22:05Z</time></trkpt><trkpt lat="45.68554029458958" lon="9.888183194294832"><ele>497.0</ele><time>2026-04-11T09:22:06Z</time></trkpt><trkpt lat="45.68554997667069" lon="9.888357331486322"><ele>497.0</ele><time>2026-04-11T09:22:07Z</time></trkpt><trkpt lat="45.685565332412224" lon="9.888527936684165"><ele>497.0</ele><time>2026-04-11T09:22:08Z</time></trkpt><trkpt lat="45.6855789178376" lon="9.888699299044196"><ele>497.0</ele><time>2026-04-11T09:22:09Z</time></trkpt><trkpt lat="45.68559469705593" lon="9.888869396997242"><ele>496.0</ele><time>2026-04-11T09:22:10Z</time></trkpt><trkpt lat="45.68562112392635" lon="9.889027207298545"><ele>495.00000000000006</ele><time>2026-04-11T09:22:11Z</time></trkpt><trkpt lat="45.6856458305612" lon="9.889178787754966"><ele>494.00000000000006</ele><time>2026-04-11T09:22:12Z</time></trkpt><trkpt lat="45.68566608699323" lon="9.889337977113744"><ele>493.0</ele><time>2026-04-11T09:22:13Z</time></trkpt><trkpt lat="45.68568524232169" lon="9.889498444690268"><ele>492.0</ele><time>2026-04-11T09:22:14Z</time></trkpt><trkpt lat="45.6857019462822" lon="9.889656259701837"><ele>491.6</ele><time>2026-04-11T09:22:15Z</time></trkpt><trkpt lat="45.68570794353699" lon="9.88981079336595"><ele>491.20000000000005</ele><time>2026-04-11T09:22:16Z</time></trkpt><trkpt lat="45.68570073093223" lon="9.889964645158155"><ele>490.8</ele><time>2026-04-11T09:22:17Z</time></trkpt><trkpt lat="45.68568680560267" lon="9.89010615452336"><ele>490.4</ele><time>2026-04-11T09:22:18Z</time></trkpt><trkpt lat="45.68566249334942" lon="9.890237012395026"><ele>490.0</ele><time>2026-04-11T09:22:19Z</time></trkpt><trkpt lat="45.685639464553994" lon="9.890365424949282"><ele>490.00000000000006</ele><time>2026-04-11T09:22:20Z</time></trkpt><trkpt lat="45.685615453315826" lon="9.89048785377653"><ele>490.0</ele><time>2026-04-11T09:22:21Z</time></trkpt><trkpt lat="45.68559664393185" lon="9.890607602376113"><ele>490.0</ele><time>2026-04-11T09:22:22Z</time></trkpt><trkpt lat="45.685580611313256" lon="9.890723062261987"><ele>490.0</ele><time>2026-04-11T09:22:23Z</time></trkpt><trkpt lat="45.685569075701835" lon="9.890838544440324"><ele>490.00000000000006</ele><time>2026-04-11T09:22:24Z</time></trkpt><trkpt lat="45.68556141659236" lon="9.890954008775799"><ele>490.0</ele><time>2026-04-11T09:22:25Z</time></trkpt><trkpt lat="45.685555678292985" lon="9.891068817812366"><ele>490.00000000000006</ele><time>2026-04-11T09:22:26Z</time></trkpt><trkpt lat="45.685554636429885" lon="9.891187179467767"><ele>490.0</ele><time>2026-04-11T09:22:27Z</time></trkpt><trkpt lat="45.6855511776563" lon="9.891304772681359"><ele>490.0</ele><time>2026-04-11T09:22:28Z</time></trkpt><trkpt lat="45.685545517675436" lon="9.89142096826477"><ele>490.0</ele><time>2026-04-11T09:22:29Z</time></trkpt><trkpt lat="45.68554293088359" lon="9.891539791355132"><ele>490.00000000000006</ele><time>2026-04-11T09:22:30Z</time></trkpt><trkpt lat="45.68554540099305" lon="9.891657963291484"><ele>490.0</ele><time>2026-04-11T09:22:31Z</time></trkpt><trkpt lat="45.68554519315502" lon="9.891773061717775"><ele>490.0</ele><time>2026-04-11T09:22:32Z</time></trkpt><trkpt lat="45.68554349157604" lon="9.891885684546212"><ele>490.0</ele><time>2026-04-11T09:22:33Z</time></trkpt><trkpt lat="45.68554464847674" lon="9.891997215941563"><ele>490.0</ele><time>2026-04-11T09:22:34Z</time></trkpt><trkpt lat="45.68554288758049" lon="9.892104510880339"><ele>490.0</ele><time>2026-04-11T09:22:35Z</time></trkpt><trkpt lat="45.68554078961986" lon="9.892209353614364"><ele>490.0</ele><time>2026-04-11T09:22:36Z</time></trkpt><trkpt lat="45.685539712594974" lon="9.89230873115608"><ele>490.0</ele><time>2026-04-11T09:22:37Z</time></trkpt><trkpt lat="45.685541451733684" lon="9.892401488380349"><ele>490.0</ele><time>2026-04-11T09:22:38Z</time></trkpt><trkpt lat="45.685539458936965" lon="9.89257292696906"><ele>492.0</ele><time>2026-04-11T09:22:40Z</time></trkpt><trkpt lat="45.685519998556956" lon="9.89274524175594"><ele>494.0</ele><time>2026-04-11T09:22:42Z</time></trkpt><trkpt lat="45.68549561649923" lon="9.892919377219156"><ele>496.0</ele><time>2026-04-11T09:22:44Z</time></trkpt><trkpt lat="45.68546432384153" lon="9.893083874094435"><ele>498.0</ele><time>2026-04-11T09:22:46Z</time></trkpt><trkpt lat="45.685430709638695" lon="9.893248774955484"><ele>498.0</ele><time>2026-04-11T09:22:48Z</time></trkpt><trkpt lat="45.68540610044363" lon="9.89341221819152"><ele>498.0</ele><time>2026-04-11T09:22:50Z</time></trkpt><trkpt lat="45.685391436406796" lon="9.893578027772932"><ele>498.0</ele><time>2026-04-11T09:22:52Z</time></trkpt><trkpt lat="45.685400354748566" lon="9.893744183873485"><ele>498.0</ele><time>2026-04-11T09:22:54Z</time></trkpt><trkpt lat="45.685448698871994" lon="9.893897560316066"><ele>497.79999999999995</ele><time>2026-04-11T09:22:56Z</time></trkpt><trkpt lat="45.68550781741518" lon="9.894042946499969"><ele>497.59999999999997</ele><time>2026-04-11T09:22:58Z</time></trkpt><trkpt lat="45.68555404296457" lon="9.89418612159874"><ele>497.40000000000003</ele><time>2026-04-11T09:23:00Z</time></trkpt><trkpt lat="45.68559298457465" lon="9.894324011957146"><ele>497.20000000000005</ele><time>2026-04-11T09:23:02Z</time></trkpt><trkpt lat="45.685615653624474" lon="9.894457313086674"><ele>497.0</ele><time>2026-04-11T09:23:04Z</time></trkpt><trkpt lat="45.68563723596323" lon="9.894602010718526"><ele>497.0</ele><time>2026-04-11T09:23:06Z</time></trkpt><trkpt lat="45.68565637181526" lon="9.894734810560882"><ele>497.00000000000006</ele><time>2026-04-11T09:23:08Z</time></trkpt><trkpt lat="45.68566810460988" lon="9.894861069620932"><ele>497.00000000000006</ele><time>2026-04-11T09:23:10Z</time></trkpt><trkpt lat="45.68567857161956" lon="9.895015255980958"><ele>497.0</ele><time>2026-04-11T09:23:12Z</time></trkpt><trkpt lat="45.6856818378886" lon="9.895184479711954"><ele>497.0</ele><time>2026-04-11T09:23:14Z</time></trkpt><trkpt lat="45.68569391112752" lon="9.895361046625743"><ele>497.20000000000005</ele><time>2026-04-11T09:23:16Z</time></trkpt><trkpt lat="45.68569125111404" lon="9.89553748143849"><ele>497.40000000000003</ele><time>2026-04-11T09:23:18Z</time></trkpt><trkpt lat="45.685686837707415" lon="9.895630661984676"><ele>497.59999999999997</ele><time>2026-04-11T09:23:19Z</time></trkpt><trkpt lat="45.68567993636821" lon="9.895723214062908"><ele>497.79999999999995</ele><time>2026-04-11T09:23:20Z</time></trkpt><trkpt lat="45.68566588156886" lon="9.895890050401688"><ele>498.0</ele><time>2026-04-11T09:23:22Z</time></trkpt><trkpt lat="45.68566002803985" lon="9.896028853933279"><ele>500.8333333333333</ele><time>2026-04-11T09:23:24Z</time></trkpt><trkpt lat="45.68565189446452" lon="9.896127433684494"><ele>503.66666666666663</ele><time>2026-04-11T09:23:26Z</time></trkpt><trkpt lat="45.68560795126438" lon="9.896199865962432"><ele>506.5</ele><time>2026-04-11T09:23:41Z</time></trkpt><trkpt lat="45.68553459084454" lon="9.896211060420143"><ele>509.3333333333333</ele><time>2026-04-11T09:23:52Z</time></trkpt><trkpt lat="45.68550078731852" lon="9.896295609020894"><ele>512.1666666666666</ele><time>2026-04-11T09:23:54Z</time></trkpt><trkpt lat="45.68543358271741" lon="9.896402670404678"><ele>515.0</ele><time>2026-04-11T09:23:57Z</time></trkpt><trkpt lat="45.685393983377914" lon="9.896516344030951"><ele>515.0</ele><time>2026-04-11T09:23:59Z</time></trkpt><trkpt lat="45.685371798772024" lon="9.896645940764259"><ele>515.0</ele><time>2026-04-11T09:24:01Z</time></trkpt><trkpt lat="45.68535939437929" lon="9.896788877221587"><ele>515.0</ele><time>2026-04-11T09:24:03Z</time></trkpt><trkpt lat="45.68534748990648" lon="9.896931387977553"><ele>515.0</ele><time>2026-04-11T09:24:05Z</time></trkpt><trkpt lat="45.685297075679735" lon="9.897044731314521"><ele>515.0</ele><time>2026-04-11T09:24:07Z</time></trkpt><trkpt lat="45.685227631296144" lon="9.897156961835451"><ele>518.0</ele><time>2026-04-11T09:24:09Z</time></trkpt><trkpt lat="45.68520679874201" lon="9.89730110173082"><ele>521.0</ele><time>2026-04-11T09:24:11Z</time></trkpt><trkpt lat="45.68519911008623" lon="9.89744138808497"><ele>524.0</ele><time>2026-04-11T09:24:13Z</time></trkpt><trkpt lat="45.68521662937939" lon="9.897588904883541"><ele>527.0</ele><time>2026-04-11T09:24:15Z</time></trkpt><trkpt lat="45.68525568704511" lon="9.897730057641494"><ele>530.0</ele><time>2026-04-11T09:24:17Z</time></trkpt><trkpt lat="45.68529054221417" lon="9.897843584711708"><ele>530.0</ele><time>2026-04-11T09:24:19Z</time></trkpt><trkpt lat="45.685313648421946" lon="9.897955015845119"><ele>530.0</ele><time>2026-04-11T09:24:21Z</time></trkpt><trkpt lat="45.68530535201347" lon="9.898062470020076"><ele>530.0</ele><time>2026-04-11T09:24:23Z</time></trkpt><trkpt lat="45.68526979835013" lon="9.898148709740898"><ele>530.0</ele><time>2026-04-11T09:24:25Z</time></trkpt><trkpt lat="45.685212612270305" lon="9.8982586705455"><ele>530.0</ele><time>2026-04-11T09:24:28Z</time></trkpt><trkpt lat="45.68517175903371" lon="9.898381418103408"><ele>530.0</ele><time>2026-04-11T09:24:30Z</time></trkpt><trkpt lat="45.68515374802955" lon="9.898517285574151"><ele>525.2</ele><time>2026-04-11T09:24:32Z</time></trkpt><trkpt lat="45.68512119141909" lon="9.89867627385596"><ele>520.4</ele><time>2026-04-11T09:24:34Z</time></trkpt><trkpt lat="45.68504600874974" lon="9.898772854559331"><ele>515.6</ele><time>2026-04-11T09:24:36Z</time></trkpt><trkpt lat="45.684978990921216" lon="9.898795802304505"><ele>510.8</ele><time>2026-04-11T09:24:38Z</time></trkpt><trkpt lat="45.68490606457035" lon="9.898853353910505"><ele>506.0</ele><time>2026-04-11T09:24:41Z</time></trkpt><trkpt lat="45.68481879837092" lon="9.898898170048813"><ele>506.0</ele><time>2026-04-11T09:24:43Z</time></trkpt><trkpt lat="45.68473945093441" lon="9.899020000914502"><ele>506.0</ele><time>2026-04-11T09:24:45Z</time></trkpt><trkpt lat="45.68470764374433" lon="9.899100139204913"><ele>506.0</ele><time>2026-04-11T09:24:46Z</time></trkpt><trkpt lat="45.684653566176884" lon="9.89926159438374"><ele>506.0</ele><time>2026-04-11T09:24:48Z</time></trkpt><trkpt lat="45.68460492571311" lon="9.899424846156684"><ele>506.0</ele><time>2026-04-11T09:24:50Z</time></trkpt><trkpt lat="45.684548642498484" lon="9.899579614625882"><ele>505.0</ele><time>2026-04-11T09:24:52Z</time></trkpt><trkpt lat="45.68446960062877" lon="9.899689652431187"><ele>504.0</ele><time>2026-04-11T09:24:54Z</time></trkpt><trkpt lat="45.684381748638465" lon="9.899789075155075"><ele>503.0</ele><time>2026-04-11T09:24:56Z</time></trkpt><trkpt lat="45.684294794351445" lon="9.899879950041845"><ele>502.0</ele><time>2026-04-11T09:24:58Z</time></trkpt><trkpt lat="45.68422014483082" lon="9.90000987898705"><ele>501.0</ele><time>2026-04-11T09:25:00Z</time></trkpt><trkpt lat="45.68416331691395" lon="9.900146387175726"><ele>501.0</ele><time>2026-04-11T09:25:02Z</time></trkpt><trkpt lat="45.68412077800971" lon="9.900309763859152"><ele>501.0</ele><time>2026-04-11T09:25:04Z</time></trkpt><trkpt lat="45.6840746729913" lon="9.900470758393839"><ele>501.0</ele><time>2026-04-11T09:25:06Z</time></trkpt><trkpt lat="45.684028357769336" lon="9.9006297155786"><ele>501.0</ele><time>2026-04-11T09:25:08Z</time></trkpt><trkpt lat="45.68397667702339" lon="9.900788344047763"><ele>501.0</ele><time>2026-04-11T09:25:10Z</time></trkpt><trkpt lat="45.68395689864639" lon="9.900873969348774"><ele>501.0</ele><time>2026-04-11T09:25:11Z</time></trkpt><trkpt lat="45.68391083416209" lon="9.901026213742115"><ele>501.0</ele><time>2026-04-11T09:25:13Z</time></trkpt><trkpt lat="45.683871902525475" lon="9.901138094155836"><ele>501.0</ele><time>2026-04-11T09:25:15Z</time></trkpt><trkpt lat="45.68383811442618" lon="9.90121890909508"><ele>501.0</ele><time>2026-04-11T09:25:17Z</time></trkpt><trkpt lat="45.68379932589743" lon="9.901292597965794"><ele>501.0</ele><time>2026-04-11T09:25:24Z</time></trkpt><trkpt lat="45.68380033172945" lon="9.901390672418746"><ele>501.5</ele><time>2026-04-11T09:25:29Z</time></trkpt><trkpt lat="45.68374279516186" lon="9.901494532053013"><ele>502.0</ele><time>2026-04-11T09:25:32Z</time></trkpt><trkpt lat="45.683691245019425" lon="9.901562655061726"><ele>502.5</ele><time>2026-04-11T09:25:34Z</time></trkpt><trkpt lat="45.68364967681534" lon="9.901662742241431"><ele>503.0</ele><time>2026-04-11T09:25:36Z</time></trkpt><trkpt lat="45.68367420462316" lon="9.9017707157371"><ele>503.5</ele><time>2026-04-11T09:25:38Z</time></trkpt><trkpt lat="45.683751244271576" lon="9.901821502543946"><ele>504.0</ele><time>2026-04-11T09:25:40Z</time></trkpt><trkpt lat="45.68384894049987" lon="9.901818905134812"><ele>501.3333333333333</ele><time>2026-04-11T09:25:42Z</time></trkpt><trkpt lat="45.683960052242966" lon="9.901859262805203"><ele>498.66666666666663</ele><time>2026-04-11T09:25:44Z</time></trkpt><trkpt lat="45.68402776368591" lon="9.901880609343632"><ele>496.0</ele><time>2026-04-11T09:25:45Z</time></trkpt><trkpt lat="45.68409625931266" lon="9.901908079226796"><ele>493.3333333333333</ele><time>2026-04-11T09:25:46Z</time></trkpt><trkpt lat="45.68417136509" lon="9.90193029608582"><ele>490.66666666666663</ele><time>2026-04-11T09:25:47Z</time></trkpt><trkpt lat="45.68424946510109" lon="9.90194495542467"><ele>488.0</ele><time>2026-04-11T09:25:48Z</time></trkpt><trkpt lat="45.684322040566" lon="9.901967121444242"><ele>487.99999999999994</ele><time>2026-04-11T09:25:49Z</time></trkpt><trkpt lat="45.68439816589339" lon="9.901974978184827"><ele>488.0</ele><time>2026-04-11T09:25:50Z</time></trkpt><trkpt lat="45.68447853055229" lon="9.90197042869326"><ele>488.0</ele><time>2026-04-11T09:25:51Z</time></trkpt><trkpt lat="45.68455615438558" lon="9.9019420581494"><ele>488.0</ele><time>2026-04-11T09:25:52Z</time></trkpt><trkpt lat="45.68463151152823" lon="9.901871923104338"><ele>487.99999999999994</ele><time>2026-04-11T09:25:53Z</time></trkpt><trkpt lat="45.684689149048495" lon="9.901800087912346"><ele>488.0</ele><time>2026-04-11T09:25:54Z</time></trkpt><trkpt lat="45.68481370209108" lon="9.901763392099438"><ele>487.2</ele><time>2026-04-11T09:25:56Z</time></trkpt><trkpt lat="45.68489046830341" lon="9.901836424687668"><ele>486.4</ele><time>2026-04-11T09:25:57Z</time></trkpt><trkpt lat="45.684963602714824" lon="9.901927016995531"><ele>485.59999999999997</ele><time>2026-04-11T09:25:58Z</time></trkpt><trkpt lat="45.68503738753066" lon="9.902013764082385"><ele>484.79999999999995</ele><time>2026-04-11T09:25:59Z</time></trkpt><trkpt lat="45.68511735061835" lon="9.902103679041218"><ele>484.0</ele><time>2026-04-11T09:26:00Z</time></trkpt><trkpt lat="45.68519902851692" lon="9.902201163424897"><ele>482.79999999999995</ele><time>2026-04-11T09:26:01Z</time></trkpt><trkpt lat="45.6852760946833" lon="9.902296006504475"><ele>481.59999999999997</ele><time>2026-04-11T09:26:02Z</time></trkpt><trkpt lat="45.685363624063335" lon="9.902391498094257"><ele>480.4</ele><time>2026-04-11T09:26:03Z</time></trkpt><trkpt lat="45.68544856909197" lon="9.902486845152724"><ele>479.2</ele><time>2026-04-11T09:26:04Z</time></trkpt><trkpt lat="45.685539974679436" lon="9.902575301830598"><ele>478.0</ele><time>2026-04-11T09:26:05Z</time></trkpt><trkpt lat="45.685639775768045" lon="9.902664293501399"><ele>478.00000000000006</ele><time>2026-04-11T09:26:06Z</time></trkpt><trkpt lat="45.685723815614836" lon="9.902767651554077"><ele>478.0</ele><time>2026-04-11T09:26:07Z</time></trkpt><trkpt lat="45.68577010408141" lon="9.902895494524286"><ele>478.0</ele><time>2026-04-11T09:26:08Z</time></trkpt><trkpt lat="45.68578910658629" lon="9.9030327441887"><ele>478.0</ele><time>2026-04-11T09:26:09Z</time></trkpt><trkpt lat="45.68583166733951" lon="9.903106108359037"><ele>478.00000000000006</ele><time>2026-04-11T09:26:10Z</time></trkpt><trkpt lat="45.68589544874511" lon="9.903133427875268"><ele>478.0</ele><time>2026-04-11T09:26:11Z</time></trkpt><trkpt lat="45.68596026427378" lon="9.903152743261487"><ele>478.00000000000006</ele><time>2026-04-11T09:26:12Z</time></trkpt><trkpt lat="45.686018362679626" lon="9.903193393016414"><ele>478.0</ele><time>2026-04-11T09:26:13Z</time></trkpt><trkpt lat="45.68614176318008" lon="9.903239750169123"><ele>478.0</ele><time>2026-04-11T09:26:15Z</time></trkpt><trkpt lat="45.686202770127196" lon="9.90326222261369"><ele>478.0</ele><time>2026-04-11T09:26:16Z</time></trkpt><trkpt lat="45.68630460008997" lon="9.903278446901712"><ele>478.00000000000006</ele><time>2026-04-11T09:26:18Z</time></trkpt><trkpt lat="45.68637602195008" lon="9.903297511603538"><ele>478.0</ele><time>2026-04-11T09:26:19Z</time></trkpt><trkpt lat="45.68647997391452" lon="9.90339253342404"><ele>480.2</ele><time>2026-04-11T09:26:21Z</time></trkpt><trkpt lat="45.686540750199406" lon="9.903427243796944"><ele>482.4</ele><time>2026-04-11T09:26:22Z</time></trkpt><trkpt lat="45.68668087556032" lon="9.903445196083108"><ele>484.59999999999997</ele><time>2026-04-11T09:26:24Z</time></trkpt><trkpt lat="45.686754179069275" lon="9.903395352828811"><ele>486.79999999999995</ele><time>2026-04-11T09:26:25Z</time></trkpt><trkpt lat="45.68684010870925" lon="9.903340470537037"><ele>489.0</ele><time>2026-04-11T09:26:26Z</time></trkpt><trkpt lat="45.68693272304617" lon="9.90329535837821"><ele>484.0</ele><time>2026-04-11T09:26:27Z</time></trkpt><trkpt lat="45.68702874143792" lon="9.90325290405151"><ele>479.0</ele><time>2026-04-11T09:26:28Z</time></trkpt><trkpt lat="45.68711828046921" lon="9.903206255818928"><ele>474.0</ele><time>2026-04-11T09:26:29Z</time></trkpt><trkpt lat="45.68720671388309" lon="9.903146279553058"><ele>469.0</ele><time>2026-04-11T09:26:30Z</time></trkpt><trkpt lat="45.68729021781523" lon="9.903082780800501"><ele>464.0</ele><time>2026-04-11T09:26:31Z</time></trkpt><trkpt lat="45.68736561335014" lon="9.902983831722214"><ele>464.0</ele><time>2026-04-11T09:26:32Z</time></trkpt><trkpt lat="45.68744598159449" lon="9.902872740381211"><ele>464.0</ele><time>2026-04-11T09:26:33Z</time></trkpt><trkpt lat="45.6875273003887" lon="9.902753378715591"><ele>464.0</ele><time>2026-04-11T09:26:34Z</time></trkpt><trkpt lat="45.68760792208094" lon="9.902635091624115"><ele>464.0</ele><time>2026-04-11T09:26:35Z</time></trkpt><trkpt lat="45.68769394173706" lon="9.902523180632082"><ele>458.3333333333333</ele><time>2026-04-11T09:26:36Z</time></trkpt><trkpt lat="45.68777570007141" lon="9.90240602724994"><ele>452.66666666666663</ele><time>2026-04-11T09:26:37Z</time></trkpt><trkpt lat="45.68785671850236" lon="9.902282611829746"><ele>447.0</ele><time>2026-04-11T09:26:38Z</time></trkpt><trkpt lat="45.687985566874076" lon="9.902024838827817"><ele>447.0</ele><time>2026-04-11T09:26:40Z</time></trkpt><trkpt lat="45.68802251302707" lon="9.90191457719054"><ele>447.0</ele><time>2026-04-11T09:26:41Z</time></trkpt><trkpt lat="45.68803516390019" lon="9.901811634056497"><ele>447.0</ele><time>2026-04-11T09:26:42Z</time></trkpt><trkpt lat="45.688106364431206" lon="9.901723197913492"><ele>447.0</ele><time>2026-04-11T09:26:44Z</time></trkpt><trkpt lat="45.68815771147604" lon="9.901805451263302"><ele>447.0</ele><time>2026-04-11T09:26:46Z</time></trkpt><trkpt lat="45.688094904637154" lon="9.901949473072245"><ele>447.0</ele><time>2026-04-11T09:26:48Z</time></trkpt><trkpt lat="45.68806323003715" lon="9.902033535707385"><ele>447.0</ele><time>2026-04-11T09:26:49Z</time></trkpt><trkpt lat="45.68805464969204" lon="9.902139485338044"><ele>447.00000000000006</ele><time>2026-04-11T09:26:50Z</time></trkpt><trkpt lat="45.688050627954986" lon="9.90226934647975"><ele>447.00000000000006</ele><time>2026-04-11T09:26:51Z</time></trkpt><trkpt lat="45.68804964935822" lon="9.902408919400413"><ele>447.0</ele><time>2026-04-11T09:26:52Z</time></trkpt><trkpt lat="45.68804122369556" lon="9.90254175065681"><ele>447.0</ele><time>2026-04-11T09:26:53Z</time></trkpt><trkpt lat="45.688005635152265" lon="9.90266897094555"><ele>444.20000000000005</ele><time>2026-04-11T09:26:54Z</time></trkpt><trkpt lat="45.68795558218642" lon="9.902799560034914"><ele>441.40000000000003</ele><time>2026-04-11T09:26:55Z</time></trkpt><trkpt lat="45.687890657262415" lon="9.90290828536157"><ele>438.59999999999997</ele><time>2026-04-11T09:26:56Z</time></trkpt><trkpt lat="45.687841564952556" lon="9.90304189376125"><ele>435.79999999999995</ele><time>2026-04-11T09:26:57Z</time></trkpt><trkpt lat="45.68781728103263" lon="9.903209541935231"><ele>433.0</ele><time>2026-04-11T09:26:58Z</time></trkpt><trkpt lat="45.687806927096005" lon="9.903387848857257"><ele>433.59999999999997</ele><time>2026-04-11T09:26:59Z</time></trkpt><trkpt lat="45.68779107264602" lon="9.903563348393588"><ele>434.19999999999993</ele><time>2026-04-11T09:27:00Z</time></trkpt><trkpt lat="45.68776268752052" lon="9.903688577858329"><ele>434.8</ele><time>2026-04-11T09:27:01Z</time></trkpt><trkpt lat="45.687714513298346" lon="9.903790053789672"><ele>435.4</ele><time>2026-04-11T09:27:02Z</time></trkpt><trkpt lat="45.68766734181678" lon="9.903858562810496"><ele>436.0</ele><time>2026-04-11T09:27:03Z</time></trkpt><trkpt lat="45.68764096752214" lon="9.90398114263024"><ele>436.0</ele><time>2026-04-11T09:27:05Z</time></trkpt><trkpt lat="45.68772483131125" lon="9.903978407268669"><ele>436.0</ele><time>2026-04-11T09:27:07Z</time></trkpt><trkpt lat="45.68777846779426" lon="9.903848906456734"><ele>436.0</ele><time>2026-04-11T09:27:09Z</time></trkpt><trkpt lat="45.687835032870595" lon="9.903719448701818"><ele>436.0</ele><time>2026-04-11T09:27:11Z</time></trkpt><trkpt lat="45.687878239137234" lon="9.903648523846341"><ele>436.0</ele><time>2026-04-11T09:27:12Z</time></trkpt><trkpt lat="45.68795612641735" lon="9.90350720938016"><ele>435.4</ele><time>2026-04-11T09:27:14Z</time></trkpt><trkpt lat="45.68801163735679" lon="9.903410497253105"><ele>434.8</ele><time>2026-04-11T09:27:15Z</time></trkpt><trkpt lat="45.688074374236166" lon="9.903313474402124"><ele>434.19999999999993</ele><time>2026-04-11T09:27:16Z</time></trkpt><trkpt lat="45.688154112576704" lon="9.90323722380984"><ele>433.59999999999997</ele><time>2026-04-11T09:27:17Z</time></trkpt><trkpt lat="45.68823613854147" lon="9.90318282955204"><ele>433.0</ele><time>2026-04-11T09:27:18Z</time></trkpt><trkpt lat="45.688333252696594" lon="9.903168248401066"><ele>433.0</ele><time>2026-04-11T09:27:19Z</time></trkpt><trkpt lat="45.688442057605954" lon="9.90314654816102"><ele>432.99999999999994</ele><time>2026-04-11T09:27:20Z</time></trkpt><trkpt lat="45.688559659552055" lon="9.903102725670317"><ele>432.99999999999994</ele><time>2026-04-11T09:27:21Z</time></trkpt><trkpt lat="45.68863764293569" lon="9.903039545593085"><ele>433.0</ele><time>2026-04-11T09:27:22Z</time></trkpt><trkpt lat="45.68873656380209" lon="9.902994593400182"><ele>433.0</ele><time>2026-04-11T09:27:23Z</time></trkpt><trkpt lat="45.68881350314803" lon="9.902943645635457"><ele>429.79999999999995</ele><time>2026-04-11T09:27:24Z</time></trkpt><trkpt lat="45.68887876425689" lon="9.902855595296025"><ele>426.59999999999997</ele><time>2026-04-11T09:27:25Z</time></trkpt><trkpt lat="45.688926193592145" lon="9.902746232919965"><ele>423.4</ele><time>2026-04-11T09:27:26Z</time></trkpt><trkpt lat="45.688967291548494" lon="9.902619027513387"><ele>420.20000000000005</ele><time>2026-04-11T09:27:27Z</time></trkpt><trkpt lat="45.68901673663651" lon="9.90248183853995"><ele>417.0</ele><time>2026-04-11T09:27:28Z</time></trkpt><trkpt lat="45.68906453118005" lon="9.90234005658678"><ele>417.0</ele><time>2026-04-11T09:27:29Z</time></trkpt><trkpt lat="45.689114082219874" lon="9.902206857406634"><ele>417.0</ele><time>2026-04-11T09:27:30Z</time></trkpt><trkpt lat="45.689167166739956" lon="9.902096886368263"><ele>417.0</ele><time>2026-04-11T09:27:31Z</time></trkpt><trkpt lat="45.68922712052131" lon="9.901991616613453"><ele>417.0</ele><time>2026-04-11T09:27:32Z</time></trkpt><trkpt lat="45.6892669316475" lon="9.90191371506211"><ele>417.0</ele><time>2026-04-11T09:27:33Z</time></trkpt><trkpt lat="45.68932404258904" lon="9.901809625248248"><ele>417.0</ele><time>2026-04-11T09:27:35Z</time></trkpt><trkpt lat="45.68940702955862" lon="9.901875930480548"><ele>417.0</ele><time>2026-04-11T09:27:36Z</time></trkpt><trkpt lat="45.689460435423776" lon="9.90197082433139"><ele>417.0</ele><time>2026-04-11T09:27:37Z</time></trkpt><trkpt lat="45.68950451667378" lon="9.902062762344503"><ele>417.0</ele><time>2026-04-11T09:27:38Z</time></trkpt><trkpt lat="45.68954635881457" lon="9.902156128058039"><ele>417.0</ele><time>2026-04-11T09:27:39Z</time></trkpt><trkpt lat="45.68959095357553" lon="9.902232008001683"><ele>417.0</ele><time>2026-04-11T09:27:40Z</time></trkpt><trkpt lat="45.68963293914257" lon="9.902316571694264"><ele>416.42857142857144</ele><time>2026-04-11T09:27:41Z</time></trkpt><trkpt lat="45.68968436375241" lon="9.90239091404889"><ele>415.85714285714283</ele><time>2026-04-11T09:27:42Z</time></trkpt><trkpt lat="45.68973597544419" lon="9.902461062962162"><ele>415.2857142857143</ele><time>2026-04-11T09:27:43Z</time></trkpt><trkpt lat="45.68978513681303" lon="9.902531040071505"><ele>414.7142857142857</ele><time>2026-04-11T09:27:44Z</time></trkpt><trkpt lat="45.68983917717186" lon="9.902606290578067"><ele>414.1428571428571</ele><time>2026-04-11T09:27:45Z</time></trkpt><trkpt lat="45.68989069253503" lon="9.902674116148034"><ele>413.57142857142856</ele><time>2026-04-11T09:27:46Z</time></trkpt><trkpt lat="45.689937683070426" lon="9.90273643724328"><ele>413.0</ele><time>2026-04-11T09:27:47Z</time></trkpt><trkpt lat="45.69001404358044" lon="9.902849717666209"><ele>410.8333333333333</ele><time>2026-04-11T09:27:49Z</time></trkpt><trkpt lat="45.69007937755647" lon="9.902914910801446"><ele>408.66666666666663</ele><time>2026-04-11T09:27:51Z</time></trkpt><trkpt lat="45.6901419399849" lon="9.9029723406512"><ele>406.5</ele><time>2026-04-11T09:27:53Z</time></trkpt><trkpt lat="45.690234257795666" lon="9.90296470742293"><ele>404.33333333333337</ele><time>2026-04-11T09:27:55Z</time></trkpt><trkpt lat="45.69031152718883" lon="9.90288849000317"><ele>402.1666666666667</ele><time>2026-04-11T09:27:57Z</time></trkpt><trkpt lat="45.69038012056541" lon="9.902797731112422"><ele>400.0</ele><time>2026-04-11T09:27:59Z</time></trkpt><trkpt lat="45.690428894775444" lon="9.902674583098435"><ele>401.6666666666667</ele><time>2026-04-11T09:28:01Z</time></trkpt><trkpt lat="45.69046935896671" lon="9.902555954856602"><ele>403.33333333333337</ele><time>2026-04-11T09:28:03Z</time></trkpt><trkpt lat="45.69050427025326" lon="9.902439146407037"><ele>405.0</ele><time>2026-04-11T09:28:05Z</time></trkpt><trkpt lat="45.69053384593857" lon="9.902322129707555"><ele>406.66666666666663</ele><time>2026-04-11T09:28:07Z</time></trkpt><trkpt lat="45.69056368169981" lon="9.902206465572036"><ele>408.3333333333333</ele><time>2026-04-11T09:28:09Z</time></trkpt><trkpt lat="45.69059252327003" lon="9.90208815566202"><ele>410.0</ele><time>2026-04-11T09:28:11Z</time></trkpt><trkpt lat="45.690615184706154" lon="9.901976055773813"><ele>410.0</ele><time>2026-04-11T09:28:13Z</time></trkpt><trkpt lat="45.69064806970414" lon="9.901871924559773"><ele>410.0</ele><time>2026-04-11T09:28:15Z</time></trkpt><trkpt lat="45.69067117248875" lon="9.901773838246495"><ele>410.0</ele><time>2026-04-11T09:28:17Z</time></trkpt><trkpt lat="45.6907001015673" lon="9.901681692275199"><ele>410.0</ele><time>2026-04-11T09:28:19Z</time></trkpt><trkpt lat="45.69073919230595" lon="9.901590670892906"><ele>410.0</ele><time>2026-04-11T09:28:21Z</time></trkpt><trkpt lat="45.69078085646523" lon="9.901506006568603"><ele>410.0</ele><time>2026-04-11T09:28:23Z</time></trkpt><trkpt lat="45.69082405922512" lon="9.901427719285346"><ele>410.0</ele><time>2026-04-11T09:28:25Z</time></trkpt><trkpt lat="45.69085825961694" lon="9.90134326129818"><ele>411.0</ele><time>2026-04-11T09:28:27Z</time></trkpt><trkpt lat="45.6908963270328" lon="9.901261323647176"><ele>412.0</ele><time>2026-04-11T09:28:29Z</time></trkpt><trkpt lat="45.69092836711324" lon="9.901172754785707"><ele>413.0</ele><time>2026-04-11T09:28:31Z</time></trkpt><trkpt lat="45.690967694717706" lon="9.901088942620477"><ele>414.0</ele><time>2026-04-11T09:28:33Z</time></trkpt><trkpt lat="45.691012172315546" lon="9.90100486501498"><ele>415.0</ele><time>2026-04-11T09:28:35Z</time></trkpt><trkpt lat="45.69105259001707" lon="9.900911766458085"><ele>416.0</ele><time>2026-04-11T09:28:37Z</time></trkpt><trkpt lat="45.691102128366865" lon="9.900829123982644"><ele>417.0</ele><time>2026-04-11T09:28:39Z</time></trkpt><trkpt lat="45.69114224020224" lon="9.900743094715335"><ele>417.0</ele><time>2026-04-11T09:28:41Z</time></trkpt><trkpt lat="45.69118678469882" lon="9.900665076114693"><ele>417.0</ele><time>2026-04-11T09:28:43Z</time></trkpt><trkpt lat="45.69123203149641" lon="9.900586522498582"><ele>417.0</ele><time>2026-04-11T09:28:45Z</time></trkpt><trkpt lat="45.69130400932564" lon="9.900495190161697"><ele>417.0</ele><time>2026-04-11T09:28:48Z</time></trkpt><trkpt lat="45.69134254866442" lon="9.900411728855012"><ele>417.0</ele><time>2026-04-11T09:28:50Z</time></trkpt><trkpt lat="45.69138617237718" lon="9.900317067778317"><ele>417.0</ele><time>2026-04-11T09:28:52Z</time></trkpt><trkpt lat="45.69140998793908" lon="9.900198019955438"><ele>418.5</ele><time>2026-04-11T09:28:54Z</time></trkpt><trkpt lat="45.691447010748405" lon="9.900055081250457"><ele>420.0</ele><time>2026-04-11T09:28:56Z</time></trkpt><trkpt lat="45.691462620040724" lon="9.899881368988073"><ele>421.5</ele><time>2026-04-11T09:28:58Z</time></trkpt><trkpt lat="45.691478937763684" lon="9.899788182554408"><ele>423.0</ele><time>2026-04-11T09:28:59Z</time></trkpt><trkpt lat="45.69150989669053" lon="9.899700744077995"><ele>424.5</ele><time>2026-04-11T09:29:00Z</time></trkpt><trkpt lat="45.69156176645736" lon="9.899632657011933"><ele>426.0</ele><time>2026-04-11T09:29:01Z</time></trkpt><trkpt lat="45.69161684302428" lon="9.899575998478264"><ele>426.0</ele><time>2026-04-11T09:29:02Z</time></trkpt><trkpt lat="45.691660662566974" lon="9.899495906799599"><ele>426.0</ele><time>2026-04-11T09:29:03Z</time></trkpt><trkpt lat="45.69168720758341" lon="9.899390923773563"><ele>426.0</ele><time>2026-04-11T09:29:04Z</time></trkpt><trkpt lat="45.6917045774683" lon="9.89926710995069"><ele>426.0</ele><time>2026-04-11T09:29:05Z</time></trkpt><trkpt lat="45.69172183459476" lon="9.899140605439596"><ele>426.0</ele><time>2026-04-11T09:29:06Z</time></trkpt><trkpt lat="45.691747753101346" lon="9.899035794665377"><ele>426.0</ele><time>2026-04-11T09:29:07Z</time></trkpt><trkpt lat="45.69178856603144" lon="9.89895009659444"><ele>427.8</ele><time>2026-04-11T09:29:08Z</time></trkpt><trkpt lat="45.691843456852915" lon="9.898888729621417"><ele>429.6</ele><time>2026-04-11T09:29:09Z</time></trkpt><trkpt lat="45.69189967618856" lon="9.898840721977503"><ele>431.4</ele><time>2026-04-11T09:29:10Z</time></trkpt><trkpt lat="45.691988718347616" lon="9.898749492015975"><ele>433.2</ele><time>2026-04-11T09:29:12Z</time></trkpt><trkpt lat="45.69206062659825" lon="9.898631705955532"><ele>435.0</ele><time>2026-04-11T09:29:14Z</time></trkpt><trkpt lat="45.692128414370835" lon="9.898506118033058"><ele>433.8</ele><time>2026-04-11T09:29:16Z</time></trkpt><trkpt lat="45.69221283324962" lon="9.89840172638551"><ele>432.6</ele><time>2026-04-11T09:29:18Z</time></trkpt><trkpt lat="45.69230193748514" lon="9.898297242590635"><ele>431.4</ele><time>2026-04-11T09:29:20Z</time></trkpt><trkpt lat="45.692398194878066" lon="9.89819687554086"><ele>430.2</ele><time>2026-04-11T09:29:22Z</time></trkpt><trkpt lat="45.69245303271984" lon="9.898146916262613"><ele>429.0</ele><time>2026-04-11T09:29:23Z</time></trkpt><trkpt lat="45.69250773678669" lon="9.898097087772515"><ele>429.0</ele><time>2026-04-11T09:29:24Z</time></trkpt><trkpt lat="45.692561374214804" lon="9.898039458347869"><ele>429.0</ele><time>2026-04-11T09:29:25Z</time></trkpt><trkpt lat="45.69261540942921" lon="9.897968865400381"><ele>429.0</ele><time>2026-04-11T09:29:26Z</time></trkpt><trkpt lat="45.692674999561085" lon="9.89789711727767"><ele>429.0</ele><time>2026-04-11T09:29:27Z</time></trkpt><trkpt lat="45.69272840078456" lon="9.897833463834079"><ele>429.0</ele><time>2026-04-11T09:29:28Z</time></trkpt><trkpt lat="45.69278693231094" lon="9.897769619087395"><ele>429.0</ele><time>2026-04-11T09:29:29Z</time></trkpt><trkpt lat="45.692849535185296" lon="9.897716152378653"><ele>429.0</ele><time>2026-04-11T09:29:30Z</time></trkpt><trkpt lat="45.69291055146512" lon="9.89766632221974"><ele>429.2857142857143</ele><time>2026-04-11T09:29:31Z</time></trkpt><trkpt lat="45.69297371360693" lon="9.897622707553873"><ele>429.57142857142856</ele><time>2026-04-11T09:29:32Z</time></trkpt><trkpt lat="45.69303578508335" lon="9.897577258276613"><ele>429.8571428571429</ele><time>2026-04-11T09:29:33Z</time></trkpt><trkpt lat="45.69309410792442" lon="9.897531974026608"><ele>430.1428571428571</ele><time>2026-04-11T09:29:34Z</time></trkpt><trkpt lat="45.69314961477621" lon="9.897475151769356"><ele>430.4285714285714</ele><time>2026-04-11T09:29:35Z</time></trkpt><trkpt lat="45.69320058796775" lon="9.897408426958702"><ele>430.7142857142857</ele><time>2026-04-11T09:29:36Z</time></trkpt><trkpt lat="45.69325179019723" lon="9.897334598456387"><ele>431.0</ele><time>2026-04-11T09:29:37Z</time></trkpt><trkpt lat="45.693281511125825" lon="9.897231757956106"><ele>431.0</ele><time>2026-04-11T09:29:38Z</time></trkpt><trkpt lat="45.69331023444319" lon="9.89713319478192"><ele>431.0</ele><time>2026-04-11T09:29:39Z</time></trkpt><trkpt lat="45.69337487933308" lon="9.897095623637275"><ele>431.0</ele><time>2026-04-11T09:29:40Z</time></trkpt><trkpt lat="45.69343210839538" lon="9.897040525252491"><ele>431.0</ele><time>2026-04-11T09:29:41Z</time></trkpt><trkpt lat="45.69352383520791" lon="9.89692370886642"><ele>431.0</ele><time>2026-04-11T09:29:43Z</time></trkpt><trkpt lat="45.693627435733305" lon="9.896827224766389"><ele>431.20000000000005</ele><time>2026-04-11T09:29:45Z</time></trkpt><trkpt lat="45.6937382108567" lon="9.896758752793055"><ele>431.40000000000003</ele><time>2026-04-11T09:29:47Z</time></trkpt><trkpt lat="45.693839470602725" lon="9.896685930007198"><ele>431.6</ele><time>2026-04-11T09:29:49Z</time></trkpt><trkpt lat="45.693943510660816" lon="9.896606524001413"><ele>431.8</ele><time>2026-04-11T09:29:51Z</time></trkpt><trkpt lat="45.6940055980446" lon="9.896571272840339"><ele>432.0</ele><time>2026-04-11T09:29:52Z</time></trkpt><trkpt lat="45.69409991034519" lon="9.896494538553327"><ele>432.0</ele><time>2026-04-11T09:29:54Z</time></trkpt><trkpt lat="45.69416124441328" lon="9.896451890807663"><ele>432.00000000000006</ele><time>2026-04-11T09:29:55Z</time></trkpt><trkpt lat="45.6942745276945" lon="9.896393815792191"><ele>432.00000000000006</ele><time>2026-04-11T09:29:57Z</time></trkpt><trkpt lat="45.69439032533155" lon="9.896372486406024"><ele>432.0</ele><time>2026-04-11T09:29:59Z</time></trkpt><trkpt lat="45.69449096819483" lon="9.896362538817831"><ele>432.0</ele><time>2026-04-11T09:30:01Z</time></trkpt><trkpt lat="45.69457618177812" lon="9.896344670409052"><ele>432.1666666666667</ele><time>2026-04-11T09:30:03Z</time></trkpt><trkpt lat="45.694656406721215" lon="9.896322927363823"><ele>432.33333333333337</ele><time>2026-04-11T09:30:05Z</time></trkpt><trkpt lat="45.6947462868924" lon="9.896321455564122"><ele>432.5</ele><time>2026-04-11T09:30:07Z</time></trkpt><trkpt lat="45.69483301826375" lon="9.896303230273093"><ele>432.6666666666667</ele><time>2026-04-11T09:30:09Z</time></trkpt><trkpt lat="45.69490848337099" lon="9.8962899766874"><ele>432.83333333333337</ele><time>2026-04-11T09:30:11Z</time></trkpt><trkpt lat="45.694987927984634" lon="9.896292131116127"><ele>433.0</ele><time>2026-04-11T09:30:13Z</time></trkpt><trkpt lat="45.69507243651339" lon="9.896264006548279"><ele>433.0</ele><time>2026-04-11T09:30:15Z</time></trkpt><trkpt lat="45.69515535920212" lon="9.89625699568556"><ele>432.99999999999994</ele><time>2026-04-11T09:30:17Z</time></trkpt><trkpt lat="45.69524309507231" lon="9.896252273457215"><ele>432.99999999999994</ele><time>2026-04-11T09:30:19Z</time></trkpt><trkpt lat="45.695332927248636" lon="9.89626401984511"><ele>433.0</ele><time>2026-04-11T09:30:21Z</time></trkpt><trkpt lat="45.69543171828437" lon="9.89628521933517"><ele>433.0</ele><time>2026-04-11T09:30:23Z</time></trkpt><trkpt lat="45.69554843927444" lon="9.896301296905609"><ele>434.00000000000006</ele><time>2026-04-11T09:30:25Z</time></trkpt><trkpt lat="45.6956215899106" lon="9.896315023672459"><ele>435.0</ele><time>2026-04-11T09:30:26Z</time></trkpt><trkpt lat="45.69568735024404" lon="9.89634573509705"><ele>436.0</ele><time>2026-04-11T09:30:27Z</time></trkpt><trkpt lat="45.6957537346634" lon="9.896402313330066"><ele>437.0</ele><time>2026-04-11T09:30:28Z</time></trkpt><trkpt lat="45.69581714447478" lon="9.896462755842728"><ele>438.00000000000006</ele><time>2026-04-11T09:30:29Z</time></trkpt><trkpt lat="45.69587472436769" lon="9.89653205121883"><ele>439.0</ele><time>2026-04-11T09:30:30Z</time></trkpt><trkpt lat="45.695940065864356" lon="9.896596308078601"><ele>439.00000000000006</ele><time>2026-04-11T09:30:31Z</time></trkpt><trkpt lat="45.69599317704102" lon="9.896655489285639"><ele>439.0</ele><time>2026-04-11T09:30:32Z</time></trkpt><trkpt lat="45.69605912809212" lon="9.896702557919262"><ele>439.0</ele><time>2026-04-11T09:30:33Z</time></trkpt><trkpt lat="45.69612459753739" lon="9.896746305854794"><ele>439.0</ele><time>2026-04-11T09:30:34Z</time></trkpt><trkpt lat="45.69623099769637" lon="9.896755716545476"><ele>439.00000000000006</ele><time>2026-04-11T09:30:36Z</time></trkpt><trkpt lat="45.6963214225931" lon="9.896723310242349"><ele>439.0</ele><time>2026-04-11T09:30:38Z</time></trkpt><trkpt lat="45.696415346130905" lon="9.896771218485538"><ele>438.4</ele><time>2026-04-11T09:30:40Z</time></trkpt><trkpt lat="45.696505281999485" lon="9.896828462269404"><ele>437.79999999999995</ele><time>2026-04-11T09:30:42Z</time></trkpt><trkpt lat="45.69659982782661" lon="9.8968793463964"><ele>437.20000000000005</ele><time>2026-04-11T09:30:44Z</time></trkpt><trkpt lat="45.696685095766085" lon="9.89693557946349"><ele>436.6</ele><time>2026-04-11T09:30:46Z</time></trkpt><trkpt lat="45.69677556416055" lon="9.896989605544269"><ele>436.0</ele><time>2026-04-11T09:30:48Z</time></trkpt><trkpt lat="45.696872677283395" lon="9.897040509122041"><ele>438.8</ele><time>2026-04-11T09:30:50Z</time></trkpt><trkpt lat="45.696968529421284" lon="9.8970976645604"><ele>441.6</ele><time>2026-04-11T09:30:52Z</time></trkpt><trkpt lat="45.69706041883355" lon="9.897159693685797"><ele>444.4</ele><time>2026-04-11T09:30:54Z</time></trkpt><trkpt lat="45.69715839799177" lon="9.89720049398618"><ele>447.2</ele><time>2026-04-11T09:30:56Z</time></trkpt><trkpt lat="45.69726645440721" lon="9.897270653253518"><ele>450.0</ele><time>2026-04-11T09:30:58Z</time></trkpt><trkpt lat="45.69735778099576" lon="9.89733554662766"><ele>450.0</ele><time>2026-04-11T09:31:00Z</time></trkpt><trkpt lat="45.69746038706094" lon="9.897392193308269"><ele>450.0</ele><time>2026-04-11T09:31:02Z</time></trkpt><trkpt lat="45.69755593747155" lon="9.89744853435002"><ele>450.0</ele><time>2026-04-11T09:31:04Z</time></trkpt><trkpt lat="45.697648301879184" lon="9.897508223360823"><ele>450.0</ele><time>2026-04-11T09:31:06Z</time></trkpt><trkpt lat="45.69774028462466" lon="9.897549175716684"><ele>450.0</ele><time>2026-04-11T09:31:08Z</time></trkpt><trkpt lat="45.69781724941493" lon="9.89759946283288"><ele>451.3333333333333</ele><time>2026-04-11T09:31:10Z</time></trkpt><trkpt lat="45.69789408228105" lon="9.897658304502293"><ele>452.66666666666663</ele><time>2026-04-11T09:31:12Z</time></trkpt><trkpt lat="45.69798527557188" lon="9.897705859082105"><ele>454.0</ele><time>2026-04-11T09:31:14Z</time></trkpt><trkpt lat="45.69806447088727" lon="9.897754434609036"><ele>455.3333333333333</ele><time>2026-04-11T09:31:16Z</time></trkpt><trkpt lat="45.69814461375794" lon="9.897802192444429"><ele>456.66666666666663</ele><time>2026-04-11T09:31:18Z</time></trkpt><trkpt lat="45.69821631325773" lon="9.897855846565903"><ele>458.0</ele><time>2026-04-11T09:31:20Z</time></trkpt><trkpt lat="45.698285256285594" lon="9.897908640995569"><ele>458.0</ele><time>2026-04-11T09:31:22Z</time></trkpt><trkpt lat="45.698348901308044" lon="9.897956344349998"><ele>457.99999999999994</ele><time>2026-04-11T09:31:24Z</time></trkpt><trkpt lat="45.698391563728904" lon="9.89803042756192"><ele>457.99999999999994</ele><time>2026-04-11T09:31:26Z</time></trkpt><trkpt lat="45.69838256868704" lon="9.898158468803585"><ele>458.0</ele><time>2026-04-11T09:31:28Z</time></trkpt><trkpt lat="45.69837908997718" lon="9.89831406732079"><ele>458.0</ele><time>2026-04-11T09:31:30Z</time></trkpt><trkpt lat="45.69842794435542" lon="9.898466944928693"><ele>456.4</ele><time>2026-04-11T09:31:32Z</time></trkpt><trkpt lat="45.69847072375974" lon="9.898603635590446"><ele>454.79999999999995</ele><time>2026-04-11T09:31:34Z</time></trkpt><trkpt lat="45.69851530676909" lon="9.898734338983111"><ele>453.2</ele><time>2026-04-11T09:31:36Z</time></trkpt><trkpt lat="45.698547554428735" lon="9.89886018690107"><ele>451.6</ele><time>2026-04-11T09:31:38Z</time></trkpt><trkpt lat="45.69856793536964" lon="9.898988365609378"><ele>450.0</ele><time>2026-04-11T09:31:40Z</time></trkpt><trkpt lat="45.698581423653984" lon="9.89912127247428"><ele>454.3333333333333</ele><time>2026-04-11T09:31:42Z</time></trkpt><trkpt lat="45.69861354337223" lon="9.899260184918196"><ele>458.66666666666663</ele><time>2026-04-11T09:31:44Z</time></trkpt><trkpt lat="45.69864844407928" lon="9.899350328549254"><ele>463.0</ele><time>2026-04-11T09:31:46Z</time></trkpt><trkpt lat="45.69870324824912" lon="9.89943982822354"><ele>467.3333333333333</ele><time>2026-04-11T09:31:48Z</time></trkpt><trkpt lat="45.69866459082509" lon="9.899358075481999"><ele>471.66666666666663</ele><time>2026-04-11T09:31:56Z</time></trkpt><trkpt lat="45.698643418541714" lon="9.899251211864948"><ele>476.0</ele><time>2026-04-11T09:31:59Z</time></trkpt><trkpt lat="45.698611401249636" lon="9.899130476021288"><ele>476.0</ele><time>2026-04-11T09:32:02Z</time></trkpt><trkpt lat="45.69857787047686" lon="9.899048035540822"><ele>476.0</ele><time>2026-04-11T09:32:04Z</time></trkpt><trkpt lat="45.69851837434313" lon="9.899086910863103"><ele>476.0</ele><time>2026-04-11T09:32:07Z</time></trkpt><trkpt lat="45.69854261848778" lon="9.899204452350707"><ele>476.0</ele><time>2026-04-11T09:32:10Z</time></trkpt><trkpt lat="45.69857315084824" lon="9.899301598232194"><ele>476.0</ele><time>2026-04-11T09:32:12Z</time></trkpt><trkpt lat="45.69858562240531" lon="9.899391499918792"><ele>476.0</ele><time>2026-04-11T09:32:14Z</time></trkpt><trkpt lat="45.69861747172258" lon="9.899509801542592"><ele>476.0</ele><time>2026-04-11T09:32:31Z</time></trkpt><trkpt lat="45.69863506049415" lon="9.89961999905016"><ele>476.0</ele><time>2026-04-11T09:32:33Z</time></trkpt><trkpt lat="45.69863847853896" lon="9.899711804387469"><ele>476.0</ele><time>2026-04-11T09:32:35Z</time></trkpt><trkpt lat="45.69864511900489" lon="9.899820771026661"><ele>476.0</ele><time>2026-04-11T09:32:37Z</time></trkpt><trkpt lat="45.69860868587606" lon="9.899917655097983"><ele>476.0</ele><time>2026-04-11T09:32:40Z</time></trkpt><trkpt lat="45.69861055579999" lon="9.900040169945125"><ele>476.0</ele><time>2026-04-11T09:32:43Z</time></trkpt><trkpt lat="45.69862267571932" lon="9.900129442314322"><ele>476.0</ele><time>2026-04-11T09:32:46Z</time></trkpt><trkpt lat="45.698613658398706" lon="9.900028729072423"><ele>476.0</ele><time>2026-04-11T09:32:50Z</time></trkpt><trkpt lat="45.698624347946094" lon="9.899923516916122"><ele>476.0</ele><time>2026-04-11T09:32:52Z</time></trkpt><trkpt lat="45.69863434361507" lon="9.89978965012009"><ele>476.0</ele><time>2026-04-11T09:32:54Z</time></trkpt><trkpt lat="45.69863247569126" lon="9.89962505589196"><ele>476.0</ele><time>2026-04-11T09:32:56Z</time></trkpt><trkpt lat="45.69859640941179" lon="9.89948752809052"><ele>476.0</ele><time>2026-04-11T09:32:58Z</time></trkpt><trkpt lat="45.69856334151484" lon="9.899358812178527"><ele>476.0</ele><time>2026-04-11T09:33:00Z</time></trkpt><trkpt lat="45.698542047326" lon="9.899252580175006"><ele>471.66666666666663</ele><time>2026-04-11T09:33:02Z</time></trkpt><trkpt lat="45.69851230974614" lon="9.899144348412522"><ele>467.3333333333333</ele><time>2026-04-11T09:33:04Z</time></trkpt><trkpt lat="45.69853780529222" lon="9.899039961427436"><ele>463.0</ele><time>2026-04-11T09:33:06Z</time></trkpt><trkpt lat="45.6985527191686" lon="9.898940481734458"><ele>458.66666666666663</ele><time>2026-04-11T09:33:08Z</time></trkpt><trkpt lat="45.69852505545803" lon="9.898808193338112"><ele>454.3333333333333</ele><time>2026-04-11T09:33:10Z</time></trkpt><trkpt lat="45.69848549363241" lon="9.898683947615286"><ele>450.0</ele><time>2026-04-11T09:33:12Z</time></trkpt><trkpt lat="45.69845944239061" lon="9.89857023292683"><ele>450.0</ele><time>2026-04-11T09:33:14Z</time></trkpt><trkpt lat="45.69843238502419" lon="9.89845975834324"><ele>450.0</ele><time>2026-04-11T09:33:16Z</time></trkpt><trkpt lat="45.6984096740968" lon="9.898341744938893"><ele>450.0</ele><time>2026-04-11T09:33:18Z</time></trkpt><trkpt lat="45.69837660304425" lon="9.898198079543612"><ele>450.0</ele><time>2026-04-11T09:33:20Z</time></trkpt><trkpt lat="45.69840527402872" lon="9.898050482895233"><ele>450.0</ele><time>2026-04-11T09:33:22Z</time></trkpt><trkpt lat="45.69838615780195" lon="9.897954057696408"><ele>451.6</ele><time>2026-04-11T09:33:24Z</time></trkpt><trkpt lat="45.698320838574716" lon="9.897884867712577"><ele>453.2</ele><time>2026-04-11T09:33:26Z</time></trkpt><trkpt lat="45.698191557569736" lon="9.897819336883042"><ele>454.79999999999995</ele><time>2026-04-11T09:33:28Z</time></trkpt><trkpt lat="45.698115938301676" lon="9.897776564515416"><ele>456.4</ele><time>2026-04-11T09:33:29Z</time></trkpt><trkpt lat="45.69803701370887" lon="9.89772137919078"><ele>458.0</ele><time>2026-04-11T09:33:30Z</time></trkpt><trkpt lat="45.69795110128715" lon="9.897657441003947"><ele>458.0</ele><time>2026-04-11T09:33:31Z</time></trkpt><trkpt lat="45.69786271789285" lon="9.897597060206966"><ele>457.99999999999994</ele><time>2026-04-11T09:33:32Z</time></trkpt><trkpt lat="45.69776730319266" lon="9.897542362533812"><ele>457.99999999999994</ele><time>2026-04-11T09:33:33Z</time></trkpt><trkpt lat="45.6976673004123" lon="9.897488898180319"><ele>458.0</ele><time>2026-04-11T09:33:34Z</time></trkpt><trkpt lat="45.69756781821542" lon="9.89742242920344"><ele>458.0</ele><time>2026-04-11T09:33:35Z</time></trkpt><trkpt lat="45.69746915588222" lon="9.897365224279616"><ele>456.0</ele><time>2026-04-11T09:33:36Z</time></trkpt><trkpt lat="45.69735905451666" lon="9.897310861435333"><ele>454.0</ele><time>2026-04-11T09:33:37Z</time></trkpt><trkpt lat="45.69725211280543" lon="9.897254141910008"><ele>452.0</ele><time>2026-04-11T09:33:38Z</time></trkpt><trkpt lat="45.697151842286644" lon="9.89719585997244"><ele>450.0</ele><time>2026-04-11T09:33:39Z</time></trkpt><trkpt lat="45.69705068004061" lon="9.897130338772"><ele>450.0</ele><time>2026-04-11T09:33:40Z</time></trkpt><trkpt lat="45.69694741711635" lon="9.897064906239805"><ele>450.0</ele><time>2026-04-11T09:33:41Z</time></trkpt><trkpt lat="45.696845706078115" lon="9.89699811048902"><ele>450.0</ele><time>2026-04-11T09:33:42Z</time></trkpt><trkpt lat="45.696742228216905" lon="9.89694138769353"><ele>450.0</ele><time>2026-04-11T09:33:43Z</time></trkpt><trkpt lat="45.69664090731113" lon="9.896885751751372"><ele>450.0</ele><time>2026-04-11T09:33:44Z</time></trkpt><trkpt lat="45.696543696669046" lon="9.896826777134356"><ele>449.6666666666667</ele><time>2026-04-11T09:33:45Z</time></trkpt><trkpt lat="45.69645335644393" lon="9.896775794110468"><ele>449.33333333333337</ele><time>2026-04-11T09:33:46Z</time></trkpt><trkpt lat="45.69637851835425" lon="9.89672441509861"><ele>449.0</ele><time>2026-04-11T09:33:47Z</time></trkpt><trkpt lat="45.6963058950653" lon="9.896686912065046"><ele>448.6666666666667</ele><time>2026-04-11T09:33:48Z</time></trkpt><trkpt lat="45.69620582375151" lon="9.896718777599984"><ele>448.33333333333337</ele><time>2026-04-11T09:33:50Z</time></trkpt><trkpt lat="45.696169255586476" lon="9.896795130713436"><ele>448.0</ele><time>2026-04-11T09:33:51Z</time></trkpt><trkpt lat="45.69616346158362" lon="9.896905030390306"><ele>445.59999999999997</ele><time>2026-04-11T09:33:52Z</time></trkpt><trkpt lat="45.69617824493702" lon="9.897035995022573"><ele>443.19999999999993</ele><time>2026-04-11T09:33:53Z</time></trkpt><trkpt lat="45.69617643791373" lon="9.897176114263672"><ele>440.8</ele><time>2026-04-11T09:33:54Z</time></trkpt><trkpt lat="45.69616235732231" lon="9.89731781985194"><ele>438.4</ele><time>2026-04-11T09:33:55Z</time></trkpt><trkpt lat="45.696166141657955" lon="9.897461646226807"><ele>436.0</ele><time>2026-04-11T09:33:56Z</time></trkpt><trkpt lat="45.69617380750509" lon="9.897610008952372"><ele>433.8</ele><time>2026-04-11T09:33:57Z</time></trkpt><trkpt lat="45.69621089952778" lon="9.897745208351916"><ele>431.6</ele><time>2026-04-11T09:33:58Z</time></trkpt><trkpt lat="45.696271759161064" lon="9.897863666277095"><ele>429.4</ele><time>2026-04-11T09:33:59Z</time></trkpt><trkpt lat="45.696349741932266" lon="9.897974267087083"><ele>427.2</ele><time>2026-04-11T09:34:00Z</time></trkpt><trkpt lat="45.69642477636552" lon="9.898095275199804"><ele>425.0</ele><time>2026-04-11T09:34:01Z</time></trkpt><trkpt lat="45.69649597157064" lon="9.898224516298038"><ele>425.0</ele><time>2026-04-11T09:34:02Z</time></trkpt><trkpt lat="45.69656096587496" lon="9.898343482483154"><ele>425.0</ele><time>2026-04-11T09:34:03Z</time></trkpt><trkpt lat="45.696629210835994" lon="9.89846991790849"><ele>425.0</ele><time>2026-04-11T09:34:04Z</time></trkpt><trkpt lat="45.69670902177718" lon="9.898575137380607"><ele>425.0</ele><time>2026-04-11T09:34:05Z</time></trkpt><trkpt lat="45.69680280023279" lon="9.89865657715946"><ele>425.0</ele><time>2026-04-11T09:34:06Z</time></trkpt><trkpt lat="45.696897364334035" lon="9.898722432313292"><ele>424.8</ele><time>2026-04-11T09:34:07Z</time></trkpt><trkpt lat="45.69699632692045" lon="9.898761682905555"><ele>424.6</ele><time>2026-04-11T09:34:08Z</time></trkpt><trkpt lat="45.6970960942635" lon="9.89878921128171"><ele>424.4</ele><time>2026-04-11T09:34:09Z</time></trkpt><trkpt lat="45.697194887657254" lon="9.89881127620304"><ele>424.2</ele><time>2026-04-11T09:34:10Z</time></trkpt><trkpt lat="45.69728850876771" lon="9.89881633071494"><ele>424.0</ele><time>2026-04-11T09:34:11Z</time></trkpt><trkpt lat="45.697373089742186" lon="9.89883059223408"><ele>424.00000000000006</ele><time>2026-04-11T09:34:12Z</time></trkpt><trkpt lat="45.697447026697986" lon="9.898849648483331"><ele>424.0</ele><time>2026-04-11T09:34:13Z</time></trkpt><trkpt lat="45.6975145628056" lon="9.898901918803462"><ele>424.0</ele><time>2026-04-11T09:34:14Z</time></trkpt><trkpt lat="45.69754096835181" lon="9.899003870614466"><ele>424.0</ele><time>2026-04-11T09:34:15Z</time></trkpt><trkpt lat="45.69755103370057" lon="9.899121280583186"><ele>424.00000000000006</ele><time>2026-04-11T09:34:16Z</time></trkpt><trkpt lat="45.697532686063404" lon="9.899238946345926"><ele>424.0</ele><time>2026-04-11T09:34:17Z</time></trkpt><trkpt lat="45.6974965531654" lon="9.899361481556275"><ele>422.6</ele><time>2026-04-11T09:34:18Z</time></trkpt><trkpt lat="45.69745479726852" lon="9.899477252321198"><ele>421.2</ele><time>2026-04-11T09:34:19Z</time></trkpt><trkpt lat="45.697417295717635" lon="9.899595188339063"><ele>419.8</ele><time>2026-04-11T09:34:20Z</time></trkpt><trkpt lat="45.69738511651361" lon="9.899713170098925"><ele>418.40000000000003</ele><time>2026-04-11T09:34:21Z</time></trkpt><trkpt lat="45.697359887999056" lon="9.899836453546936"><ele>417.0</ele><time>2026-04-11T09:34:22Z</time></trkpt><trkpt lat="45.69738109343652" lon="9.899980216543733"><ele>415.6</ele><time>2026-04-11T09:34:23Z</time></trkpt><trkpt lat="45.69738024514511" lon="9.90013514834852"><ele>414.20000000000005</ele><time>2026-04-11T09:34:24Z</time></trkpt><trkpt lat="45.697389501443574" lon="9.900297469630198"><ele>412.8</ele><time>2026-04-11T09:34:25Z</time></trkpt><trkpt lat="45.69738570828627" lon="9.90046021343211"><ele>411.4</ele><time>2026-04-11T09:34:26Z</time></trkpt><trkpt lat="45.69738348942364" lon="9.900611263877307"><ele>410.0</ele><time>2026-04-11T09:34:27Z</time></trkpt><trkpt lat="45.6973685549637" lon="9.900755649673881"><ele>409.99999999999994</ele><time>2026-04-11T09:34:28Z</time></trkpt><trkpt lat="45.697344728194125" lon="9.90088604643564"><ele>410.0</ele><time>2026-04-11T09:34:29Z</time></trkpt><trkpt lat="45.69731437842701" lon="9.901001270509017"><ele>410.0</ele><time>2026-04-11T09:34:30Z</time></trkpt><trkpt lat="45.697290466128514" lon="9.901102120054205"><ele>410.0</ele><time>2026-04-11T09:34:31Z</time></trkpt><trkpt lat="45.69728704141959" lon="9.901203434006481"><ele>409.99999999999994</ele><time>2026-04-11T09:34:32Z</time></trkpt><trkpt lat="45.697318796999994" lon="9.901315553581005"><ele>410.0</ele><time>2026-04-11T09:34:33Z</time></trkpt><trkpt lat="45.69735393282743" lon="9.90141258685292"><ele>408.66666666666663</ele><time>2026-04-11T09:34:34Z</time></trkpt><trkpt lat="45.69738891165286" lon="9.901500910715937"><ele>407.3333333333333</ele><time>2026-04-11T09:34:35Z</time></trkpt><trkpt lat="45.697412504500065" lon="9.901588191192426"><ele>406.0</ele><time>2026-04-11T09:34:36Z</time></trkpt><trkpt lat="45.69730548620138" lon="9.901537505601226"><ele>404.66666666666663</ele><time>2026-04-11T09:34:39Z</time></trkpt><trkpt lat="45.69722163460557" lon="9.901429477330643"><ele>403.3333333333333</ele><time>2026-04-11T09:34:41Z</time></trkpt><trkpt lat="45.69717743459855" lon="9.901360355947684"><ele>402.0</ele><time>2026-04-11T09:34:42Z</time></trkpt><trkpt lat="45.69713033825413" lon="9.901292465131997"><ele>402.0</ele><time>2026-04-11T09:34:43Z</time></trkpt><trkpt lat="45.6970821885599" lon="9.901215602188365"><ele>402.0</ele><time>2026-04-11T09:34:44Z</time></trkpt><trkpt lat="45.697036235669" lon="9.9011229227738"><ele>402.0</ele><time>2026-04-11T09:34:45Z</time></trkpt><trkpt lat="45.69699119574865" lon="9.901018275045745"><ele>402.0</ele><time>2026-04-11T09:34:46Z</time></trkpt><trkpt lat="45.69694185467041" lon="9.900908494335802"><ele>402.0</ele><time>2026-04-11T09:34:47Z</time></trkpt><trkpt lat="45.69688758999462" lon="9.90079130014612"><ele>402.0</ele><time>2026-04-11T09:34:48Z</time></trkpt><trkpt lat="45.6968352717755" lon="9.900665614835495"><ele>399.6666666666667</ele><time>2026-04-11T09:34:49Z</time></trkpt><trkpt lat="45.696779978466964" lon="9.900551053136239"><ele>397.33333333333337</ele><time>2026-04-11T09:34:50Z</time></trkpt><trkpt lat="45.69673315591423" lon="9.900445813543236"><ele>395.0</ele><time>2026-04-11T09:34:51Z</time></trkpt><trkpt lat="45.6966989980952" lon="9.900367702421388"><ele>392.6666666666667</ele><time>2026-04-11T09:34:52Z</time></trkpt><trkpt lat="45.69663849241814" lon="9.900309978264964"><ele>390.33333333333337</ele><time>2026-04-11T09:34:54Z</time></trkpt><trkpt lat="45.69659384206478" lon="9.900435938888501"><ele>388.0</ele><time>2026-04-11T09:34:56Z</time></trkpt><trkpt lat="45.6966094139064" lon="9.900541559965966"><ele>388.00000000000006</ele><time>2026-04-11T09:34:57Z</time></trkpt><trkpt lat="45.69662768564144" lon="9.900630531021578"><ele>388.0</ele><time>2026-04-11T09:34:58Z</time></trkpt><trkpt lat="45.696650202165166" lon="9.90071998955888"><ele>388.0</ele><time>2026-04-11T09:34:59Z</time></trkpt><trkpt lat="45.69666505845159" lon="9.900809050797305"><ele>388.0</ele><time>2026-04-11T09:35:00Z</time></trkpt><trkpt lat="45.69668450847009" lon="9.900901603925384"><ele>388.00000000000006</ele><time>2026-04-11T09:35:01Z</time></trkpt><trkpt lat="45.696696822782236" lon="9.90107188913104"><ele>388.0</ele><time>2026-04-11T09:35:03Z</time></trkpt><trkpt lat="45.69674974446864" lon="9.901227386859285"><ele>387.0</ele><time>2026-04-11T09:35:05Z</time></trkpt><trkpt lat="45.69677696427409" lon="9.901310517511979"><ele>386.0</ele><time>2026-04-11T09:35:06Z</time></trkpt><trkpt lat="45.69680381686965" lon="9.901402191106635"><ele>385.0</ele><time>2026-04-11T09:35:07Z</time></trkpt><trkpt lat="45.69683448871715" lon="9.901483246971654"><ele>384.0</ele><time>2026-04-11T09:35:08Z</time></trkpt><trkpt lat="45.69686428501363" lon="9.90157000858699"><ele>383.0</ele><time>2026-04-11T09:35:09Z</time></trkpt><trkpt lat="45.696892900071845" lon="9.901659299588148"><ele>382.0</ele><time>2026-04-11T09:35:10Z</time></trkpt><trkpt lat="45.696924976193266" lon="9.901749958448068"><ele>381.0</ele><time>2026-04-11T09:35:11Z</time></trkpt><trkpt lat="45.69695827925162" lon="9.90184037334003"><ele>383.0</ele><time>2026-04-11T09:35:12Z</time></trkpt><trkpt lat="45.6969897405679" lon="9.901936439618673"><ele>385.0</ele><time>2026-04-11T09:35:13Z</time></trkpt><trkpt lat="45.69702034983688" lon="9.90203503374667"><ele>387.0</ele><time>2026-04-11T09:35:14Z</time></trkpt><trkpt lat="45.69705267557462" lon="9.9021343533159"><ele>389.0</ele><time>2026-04-11T09:35:15Z</time></trkpt><trkpt lat="45.69708706013398" lon="9.902228156333818"><ele>391.0</ele><time>2026-04-11T09:35:16Z</time></trkpt><trkpt lat="45.69712125625204" lon="9.902326912520994"><ele>393.0</ele><time>2026-04-11T09:35:17Z</time></trkpt><trkpt lat="45.69715090727596" lon="9.902413239110484"><ele>395.0</ele><time>2026-04-11T09:35:18Z</time></trkpt><trkpt lat="45.69717589232508" lon="9.902512221597455"><ele>393.99999999999994</ele><time>2026-04-11T09:35:19Z</time></trkpt><trkpt lat="45.697196289333064" lon="9.902606303582479"><ele>393.0</ele><time>2026-04-11T09:35:20Z</time></trkpt><trkpt lat="45.69720982265779" lon="9.902702539342892"><ele>392.0</ele><time>2026-04-11T09:35:21Z</time></trkpt><trkpt lat="45.697232512225334" lon="9.902873795471962"><ele>391.0</ele><time>2026-04-11T09:35:23Z</time></trkpt><trkpt lat="45.69724794238977" lon="9.902961903676244"><ele>389.99999999999994</ele><time>2026-04-11T09:35:24Z</time></trkpt><trkpt lat="45.6972626385187" lon="9.903132021294258"><ele>389.0</ele><time>2026-04-11T09:35:26Z</time></trkpt><trkpt lat="45.69725257127627" lon="9.903222305194607"><ele>389.0</ele><time>2026-04-11T09:35:27Z</time></trkpt><trkpt lat="45.69723272052191" lon="9.903311089608424"><ele>389.0</ele><time>2026-04-11T09:35:28Z</time></trkpt><trkpt lat="45.697214581809895" lon="9.903403830137433"><ele>389.0</ele><time>2026-04-11T09:35:29Z</time></trkpt><trkpt lat="45.69720281119386" lon="9.90349455274304"><ele>389.0</ele><time>2026-04-11T09:35:30Z</time></trkpt><trkpt lat="45.69719121585107" lon="9.903588457061145"><ele>389.0</ele><time>2026-04-11T09:35:31Z</time></trkpt><trkpt lat="45.697173789614226" lon="9.903683703628776"><ele>389.0</ele><time>2026-04-11T09:35:32Z</time></trkpt><trkpt lat="45.697160298938" lon="9.903779121822176"><ele>389.0</ele><time>2026-04-11T09:35:33Z</time></trkpt><trkpt lat="45.69714509861652" lon="9.90387826832578"><ele>389.42857142857144</ele><time>2026-04-11T09:35:34Z</time></trkpt><trkpt lat="45.697136383235076" lon="9.903977692738126"><ele>389.85714285714283</ele><time>2026-04-11T09:35:35Z</time></trkpt><trkpt lat="45.69712019144995" lon="9.904074445476441"><ele>390.2857142857143</ele><time>2026-04-11T09:35:36Z</time></trkpt><trkpt lat="45.697108433688534" lon="9.904177021476961"><ele>390.7142857142857</ele><time>2026-04-11T09:35:37Z</time></trkpt><trkpt lat="45.69709196325765" lon="9.904270786743263"><ele>391.1428571428571</ele><time>2026-04-11T09:35:38Z</time></trkpt><trkpt lat="45.69708474044126" lon="9.904373983850805"><ele>391.57142857142856</ele><time>2026-04-11T09:35:39Z</time></trkpt><trkpt lat="45.6970748627222" lon="9.904476635662435"><ele>392.0</ele><time>2026-04-11T09:35:40Z</time></trkpt><trkpt lat="45.69706682004129" lon="9.904569774254771"><ele>392.49999999999994</ele><time>2026-04-11T09:35:41Z</time></trkpt><trkpt lat="45.69706009550829" lon="9.904670422612263"><ele>393.0</ele><time>2026-04-11T09:35:42Z</time></trkpt><trkpt lat="45.697052369008915" lon="9.904764584083807"><ele>393.5</ele><time>2026-04-11T09:35:43Z</time></trkpt><trkpt lat="45.69704140539521" lon="9.904854349411709"><ele>394.0</ele><time>2026-04-11T09:35:44Z</time></trkpt><trkpt lat="45.69700192853999" lon="9.905016142601525"><ele>394.49999999999994</ele><time>2026-04-11T09:35:46Z</time></trkpt><trkpt lat="45.69695375248839" lon="9.905158011287211"><ele>395.0</ele><time>2026-04-11T09:35:48Z</time></trkpt><trkpt lat="45.696877034818904" lon="9.905275466052599"><ele>391.0</ele><time>2026-04-11T09:35:50Z</time></trkpt><trkpt lat="45.69677982956799" lon="9.90535404821868"><ele>387.0</ele><time>2026-04-11T09:35:52Z</time></trkpt><trkpt lat="45.69667172078739" lon="9.905433501504348"><ele>383.0</ele><time>2026-04-11T09:35:54Z</time></trkpt><trkpt lat="45.696565098332805" lon="9.905508748520878"><ele>379.0</ele><time>2026-04-11T09:35:56Z</time></trkpt><trkpt lat="45.69645535672821" lon="9.905588461348374"><ele>379.0</ele><time>2026-04-11T09:35:58Z</time></trkpt><trkpt lat="45.696347680779965" lon="9.905693910978286"><ele>379.0</ele><time>2026-04-11T09:36:00Z</time></trkpt><trkpt lat="45.6962971097026" lon="9.90576526861577"><ele>379.0</ele><time>2026-04-11T09:36:01Z</time></trkpt><trkpt lat="45.696250489496414" lon="9.905836335936083"><ele>379.0</ele><time>2026-04-11T09:36:02Z</time></trkpt><trkpt lat="45.696222732530025" lon="9.90592159052173"><ele>379.0</ele><time>2026-04-11T09:36:03Z</time></trkpt><trkpt lat="45.69620921419083" lon="9.906012137562008"><ele>379.0</ele><time>2026-04-11T09:36:04Z</time></trkpt><trkpt lat="45.69622614769851" lon="9.906111401971444"><ele>377.16666666666663</ele><time>2026-04-11T09:36:05Z</time></trkpt><trkpt lat="45.696261597269526" lon="9.906208638030922"><ele>375.3333333333333</ele><time>2026-04-11T09:36:06Z</time></trkpt><trkpt lat="45.69630384630266" lon="9.906298014597132"><ele>373.5</ele><time>2026-04-11T09:36:07Z</time></trkpt><trkpt lat="45.69636947968799" lon="9.906370337860206"><ele>371.6666666666667</ele><time>2026-04-11T09:36:08Z</time></trkpt><trkpt lat="45.69644248133002" lon="9.906425431558349"><ele>369.83333333333337</ele><time>2026-04-11T09:36:09Z</time></trkpt><trkpt lat="45.69653703835574" lon="9.906465702667568"><ele>368.0</ele><time>2026-04-11T09:36:10Z</time></trkpt><trkpt lat="45.696631105184856" lon="9.906519547221349"><ele>368.0</ele><time>2026-04-11T09:36:11Z</time></trkpt><trkpt lat="45.696720460337296" lon="9.906589928701656"><ele>368.0</ele><time>2026-04-11T09:36:12Z</time></trkpt><trkpt lat="45.69679799631497" lon="9.906656255371313"><ele>368.0</ele><time>2026-04-11T09:36:13Z</time></trkpt><trkpt lat="45.6968557547172" lon="9.906713113594954"><ele>368.0</ele><time>2026-04-11T09:36:14Z</time></trkpt><trkpt lat="45.69691054625768" lon="9.906867727783622"><ele>368.0</ele><time>2026-04-11T09:36:16Z</time></trkpt><trkpt lat="45.69693171893544" lon="9.906976551408876"><ele>367.5</ele><time>2026-04-11T09:36:17Z</time></trkpt><trkpt lat="45.6969602730194" lon="9.90708427236654"><ele>367.0</ele><time>2026-04-11T09:36:18Z</time></trkpt><trkpt lat="45.69697701082035" lon="9.907221953529621"><ele>366.5</ele><time>2026-04-11T09:36:20Z</time></trkpt><trkpt lat="45.69705464975221" lon="9.907341015536476"><ele>366.0</ele><time>2026-04-11T09:36:22Z</time></trkpt><trkpt lat="45.697117955567606" lon="9.907339701524943"><ele>365.5</ele><time>2026-04-11T09:36:23Z</time></trkpt><trkpt lat="45.6971831020497" lon="9.907325758767623"><ele>365.0</ele><time>2026-04-11T09:36:24Z</time></trkpt><trkpt lat="45.69724857770428" lon="9.907315831121783"><ele>365.00000000000006</ele><time>2026-04-11T09:36:25Z</time></trkpt><trkpt lat="45.69732183513395" lon="9.907322802861838"><ele>365.0</ele><time>2026-04-11T09:36:26Z</time></trkpt><trkpt lat="45.69739031136191" lon="9.907366467659301"><ele>365.0</ele><time>2026-04-11T09:36:27Z</time></trkpt><trkpt lat="45.69744187944866" lon="9.907439421221863"><ele>365.0</ele><time>2026-04-11T09:36:28Z</time></trkpt><trkpt lat="45.697487063264084" lon="9.90754053547486"><ele>365.0</ele><time>2026-04-11T09:36:29Z</time></trkpt><trkpt lat="45.69750262502201" lon="9.907635159629702"><ele>365.00000000000006</ele><time>2026-04-11T09:36:30Z</time></trkpt><trkpt lat="45.69751295672728" lon="9.907725817692908"><ele>365.0</ele><time>2026-04-11T09:36:31Z</time></trkpt><trkpt lat="45.697522593332806" lon="9.907825002964247"><ele>365.42857142857144</ele><time>2026-04-11T09:36:32Z</time></trkpt><trkpt lat="45.69753119150483" lon="9.907923596171802"><ele>365.8571428571429</ele><time>2026-04-11T09:36:33Z</time></trkpt><trkpt lat="45.69754879566199" lon="9.908018706974815"><ele>366.28571428571433</ele><time>2026-04-11T09:36:34Z</time></trkpt><trkpt lat="45.69756927961391" lon="9.908111358411013"><ele>366.7142857142857</ele><time>2026-04-11T09:36:35Z</time></trkpt><trkpt lat="45.69759747026382" lon="9.908194323547452"><ele>367.1428571428571</ele><time>2026-04-11T09:36:36Z</time></trkpt><trkpt lat="45.69762729791944" lon="9.908277356239058"><ele>367.5714285714286</ele><time>2026-04-11T09:36:37Z</time></trkpt><trkpt lat="45.69764395153891" lon="9.90837136626343"><ele>368.0</ele><time>2026-04-11T09:36:38Z</time></trkpt><trkpt lat="45.69764517170097" lon="9.90846988150971"><ele>368.0</ele><time>2026-04-11T09:36:39Z</time></trkpt><trkpt lat="45.69762278654119" lon="9.908558467884905"><ele>368.0</ele><time>2026-04-11T09:36:40Z</time></trkpt><trkpt lat="45.69753964613806" lon="9.908607465987172"><ele>368.0</ele><time>2026-04-11T09:36:41Z</time></trkpt><trkpt lat="45.69747582660155" lon="9.90863884355084"><ele>368.0</ele><time>2026-04-11T09:36:42Z</time></trkpt><trkpt lat="45.6974145320955" lon="9.908666089531366"><ele>368.0</ele><time>2026-04-11T09:36:43Z</time></trkpt><trkpt lat="45.69735627890884" lon="9.908703778882183"><ele>368.0</ele><time>2026-04-11T09:36:44Z</time></trkpt><trkpt lat="45.697299432445114" lon="9.90874974584295"><ele>368.0</ele><time>2026-04-11T09:36:45Z</time></trkpt><trkpt lat="45.69724389706376" lon="9.90880909449752"><ele>368.0</ele><time>2026-04-11T09:36:46Z</time></trkpt><trkpt lat="45.69719032911427" lon="9.908876036006008"><ele>368.0</ele><time>2026-04-11T09:36:47Z</time></trkpt><trkpt lat="45.697139547213595" lon="9.908948497962607"><ele>368.0</ele><time>2026-04-11T09:36:48Z</time></trkpt><trkpt lat="45.69708914931688" lon="9.909029108702379"><ele>368.0</ele><time>2026-04-11T09:36:49Z</time></trkpt><trkpt lat="45.69704162620328" lon="9.909122704662474"><ele>368.0</ele><time>2026-04-11T09:36:50Z</time></trkpt><trkpt lat="45.697013194222926" lon="9.909227122991098"><ele>368.0</ele><time>2026-04-11T09:36:51Z</time></trkpt><trkpt lat="45.69699208504608" lon="9.90933878198889"><ele>367.83333333333337</ele><time>2026-04-11T09:36:52Z</time></trkpt><trkpt lat="45.696989268503074" lon="9.909469223735108"><ele>367.6666666666667</ele><time>2026-04-11T09:36:53Z</time></trkpt><trkpt lat="45.69697485261986" lon="9.909585522492613"><ele>367.5</ele><time>2026-04-11T09:36:54Z</time></trkpt><trkpt lat="45.69695133198507" lon="9.909709192802403"><ele>367.3333333333333</ele><time>2026-04-11T09:36:55Z</time></trkpt><trkpt lat="45.696930099730295" lon="9.909829153405372"><ele>367.16666666666663</ele><time>2026-04-11T09:36:56Z</time></trkpt><trkpt lat="45.69690416617449" lon="9.909951533726582"><ele>367.0</ele><time>2026-04-11T09:36:57Z</time></trkpt><trkpt lat="45.69688772972085" lon="9.9100811114781"><ele>365.0</ele><time>2026-04-11T09:36:58Z</time></trkpt><trkpt lat="45.696887002348774" lon="9.910204007938013"><ele>363.0</ele><time>2026-04-11T09:36:59Z</time></trkpt><trkpt lat="45.69691856632126" lon="9.910330954018663"><ele>361.0</ele><time>2026-04-11T09:37:00Z</time></trkpt><trkpt lat="45.6969656433417" lon="9.910445961933696"><ele>359.0</ele><time>2026-04-11T09:37:01Z</time></trkpt><trkpt lat="45.69701802709771" lon="9.910561384375738"><ele>357.0</ele><time>2026-04-11T09:37:02Z</time></trkpt><trkpt lat="45.69706487636107" lon="9.910679591728675"><ele>357.0</ele><time>2026-04-11T09:37:03Z</time></trkpt><trkpt lat="45.69710465952776" lon="9.910807222227703"><ele>357.0</ele><time>2026-04-11T09:37:04Z</time></trkpt><trkpt lat="45.69714193183338" lon="9.910933278784254"><ele>357.0</ele><time>2026-04-11T09:37:05Z</time></trkpt><trkpt lat="45.697166760764674" lon="9.911054386890067"><ele>357.0</ele><time>2026-04-11T09:37:06Z</time></trkpt><trkpt lat="45.697143524797575" lon="9.91117551689164"><ele>357.0</ele><time>2026-04-11T09:37:07Z</time></trkpt><trkpt lat="45.69709067055639" lon="9.911283945134928"><ele>358.0</ele><time>2026-04-11T09:37:08Z</time></trkpt><trkpt lat="45.69703678026095" lon="9.911378408584996"><ele>359.0</ele><time>2026-04-11T09:37:09Z</time></trkpt><trkpt lat="45.69696592786551" lon="9.911440230101029"><ele>360.0</ele><time>2026-04-11T09:37:10Z</time></trkpt><trkpt lat="45.69688830477408" lon="9.911475010526402"><ele>361.0</ele><time>2026-04-11T09:37:11Z</time></trkpt><trkpt lat="45.696825062904054" lon="9.91152924261353"><ele>362.0</ele><time>2026-04-11T09:37:12Z</time></trkpt><trkpt lat="45.69677373505344" lon="9.91160083767977"><ele>363.0</ele><time>2026-04-11T09:37:13Z</time></trkpt><trkpt lat="45.69672722527243" lon="9.911683548651824"><ele>359.6666666666667</ele><time>2026-04-11T09:37:14Z</time></trkpt><trkpt lat="45.696689638138864" lon="9.911771601457861"><ele>356.3333333333333</ele><time>2026-04-11T09:37:15Z</time></trkpt><trkpt lat="45.696662142213896" lon="9.911869518438301"><ele>353.0</ele><time>2026-04-11T09:37:16Z</time></trkpt><trkpt lat="45.696633487282995" lon="9.911950648172793"><ele>349.66666666666663</ele><time>2026-04-11T09:37:17Z</time></trkpt><trkpt lat="45.69661715165332" lon="9.912042072996593"><ele>346.3333333333333</ele><time>2026-04-11T09:37:18Z</time></trkpt><trkpt lat="45.696598161417434" lon="9.912217822388664"><ele>343.0</ele><time>2026-04-11T09:37:20Z</time></trkpt><trkpt lat="45.696603487080026" lon="9.91239271050629"><ele>343.0</ele><time>2026-04-11T09:37:22Z</time></trkpt><trkpt lat="45.696627480038956" lon="9.91247877871555"><ele>343.0</ele><time>2026-04-11T09:37:23Z</time></trkpt><trkpt lat="45.69665738865994" lon="9.912560435341673"><ele>343.0</ele><time>2026-04-11T09:37:24Z</time></trkpt><trkpt lat="45.69669830892738" lon="9.912644870706444"><ele>343.0</ele><time>2026-04-11T09:37:25Z</time></trkpt><trkpt lat="45.69673533961884" lon="9.912741918409743"><ele>343.0</ele><time>2026-04-11T09:37:26Z</time></trkpt><trkpt lat="45.69678630008751" lon="9.912819970306296"><ele>343.0</ele><time>2026-04-11T09:37:27Z</time></trkpt><trkpt lat="45.69685010684596" lon="9.912893951347382"><ele>343.0</ele><time>2026-04-11T09:37:28Z</time></trkpt><trkpt lat="45.69692643059021" lon="9.912938031738472"><ele>344.3333333333333</ele><time>2026-04-11T09:37:29Z</time></trkpt><trkpt lat="45.69700933586963" lon="9.912961928744844"><ele>345.66666666666663</ele><time>2026-04-11T09:37:30Z</time></trkpt><trkpt lat="45.697085864339805" lon="9.913009150008717"><ele>347.0</ele><time>2026-04-11T09:37:31Z</time></trkpt><trkpt lat="45.69715005120428" lon="9.913092226707285"><ele>348.3333333333333</ele><time>2026-04-11T09:37:32Z</time></trkpt><trkpt lat="45.69719139577049" lon="9.913198401707428"><ele>349.6666666666667</ele><time>2026-04-11T09:37:33Z</time></trkpt><trkpt lat="45.69722263949672" lon="9.913307230378159"><ele>351.0</ele><time>2026-04-11T09:37:34Z</time></trkpt><trkpt lat="45.69723660085054" lon="9.913421139928719"><ele>351.1666666666667</ele><time>2026-04-11T09:37:35Z</time></trkpt><trkpt lat="45.69725632625326" lon="9.913529363309888"><ele>351.3333333333333</ele><time>2026-04-11T09:37:36Z</time></trkpt><trkpt lat="45.6972636961189" lon="9.913636760640166"><ele>351.5</ele><time>2026-04-11T09:37:37Z</time></trkpt><trkpt lat="45.69723891503943" lon="9.913742395555655"><ele>351.66666666666663</ele><time>2026-04-11T09:37:38Z</time></trkpt><trkpt lat="45.69719821845053" lon="9.913832800809674"><ele>351.8333333333333</ele><time>2026-04-11T09:37:39Z</time></trkpt><trkpt lat="45.69714614890052" lon="9.913907174525502"><ele>352.0</ele><time>2026-04-11T09:37:40Z</time></trkpt><trkpt lat="45.69707911789507" lon="9.9139464220764"><ele>352.0</ele><time>2026-04-11T09:37:41Z</time></trkpt><trkpt lat="45.69696985818563" lon="9.914024030362105"><ele>352.0</ele><time>2026-04-11T09:37:43Z</time></trkpt><trkpt lat="45.69686424733183" lon="9.91409666961095"><ele>352.0</ele><time>2026-04-11T09:37:45Z</time></trkpt><trkpt lat="45.69676932722275" lon="9.914191353519225"><ele>352.0</ele><time>2026-04-11T09:37:47Z</time></trkpt><trkpt lat="45.69670757763157" lon="9.914337376256315"><ele>349.0</ele><time>2026-04-11T09:37:49Z</time></trkpt><trkpt lat="45.69669888376282" lon="9.914433240053652"><ele>346.0</ele><time>2026-04-11T09:37:50Z</time></trkpt><trkpt lat="45.69669890953278" lon="9.91452464527093"><ele>343.0</ele><time>2026-04-11T09:37:51Z</time></trkpt><trkpt lat="45.69670947998466" lon="9.914699609540227"><ele>340.0</ele><time>2026-04-11T09:37:53Z</time></trkpt><trkpt lat="45.69670802931245" lon="9.914871912464337"><ele>337.0</ele><time>2026-04-11T09:37:55Z</time></trkpt><trkpt lat="45.69670886784185" lon="9.915037644418533"><ele>337.0</ele><time>2026-04-11T09:37:57Z</time></trkpt><trkpt lat="45.69670631689982" lon="9.915208287875924"><ele>337.0</ele><time>2026-04-11T09:37:59Z</time></trkpt><trkpt lat="45.696708738750395" lon="9.915385368344161"><ele>337.0</ele><time>2026-04-11T09:38:01Z</time></trkpt><trkpt lat="45.696718397709205" lon="9.915477157866261"><ele>337.0</ele><time>2026-04-11T09:38:02Z</time></trkpt><trkpt lat="45.69672127957561" lon="9.91557595229426"><ele>337.0</ele><time>2026-04-11T09:38:03Z</time></trkpt><trkpt lat="45.69672398750229" lon="9.915679642322258"><ele>337.0</ele><time>2026-04-11T09:38:04Z</time></trkpt><trkpt lat="45.69671561172539" lon="9.915776371444746"><ele>337.0</ele><time>2026-04-11T09:38:05Z</time></trkpt><trkpt lat="45.69669934812491" lon="9.915880787019203"><ele>337.0</ele><time>2026-04-11T09:38:06Z</time></trkpt><trkpt lat="45.6966707195277" lon="9.915982480692929"><ele>337.0</ele><time>2026-04-11T09:38:07Z</time></trkpt><trkpt lat="45.69662802435627" lon="9.916079757395737"><ele>337.0</ele><time>2026-04-11T09:38:08Z</time></trkpt><trkpt lat="45.69657838405706" lon="9.916173971981188"><ele>337.0</ele><time>2026-04-11T09:38:09Z</time></trkpt><trkpt lat="45.69651997713884" lon="9.916255668169647"><ele>337.0</ele><time>2026-04-11T09:38:10Z</time></trkpt><trkpt lat="45.696445275138274" lon="9.916314803641926"><ele>337.8333333333333</ele><time>2026-04-11T09:38:11Z</time></trkpt><trkpt lat="45.69636265456853" lon="9.916358515162363"><ele>338.66666666666663</ele><time>2026-04-11T09:38:12Z</time></trkpt><trkpt lat="45.696283095176305" lon="9.916410728425067"><ele>339.5</ele><time>2026-04-11T09:38:13Z</time></trkpt><trkpt lat="45.696203489271994" lon="9.916471323969208"><ele>340.3333333333333</ele><time>2026-04-11T09:38:14Z</time></trkpt><trkpt lat="45.69612844031647" lon="9.916543281437011"><ele>341.1666666666667</ele><time>2026-04-11T09:38:15Z</time></trkpt><trkpt lat="45.69606996770783" lon="9.916631284197138"><ele>342.0</ele><time>2026-04-11T09:38:16Z</time></trkpt><trkpt lat="45.69603271879148" lon="9.916732982600498"><ele>338.3333333333333</ele><time>2026-04-11T09:38:17Z</time></trkpt><trkpt lat="45.69600775879843" lon="9.916844659720212"><ele>334.6666666666667</ele><time>2026-04-11T09:38:18Z</time></trkpt><trkpt lat="45.69601038435669" lon="9.916967282943698"><ele>331.0</ele><time>2026-04-11T09:38:19Z</time></trkpt><trkpt lat="45.69602663913969" lon="9.917092750216296"><ele>327.33333333333337</ele><time>2026-04-11T09:38:20Z</time></trkpt><trkpt lat="45.696042880471616" lon="9.917222355095689"><ele>323.6666666666667</ele><time>2026-04-11T09:38:21Z</time></trkpt><trkpt lat="45.69604606792712" lon="9.91735725212833"><ele>320.0</ele><time>2026-04-11T09:38:22Z</time></trkpt><trkpt lat="45.696047480434714" lon="9.917494792799294"><ele>320.0</ele><time>2026-04-11T09:38:23Z</time></trkpt><trkpt lat="45.696041045402076" lon="9.917623476341856"><ele>320.0</ele><time>2026-04-11T09:38:24Z</time></trkpt><trkpt lat="45.69603265877201" lon="9.917771543659203"><ele>320.0</ele><time>2026-04-11T09:38:25Z</time></trkpt><trkpt lat="45.696017173707" lon="9.917902809284216"><ele>320.0</ele><time>2026-04-11T09:38:26Z</time></trkpt><trkpt lat="45.69599926442824" lon="9.918043005464181"><ele>320.0</ele><time>2026-04-11T09:38:27Z</time></trkpt><trkpt lat="45.69598023690117" lon="9.918183274251788"><ele>320.0</ele><time>2026-04-11T09:38:28Z</time></trkpt><trkpt lat="45.69596552467553" lon="9.91832476542284"><ele>320.0</ele><time>2026-04-11T09:38:29Z</time></trkpt><trkpt lat="45.69595654654862" lon="9.91844972536953"><ele>320.0</ele><time>2026-04-11T09:38:30Z</time></trkpt><trkpt lat="45.69592580666211" lon="9.918570914282425"><ele>320.0</ele><time>2026-04-11T09:38:31Z</time></trkpt><trkpt lat="45.695884110670264" lon="9.918681952970898"><ele>320.0</ele><time>2026-04-11T09:38:32Z</time></trkpt><trkpt lat="45.69583423687681" lon="9.918785486463964"><ele>321.0</ele><time>2026-04-11T09:38:33Z</time></trkpt><trkpt lat="45.6957651377724" lon="9.918873676563395"><ele>322.0</ele><time>2026-04-11T09:38:34Z</time></trkpt><trkpt lat="45.69568901483444" lon="9.918954187757835"><ele>323.0</ele><time>2026-04-11T09:38:35Z</time></trkpt><trkpt lat="45.69561213736013" lon="9.919034341373592"><ele>324.0</ele><time>2026-04-11T09:38:36Z</time></trkpt><trkpt lat="45.69553621822682" lon="9.919119883135094"><ele>325.0</ele><time>2026-04-11T09:38:37Z</time></trkpt><trkpt lat="45.695459666334195" lon="9.919209743074784"><ele>323.6</ele><time>2026-04-11T09:38:38Z</time></trkpt><trkpt lat="45.69538002536362" lon="9.919295431227471"><ele>322.2</ele><time>2026-04-11T09:38:39Z</time></trkpt><trkpt lat="45.695303577276256" lon="9.919388830929446"><ele>320.8</ele><time>2026-04-11T09:38:40Z</time></trkpt><trkpt lat="45.69523185988011" lon="9.919481540204863"><ele>319.4</ele><time>2026-04-11T09:38:41Z</time></trkpt><trkpt lat="45.69516469090807" lon="9.919579050196527"><ele>318.0</ele><time>2026-04-11T09:38:42Z</time></trkpt><trkpt lat="45.69510047294259" lon="9.91967654038336"><ele>318.0</ele><time>2026-04-11T09:38:43Z</time></trkpt><trkpt lat="45.69504533609817" lon="9.919780162852177"><ele>318.0</ele><time>2026-04-11T09:38:44Z</time></trkpt><trkpt lat="45.69499549370727" lon="9.919888336558136"><ele>318.0</ele><time>2026-04-11T09:38:45Z</time></trkpt><trkpt lat="45.69494724972781" lon="9.919996083521143"><ele>318.0</ele><time>2026-04-11T09:38:46Z</time></trkpt><trkpt lat="45.69489871109394" lon="9.920104217889689"><ele>318.0</ele><time>2026-04-11T09:38:47Z</time></trkpt><trkpt lat="45.69485291825345" lon="9.920204491511145"><ele>318.0</ele><time>2026-04-11T09:38:48Z</time></trkpt><trkpt lat="45.69481676217736" lon="9.920289810376095"><ele>317.0</ele><time>2026-04-11T09:38:49Z</time></trkpt><trkpt lat="45.694749869958216" lon="9.920400997059247"><ele>316.0</ele><time>2026-04-11T09:38:51Z</time></trkpt><trkpt lat="45.69470297687011" lon="9.920475330009477"><ele>315.0</ele><time>2026-04-11T09:38:53Z</time></trkpt><trkpt lat="45.69473932221089" lon="9.920643242573396"><ele>314.0</ele><time>2026-04-11T09:38:55Z</time></trkpt><trkpt lat="45.694793580997356" lon="9.92071019974599"><ele>313.0</ele><time>2026-04-11T09:38:56Z</time></trkpt><trkpt lat="45.69486510674534" lon="9.920876552268732"><ele>311.16666666666663</ele><time>2026-04-11T09:38:58Z</time></trkpt><trkpt lat="45.694914254110735" lon="9.920955238576205"><ele>309.3333333333333</ele><time>2026-04-11T09:38:59Z</time></trkpt><trkpt lat="45.69496024916121" lon="9.921038842699675"><ele>307.5</ele><time>2026-04-11T09:39:00Z</time></trkpt><trkpt lat="45.69500680046808" lon="9.921124237112918"><ele>305.6666666666667</ele><time>2026-04-11T09:39:01Z</time></trkpt><trkpt lat="45.69505495439874" lon="9.921209862083174"><ele>303.83333333333337</ele><time>2026-04-11T09:39:02Z</time></trkpt><trkpt lat="45.695101959377475" lon="9.921299981157393"><ele>302.0</ele><time>2026-04-11T09:39:03Z</time></trkpt><trkpt lat="45.69515092400207" lon="9.921387031356112"><ele>302.0</ele><time>2026-04-11T09:39:04Z</time></trkpt><trkpt lat="45.69519816184094" lon="9.921481872508563"><ele>302.0</ele><time>2026-04-11T09:39:05Z</time></trkpt><trkpt lat="45.69523156499861" lon="9.921588621019843"><ele>302.0</ele><time>2026-04-11T09:39:06Z</time></trkpt><trkpt lat="45.69526081276434" lon="9.921701531401837"><ele>302.0</ele><time>2026-04-11T09:39:07Z</time></trkpt><trkpt lat="45.6952897049155" lon="9.921812318259299"><ele>302.0</ele><time>2026-04-11T09:39:08Z</time></trkpt><trkpt lat="45.69531955409312" lon="9.92192715977415"><ele>302.0</ele><time>2026-04-11T09:39:09Z</time></trkpt><trkpt lat="45.69534332833408" lon="9.922044608751643"><ele>303.6666666666667</ele><time>2026-04-11T09:39:10Z</time></trkpt><trkpt lat="45.695369261494456" lon="9.922160292233585"><ele>305.33333333333337</ele><time>2026-04-11T09:39:11Z</time></trkpt><trkpt lat="45.69539184213287" lon="9.922280080567456"><ele>307.0</ele><time>2026-04-11T09:39:12Z</time></trkpt><trkpt lat="45.6954151531071" lon="9.92241062372202"><ele>308.6666666666667</ele><time>2026-04-11T09:39:13Z</time></trkpt><trkpt lat="45.695446108685836" lon="9.922538386535203"><ele>310.3333333333333</ele><time>2026-04-11T09:39:14Z</time></trkpt><trkpt lat="45.69545817153028" lon="9.922639017797751"><ele>312.0</ele><time>2026-04-11T09:39:15Z</time></trkpt><trkpt lat="45.69540980353888" lon="9.92278064307185"><ele>312.6666666666667</ele><time>2026-04-11T09:39:17Z</time></trkpt><trkpt lat="45.69534554572184" lon="9.922810583220146"><ele>313.3333333333333</ele><time>2026-04-11T09:39:18Z</time></trkpt><trkpt lat="45.69524718619933" lon="9.922795052666777"><ele>314.0</ele><time>2026-04-11T09:39:19Z</time></trkpt><trkpt lat="45.6951832992803" lon="9.922793412079232"><ele>314.66666666666663</ele><time>2026-04-11T09:39:20Z</time></trkpt><trkpt lat="45.695118959603505" lon="9.922782887579231"><ele>315.3333333333333</ele><time>2026-04-11T09:39:21Z</time></trkpt><trkpt lat="45.694996073441146" lon="9.922771038021233"><ele>316.0</ele><time>2026-04-11T09:39:23Z</time></trkpt><trkpt lat="45.6948882728054" lon="9.922779453032948"><ele>316.0</ele><time>2026-04-11T09:39:25Z</time></trkpt><trkpt lat="45.694801193978606" lon="9.922785766469671"><ele>316.0</ele><time>2026-04-11T09:39:27Z</time></trkpt><trkpt lat="45.69468825183051" lon="9.922809603994292"><ele>316.0</ele><time>2026-04-11T09:39:29Z</time></trkpt><trkpt lat="45.694572906010876" lon="9.922841897082334"><ele>316.0</ele><time>2026-04-11T09:39:31Z</time></trkpt><trkpt lat="45.69446036684418" lon="9.922802862054764"><ele>316.0</ele><time>2026-04-11T09:39:33Z</time></trkpt><trkpt lat="45.694364250530704" lon="9.922743892462229"><ele>314.2</ele><time>2026-04-11T09:39:35Z</time></trkpt><trkpt lat="45.69426008078498" lon="9.922671008806395"><ele>312.40000000000003</ele><time>2026-04-11T09:39:37Z</time></trkpt><trkpt lat="45.69414632660297" lon="9.922584993181697"><ele>310.6</ele><time>2026-04-11T09:39:39Z</time></trkpt><trkpt lat="45.69408950519861" lon="9.922538828881015"><ele>308.8</ele><time>2026-04-11T09:39:40Z</time></trkpt><trkpt lat="45.69396300818879" lon="9.922493960627845"><ele>307.0</ele><time>2026-04-11T09:39:42Z</time></trkpt><trkpt lat="45.69390125989757" lon="9.922514715666203"><ele>306.99999999999994</ele><time>2026-04-11T09:39:43Z</time></trkpt><trkpt lat="45.693848718266175" lon="9.922579348635285"><ele>307.0</ele><time>2026-04-11T09:39:44Z</time></trkpt><trkpt lat="45.69381611202046" lon="9.922665349169593"><ele>307.0</ele><time>2026-04-11T09:39:45Z</time></trkpt><trkpt lat="45.69380119687721" lon="9.922760540940407"><ele>307.0</ele><time>2026-04-11T09:39:46Z</time></trkpt><trkpt lat="45.693777597738716" lon="9.922848131603685"><ele>307.0</ele><time>2026-04-11T09:39:47Z</time></trkpt><trkpt lat="45.69374784785568" lon="9.922944530871678"><ele>306.99999999999994</ele><time>2026-04-11T09:39:48Z</time></trkpt><trkpt lat="45.6937171381485" lon="9.923027018790433"><ele>307.0</ele><time>2026-04-11T09:39:49Z</time></trkpt><trkpt lat="45.69364178901715" lon="9.923135483029666"><ele>305.6</ele><time>2026-04-11T09:39:51Z</time></trkpt><trkpt lat="45.69352276861499" lon="9.923156393861868"><ele>304.2</ele><time>2026-04-11T09:39:53Z</time></trkpt><trkpt lat="45.6934572975868" lon="9.923183432427708"><ele>302.8</ele><time>2026-04-11T09:39:54Z</time></trkpt><trkpt lat="45.69340334586537" lon="9.923244095777305"><ele>301.4</ele><time>2026-04-11T09:39:55Z</time></trkpt><trkpt lat="45.693332438153256" lon="9.923376397455561"><ele>300.0</ele><time>2026-04-11T09:39:57Z</time></trkpt><trkpt lat="45.69327881769813" lon="9.923517433030007"><ele>300.0</ele><time>2026-04-11T09:39:59Z</time></trkpt><trkpt lat="45.69323964847813" lon="9.923671167985987"><ele>300.0</ele><time>2026-04-11T09:40:01Z</time></trkpt><trkpt lat="45.693238066817386" lon="9.923844436653004"><ele>300.0</ele><time>2026-04-11T09:40:03Z</time></trkpt><trkpt lat="45.69326801231561" lon="9.924008677710106"><ele>300.0</ele><time>2026-04-11T09:40:05Z</time></trkpt><trkpt lat="45.693307986530776" lon="9.924081932658925"><ele>300.0</ele><time>2026-04-11T09:40:06Z</time></trkpt><trkpt lat="45.6933860445163" lon="9.924214283942598"><ele>299.6666666666667</ele><time>2026-04-11T09:40:08Z</time></trkpt><trkpt lat="45.69346864974622" lon="9.924342802129996"><ele>299.3333333333333</ele><time>2026-04-11T09:40:10Z</time></trkpt><trkpt lat="45.69351619494248" lon="9.924409585643835"><ele>299.0</ele><time>2026-04-11T09:40:11Z</time></trkpt><trkpt lat="45.693559040223064" lon="9.924476767137389"><ele>298.66666666666663</ele><time>2026-04-11T09:40:12Z</time></trkpt><trkpt lat="45.69360594957729" lon="9.92454437196528"><ele>298.3333333333333</ele><time>2026-04-11T09:40:13Z</time></trkpt><trkpt lat="45.693655338020555" lon="9.9246103500641"><ele>298.0</ele><time>2026-04-11T09:40:14Z</time></trkpt><trkpt lat="45.69370765302644" lon="9.924680025876484"><ele>298.57142857142856</ele><time>2026-04-11T09:40:15Z</time></trkpt><trkpt lat="45.69376667890351" lon="9.924743324695324"><ele>299.1428571428571</ele><time>2026-04-11T09:40:16Z</time></trkpt><trkpt lat="45.69383244266626" lon="9.924806866446332"><ele>299.7142857142857</ele><time>2026-04-11T09:40:17Z</time></trkpt><trkpt lat="45.69389190536904" lon="9.924863174196556"><ele>300.2857142857143</ele><time>2026-04-11T09:40:18Z</time></trkpt><trkpt lat="45.69395125491361" lon="9.924916068129185"><ele>300.8571428571429</ele><time>2026-04-11T09:40:19Z</time></trkpt><trkpt lat="45.69401049369678" lon="9.9249692667047"><ele>301.42857142857144</ele><time>2026-04-11T09:40:20Z</time></trkpt><trkpt lat="45.694070659451825" lon="9.925021996871717"><ele>302.0</ele><time>2026-04-11T09:40:21Z</time></trkpt><trkpt lat="45.694107524812" lon="9.9250960017607"><ele>302.5714285714286</ele><time>2026-04-11T09:40:22Z</time></trkpt><trkpt lat="45.69411175679962" lon="9.925189641043216"><ele>303.14285714285717</ele><time>2026-04-11T09:40:23Z</time></trkpt><trkpt lat="45.69408536111287" lon="9.925273389899987"><ele>303.7142857142857</ele><time>2026-04-11T09:40:24Z</time></trkpt><trkpt lat="45.6940350381579" lon="9.925328439425556"><ele>304.28571428571433</ele><time>2026-04-11T09:40:25Z</time></trkpt><trkpt lat="45.69397365214158" lon="9.925354198579269"><ele>304.8571428571429</ele><time>2026-04-11T09:40:26Z</time></trkpt><trkpt lat="45.69391022978965" lon="9.92536785342774"><ele>305.42857142857144</ele><time>2026-04-11T09:40:27Z</time></trkpt><trkpt lat="45.693800925661414" lon="9.925403164001992"><ele>306.0</ele><time>2026-04-11T09:40:29Z</time></trkpt><trkpt lat="45.69369444017735" lon="9.92545125417453"><ele>306.0</ele><time>2026-04-11T09:40:31Z</time></trkpt><trkpt lat="45.69361904240323" lon="9.925568513626663"><ele>306.0</ele><time>2026-04-11T09:40:33Z</time></trkpt><trkpt lat="45.69358464507711" lon="9.925723720221857"><ele>306.0</ele><time>2026-04-11T09:40:35Z</time></trkpt><trkpt lat="45.693568684696615" lon="9.925889057603795"><ele>306.0</ele><time>2026-04-11T09:40:37Z</time></trkpt><trkpt lat="45.69353612662232" lon="9.926039737085397"><ele>306.6</ele><time>2026-04-11T09:40:39Z</time></trkpt><trkpt lat="45.693523200940405" lon="9.926195401522916"><ele>307.20000000000005</ele><time>2026-04-11T09:40:41Z</time></trkpt><trkpt lat="45.69351015975289" lon="9.92634305308284"><ele>307.79999999999995</ele><time>2026-04-11T09:40:43Z</time></trkpt><trkpt lat="45.69349664869836" lon="9.926486259022484"><ele>308.4</ele><time>2026-04-11T09:40:45Z</time></trkpt><trkpt lat="45.69348667238255" lon="9.92662397327956"><ele>309.0</ele><time>2026-04-11T09:40:47Z</time></trkpt><trkpt lat="45.69347789633227" lon="9.926758137632062"><ele>309.8</ele><time>2026-04-11T09:40:49Z</time></trkpt><trkpt lat="45.69346832203338" lon="9.92686999928337"><ele>310.59999999999997</ele><time>2026-04-11T09:40:51Z</time></trkpt><trkpt lat="45.69349056447046" lon="9.927011784330737"><ele>311.4</ele><time>2026-04-11T09:40:53Z</time></trkpt><trkpt lat="45.693531563781" lon="9.927134228001096"><ele>312.2</ele><time>2026-04-11T09:40:55Z</time></trkpt><trkpt lat="45.69359762704382" lon="9.92724407172866"><ele>313.0</ele><time>2026-04-11T09:40:57Z</time></trkpt><trkpt lat="45.693662061432015" lon="9.927349867706164"><ele>316.2</ele><time>2026-04-11T09:40:59Z</time></trkpt><trkpt lat="45.693728391070216" lon="9.927471171897158"><ele>319.4</ele><time>2026-04-11T09:41:01Z</time></trkpt><trkpt lat="45.69379413615195" lon="9.927595627766728"><ele>322.59999999999997</ele><time>2026-04-11T09:41:03Z</time></trkpt><trkpt lat="45.69384139895603" lon="9.927738344571262"><ele>325.8</ele><time>2026-04-11T09:41:05Z</time></trkpt><trkpt lat="45.69387191179562" lon="9.9278841808292"><ele>329.0</ele><time>2026-04-11T09:41:07Z</time></trkpt><trkpt lat="45.693909982703765" lon="9.928036270612056"><ele>329.0</ele><time>2026-04-11T09:41:09Z</time></trkpt><trkpt lat="45.69393568859108" lon="9.928180427523817"><ele>329.0</ele><time>2026-04-11T09:41:11Z</time></trkpt><trkpt lat="45.6939479243691" lon="9.928322975932923"><ele>329.0</ele><time>2026-04-11T09:41:13Z</time></trkpt><trkpt lat="45.69394571057689" lon="9.928413267994124"><ele>329.0</ele><time>2026-04-11T09:41:14Z</time></trkpt><trkpt lat="45.69393395777398" lon="9.92855520821447"><ele>329.0</ele><time>2026-04-11T09:41:16Z</time></trkpt><trkpt lat="45.693912795498015" lon="9.928686805826667"><ele>330.0</ele><time>2026-04-11T09:41:18Z</time></trkpt><trkpt lat="45.69390045396561" lon="9.928798953115159"><ele>331.0</ele><time>2026-04-11T09:41:20Z</time></trkpt><trkpt lat="45.69391418855812" lon="9.92891608364501"><ele>332.0</ele><time>2026-04-11T09:41:22Z</time></trkpt><trkpt lat="45.693961638510444" lon="9.929000888608925"><ele>333.0</ele><time>2026-04-11T09:41:24Z</time></trkpt><trkpt lat="45.69402896943313" lon="9.929032774425789"><ele>334.0</ele><time>2026-04-11T09:41:26Z</time></trkpt><trkpt lat="45.69409664594939" lon="9.929000033347464"><ele>335.0</ele><time>2026-04-11T09:41:28Z</time></trkpt><trkpt lat="45.69415457051738" lon="9.92894614446897"><ele>334.99999999999994</ele><time>2026-04-11T09:41:30Z</time></trkpt><trkpt lat="45.69420381724055" lon="9.928863479027127"><ele>335.0</ele><time>2026-04-11T09:41:32Z</time></trkpt><trkpt lat="45.694248460585676" lon="9.92877480287856"><ele>335.0</ele><time>2026-04-11T09:41:34Z</time></trkpt><trkpt lat="45.69428623318003" lon="9.92869740562821"><ele>335.0</ele><time>2026-04-11T09:41:36Z</time></trkpt><trkpt lat="45.69432450172642" lon="9.928613056063387"><ele>335.0</ele><time>2026-04-11T09:41:38Z</time></trkpt><trkpt lat="45.69435614599248" lon="9.92853296943028"><ele>334.99999999999994</ele><time>2026-04-11T09:41:40Z</time></trkpt><trkpt lat="45.694394945753466" lon="9.928456161190391"><ele>335.0</ele><time>2026-04-11T09:41:42Z</time></trkpt><trkpt lat="45.6944365829259" lon="9.928387661861361"><ele>337.57142857142856</ele><time>2026-04-11T09:41:44Z</time></trkpt><trkpt lat="45.69449601062161" lon="9.928285368908432"><ele>340.1428571428571</ele><time>2026-04-11T09:41:47Z</time></trkpt><trkpt lat="45.69453158951034" lon="9.928207636148006"><ele>342.71428571428567</ele><time>2026-04-11T09:41:49Z</time></trkpt><trkpt lat="45.694601095597456" lon="9.92822291080672"><ele>345.2857142857143</ele><time>2026-04-11T09:41:51Z</time></trkpt><trkpt lat="45.69462463040066" lon="9.928326765128682"><ele>347.8571428571429</ele><time>2026-04-11T09:41:53Z</time></trkpt><trkpt lat="45.69459910096351" lon="9.928420866588652"><ele>350.4285714285714</ele><time>2026-04-11T09:41:55Z</time></trkpt><trkpt lat="45.69458657750296" lon="9.928525824305517"><ele>353.0</ele><time>2026-04-11T09:41:57Z</time></trkpt><trkpt lat="45.694570373141346" lon="9.928635589894252"><ele>355.1666666666667</ele><time>2026-04-11T09:41:59Z</time></trkpt><trkpt lat="45.69456979798444" lon="9.928731824130605"><ele>357.33333333333337</ele><time>2026-04-11T09:42:01Z</time></trkpt><trkpt lat="45.694558128779455" lon="9.928830161929385"><ele>359.5</ele><time>2026-04-11T09:42:03Z</time></trkpt><trkpt lat="45.694546052516756" lon="9.92894178728339"><ele>361.6666666666667</ele><time>2026-04-11T09:42:05Z</time></trkpt><trkpt lat="45.694528389039974" lon="9.929052840802482"><ele>363.8333333333333</ele><time>2026-04-11T09:42:07Z</time></trkpt><trkpt lat="45.694519436032984" lon="9.929161031703012"><ele>366.0</ele><time>2026-04-11T09:42:09Z</time></trkpt><trkpt lat="45.69453554406462" lon="9.9292724622964"><ele>366.3333333333333</ele><time>2026-04-11T09:42:11Z</time></trkpt><trkpt lat="45.69457099853338" lon="9.929383993810166"><ele>366.6666666666667</ele><time>2026-04-11T09:42:13Z</time></trkpt><trkpt lat="45.69461065285792" lon="9.929491520548167"><ele>367.0</ele><time>2026-04-11T09:42:15Z</time></trkpt><trkpt lat="45.694646622699366" lon="9.929590636470397"><ele>367.33333333333337</ele><time>2026-04-11T09:42:17Z</time></trkpt><trkpt lat="45.69468111365784" lon="9.92968465120753"><ele>367.6666666666667</ele><time>2026-04-11T09:42:19Z</time></trkpt><trkpt lat="45.69471684613387" lon="9.929773152014524"><ele>368.0</ele><time>2026-04-11T09:42:21Z</time></trkpt><trkpt lat="45.69475909720289" lon="9.92985271498295"><ele>368.0</ele><time>2026-04-11T09:42:23Z</time></trkpt><trkpt lat="45.69479602600521" lon="9.929954417235692"><ele>368.0</ele><time>2026-04-11T09:42:25Z</time></trkpt><trkpt lat="45.69481993115168" lon="9.930041500738527"><ele>368.0</ele><time>2026-04-11T09:42:27Z</time></trkpt><trkpt lat="45.69486551181337" lon="9.930131759661696"><ele>368.0</ele><time>2026-04-11T09:42:29Z</time></trkpt><trkpt lat="45.694903678464286" lon="9.930225459707737"><ele>368.0</ele><time>2026-04-11T09:42:31Z</time></trkpt><trkpt lat="45.69494585172503" lon="9.930313099867034"><ele>368.0</ele><time>2026-04-11T09:42:33Z</time></trkpt><trkpt lat="45.6949834573284" lon="9.930397135918954"><ele>368.0</ele><time>2026-04-11T09:42:35Z</time></trkpt><trkpt lat="45.69501639611063" lon="9.93048161144446"><ele>369.0</ele><time>2026-04-11T09:42:37Z</time></trkpt><trkpt lat="45.69501276481036" lon="9.930583895906373"><ele>370.0</ele><time>2026-04-11T09:42:39Z</time></trkpt><trkpt lat="45.69492496081976" lon="9.930630694435235"><ele>371.0</ele><time>2026-04-11T09:42:42Z</time></trkpt><trkpt lat="45.6948531176551" lon="9.930622296783897"><ele>372.0</ele><time>2026-04-11T09:42:44Z</time></trkpt><trkpt lat="45.69478438860195" lon="9.930611900953547"><ele>373.0</ele><time>2026-04-11T09:42:46Z</time></trkpt><trkpt lat="45.69471292966544" lon="9.930594006209388"><ele>374.0</ele><time>2026-04-11T09:42:48Z</time></trkpt><trkpt lat="45.69464271876805" lon="9.930608184898611"><ele>374.0</ele><time>2026-04-11T09:42:50Z</time></trkpt><trkpt lat="45.69457466857187" lon="9.930653044088471"><ele>374.0</ele><time>2026-04-11T09:42:52Z</time></trkpt><trkpt lat="45.69452257010875" lon="9.930720506880501"><ele>374.0</ele><time>2026-04-11T09:42:54Z</time></trkpt><trkpt lat="45.69447744679663" lon="9.930806982756339"><ele>374.0</ele><time>2026-04-11T09:42:56Z</time></trkpt><trkpt lat="45.694447973341724" lon="9.930904819228822"><ele>374.0</ele><time>2026-04-11T09:42:58Z</time></trkpt><trkpt lat="45.69441263959971" lon="9.930985594589945"><ele>374.0</ele><time>2026-04-11T09:43:00Z</time></trkpt><trkpt lat="45.69436901857924" lon="9.931068510835846"><ele>374.0</ele><time>2026-04-11T09:43:02Z</time></trkpt><trkpt lat="45.69432250699688" lon="9.931145443828395"><ele>375.1428571428571</ele><time>2026-04-11T09:43:04Z</time></trkpt><trkpt lat="45.69426858271697" lon="9.93120946659351"><ele>376.28571428571433</ele><time>2026-04-11T09:43:06Z</time></trkpt><trkpt lat="45.694208501071955" lon="9.931266832834378"><ele>377.42857142857144</ele><time>2026-04-11T09:43:08Z</time></trkpt><trkpt lat="45.69415717783034" lon="9.931320454596843"><ele>378.57142857142856</ele><time>2026-04-11T09:43:10Z</time></trkpt><trkpt lat="45.69410106128444" lon="9.931396001917555"><ele>379.71428571428567</ele><time>2026-04-11T09:43:12Z</time></trkpt><trkpt lat="45.69404785574288" lon="9.931457625252795"><ele>380.8571428571429</ele><time>2026-04-11T09:43:14Z</time></trkpt><trkpt lat="45.69398910486056" lon="9.931519763814032"><ele>382.0</ele><time>2026-04-11T09:43:16Z</time></trkpt><trkpt lat="45.69392705860628" lon="9.931571251557648"><ele>382.0</ele><time>2026-04-11T09:43:18Z</time></trkpt><trkpt lat="45.69386835102763" lon="9.931636488027165"><ele>382.0</ele><time>2026-04-11T09:43:20Z</time></trkpt><trkpt lat="45.6937947298493" lon="9.931727843435489"><ele>382.0</ele><time>2026-04-11T09:43:23Z</time></trkpt><trkpt lat="45.69376302915668" lon="9.931811711187162"><ele>382.0</ele><time>2026-04-11T09:43:25Z</time></trkpt><trkpt lat="45.693749244726725" lon="9.93191045918954"><ele>382.0</ele><time>2026-04-11T09:43:27Z</time></trkpt><trkpt lat="45.69377943113412" lon="9.932002684678565"><ele>382.0</ele><time>2026-04-11T09:43:29Z</time></trkpt><trkpt lat="45.693820731476166" lon="9.932096732455282"><ele>382.5</ele><time>2026-04-11T09:43:31Z</time></trkpt><trkpt lat="45.69387722805604" lon="9.93217305569595"><ele>383.0</ele><time>2026-04-11T09:43:33Z</time></trkpt><trkpt lat="45.6939222201114" lon="9.932260311917414"><ele>383.5</ele><time>2026-04-11T09:43:35Z</time></trkpt><trkpt lat="45.69397642360346" lon="9.932333887588463"><ele>384.0</ele><time>2026-04-11T09:43:37Z</time></trkpt><trkpt lat="45.69402996000887" lon="9.932405742205747"><ele>384.50000000000006</ele><time>2026-04-11T09:43:39Z</time></trkpt><trkpt lat="45.69409259006827" lon="9.932470949587817"><ele>385.0</ele><time>2026-04-11T09:43:41Z</time></trkpt><trkpt lat="45.69417387879245" lon="9.932474745285178"><ele>385.00000000000006</ele><time>2026-04-11T09:43:44Z</time></trkpt><trkpt lat="45.694180246694316" lon="9.932353756721012"><ele>385.0</ele><time>2026-04-11T09:43:46Z</time></trkpt><trkpt lat="45.694127408485336" lon="9.932247946737718"><ele>385.0</ele><time>2026-04-11T09:43:48Z</time></trkpt><trkpt lat="45.69408519844501" lon="9.932142515864038"><ele>385.0</ele><time>2026-04-11T09:43:50Z</time></trkpt><trkpt lat="45.69407071732931" lon="9.93204548814987"><ele>385.00000000000006</ele><time>2026-04-11T09:43:52Z</time></trkpt><trkpt lat="45.69409145203428" lon="9.931937433889146"><ele>385.0</ele><time>2026-04-11T09:43:54Z</time></trkpt><trkpt lat="45.6941509931608" lon="9.931858110766623"><ele>385.00000000000006</ele><time>2026-04-11T09:43:56Z</time></trkpt><trkpt lat="45.694228732949156" lon="9.931867809003618"><ele>385.0</ele><time>2026-04-11T09:43:58Z</time></trkpt><trkpt lat="45.6942406222028" lon="9.931976853622245"><ele>385.0</ele><time>2026-04-11T09:44:00Z</time></trkpt><trkpt lat="45.694251019060324" lon="9.932078941841283"><ele>385.0</ele><time>2026-04-11T09:44:02Z</time></trkpt><trkpt lat="45.69426625120583" lon="9.932187092631123"><ele>385.00000000000006</ele><time>2026-04-11T09:44:04Z</time></trkpt><trkpt lat="45.69428390747215" lon="9.932292910426906"><ele>385.0</ele><time>2026-04-11T09:44:06Z</time></trkpt><trkpt lat="45.69432201132092" lon="9.932397235370107"><ele>385.00000000000006</ele><time>2026-04-11T09:44:08Z</time></trkpt><trkpt lat="45.694372743991536" lon="9.932482467197598"><ele>385.0</ele><time>2026-04-11T09:44:10Z</time></trkpt><trkpt lat="45.694427539271295" lon="9.932563534412578"><ele>385.0</ele><time>2026-04-11T09:44:12Z</time></trkpt><trkpt lat="45.694474399471424" lon="9.932640794662666"><ele>385.0</ele><time>2026-04-11T09:44:14Z</time></trkpt><trkpt lat="45.69454063486501" lon="9.932708441529796"><ele>385.00000000000006</ele><time>2026-04-11T09:44:16Z</time></trkpt><trkpt lat="45.69458520621947" lon="9.932781818595181"><ele>385.0</ele><time>2026-04-11T09:44:18Z</time></trkpt><trkpt lat="45.69463002182553" lon="9.932863571084656"><ele>389.42857142857144</ele><time>2026-04-11T09:44:20Z</time></trkpt><trkpt lat="45.69467670127298" lon="9.932938447887512"><ele>393.8571428571429</ele><time>2026-04-11T09:44:22Z</time></trkpt><trkpt lat="45.694705987227984" lon="9.933032675985812"><ele>398.2857142857143</ele><time>2026-04-11T09:44:24Z</time></trkpt><trkpt lat="45.694734105383034" lon="9.933130082061352"><ele>402.7142857142857</ele><time>2026-04-11T09:44:26Z</time></trkpt><trkpt lat="45.69476515827774" lon="9.933214491923566"><ele>407.14285714285717</ele><time>2026-04-11T09:44:28Z</time></trkpt><trkpt lat="45.69478743629044" lon="9.933299168202378"><ele>411.57142857142856</ele><time>2026-04-11T09:44:30Z</time></trkpt><trkpt lat="45.69481781370374" lon="9.933425522176202"><ele>416.0</ele><time>2026-04-11T09:44:33Z</time></trkpt><trkpt lat="45.69484182842728" lon="9.933510370651158"><ele>415.99999999999994</ele><time>2026-04-11T09:44:35Z</time></trkpt><trkpt lat="45.69487738066926" lon="9.933625960398315"><ele>416.0</ele><time>2026-04-11T09:44:38Z</time></trkpt><trkpt lat="45.69491228468281" lon="9.933747242244111"><ele>416.0</ele><time>2026-04-11T09:44:41Z</time></trkpt><trkpt lat="45.69494814432724" lon="9.933866167157827"><ele>416.0</ele><time>2026-04-11T09:44:44Z</time></trkpt><trkpt lat="45.6949862673822" lon="9.933974870568722"><ele>415.99999999999994</ele><time>2026-04-11T09:44:47Z</time></trkpt><trkpt lat="45.69502889990361" lon="9.934090567879089"><ele>416.0</ele><time>2026-04-11T09:44:50Z</time></trkpt><trkpt lat="45.69507046074478" lon="9.934196157062209"><ele>415.3333333333333</ele><time>2026-04-11T09:44:53Z</time></trkpt><trkpt lat="45.69511380818382" lon="9.934314010364824"><ele>414.66666666666663</ele><time>2026-04-11T09:44:56Z</time></trkpt><trkpt lat="45.69516144816812" lon="9.934412003550188"><ele>414.0</ele><time>2026-04-11T09:44:59Z</time></trkpt><trkpt lat="45.695214685767276" lon="9.93450499722928"><ele>413.33333333333337</ele><time>2026-04-11T09:45:02Z</time></trkpt><trkpt lat="45.69526583269517" lon="9.9345590413379"><ele>412.6666666666667</ele><time>2026-04-11T09:45:04Z</time></trkpt><trkpt lat="45.69533019388174" lon="9.934639759043453"><ele>412.0</ele><time>2026-04-11T09:45:07Z</time></trkpt><trkpt lat="45.69537408314582" lon="9.934752353080599"><ele>418.2857142857142</ele><time>2026-04-11T09:45:10Z</time></trkpt><trkpt lat="45.69539888537436" lon="9.934885732352912"><ele>424.57142857142856</ele><time>2026-04-11T09:45:13Z</time></trkpt><trkpt lat="45.69540522944696" lon="9.934978417020703"><ele>430.85714285714283</ele><time>2026-04-11T09:45:15Z</time></trkpt><trkpt lat="45.69543322486511" lon="9.935062790180654"><ele>437.1428571428571</ele><time>2026-04-11T09:45:17Z</time></trkpt><trkpt lat="45.69545894351722" lon="9.935151408664982"><ele>443.4285714285714</ele><time>2026-04-11T09:45:19Z</time></trkpt><trkpt lat="45.695480282634186" lon="9.93524105347738"><ele>449.71428571428567</ele><time>2026-04-11T09:45:21Z</time></trkpt><trkpt lat="45.69549882636152" lon="9.935339513961228"><ele>456.0</ele><time>2026-04-11T09:45:23Z</time></trkpt><trkpt lat="45.69550985958573" lon="9.93543269843286"><ele>456.0</ele><time>2026-04-11T09:45:25Z</time></trkpt><trkpt lat="45.69549853245387" lon="9.935559315057203"><ele>456.0</ele><time>2026-04-11T09:45:28Z</time></trkpt><trkpt lat="45.695448354290164" lon="9.935670061554072"><ele>456.0</ele><time>2026-04-11T09:45:31Z</time></trkpt><trkpt lat="45.69538830768584" lon="9.935763421706906"><ele>456.0</ele><time>2026-04-11T09:45:34Z</time></trkpt><trkpt lat="45.695334216007296" lon="9.93586088553646"><ele>456.0</ele><time>2026-04-11T09:45:37Z</time></trkpt><trkpt lat="45.695293249577055" lon="9.935940397691049"><ele>456.0</ele><time>2026-04-11T09:45:39Z</time></trkpt><trkpt lat="45.69524634858092" lon="9.936019540603535"><ele>453.1666666666667</ele><time>2026-04-11T09:45:41Z</time></trkpt><trkpt lat="45.695201861943325" lon="9.936134643319928"><ele>450.33333333333337</ele><time>2026-04-11T09:45:44Z</time></trkpt><trkpt lat="45.695168021380695" lon="9.936224344813594"><ele>447.5</ele><time>2026-04-11T09:45:46Z</time></trkpt><trkpt lat="45.69514324604873" lon="9.93633506872916"><ele>444.6666666666667</ele><time>2026-04-11T09:45:48Z</time></trkpt><trkpt lat="45.69511789402181" lon="9.936456416691806"><ele>441.83333333333337</ele><time>2026-04-11T09:45:50Z</time></trkpt><trkpt lat="45.69508616157079" lon="9.93656233949961"><ele>439.0</ele><time>2026-04-11T09:45:52Z</time></trkpt><trkpt lat="45.69505534547805" lon="9.936661607435243"><ele>441.1428571428571</ele><time>2026-04-11T09:45:54Z</time></trkpt><trkpt lat="45.69502288395364" lon="9.93675863027051"><ele>443.2857142857143</ele><time>2026-04-11T09:45:56Z</time></trkpt><trkpt lat="45.694990208325905" lon="9.936847104198408"><ele>445.42857142857144</ele><time>2026-04-11T09:45:58Z</time></trkpt><trkpt lat="45.69496407025162" lon="9.936935401350214"><ele>447.57142857142856</ele><time>2026-04-11T09:46:00Z</time></trkpt><trkpt lat="45.694944257143" lon="9.937037787862801"><ele>449.7142857142858</ele><time>2026-04-11T09:46:02Z</time></trkpt><trkpt lat="45.69493381391026" lon="9.937132410990227"><ele>451.8571428571429</ele><time>2026-04-11T09:46:04Z</time></trkpt><trkpt lat="45.69490922572807" lon="9.937223996752602"><ele>454.0</ele><time>2026-04-11T09:46:06Z</time></trkpt><trkpt lat="45.694875718735986" lon="9.937310611054096"><ele>454.0</ele><time>2026-04-11T09:46:08Z</time></trkpt><trkpt lat="45.69484000979704" lon="9.93738774375117"><ele>454.00000000000006</ele><time>2026-04-11T09:46:10Z</time></trkpt><trkpt lat="45.69480830615191" lon="9.937482113338943"><ele>454.0</ele><time>2026-04-11T09:46:12Z</time></trkpt><trkpt lat="45.69478059055339" lon="9.937563993631148"><ele>454.0</ele><time>2026-04-11T09:46:14Z</time></trkpt><trkpt lat="45.69474920253898" lon="9.93764370600361"><ele>454.00000000000006</ele><time>2026-04-11T09:46:16Z</time></trkpt><trkpt lat="45.694727271957774" lon="9.937729352439304"><ele>454.0</ele><time>2026-04-11T09:46:18Z</time></trkpt><trkpt lat="45.694715042817705" lon="9.93782981915373"><ele>454.0</ele><time>2026-04-11T09:46:20Z</time></trkpt><trkpt lat="45.69469346131446" lon="9.937922373251693"><ele>456.14285714285717</ele><time>2026-04-11T09:46:22Z</time></trkpt><trkpt lat="45.694676952755856" lon="9.938019193068799"><ele>458.28571428571433</ele><time>2026-04-11T09:46:24Z</time></trkpt><trkpt lat="45.69465962343973" lon="9.93811238608664"><ele>460.42857142857144</ele><time>2026-04-11T09:46:26Z</time></trkpt><trkpt lat="45.69464520260505" lon="9.938203394413053"><ele>462.57142857142856</ele><time>2026-04-11T09:46:28Z</time></trkpt><trkpt lat="45.694634087242385" lon="9.93829490344554"><ele>464.7142857142857</ele><time>2026-04-11T09:46:30Z</time></trkpt><trkpt lat="45.69461756784813" lon="9.93838875198163"><ele>466.8571428571429</ele><time>2026-04-11T09:46:32Z</time></trkpt><trkpt lat="45.6945949535142" lon="9.938486340060061"><ele>469.0</ele><time>2026-04-11T09:46:34Z</time></trkpt><trkpt lat="45.694583216934305" lon="9.938594228565101"><ele>471.2</ele><time>2026-04-11T09:46:36Z</time></trkpt><trkpt lat="45.694569143886994" lon="9.938710201169965"><ele>473.4</ele><time>2026-04-11T09:46:38Z</time></trkpt><trkpt lat="45.69455013076603" lon="9.93883638422836"><ele>475.6</ele><time>2026-04-11T09:46:40Z</time></trkpt><trkpt lat="45.69451662544053" lon="9.938972718452387"><ele>477.8</ele><time>2026-04-11T09:46:42Z</time></trkpt><trkpt lat="45.694474475023796" lon="9.939106679953527"><ele>480.0</ele><time>2026-04-11T09:46:44Z</time></trkpt><trkpt lat="45.694429690975" lon="9.939238500435629"><ele>476.0</ele><time>2026-04-11T09:46:46Z</time></trkpt><trkpt lat="45.69438581419211" lon="9.939356651522841"><ele>472.0</ele><time>2026-04-11T09:46:48Z</time></trkpt><trkpt lat="45.694346620750444" lon="9.93946186302927"><ele>468.0</ele><time>2026-04-11T09:46:50Z</time></trkpt><trkpt lat="45.69429813260194" lon="9.93956954780171"><ele>464.0</ele><time>2026-04-11T09:46:52Z</time></trkpt><trkpt lat="45.694218460548875" lon="9.939669720202389"><ele>460.0</ele><time>2026-04-11T09:46:54Z</time></trkpt><trkpt lat="45.69412639765504" lon="9.939761377071124"><ele>460.0</ele><time>2026-04-11T09:46:56Z</time></trkpt><trkpt lat="45.694029439836946" lon="9.939858958478611"><ele>460.0</ele><time>2026-04-11T09:46:58Z</time></trkpt><trkpt lat="45.693954947512154" lon="9.939978157569001"><ele>460.0</ele><time>2026-04-11T09:47:00Z</time></trkpt><trkpt lat="45.69392201939921" lon="9.940134334048466"><ele>460.0</ele><time>2026-04-11T09:47:02Z</time></trkpt><trkpt lat="45.69393233607039" lon="9.940321048185217"><ele>460.42857142857133</ele><time>2026-04-11T09:47:04Z</time></trkpt><trkpt lat="45.69393643450385" lon="9.940413169440083"><ele>460.85714285714283</ele><time>2026-04-11T09:47:05Z</time></trkpt><trkpt lat="45.693943017452106" lon="9.940518210716116"><ele>461.2857142857142</ele><time>2026-04-11T09:47:06Z</time></trkpt><trkpt lat="45.69396298876888" lon="9.940613631462472"><ele>461.71428571428567</ele><time>2026-04-11T09:47:07Z</time></trkpt><trkpt lat="45.69397165574967" lon="9.94071950976433"><ele>462.1428571428571</ele><time>2026-04-11T09:47:08Z</time></trkpt><trkpt lat="45.693982226958866" lon="9.940816861612872"><ele>462.57142857142856</ele><time>2026-04-11T09:47:09Z</time></trkpt><trkpt lat="45.69397377618965" lon="9.940920251426649"><ele>463.0</ele><time>2026-04-11T09:47:10Z</time></trkpt><trkpt lat="45.69396528041862" lon="9.941017861350524"><ele>463.0</ele><time>2026-04-11T09:47:11Z</time></trkpt><trkpt lat="45.693949130180336" lon="9.941111803584615"><ele>462.99999999999994</ele><time>2026-04-11T09:47:12Z</time></trkpt><trkpt lat="45.69392889987809" lon="9.941278087730621"><ele>462.99999999999994</ele><time>2026-04-11T09:47:14Z</time></trkpt><trkpt lat="45.69390118553762" lon="9.941433567606031"><ele>463.0</ele><time>2026-04-11T09:47:16Z</time></trkpt><trkpt lat="45.69388023645876" lon="9.941519747191178"><ele>463.0</ele><time>2026-04-11T09:47:17Z</time></trkpt><trkpt lat="45.693858209602595" lon="9.941653502075537"><ele>461.2</ele><time>2026-04-11T09:47:19Z</time></trkpt><trkpt lat="45.693830562840304" lon="9.94180571713162"><ele>459.4</ele><time>2026-04-11T09:47:21Z</time></trkpt><trkpt lat="45.693844577553314" lon="9.941960331443399"><ele>457.59999999999997</ele><time>2026-04-11T09:47:23Z</time></trkpt><trkpt lat="45.6938527620068" lon="9.94212042754067"><ele>455.79999999999995</ele><time>2026-04-11T09:47:25Z</time></trkpt><trkpt lat="45.693873719297066" lon="9.942269425244072"><ele>454.0</ele><time>2026-04-11T09:47:27Z</time></trkpt><trkpt lat="45.693900860893216" lon="9.942406132572504"><ele>454.00000000000006</ele><time>2026-04-11T09:47:29Z</time></trkpt><trkpt lat="45.693912876572966" lon="9.942505175822243"><ele>454.0</ele><time>2026-04-11T09:47:32Z</time></trkpt><trkpt lat="45.693977587357374" lon="9.94255941017609"><ele>454.0</ele><time>2026-04-11T09:47:50Z</time></trkpt><trkpt lat="45.69405700404136" lon="9.94249882412256"><ele>454.0</ele><time>2026-04-11T09:47:52Z</time></trkpt><trkpt lat="45.694103588147776" lon="9.942432858820517"><ele>454.00000000000006</ele><time>2026-04-11T09:47:54Z</time></trkpt><trkpt lat="45.69416642644094" lon="9.942335549462324"><ele>454.0</ele><time>2026-04-11T09:47:57Z</time></trkpt><trkpt lat="45.69421907985667" lon="9.942281525611712"><ele>454.0</ele><time>2026-04-11T09:47:59Z</time></trkpt><trkpt lat="45.69427129659897" lon="9.942220179856662"><ele>454.00000000000006</ele><time>2026-04-11T09:48:01Z</time></trkpt><trkpt lat="45.694322574541275" lon="9.942162971584832"><ele>454.0</ele><time>2026-04-11T09:48:03Z</time></trkpt><trkpt lat="45.694371272452656" lon="9.942105296575853"><ele>454.0</ele><time>2026-04-11T09:48:05Z</time></trkpt><trkpt lat="45.694447785891576" lon="9.94203923416153"><ele>454.00000000000006</ele><time>2026-04-11T09:48:08Z</time></trkpt><trkpt lat="45.694509453961984" lon="9.941977583571383"><ele>454.0</ele><time>2026-04-11T09:48:11Z</time></trkpt><trkpt lat="45.69444309386598" lon="9.941962697601568"><ele>454.0</ele><time>2026-04-11T09:48:16Z</time></trkpt><trkpt lat="45.694398329757334" lon="9.942062323413577"><ele>454.00000000000006</ele><time>2026-04-11T09:48:19Z</time></trkpt><trkpt lat="45.69433374129051" lon="9.942112698512474"><ele>454.0</ele><time>2026-04-11T09:48:21Z</time></trkpt><trkpt lat="45.694250767931784" lon="9.942203692657047"><ele>454.0</ele><time>2026-04-11T09:48:23Z</time></trkpt><trkpt lat="45.694202429755585" lon="9.94228593251264"><ele>454.0</ele><time>2026-04-11T09:48:25Z</time></trkpt><trkpt lat="45.694125674962" lon="9.942363958188231"><ele>454.00000000000006</ele><time>2026-04-11T09:48:26Z</time></trkpt><trkpt lat="45.69407226329536" lon="9.94242340032166"><ele>454.0</ele><time>2026-04-11T09:48:27Z</time></trkpt><trkpt lat="45.69402625480495" lon="9.94248520991111"><ele>452.6666666666667</ele><time>2026-04-11T09:48:28Z</time></trkpt><trkpt lat="45.693944112857295" lon="9.942558192307258"><ele>451.33333333333337</ele><time>2026-04-11T09:48:30Z</time></trkpt><trkpt lat="45.69388713673765" lon="9.942638055584066"><ele>450.0</ele><time>2026-04-11T09:48:32Z</time></trkpt><trkpt lat="45.6938920088301" lon="9.942737193166328"><ele>448.66666666666663</ele><time>2026-04-11T09:48:34Z</time></trkpt><trkpt lat="45.69397701003972" lon="9.94273229945583"><ele>447.3333333333333</ele><time>2026-04-11T09:48:37Z</time></trkpt><trkpt lat="45.694050737539165" lon="9.942685333250271"><ele>446.0</ele><time>2026-04-11T09:48:39Z</time></trkpt><trkpt lat="45.69416710773006" lon="9.942614001249398"><ele>445.99999999999994</ele><time>2026-04-11T09:48:41Z</time></trkpt><trkpt lat="45.694242087261166" lon="9.942573688738186"><ele>446.0</ele><time>2026-04-11T09:48:42Z</time></trkpt><trkpt lat="45.69432581330956" lon="9.9425336678289"><ele>446.0</ele><time>2026-04-11T09:48:43Z</time></trkpt><trkpt lat="45.69441853209131" lon="9.942496109893511"><ele>446.0</ele><time>2026-04-11T09:48:44Z</time></trkpt><trkpt lat="45.694507771357806" lon="9.94246301380847"><ele>445.99999999999994</ele><time>2026-04-11T09:48:45Z</time></trkpt><trkpt lat="45.69459373687825" lon="9.942453340216662"><ele>446.0</ele><time>2026-04-11T09:48:46Z</time></trkpt><trkpt lat="45.69466432237701" lon="9.94243346994194"><ele>444.8333333333333</ele><time>2026-04-11T09:48:47Z</time></trkpt><trkpt lat="45.694743963200224" lon="9.942421857256898"><ele>443.66666666666663</ele><time>2026-04-11T09:48:48Z</time></trkpt><trkpt lat="45.694811595759994" lon="9.942385409682032"><ele>442.5</ele><time>2026-04-11T09:48:49Z</time></trkpt><trkpt lat="45.6948970320831" lon="9.942338242524697"><ele>441.33333333333337</ele><time>2026-04-11T09:48:50Z</time></trkpt><trkpt lat="45.69496032762986" lon="9.942258100853346"><ele>440.1666666666667</ele><time>2026-04-11T09:48:51Z</time></trkpt><trkpt lat="45.69504052099244" lon="9.942185949788268"><ele>439.0</ele><time>2026-04-11T09:48:52Z</time></trkpt><trkpt lat="45.69511919672982" lon="9.942091262425542"><ele>439.0</ele><time>2026-04-11T09:48:53Z</time></trkpt><trkpt lat="45.695180177664014" lon="9.941985375507615"><ele>439.0</ele><time>2026-04-11T09:48:54Z</time></trkpt><trkpt lat="45.69524001282621" lon="9.941872061361925"><ele>439.0</ele><time>2026-04-11T09:48:55Z</time></trkpt><trkpt lat="45.695368911147895" lon="9.941825318981767"><ele>439.0</ele><time>2026-04-11T09:48:56Z</time></trkpt><trkpt lat="45.6954605825635" lon="9.941749845821107"><ele>439.0</ele><time>2026-04-11T09:48:57Z</time></trkpt><trkpt lat="45.69554568130584" lon="9.941669112305988"><ele>435.6666666666667</ele><time>2026-04-11T09:48:58Z</time></trkpt><trkpt lat="45.69560853979179" lon="9.941594855474097"><ele>432.33333333333337</ele><time>2026-04-11T09:48:59Z</time></trkpt><trkpt lat="45.695662485439655" lon="9.941512091676605"><ele>429.0</ele><time>2026-04-11T09:49:00Z</time></trkpt><trkpt lat="45.69575517448024" lon="9.941447554299257"><ele>425.66666666666663</ele><time>2026-04-11T09:49:01Z</time></trkpt><trkpt lat="45.69579768857878" lon="9.941355441313423"><ele>422.3333333333333</ele><time>2026-04-11T09:49:02Z</time></trkpt><trkpt lat="45.695838118983524" lon="9.941268340057496"><ele>419.0</ele><time>2026-04-11T09:49:03Z</time></trkpt><trkpt lat="45.695898330250465" lon="9.941151900987196"><ele>418.99999999999994</ele><time>2026-04-11T09:49:05Z</time></trkpt><trkpt lat="45.69594083331775" lon="9.94122231298268"><ele>419.0</ele><time>2026-04-11T09:49:07Z</time></trkpt><trkpt lat="45.69591690667946" lon="9.941311154466854"><ele>419.0</ele><time>2026-04-11T09:49:08Z</time></trkpt><trkpt lat="45.69587823453672" lon="9.941387085215654"><ele>419.0</ele><time>2026-04-11T09:49:09Z</time></trkpt><trkpt lat="45.69584821411447" lon="9.94147792084804"><ele>419.0</ele><time>2026-04-11T09:49:10Z</time></trkpt><trkpt lat="45.69582245744393" lon="9.941575109576156"><ele>418.99999999999994</ele><time>2026-04-11T09:49:11Z</time></trkpt><trkpt lat="45.695791792113965" lon="9.941678113542048"><ele>419.0</ele><time>2026-04-11T09:49:12Z</time></trkpt><trkpt lat="45.69574799987837" lon="9.941788985547598"><ele>415.2</ele><time>2026-04-11T09:49:13Z</time></trkpt><trkpt lat="45.69569568461988" lon="9.941907574899028"><ele>411.4</ele><time>2026-04-11T09:49:14Z</time></trkpt><trkpt lat="45.695636968284354" lon="9.942034961091725"><ele>407.6</ele><time>2026-04-11T09:49:15Z</time></trkpt><trkpt lat="45.69558223115154" lon="9.942153076827621"><ele>403.8</ele><time>2026-04-11T09:49:16Z</time></trkpt><trkpt lat="45.69553238699328" lon="9.942265509395837"><ele>400.0</ele><time>2026-04-11T09:49:17Z</time></trkpt><trkpt lat="45.69549060735575" lon="9.942381572053833"><ele>400.00000000000006</ele><time>2026-04-11T09:49:18Z</time></trkpt><trkpt lat="45.69546403436695" lon="9.942505111851933"><ele>400.0</ele><time>2026-04-11T09:49:19Z</time></trkpt><trkpt lat="45.69544423210697" lon="9.942642244565608"><ele>400.0</ele><time>2026-04-11T09:49:20Z</time></trkpt><trkpt lat="45.6954446812858" lon="9.942772930236789"><ele>400.0</ele><time>2026-04-11T09:49:21Z</time></trkpt><trkpt lat="45.695449893454665" lon="9.942893168978149"><ele>400.00000000000006</ele><time>2026-04-11T09:49:22Z</time></trkpt><trkpt lat="45.6954602070292" lon="9.942989044589117"><ele>400.0</ele><time>2026-04-11T09:49:23Z</time></trkpt><trkpt lat="45.6953967462104" lon="9.943140087739305"><ele>397.83333333333337</ele><time>2026-04-11T09:49:25Z</time></trkpt><trkpt lat="45.6953138933038" lon="9.94316962064647"><ele>395.6666666666667</ele><time>2026-04-11T09:49:26Z</time></trkpt><trkpt lat="45.69523890780115" lon="9.943174214562717"><ele>393.5</ele><time>2026-04-11T09:49:27Z</time></trkpt><trkpt lat="45.69514865821017" lon="9.94320171045485"><ele>391.33333333333337</ele><time>2026-04-11T09:49:28Z</time></trkpt><trkpt lat="45.69506861666678" lon="9.94325670578934"><ele>389.1666666666667</ele><time>2026-04-11T09:49:29Z</time></trkpt><trkpt lat="45.69498960039784" lon="9.943302723265333"><ele>387.0</ele><time>2026-04-11T09:49:30Z</time></trkpt><trkpt lat="45.694906290827326" lon="9.943355009267288"><ele>387.8571428571429</ele><time>2026-04-11T09:49:31Z</time></trkpt><trkpt lat="45.69484441684343" lon="9.943421467049983"><ele>388.7142857142857</ele><time>2026-04-11T09:49:32Z</time></trkpt><trkpt lat="45.69479447448211" lon="9.943481177093696"><ele>389.57142857142856</ele><time>2026-04-11T09:49:33Z</time></trkpt><trkpt lat="45.694775342666674" lon="9.94357024287486"><ele>390.42857142857144</ele><time>2026-04-11T09:49:34Z</time></trkpt><trkpt lat="45.69477314449723" lon="9.943683166715033"><ele>391.2857142857143</ele><time>2026-04-11T09:49:35Z</time></trkpt><trkpt lat="45.69479374049288" lon="9.94379908376926"><ele>392.14285714285717</ele><time>2026-04-11T09:49:36Z</time></trkpt><trkpt lat="45.6948285083816" lon="9.943900336151701"><ele>393.0</ele><time>2026-04-11T09:49:37Z</time></trkpt><trkpt lat="45.694850318318394" lon="9.944006676838931"><ele>393.00000000000006</ele><time>2026-04-11T09:49:38Z</time></trkpt><trkpt lat="45.69485998390613" lon="9.944113509084808"><ele>393.0</ele><time>2026-04-11T09:49:39Z</time></trkpt><trkpt lat="45.69486571487205" lon="9.944214463781625"><ele>393.0</ele><time>2026-04-11T09:49:40Z</time></trkpt><trkpt lat="45.694868423048845" lon="9.944311545495632"><ele>393.0</ele><time>2026-04-11T09:49:41Z</time></trkpt><trkpt lat="45.694863382900856" lon="9.944411871911663"><ele>393.0</ele><time>2026-04-11T09:49:42Z</time></trkpt><trkpt lat="45.69483786908643" lon="9.944495159242898"><ele>393.00000000000006</ele><time>2026-04-11T09:49:43Z</time></trkpt><trkpt lat="45.6947791049595" lon="9.944553552262304"><ele>393.0</ele><time>2026-04-11T09:49:44Z</time></trkpt><trkpt lat="45.69471688839666" lon="9.944607594188387"><ele>394.1666666666667</ele><time>2026-04-11T09:49:45Z</time></trkpt><trkpt lat="45.69464687438746" lon="9.944650733615639"><ele>395.33333333333337</ele><time>2026-04-11T09:49:46Z</time></trkpt><trkpt lat="45.69457506443798" lon="9.944691569094331"><ele>396.5</ele><time>2026-04-11T09:49:47Z</time></trkpt><trkpt lat="45.69449556365982" lon="9.94473647082192"><ele>397.6666666666667</ele><time>2026-04-11T09:49:48Z</time></trkpt><trkpt lat="45.6944109260339" lon="9.944773297741294"><ele>398.83333333333337</ele><time>2026-04-11T09:49:49Z</time></trkpt><trkpt lat="45.69432559969934" lon="9.944810643904"><ele>400.0</ele><time>2026-04-11T09:49:50Z</time></trkpt><trkpt lat="45.69424958205802" lon="9.944842634561331"><ele>400.00000000000006</ele><time>2026-04-11T09:49:51Z</time></trkpt><trkpt lat="45.694167769238184" lon="9.944940577431868"><ele>400.0</ele><time>2026-04-11T09:49:53Z</time></trkpt><trkpt lat="45.69420728578988" lon="9.94506077204413"><ele>400.0</ele><time>2026-04-11T09:49:55Z</time></trkpt><trkpt lat="45.694293960965936" lon="9.94503611973491"><ele>400.0</ele><time>2026-04-11T09:49:57Z</time></trkpt><trkpt lat="45.694361030237516" lon="9.944988561249389"><ele>400.00000000000006</ele><time>2026-04-11T09:49:59Z</time></trkpt><trkpt lat="45.69444353363302" lon="9.944976017814216"><ele>400.0</ele><time>2026-04-11T09:50:03Z</time></trkpt><trkpt lat="45.694528917435385" lon="9.94496094298366"><ele>395.33333333333337</ele><time>2026-04-11T09:50:06Z</time></trkpt><trkpt lat="45.694611193499775" lon="9.944953814458707"><ele>390.6666666666667</ele><time>2026-04-11T09:50:08Z</time></trkpt><trkpt lat="45.69472267844654" lon="9.944957740252265"><ele>386.0</ele><time>2026-04-11T09:50:10Z</time></trkpt><trkpt lat="45.69478543229908" lon="9.94494798608784"><ele>381.33333333333337</ele><time>2026-04-11T09:50:11Z</time></trkpt><trkpt lat="45.694852071155736" lon="9.944922547466641"><ele>376.6666666666667</ele><time>2026-04-11T09:50:12Z</time></trkpt><trkpt lat="45.694925299961156" lon="9.944893859651893"><ele>372.0</ele><time>2026-04-11T09:50:13Z</time></trkpt><trkpt lat="45.694979095156846" lon="9.944837543568896"><ele>372.0</ele><time>2026-04-11T09:50:14Z</time></trkpt><trkpt lat="45.69503507491463" lon="9.944764831844735"><ele>372.0</ele><time>2026-04-11T09:50:15Z</time></trkpt><trkpt lat="45.69507324334226" lon="9.944660360325418"><ele>372.0</ele><time>2026-04-11T09:50:16Z</time></trkpt><trkpt lat="45.695101341598914" lon="9.944550853706017"><ele>372.0</ele><time>2026-04-11T09:50:17Z</time></trkpt><trkpt lat="45.695109379860334" lon="9.944438457486898"><ele>372.0</ele><time>2026-04-11T09:50:18Z</time></trkpt><trkpt lat="45.69512777494971" lon="9.944318282117178"><ele>372.0</ele><time>2026-04-11T09:50:19Z</time></trkpt><trkpt lat="45.695140966279844" lon="9.944190678718682"><ele>369.8</ele><time>2026-04-11T09:50:20Z</time></trkpt><trkpt lat="45.695145731351396" lon="9.944087559332184"><ele>367.6</ele><time>2026-04-11T09:50:21Z</time></trkpt><trkpt lat="45.69519244171497" lon="9.943958384330363"><ele>365.40000000000003</ele><time>2026-04-11T09:50:23Z</time></trkpt><trkpt lat="45.69526062523363" lon="9.94394038063227"><ele>363.20000000000005</ele><time>2026-04-11T09:50:24Z</time></trkpt><trkpt lat="45.695400789302084" lon="9.943970938286267"><ele>361.0</ele><time>2026-04-11T09:50:26Z</time></trkpt><trkpt lat="45.695483115515366" lon="9.943973990223727"><ele>361.0</ele><time>2026-04-11T09:50:27Z</time></trkpt><trkpt lat="45.695574822361024" lon="9.943979183888441"><ele>361.0</ele><time>2026-04-11T09:50:28Z</time></trkpt><trkpt lat="45.69566072041911" lon="9.943990415912673"><ele>361.0</ele><time>2026-04-11T09:50:29Z</time></trkpt><trkpt lat="45.695740205703814" lon="9.944006567188863"><ele>361.0</ele><time>2026-04-11T09:50:30Z</time></trkpt><trkpt lat="45.69581898764881" lon="9.944045600047064"><ele>361.0</ele><time>2026-04-11T09:50:31Z</time></trkpt><trkpt lat="45.69591271832292" lon="9.944033212554222"><ele>361.0</ele><time>2026-04-11T09:50:32Z</time></trkpt><trkpt lat="45.69599458137521" lon="9.94403572809765"><ele>361.0</ele><time>2026-04-11T09:50:33Z</time></trkpt><trkpt lat="45.69607282572231" lon="9.944023348917131"><ele>361.0</ele><time>2026-04-11T09:50:34Z</time></trkpt><trkpt lat="45.69615345870333" lon="9.943974454024248"><ele>361.0</ele><time>2026-04-11T09:50:35Z</time></trkpt><trkpt lat="45.69623087607271" lon="9.943906607567179"><ele>361.0</ele><time>2026-04-11T09:50:36Z</time></trkpt><trkpt lat="45.69630766017151" lon="9.943816700589316"><ele>361.0</ele><time>2026-04-11T09:50:37Z</time></trkpt><trkpt lat="45.696376401727626" lon="9.943719812326334"><ele>360.20000000000005</ele><time>2026-04-11T09:50:38Z</time></trkpt><trkpt lat="45.69644425916801" lon="9.943612210845474"><ele>359.40000000000003</ele><time>2026-04-11T09:50:39Z</time></trkpt><trkpt lat="45.69649862378164" lon="9.94347371532232"><ele>358.6</ele><time>2026-04-11T09:50:40Z</time></trkpt><trkpt lat="45.6965447399031" lon="9.943343516559818"><ele>357.8</ele><time>2026-04-11T09:50:41Z</time></trkpt><trkpt lat="45.69658896085104" lon="9.943233541306114"><ele>357.0</ele><time>2026-04-11T09:50:42Z</time></trkpt><trkpt lat="45.696645680083684" lon="9.943161178804306"><ele>357.0</ele><time>2026-04-11T09:50:43Z</time></trkpt><trkpt lat="45.69670927379729" lon="9.943090441960903"><ele>357.0</ele><time>2026-04-11T09:50:44Z</time></trkpt><trkpt lat="45.69678899546969" lon="9.943030524546087"><ele>357.0</ele><time>2026-04-11T09:50:45Z</time></trkpt><trkpt lat="45.69687210721378" lon="9.942974155611617"><ele>357.0</ele><time>2026-04-11T09:50:46Z</time></trkpt><trkpt lat="45.69696619939421" lon="9.942913422642182"><ele>357.0</ele><time>2026-04-11T09:50:47Z</time></trkpt><trkpt lat="45.697046839257276" lon="9.942857426757778"><ele>354.40000000000003</ele><time>2026-04-11T09:50:48Z</time></trkpt><trkpt lat="45.69713118589055" lon="9.942817814420021"><ele>351.8</ele><time>2026-04-11T09:50:49Z</time></trkpt><trkpt lat="45.697209866468235" lon="9.942798819498675"><ele>349.2</ele><time>2026-04-11T09:50:50Z</time></trkpt><trkpt lat="45.69728601265726" lon="9.942728277364173"><ele>346.6</ele><time>2026-04-11T09:50:51Z</time></trkpt><trkpt lat="45.69735272490516" lon="9.942635832648909"><ele>344.0</ele><time>2026-04-11T09:50:52Z</time></trkpt><trkpt lat="45.69742958841834" lon="9.942546321471923"><ele>344.0</ele><time>2026-04-11T09:50:53Z</time></trkpt><trkpt lat="45.69748781147084" lon="9.942460078742897"><ele>344.0</ele><time>2026-04-11T09:50:54Z</time></trkpt><trkpt lat="45.6975578201171" lon="9.942403685105809"><ele>344.0</ele><time>2026-04-11T09:50:55Z</time></trkpt><trkpt lat="45.69762725572853" lon="9.942371102517201"><ele>344.0</ele><time>2026-04-11T09:50:56Z</time></trkpt><trkpt lat="45.69769589690734" lon="9.942341059473575"><ele>344.0</ele><time>2026-04-11T09:50:57Z</time></trkpt><trkpt lat="45.697804233818005" lon="9.942363800012147"><ele>344.0</ele><time>2026-04-11T09:50:59Z</time></trkpt><trkpt lat="45.697860792465946" lon="9.94250996807038"><ele>341.83333333333337</ele><time>2026-04-11T09:51:01Z</time></trkpt><trkpt lat="45.697865446558914" lon="9.942647996692665"><ele>339.6666666666667</ele><time>2026-04-11T09:51:02Z</time></trkpt><trkpt lat="45.697845938351584" lon="9.942776694064714"><ele>337.5</ele><time>2026-04-11T09:51:03Z</time></trkpt><trkpt lat="45.69782140174586" lon="9.942883558827253"><ele>335.3333333333333</ele><time>2026-04-11T09:51:04Z</time></trkpt><trkpt lat="45.69777553247394" lon="9.942975390033254"><ele>333.16666666666663</ele><time>2026-04-11T09:51:05Z</time></trkpt><trkpt lat="45.697727143050905" lon="9.943056675848206"><ele>331.0</ele><time>2026-04-11T09:51:06Z</time></trkpt><trkpt lat="45.69767222924409" lon="9.94318121658646"><ele>330.66666666666663</ele><time>2026-04-11T09:51:08Z</time></trkpt><trkpt lat="45.69777618357182" lon="9.943284574390548"><ele>330.3333333333333</ele><time>2026-04-11T09:51:10Z</time></trkpt><trkpt lat="45.69786174972394" lon="9.943283387086753"><ele>330.0</ele><time>2026-04-11T09:51:11Z</time></trkpt><trkpt lat="45.69794005491367" lon="9.943304522679496"><ele>329.6666666666667</ele><time>2026-04-11T09:51:12Z</time></trkpt><trkpt lat="45.69801076510468" lon="9.9433238326902"><ele>329.33333333333337</ele><time>2026-04-11T09:51:13Z</time></trkpt><trkpt lat="45.698082074534085" lon="9.943363183767765"><ele>329.0</ele><time>2026-04-11T09:51:14Z</time></trkpt><trkpt lat="45.6981434487568" lon="9.943398888027847"><ele>330.4</ele><time>2026-04-11T09:51:15Z</time></trkpt><trkpt lat="45.698203996054886" lon="9.943431311636632"><ele>331.79999999999995</ele><time>2026-04-11T09:51:16Z</time></trkpt><trkpt lat="45.698311061832854" lon="9.943499209561526"><ele>333.20000000000005</ele><time>2026-04-11T09:51:18Z</time></trkpt><trkpt lat="45.69841516628668" lon="9.943549005697399"><ele>334.6</ele><time>2026-04-11T09:51:20Z</time></trkpt><trkpt lat="45.698522242377116" lon="9.943568932444181"><ele>336.0</ele><time>2026-04-11T09:51:22Z</time></trkpt><trkpt lat="45.698630372709964" lon="9.943597715002603"><ele>336.0</ele><time>2026-04-11T09:51:24Z</time></trkpt><trkpt lat="45.69871292924733" lon="9.94367280068868"><ele>336.0</ele><time>2026-04-11T09:51:26Z</time></trkpt><trkpt lat="45.69872944808197" lon="9.943801933011644"><ele>336.0</ele><time>2026-04-11T09:51:28Z</time></trkpt><trkpt lat="45.69866928713444" lon="9.943907398793296"><ele>336.0</ele><time>2026-04-11T09:51:30Z</time></trkpt><trkpt lat="45.69858491917199" lon="9.943958347478327"><ele>336.0</ele><time>2026-04-11T09:51:32Z</time></trkpt><trkpt lat="45.69851761630004" lon="9.9440347728017"><ele>336.0</ele><time>2026-04-11T09:51:34Z</time></trkpt><trkpt lat="45.69845866609168" lon="9.944118928467573"><ele>336.0</ele><time>2026-04-11T09:51:36Z</time></trkpt><trkpt lat="45.698445922708984" lon="9.944253802568092"><ele>336.0</ele><time>2026-04-11T09:51:38Z</time></trkpt><trkpt lat="45.698475275479204" lon="9.944380814850785"><ele>336.0</ele><time>2026-04-11T09:51:40Z</time></trkpt><trkpt lat="45.69849860095531" lon="9.94450219863633"><ele>336.0</ele><time>2026-04-11T09:51:42Z</time></trkpt><trkpt lat="45.69850344560546" lon="9.94461087775953"><ele>336.0</ele><time>2026-04-11T09:51:44Z</time></trkpt><trkpt lat="45.69850034779606" lon="9.944711836169901"><ele>337.14285714285717</ele><time>2026-04-11T09:51:46Z</time></trkpt><trkpt lat="45.69850145700254" lon="9.944814233894975"><ele>338.2857142857143</ele><time>2026-04-11T09:51:48Z</time></trkpt><trkpt lat="45.698493498506465" lon="9.944912986996549"><ele>339.42857142857144</ele><time>2026-04-11T09:51:50Z</time></trkpt><trkpt lat="45.69848880023101" lon="9.94500390636777"><ele>340.57142857142856</ele><time>2026-04-11T09:51:52Z</time></trkpt><trkpt lat="45.69850251258841" lon="9.945097914288352"><ele>341.7142857142857</ele><time>2026-04-11T09:51:54Z</time></trkpt><trkpt lat="45.69853672414596" lon="9.94518287062893"><ele>342.8571428571429</ele><time>2026-04-11T09:51:56Z</time></trkpt><trkpt lat="45.69857794968761" lon="9.945254248266362"><ele>344.0</ele><time>2026-04-11T09:51:58Z</time></trkpt><trkpt lat="45.698627713223665" lon="9.945348167096364"><ele>345.1666666666667</ele><time>2026-04-11T09:52:01Z</time></trkpt><trkpt lat="45.698683637314865" lon="9.945400302506052"><ele>346.33333333333337</ele><time>2026-04-11T09:52:06Z</time></trkpt><trkpt lat="45.69875537466744" lon="9.945340043151655"><ele>347.5</ele><time>2026-04-11T09:52:08Z</time></trkpt><trkpt lat="45.698818822165826" lon="9.945297678784852"><ele>348.6666666666667</ele><time>2026-04-11T09:52:10Z</time></trkpt><trkpt lat="45.69888114067485" lon="9.945269661848057"><ele>349.8333333333333</ele><time>2026-04-11T09:52:12Z</time></trkpt><trkpt lat="45.698968399320016" lon="9.94522290294422"><ele>351.0</ele><time>2026-04-11T09:52:15Z</time></trkpt><trkpt lat="45.69905538569135" lon="9.945175758713752"><ele>351.0</ele><time>2026-04-11T09:52:18Z</time></trkpt><trkpt lat="45.69912773748959" lon="9.945262565007505"><ele>351.0</ele><time>2026-04-11T09:52:21Z</time></trkpt><trkpt lat="45.69916052614322" lon="9.945365920242741"><ele>351.0</ele><time>2026-04-11T09:52:23Z</time></trkpt><trkpt lat="45.699202809932785" lon="9.945493696891308"><ele>351.0</ele><time>2026-04-11T09:52:25Z</time></trkpt><trkpt lat="45.6992395784365" lon="9.94561875779932"><ele>351.0</ele><time>2026-04-11T09:52:27Z</time></trkpt><trkpt lat="45.69927897949917" lon="9.945739301157252"><ele>349.6</ele><time>2026-04-11T09:52:29Z</time></trkpt><trkpt lat="45.69932886138192" lon="9.945886821233856"><ele>348.20000000000005</ele><time>2026-04-11T09:52:31Z</time></trkpt><trkpt lat="45.699360624169266" lon="9.946017434432008"><ele>346.79999999999995</ele><time>2026-04-11T09:52:33Z</time></trkpt><trkpt lat="45.69935412459333" lon="9.946131196779525"><ele>345.4</ele><time>2026-04-11T09:52:38Z</time></trkpt><trkpt lat="45.699265247658595" lon="9.946202874821212"><ele>344.0</ele><time>2026-04-11T09:52:40Z</time></trkpt><trkpt lat="45.69914911097166" lon="9.946259119217396"><ele>344.00000000000006</ele><time>2026-04-11T09:52:42Z</time></trkpt><trkpt lat="45.6990886910119" lon="9.946287531325483"><ele>344.0</ele><time>2026-04-11T09:52:43Z</time></trkpt><trkpt lat="45.6990217994994" lon="9.946308632057923"><ele>344.0</ele><time>2026-04-11T09:52:44Z</time></trkpt><trkpt lat="45.69895521874618" lon="9.9463238937874"><ele>344.0</ele><time>2026-04-11T09:52:45Z</time></trkpt><trkpt lat="45.69888425958794" lon="9.946345693220527"><ele>344.0</ele><time>2026-04-11T09:52:46Z</time></trkpt><trkpt lat="45.69881100105597" lon="9.946368411897867"><ele>344.00000000000006</ele><time>2026-04-11T09:52:47Z</time></trkpt><trkpt lat="45.69873145747045" lon="9.946384085309125"><ele>344.0</ele><time>2026-04-11T09:52:48Z</time></trkpt><trkpt lat="45.69864865737668" lon="9.946393805929484"><ele>342.6</ele><time>2026-04-11T09:52:49Z</time></trkpt><trkpt lat="45.69856676368738" lon="9.946398665992279"><ele>341.2</ele><time>2026-04-11T09:52:50Z</time></trkpt><trkpt lat="45.69848647255762" lon="9.946419683041231"><ele>339.8</ele><time>2026-04-11T09:52:51Z</time></trkpt><trkpt lat="45.69839246358513" lon="9.946431181529164"><ele>338.40000000000003</ele><time>2026-04-11T09:52:52Z</time></trkpt><trkpt lat="45.698298795766505" lon="9.946456978423754"><ele>337.0</ele><time>2026-04-11T09:52:53Z</time></trkpt><trkpt lat="45.698200953520136" lon="9.946473381128092"><ele>337.0</ele><time>2026-04-11T09:52:54Z</time></trkpt><trkpt lat="45.69810783225799" lon="9.946479426335532"><ele>337.0</ele><time>2026-04-11T09:52:55Z</time></trkpt><trkpt lat="45.69801421981095" lon="9.946493987553813"><ele>337.0</ele><time>2026-04-11T09:52:56Z</time></trkpt><trkpt lat="45.69792009731155" lon="9.946498300228077"><ele>337.0</ele><time>2026-04-11T09:52:57Z</time></trkpt><trkpt lat="45.69781975098843" lon="9.946510603730902"><ele>337.0</ele><time>2026-04-11T09:52:58Z</time></trkpt><trkpt lat="45.69771882690244" lon="9.946514799882433"><ele>336.40000000000003</ele><time>2026-04-11T09:52:59Z</time></trkpt><trkpt lat="45.697614311788335" lon="9.946519833806118"><ele>335.8</ele><time>2026-04-11T09:53:00Z</time></trkpt><trkpt lat="45.69750566353429" lon="9.946522392794787"><ele>335.2</ele><time>2026-04-11T09:53:01Z</time></trkpt><trkpt lat="45.697397612400266" lon="9.946522379929505"><ele>334.6</ele><time>2026-04-11T09:53:02Z</time></trkpt><trkpt lat="45.69728893353573" lon="9.946521145261297"><ele>334.0</ele><time>2026-04-11T09:53:03Z</time></trkpt><trkpt lat="45.697181843193746" lon="9.94652102128345"><ele>334.0</ele><time>2026-04-11T09:53:04Z</time></trkpt><trkpt lat="45.69707233914906" lon="9.946536866778468"><ele>334.0</ele><time>2026-04-11T09:53:05Z</time></trkpt><trkpt lat="45.69696530795157" lon="9.946584132089503"><ele>334.0</ele><time>2026-04-11T09:53:06Z</time></trkpt><trkpt lat="45.696863443582195" lon="9.94665119329144"><ele>334.0</ele><time>2026-04-11T09:53:07Z</time></trkpt><trkpt lat="45.696765619193656" lon="9.946740170535808"><ele>332.2</ele><time>2026-04-11T09:53:08Z</time></trkpt><trkpt lat="45.69668099730571" lon="9.946840791380232"><ele>330.4</ele><time>2026-04-11T09:53:09Z</time></trkpt><trkpt lat="45.69660021725995" lon="9.94695217560765"><ele>328.6</ele><time>2026-04-11T09:53:10Z</time></trkpt><trkpt lat="45.69653723415967" lon="9.947081674968487"><ele>326.8</ele><time>2026-04-11T09:53:11Z</time></trkpt><trkpt lat="45.69648397725314" lon="9.947221214744786"><ele>325.0</ele><time>2026-04-11T09:53:12Z</time></trkpt><trkpt lat="45.69642840049787" lon="9.947361710377463"><ele>325.0</ele><time>2026-04-11T09:53:13Z</time></trkpt><trkpt lat="45.69636332678482" lon="9.947498826132188"><ele>325.0</ele><time>2026-04-11T09:53:14Z</time></trkpt><trkpt lat="45.69628970618239" lon="9.947622374481094"><ele>325.0</ele><time>2026-04-11T09:53:15Z</time></trkpt><trkpt lat="45.69620578539724" lon="9.94773358301581"><ele>325.0</ele><time>2026-04-11T09:53:16Z</time></trkpt><trkpt lat="45.69612323513936" lon="9.947836779550922"><ele>322.5</ele><time>2026-04-11T09:53:17Z</time></trkpt><trkpt lat="45.69604087602588" lon="9.947944849481235"><ele>320.0</ele><time>2026-04-11T09:53:18Z</time></trkpt><trkpt lat="45.69595895652917" lon="9.948055518785935"><ele>317.5</ele><time>2026-04-11T09:53:19Z</time></trkpt><trkpt lat="45.695876915906695" lon="9.948165544483622"><ele>315.0</ele><time>2026-04-11T09:53:20Z</time></trkpt><trkpt lat="45.69579093069362" lon="9.948275721341199"><ele>314.4</ele><time>2026-04-11T09:53:21Z</time></trkpt><trkpt lat="45.6957089490416" lon="9.94838138773672"><ele>313.8</ele><time>2026-04-11T09:53:22Z</time></trkpt><trkpt lat="45.69563504229413" lon="9.948483638348637"><ele>313.2</ele><time>2026-04-11T09:53:23Z</time></trkpt><trkpt lat="45.695567564753155" lon="9.948588131349705"><ele>312.6</ele><time>2026-04-11T09:53:24Z</time></trkpt><trkpt lat="45.69550468204712" lon="9.948697804028189"><ele>312.0</ele><time>2026-04-11T09:53:25Z</time></trkpt><trkpt lat="45.69544891597286" lon="9.94881246921459"><ele>312.0</ele><time>2026-04-11T09:53:26Z</time></trkpt><trkpt lat="45.69540206259689" lon="9.948922549261676"><ele>312.0</ele><time>2026-04-11T09:53:27Z</time></trkpt><trkpt lat="45.695359827390284" lon="9.949034106631851"><ele>312.0</ele><time>2026-04-11T09:53:28Z</time></trkpt><trkpt lat="45.695337920058684" lon="9.949153756801111"><ele>312.0</ele><time>2026-04-11T09:53:29Z</time></trkpt><trkpt lat="45.69533547006447" lon="9.949280499120022"><ele>312.0</ele><time>2026-04-11T09:53:30Z</time></trkpt><trkpt lat="45.69535591222965" lon="9.94939456977393"><ele>312.0</ele><time>2026-04-11T09:53:31Z</time></trkpt><trkpt lat="45.695388055019755" lon="9.949493192236744"><ele>311.2857142857143</ele><time>2026-04-11T09:53:32Z</time></trkpt><trkpt lat="45.69542519973045" lon="9.949577955616416"><ele>310.57142857142856</ele><time>2026-04-11T09:53:33Z</time></trkpt><trkpt lat="45.69544500941176" lon="9.94967258613351"><ele>309.85714285714283</ele><time>2026-04-11T09:53:34Z</time></trkpt><trkpt lat="45.69543778304559" lon="9.949769367688036"><ele>309.1428571428571</ele><time>2026-04-11T09:53:35Z</time></trkpt><trkpt lat="45.69539949184094" lon="9.949858675633143"><ele>308.42857142857144</ele><time>2026-04-11T09:53:36Z</time></trkpt><trkpt lat="45.695345403151066" lon="9.949922279729416"><ele>307.71428571428567</ele><time>2026-04-11T09:53:37Z</time></trkpt><trkpt lat="45.695276151252486" lon="9.949959918962113"><ele>307.0</ele><time>2026-04-11T09:53:38Z</time></trkpt><trkpt lat="45.69520645169107" lon="9.949955991705078"><ele>304.8333333333333</ele><time>2026-04-11T09:53:39Z</time></trkpt><trkpt lat="45.69513969454782" lon="9.94991276288979"><ele>302.66666666666663</ele><time>2026-04-11T09:53:40Z</time></trkpt><trkpt lat="45.695080087011476" lon="9.949834637451481"><ele>300.5</ele><time>2026-04-11T09:53:41Z</time></trkpt><trkpt lat="45.695037224415685" lon="9.949736238797335"><ele>298.3333333333333</ele><time>2026-04-11T09:53:42Z</time></trkpt><trkpt lat="45.69498828138629" lon="9.949631511659163"><ele>296.1666666666667</ele><time>2026-04-11T09:53:43Z</time></trkpt><trkpt lat="45.69494111492297" lon="9.949527554346394"><ele>294.0</ele><time>2026-04-11T09:53:44Z</time></trkpt><trkpt lat="45.6948864021515" lon="9.949447836582399"><ele>294.0</ele><time>2026-04-11T09:53:45Z</time></trkpt><trkpt lat="45.694826043955246" lon="9.949398185402194"><ele>294.0</ele><time>2026-04-11T09:53:46Z</time></trkpt><trkpt lat="45.69475170083733" lon="9.949394192413513"><ele>294.0</ele><time>2026-04-11T09:53:47Z</time></trkpt><trkpt lat="45.69468515664914" lon="9.949460355189254"><ele>294.0</ele><time>2026-04-11T09:53:48Z</time></trkpt><trkpt lat="45.69463751682604" lon="9.94956543354981"><ele>294.0</ele><time>2026-04-11T09:53:49Z</time></trkpt><trkpt lat="45.69462839266758" lon="9.949696341134542"><ele>294.0</ele><time>2026-04-11T09:53:50Z</time></trkpt><trkpt lat="45.694623223374656" lon="9.949812561923258"><ele>294.0</ele><time>2026-04-11T09:53:51Z</time></trkpt><trkpt lat="45.69461903074723" lon="9.949931851367031"><ele>294.0</ele><time>2026-04-11T09:53:52Z</time></trkpt><trkpt lat="45.69460154576732" lon="9.950055651759785"><ele>294.0</ele><time>2026-04-11T09:53:53Z</time></trkpt><trkpt lat="45.69455795771357" lon="9.950189795219377"><ele>294.0</ele><time>2026-04-11T09:53:54Z</time></trkpt><trkpt lat="45.69450467291576" lon="9.950307651709744"><ele>294.0</ele><time>2026-04-11T09:53:55Z</time></trkpt><trkpt lat="45.69442172330278" lon="9.950410454468416"><ele>291.59999999999997</ele><time>2026-04-11T09:53:56Z</time></trkpt><trkpt lat="45.69434223618065" lon="9.950505286664692"><ele>289.2</ele><time>2026-04-11T09:53:57Z</time></trkpt><trkpt lat="45.69425711218856" lon="9.950616700002884"><ele>286.79999999999995</ele><time>2026-04-11T09:53:58Z</time></trkpt><trkpt lat="45.694176888787034" lon="9.950714323480474"><ele>284.4</ele><time>2026-04-11T09:53:59Z</time></trkpt><trkpt lat="45.69407888868886" lon="9.95079095488894"><ele>282.0</ele><time>2026-04-11T09:54:00Z</time></trkpt><trkpt lat="45.69397773026258" lon="9.950863601171017"><ele>281.6</ele><time>2026-04-11T09:54:01Z</time></trkpt><trkpt lat="45.6938698152942" lon="9.950916878881774"><ele>281.2</ele><time>2026-04-11T09:54:02Z</time></trkpt><trkpt lat="45.69376558136814" lon="9.95096575023289"><ele>280.8</ele><time>2026-04-11T09:54:03Z</time></trkpt><trkpt lat="45.6936656310214" lon="9.951015058210643"><ele>280.4</ele><time>2026-04-11T09:54:04Z</time></trkpt><trkpt lat="45.693574406084394" lon="9.951062512822977"><ele>280.0</ele><time>2026-04-11T09:54:05Z</time></trkpt><trkpt lat="45.69348855284976" lon="9.951105400891652"><ele>279.8333333333333</ele><time>2026-04-11T09:54:06Z</time></trkpt><trkpt lat="45.69340695108971" lon="9.95114086798161"><ele>279.66666666666663</ele><time>2026-04-11T09:54:07Z</time></trkpt><trkpt lat="45.69333233051124" lon="9.951170861351692"><ele>279.5</ele><time>2026-04-11T09:54:08Z</time></trkpt><trkpt lat="45.69325685546675" lon="9.951186150831065"><ele>279.3333333333333</ele><time>2026-04-11T09:54:09Z</time></trkpt><trkpt lat="45.6931863247969" lon="9.95118536719546"><ele>279.1666666666667</ele><time>2026-04-11T09:54:10Z</time></trkpt><trkpt lat="45.69311734213689" lon="9.951182984296077"><ele>279.0</ele><time>2026-04-11T09:54:11Z</time></trkpt><trkpt lat="45.69299575000538" lon="9.951166836793806"><ele>279.0</ele><time>2026-04-11T09:54:13Z</time></trkpt><trkpt lat="45.692874328653204" lon="9.951131352501152"><ele>279.0</ele><time>2026-04-11T09:54:15Z</time></trkpt><trkpt lat="45.692811111267105" lon="9.951112480750655"><ele>279.0</ele><time>2026-04-11T09:54:16Z</time></trkpt><trkpt lat="45.692748648013584" lon="9.951092918345546"><ele>279.0</ele><time>2026-04-11T09:54:17Z</time></trkpt><trkpt lat="45.692628102263036" lon="9.951052474914365"><ele>279.0</ele><time>2026-04-11T09:54:19Z</time></trkpt><trkpt lat="45.69256430381326" lon="9.951035052487958"><ele>279.0</ele><time>2026-04-11T09:54:20Z</time></trkpt><trkpt lat="45.69244566773893" lon="9.950986653394178"><ele>278.5</ele><time>2026-04-11T09:54:22Z</time></trkpt><trkpt lat="45.69232222214272" lon="9.950939981430933"><ele>278.0</ele><time>2026-04-11T09:54:24Z</time></trkpt><trkpt lat="45.6922585255264" lon="9.950921837341271"><ele>277.5</ele><time>2026-04-11T09:54:25Z</time></trkpt><trkpt lat="45.69219592986161" lon="9.95090013394909"><ele>277.0</ele><time>2026-04-11T09:54:26Z</time></trkpt><trkpt lat="45.69213244014234" lon="9.95087737627384"><ele>276.5</ele><time>2026-04-11T09:54:27Z</time></trkpt><trkpt lat="45.692069445227744" lon="9.950857467672652"><ele>276.0</ele><time>2026-04-11T09:54:28Z</time></trkpt><trkpt lat="45.69200782896585" lon="9.950834800932993"><ele>277.6666666666667</ele><time>2026-04-11T09:54:29Z</time></trkpt><trkpt lat="45.69194522609183" lon="9.950811823915002"><ele>279.3333333333333</ele><time>2026-04-11T09:54:30Z</time></trkpt><trkpt lat="45.691819904512386" lon="9.95077616713739"><ele>281.0</ele><time>2026-04-11T09:54:32Z</time></trkpt><trkpt lat="45.691694772346" lon="9.95075461669383"><ele>282.66666666666663</ele><time>2026-04-11T09:54:34Z</time></trkpt><trkpt lat="45.6916289560746" lon="9.950751291127721"><ele>284.3333333333333</ele><time>2026-04-11T09:54:35Z</time></trkpt><trkpt lat="45.691564631924585" lon="9.9507512989321"><ele>286.0</ele><time>2026-04-11T09:54:36Z</time></trkpt><trkpt lat="45.69149885831102" lon="9.950755393158785"><ele>286.0</ele><time>2026-04-11T09:54:37Z</time></trkpt><trkpt lat="45.69143358388532" lon="9.95076586601405"><ele>286.0</ele><time>2026-04-11T09:54:38Z</time></trkpt><trkpt lat="45.69136912330732" lon="9.950778317971867"><ele>286.0</ele><time>2026-04-11T09:54:39Z</time></trkpt><trkpt lat="45.69124239137671" lon="9.950811822852378"><ele>286.0</ele><time>2026-04-11T09:54:41Z</time></trkpt><trkpt lat="45.691179726437746" lon="9.950823008359597"><ele>286.0</ele><time>2026-04-11T09:54:42Z</time></trkpt><trkpt lat="45.691056140054755" lon="9.950845888767846"><ele>286.0</ele><time>2026-04-11T09:54:44Z</time></trkpt><trkpt lat="45.690934989054284" lon="9.950870030215722"><ele>284.5</ele><time>2026-04-11T09:54:46Z</time></trkpt><trkpt lat="45.69081347823891" lon="9.950885125622184"><ele>283.0</ele><time>2026-04-11T09:54:48Z</time></trkpt><trkpt lat="45.69069628377231" lon="9.950892593407257"><ele>281.5</ele><time>2026-04-11T09:54:50Z</time></trkpt><trkpt lat="45.690576933459376" lon="9.95090794170802"><ele>280.0</ele><time>2026-04-11T09:54:52Z</time></trkpt><trkpt lat="45.69045912466178" lon="9.95091919031836"><ele>280.0</ele><time>2026-04-11T09:54:54Z</time></trkpt><trkpt lat="45.69033860566913" lon="9.950931295820116"><ele>280.0</ele><time>2026-04-11T09:54:56Z</time></trkpt><trkpt lat="45.690216146703875" lon="9.950945831341592"><ele>280.0</ele><time>2026-04-11T09:54:58Z</time></trkpt><trkpt lat="45.69009298966042" lon="9.950966829349973"><ele>280.0</ele><time>2026-04-11T09:55:00Z</time></trkpt><trkpt lat="45.68996964368476" lon="9.950994894936162"><ele>279.5</ele><time>2026-04-11T09:55:02Z</time></trkpt><trkpt lat="45.689904125943244" lon="9.95100907159415"><ele>279.0</ele><time>2026-04-11T09:55:03Z</time></trkpt><trkpt lat="45.689841757907026" lon="9.951022449486782"><ele>278.5</ele><time>2026-04-11T09:55:04Z</time></trkpt><trkpt lat="45.68977776330839" lon="9.95104044252677"><ele>278.0</ele><time>2026-04-11T09:55:05Z</time></trkpt><trkpt lat="45.68971185862048" lon="9.951059544945544"><ele>277.5</ele><time>2026-04-11T09:55:06Z</time></trkpt><trkpt lat="45.689586696694576" lon="9.951107632546321"><ele>277.0</ele><time>2026-04-11T09:55:08Z</time></trkpt><trkpt lat="45.689518569718906" lon="9.951125879235665"><ele>278.6</ele><time>2026-04-11T09:55:09Z</time></trkpt><trkpt lat="45.68939113898859" lon="9.95117128517571"><ele>280.2</ele><time>2026-04-11T09:55:11Z</time></trkpt><trkpt lat="45.68932526477102" lon="9.951199765284787"><ele>281.8</ele><time>2026-04-11T09:55:12Z</time></trkpt><trkpt lat="45.68926296938534" lon="9.951224710998273"><ele>283.4</ele><time>2026-04-11T09:55:13Z</time></trkpt><trkpt lat="45.68919814957379" lon="9.951247832395996"><ele>285.0</ele><time>2026-04-11T09:55:14Z</time></trkpt><trkpt lat="45.68907989395509" lon="9.951278070625186"><ele>285.0</ele><time>2026-04-11T09:55:16Z</time></trkpt><trkpt lat="45.68900313708458" lon="9.95131685943919"><ele>285.0</ele><time>2026-04-11T09:55:17Z</time></trkpt><trkpt lat="45.688882926199945" lon="9.951356780276285"><ele>285.0</ele><time>2026-04-11T09:55:19Z</time></trkpt><trkpt lat="45.68881695197623" lon="9.951376339218305"><ele>285.0</ele><time>2026-04-11T09:55:20Z</time></trkpt><trkpt lat="45.688752310947905" lon="9.951400661375162"><ele>285.0</ele><time>2026-04-11T09:55:21Z</time></trkpt><trkpt lat="45.68868711753652" lon="9.951425783733724"><ele>285.0</ele><time>2026-04-11T09:55:22Z</time></trkpt><trkpt lat="45.68862483277199" lon="9.951445687155491"><ele>285.3333333333333</ele><time>2026-04-11T09:55:23Z</time></trkpt><trkpt lat="45.688561282290145" lon="9.951465124218977"><ele>285.6666666666667</ele><time>2026-04-11T09:55:24Z</time></trkpt><trkpt lat="45.68844139140261" lon="9.951511220572003"><ele>286.0</ele><time>2026-04-11T09:55:26Z</time></trkpt><trkpt lat="45.688314767541684" lon="9.951538793642708"><ele>286.33333333333337</ele><time>2026-04-11T09:55:28Z</time></trkpt><trkpt lat="45.68825002841483" lon="9.951557047131907"><ele>286.6666666666667</ele><time>2026-04-11T09:55:29Z</time></trkpt><trkpt lat="45.68818521000117" lon="9.951573659799516"><ele>287.0</ele><time>2026-04-11T09:55:30Z</time></trkpt><trkpt lat="45.68811914542888" lon="9.951592444730977"><ele>287.0</ele><time>2026-04-11T09:55:31Z</time></trkpt><trkpt lat="45.6880490283337" lon="9.951610864279345"><ele>287.0</ele><time>2026-04-11T09:55:32Z</time></trkpt><trkpt lat="45.68798093624231" lon="9.951629327011135"><ele>287.0</ele><time>2026-04-11T09:55:33Z</time></trkpt><trkpt lat="45.68791050725276" lon="9.951632666471715"><ele>287.0</ele><time>2026-04-11T09:55:34Z</time></trkpt><trkpt lat="45.68783606660515" lon="9.95165097053386"><ele>287.0</ele><time>2026-04-11T09:55:35Z</time></trkpt><trkpt lat="45.68776267109916" lon="9.951681211378627"><ele>287.0</ele><time>2026-04-11T09:55:36Z</time></trkpt><trkpt lat="45.687687565591" lon="9.951699319999818"><ele>287.0</ele><time>2026-04-11T09:55:37Z</time></trkpt><trkpt lat="45.68761093489858" lon="9.951713867532524"><ele>283.5</ele><time>2026-04-11T09:55:38Z</time></trkpt><trkpt lat="45.68753392846352" lon="9.951726941570035"><ele>280.0</ele><time>2026-04-11T09:55:39Z</time></trkpt><trkpt lat="45.68745425952333" lon="9.951748745508675"><ele>276.5</ele><time>2026-04-11T09:55:40Z</time></trkpt><trkpt lat="45.687375999852854" lon="9.95176823301723"><ele>273.0</ele><time>2026-04-11T09:55:41Z</time></trkpt><trkpt lat="45.68729592383636" lon="9.951787029730161"><ele>269.5</ele><time>2026-04-11T09:55:42Z</time></trkpt><trkpt lat="45.687212985780704" lon="9.95181010059993"><ele>266.0</ele><time>2026-04-11T09:55:43Z</time></trkpt><trkpt lat="45.687131231259535" lon="9.951825730527982"><ele>266.0</ele><time>2026-04-11T09:55:44Z</time></trkpt><trkpt lat="45.68704508383553" lon="9.951846870077297"><ele>266.0</ele><time>2026-04-11T09:55:45Z</time></trkpt><trkpt lat="45.686960100552334" lon="9.95186408959605"><ele>266.0</ele><time>2026-04-11T09:55:46Z</time></trkpt><trkpt lat="45.68687336764396" lon="9.951872871973109"><ele>266.0</ele><time>2026-04-11T09:55:47Z</time></trkpt><trkpt lat="45.68678503558188" lon="9.95187365349421"><ele>266.0</ele><time>2026-04-11T09:55:48Z</time></trkpt><trkpt lat="45.68669220686087" lon="9.951873307528079"><ele>266.0</ele><time>2026-04-11T09:55:49Z</time></trkpt><trkpt lat="45.686605969158066" lon="9.951856886670402"><ele>265.6</ele><time>2026-04-11T09:55:50Z</time></trkpt><trkpt lat="45.68651177761254" lon="9.951842465585216"><ele>265.20000000000005</ele><time>2026-04-11T09:55:51Z</time></trkpt><trkpt lat="45.68641951858068" lon="9.951828420341565"><ele>264.79999999999995</ele><time>2026-04-11T09:55:52Z</time></trkpt><trkpt lat="45.68632507525437" lon="9.95181729795182"><ele>264.4</ele><time>2026-04-11T09:55:53Z</time></trkpt><trkpt lat="45.686231169288845" lon="9.951802284473391"><ele>264.0</ele><time>2026-04-11T09:55:54Z</time></trkpt><trkpt lat="45.68613562870888" lon="9.951785811802312"><ele>261.8</ele><time>2026-04-11T09:55:55Z</time></trkpt><trkpt lat="45.686041131447546" lon="9.951767206714262"><ele>259.59999999999997</ele><time>2026-04-11T09:55:56Z</time></trkpt><trkpt lat="45.68594236035326" lon="9.951753866346321"><ele>257.4</ele><time>2026-04-11T09:55:57Z</time></trkpt><trkpt lat="45.68584592198538" lon="9.951737398507008"><ele>255.2</ele><time>2026-04-11T09:55:58Z</time></trkpt><trkpt lat="45.68574742924577" lon="9.951722400100591"><ele>253.0</ele><time>2026-04-11T09:55:59Z</time></trkpt><trkpt lat="45.68564616025551" lon="9.951704048809471"><ele>253.60000000000002</ele><time>2026-04-11T09:56:00Z</time></trkpt><trkpt lat="45.68554668218764" lon="9.951674664994302"><ele>254.20000000000002</ele><time>2026-04-11T09:56:01Z</time></trkpt><trkpt lat="45.68544950867993" lon="9.951629556810765"><ele>254.8</ele><time>2026-04-11T09:56:02Z</time></trkpt><trkpt lat="45.68535715439834" lon="9.951562161947534"><ele>255.4</ele><time>2026-04-11T09:56:03Z</time></trkpt><trkpt lat="45.68526578648195" lon="9.951491696008194"><ele>256.0</ele><time>2026-04-11T09:56:04Z</time></trkpt><trkpt lat="45.68517931060295" lon="9.951413926442797"><ele>256.0</ele><time>2026-04-11T09:56:05Z</time></trkpt><trkpt lat="45.68509265417941" lon="9.951332233973524"><ele>256.0</ele><time>2026-04-11T09:56:06Z</time></trkpt><trkpt lat="45.68500380391494" lon="9.951253831942084"><ele>256.0</ele><time>2026-04-11T09:56:07Z</time></trkpt><trkpt lat="45.684918639483584" lon="9.951169001953373"><ele>256.0</ele><time>2026-04-11T09:56:08Z</time></trkpt><trkpt lat="45.68483406339471" lon="9.9510801624048"><ele>256.0</ele><time>2026-04-11T09:56:09Z</time></trkpt><trkpt lat="45.68474901322395" lon="9.95098651041226"><ele>256.0</ele><time>2026-04-11T09:56:10Z</time></trkpt><trkpt lat="45.68467085382151" lon="9.950885606456824"><ele>256.0</ele><time>2026-04-11T09:56:11Z</time></trkpt><trkpt lat="45.68459579064793" lon="9.950773215072761"><ele>256.0</ele><time>2026-04-11T09:56:12Z</time></trkpt><trkpt lat="45.68452728504182" lon="9.95065475289186"><ele>256.0</ele><time>2026-04-11T09:56:13Z</time></trkpt><trkpt lat="45.68446191290215" lon="9.950523453744967"><ele>256.0</ele><time>2026-04-11T09:56:14Z</time></trkpt><trkpt lat="45.68438820745716" lon="9.950407335629752"><ele>253.75</ele><time>2026-04-11T09:56:15Z</time></trkpt><trkpt lat="45.6842995274744" lon="9.950306096768267"><ele>251.5</ele><time>2026-04-11T09:56:16Z</time></trkpt><trkpt lat="45.68419757610171" lon="9.950226674290178"><ele>249.25</ele><time>2026-04-11T09:56:17Z</time></trkpt><trkpt lat="45.68409114438221" lon="9.95015552352482"><ele>247.0</ele><time>2026-04-11T09:56:18Z</time></trkpt><trkpt lat="45.68398365088931" lon="9.950090104903765"><ele>246.25</ele><time>2026-04-11T09:56:19Z</time></trkpt><trkpt lat="45.68387266543526" lon="9.950029463219506"><ele>245.5</ele><time>2026-04-11T09:56:20Z</time></trkpt><trkpt lat="45.6837602169992" lon="9.949967864908528"><ele>244.75</ele><time>2026-04-11T09:56:21Z</time></trkpt><trkpt lat="45.68365083592595" lon="9.949891301462586"><ele>244.0</ele><time>2026-04-11T09:56:22Z</time></trkpt><trkpt lat="45.683538385260576" lon="9.949812033018656"><ele>244.0</ele><time>2026-04-11T09:56:23Z</time></trkpt><trkpt lat="45.68343356585097" lon="9.94972468466229"><ele>244.0</ele><time>2026-04-11T09:56:24Z</time></trkpt><trkpt lat="45.683330114899064" lon="9.949630470560853"><ele>244.0</ele><time>2026-04-11T09:56:25Z</time></trkpt><trkpt lat="45.68323604683902" lon="9.949518766997693"><ele>244.0</ele><time>2026-04-11T09:56:26Z</time></trkpt><trkpt lat="45.68315069126208" lon="9.949401009787042"><ele>244.0</ele><time>2026-04-11T09:56:27Z</time></trkpt><trkpt lat="45.68306656320019" lon="9.949281693487183"><ele>244.0</ele><time>2026-04-11T09:56:28Z</time></trkpt><trkpt lat="45.682995656575095" lon="9.949154491172727"><ele>244.0</ele><time>2026-04-11T09:56:29Z</time></trkpt><trkpt lat="45.68293176297634" lon="9.949018328401618"><ele>244.0</ele><time>2026-04-11T09:56:30Z</time></trkpt><trkpt lat="45.682870754545036" lon="9.948879351965566"><ele>242.25</ele><time>2026-04-11T09:56:31Z</time></trkpt><trkpt lat="45.68281603831406" lon="9.948733767990129"><ele>240.5</ele><time>2026-04-11T09:56:32Z</time></trkpt><trkpt lat="45.68276948802233" lon="9.948581150582918"><ele>238.75</ele><time>2026-04-11T09:56:33Z</time></trkpt><trkpt lat="45.68273298460078" lon="9.948418673880155"><ele>237.0</ele><time>2026-04-11T09:56:34Z</time></trkpt><trkpt lat="45.68270529378872" lon="9.948255312734004"><ele>237.0</ele><time>2026-04-11T09:56:35Z</time></trkpt><trkpt lat="45.68266621652498" lon="9.9480901964973"><ele>237.0</ele><time>2026-04-11T09:56:36Z</time></trkpt><trkpt lat="45.68260797605403" lon="9.947940130061024"><ele>237.0</ele><time>2026-04-11T09:56:37Z</time></trkpt><trkpt lat="45.682538727006346" lon="9.947798278820173"><ele>237.0</ele><time>2026-04-11T09:56:38Z</time></trkpt><trkpt lat="45.682456227081985" lon="9.947686613595678"><ele>237.0</ele><time>2026-04-11T09:56:39Z</time></trkpt><trkpt lat="45.68234515717938" lon="9.947609207581134"><ele>237.0</ele><time>2026-04-11T09:56:40Z</time></trkpt><trkpt lat="45.68222749220355" lon="9.947566083570093"><ele>237.0</ele><time>2026-04-11T09:56:41Z</time></trkpt><trkpt lat="45.68211267835995" lon="9.947534980997759"><ele>237.0</ele><time>2026-04-11T09:56:42Z</time></trkpt><trkpt lat="45.68200223362988" lon="9.947497251118165"><ele>236.39999999999998</ele><time>2026-04-11T09:56:43Z</time></trkpt><trkpt lat="45.68189547776001" lon="9.94744905907065"><ele>235.79999999999998</ele><time>2026-04-11T09:56:44Z</time></trkpt><trkpt lat="45.681782883136044" lon="9.947413535665088"><ele>235.2</ele><time>2026-04-11T09:56:45Z</time></trkpt><trkpt lat="45.68167521518764" lon="9.947377866433843"><ele>234.6</ele><time>2026-04-11T09:56:46Z</time></trkpt><trkpt lat="45.68156988534088" lon="9.947336520854698"><ele>234.0</ele><time>2026-04-11T09:56:47Z</time></trkpt><trkpt lat="45.68146590446104" lon="9.94728563320852"><ele>234.0</ele><time>2026-04-11T09:56:48Z</time></trkpt><trkpt lat="45.68136260633182" lon="9.947249726890284"><ele>233.99999999999997</ele><time>2026-04-11T09:56:49Z</time></trkpt><trkpt lat="45.68125764568596" lon="9.94721698600768"><ele>233.99999999999997</ele><time>2026-04-11T09:56:50Z</time></trkpt><trkpt lat="45.68115499243029" lon="9.947180586772319"><ele>234.0</ele><time>2026-04-11T09:56:51Z</time></trkpt><trkpt lat="45.68105445538753" lon="9.94714103832143"><ele>234.0</ele><time>2026-04-11T09:56:52Z</time></trkpt><trkpt lat="45.68095528854352" lon="9.947093560847218"><ele>232.79999999999998</ele><time>2026-04-11T09:56:53Z</time></trkpt><trkpt lat="45.680856152130204" lon="9.947043702468587"><ele>231.59999999999997</ele><time>2026-04-11T09:56:54Z</time></trkpt><trkpt lat="45.680755947843906" lon="9.94699995067784"><ele>230.4</ele><time>2026-04-11T09:56:55Z</time></trkpt><trkpt lat="45.68065840852617" lon="9.946958212940887"><ele>229.2</ele><time>2026-04-11T09:56:56Z</time></trkpt><trkpt lat="45.680563157988" lon="9.94691323146812"><ele>228.0</ele><time>2026-04-11T09:56:57Z</time></trkpt><trkpt lat="45.680477124487766" lon="9.946852756430125"><ele>228.0</ele><time>2026-04-11T09:56:58Z</time></trkpt><trkpt lat="45.68038803174483" lon="9.946798592834698"><ele>228.0</ele><time>2026-04-11T09:56:59Z</time></trkpt><trkpt lat="45.68030943104764" lon="9.946745310019043"><ele>228.0</ele><time>2026-04-11T09:57:00Z</time></trkpt><trkpt lat="45.68023842504833" lon="9.946671551167961"><ele>228.0</ele><time>2026-04-11T09:57:01Z</time></trkpt><trkpt lat="45.680168398141184" lon="9.946617284207935"><ele>228.0</ele><time>2026-04-11T09:57:02Z</time></trkpt><trkpt lat="45.68009585397292" lon="9.946553021216758"><ele>228.0</ele><time>2026-04-11T09:57:03Z</time></trkpt><trkpt lat="45.680030074169615" lon="9.946490026123891"><ele>227.85714285714283</ele><time>2026-04-11T09:57:04Z</time></trkpt><trkpt lat="45.679972116503706" lon="9.946423876698809"><ele>227.7142857142857</ele><time>2026-04-11T09:57:05Z</time></trkpt><trkpt lat="45.679910411042755" lon="9.946355801398653"><ele>227.57142857142856</ele><time>2026-04-11T09:57:06Z</time></trkpt><trkpt lat="45.679853039881905" lon="9.946288479689386"><ele>227.42857142857144</ele><time>2026-04-11T09:57:07Z</time></trkpt><trkpt lat="45.67980185011122" lon="9.946222863070243"><ele>227.2857142857143</ele><time>2026-04-11T09:57:08Z</time></trkpt><trkpt lat="45.67974750113545" lon="9.946157134540139"><ele>227.14285714285717</ele><time>2026-04-11T09:57:09Z</time></trkpt><trkpt lat="45.67968616909929" lon="9.946099035827054"><ele>227.0</ele><time>2026-04-11T09:57:10Z</time></trkpt><trkpt lat="45.679626648566355" lon="9.946039648784087"><ele>227.0</ele><time>2026-04-11T09:57:11Z</time></trkpt><trkpt lat="45.679571250343066" lon="9.945982482355404"><ele>227.00000000000003</ele><time>2026-04-11T09:57:12Z</time></trkpt><trkpt lat="45.67951710770308" lon="9.9459219331525"><ele>227.0</ele><time>2026-04-11T09:57:13Z</time></trkpt><trkpt lat="45.67946780811043" lon="9.945858658241868"><ele>227.0</ele><time>2026-04-11T09:57:14Z</time></trkpt><trkpt lat="45.679416684497824" lon="9.945795636648453"><ele>227.00000000000003</ele><time>2026-04-11T09:57:15Z</time></trkpt><trkpt lat="45.6793621156494" lon="9.945740594868992"><ele>227.0</ele><time>2026-04-11T09:57:16Z</time></trkpt><trkpt lat="45.6793076558187" lon="9.945686689776554"><ele>227.0</ele><time>2026-04-11T09:57:17Z</time></trkpt><trkpt lat="45.67925877659226" lon="9.945628408809217"><ele>226.83333333333334</ele><time>2026-04-11T09:57:18Z</time></trkpt><trkpt lat="45.679209213269395" lon="9.945571244001814"><ele>226.66666666666669</ele><time>2026-04-11T09:57:19Z</time></trkpt><trkpt lat="45.67915702686148" lon="9.945508879232762"><ele>226.5</ele><time>2026-04-11T09:57:20Z</time></trkpt><trkpt lat="45.679056080641246" lon="9.945399658887098"><ele>226.33333333333331</ele><time>2026-04-11T09:57:22Z</time></trkpt><trkpt lat="45.6790042206701" lon="9.945344387734018"><ele>226.16666666666666</ele><time>2026-04-11T09:57:23Z</time></trkpt><trkpt lat="45.678957892988734" lon="9.945282857596224"><ele>226.0</ele><time>2026-04-11T09:57:24Z</time></trkpt><trkpt lat="45.678907813213534" lon="9.945225091402856"><ele>225.99999999999997</ele><time>2026-04-11T09:57:25Z</time></trkpt><trkpt lat="45.67885616475007" lon="9.945167184859015"><ele>226.0</ele><time>2026-04-11T09:57:26Z</time></trkpt><trkpt lat="45.67880609547461" lon="9.945105217431776"><ele>226.0</ele><time>2026-04-11T09:57:27Z</time></trkpt><trkpt lat="45.678708864896755" lon="9.944997979164931"><ele>226.0</ele><time>2026-04-11T09:57:29Z</time></trkpt><trkpt lat="45.678656772811955" lon="9.944945648636176"><ele>225.99999999999997</ele><time>2026-04-11T09:57:30Z</time></trkpt><trkpt lat="45.678558238443934" lon="9.944839159279388"><ele>226.0</ele><time>2026-04-11T09:57:32Z</time></trkpt><trkpt lat="45.678466013981506" lon="9.944726371080707"><ele>225.75</ele><time>2026-04-11T09:57:34Z</time></trkpt><trkpt lat="45.678366339528466" lon="9.944619328926114"><ele>225.5</ele><time>2026-04-11T09:57:36Z</time></trkpt><trkpt lat="45.678276974765936" lon="9.944501213708747"><ele>225.25</ele><time>2026-04-11T09:57:38Z</time></trkpt><trkpt lat="45.67819137698398" lon="9.94437581695407"><ele>225.0</ele><time>2026-04-11T09:57:40Z</time></trkpt><trkpt lat="45.67811463093109" lon="9.944237708022824"><ele>226.6</ele><time>2026-04-11T09:57:42Z</time></trkpt><trkpt lat="45.67803909704232" lon="9.944100317697869"><ele>228.2</ele><time>2026-04-11T09:57:44Z</time></trkpt><trkpt lat="45.67796756255714" lon="9.943955772404891"><ele>229.8</ele><time>2026-04-11T09:57:46Z</time></trkpt><trkpt lat="45.67792510118755" lon="9.943885356555102"><ele>231.4</ele><time>2026-04-11T09:57:47Z</time></trkpt><trkpt lat="45.67788961213856" lon="9.94380727872401"><ele>233.0</ele><time>2026-04-11T09:57:48Z</time></trkpt><trkpt lat="45.67781562829269" lon="9.943655319723279"><ele>232.50000000000003</ele><time>2026-04-11T09:57:50Z</time></trkpt><trkpt lat="45.67774121936842" lon="9.943508013415215"><ele>232.0</ele><time>2026-04-11T09:57:52Z</time></trkpt><trkpt lat="45.6777033308085" lon="9.943435629241298"><ele>231.5</ele><time>2026-04-11T09:57:53Z</time></trkpt><trkpt lat="45.677630126301516" lon="9.943286691982058"><ele>231.0</ele><time>2026-04-11T09:57:55Z</time></trkpt><trkpt lat="45.677591593834656" lon="9.943214434139167"><ele>230.50000000000003</ele><time>2026-04-11T09:57:56Z</time></trkpt><trkpt lat="45.67755187424846" lon="9.943143523223243"><ele>230.0</ele><time>2026-04-11T09:57:57Z</time></trkpt><trkpt lat="45.677508190697" lon="9.943073774860858"><ele>230.00000000000003</ele><time>2026-04-11T09:57:58Z</time></trkpt><trkpt lat="45.67741142979332" lon="9.942955240685377"><ele>230.0</ele><time>2026-04-11T09:58:00Z</time></trkpt><trkpt lat="45.67736137091867" lon="9.942897588512942"><ele>230.0</ele><time>2026-04-11T09:58:01Z</time></trkpt><trkpt lat="45.677308589935315" lon="9.942842922304362"><ele>230.0</ele><time>2026-04-11T09:58:02Z</time></trkpt><trkpt lat="45.67725316044225" lon="9.942796480719531"><ele>230.00000000000003</ele><time>2026-04-11T09:58:03Z</time></trkpt><trkpt lat="45.677200662665506" lon="9.942743629669234"><ele>230.0</ele><time>2026-04-11T09:58:04Z</time></trkpt><trkpt lat="45.6771444520826" lon="9.942698774909312"><ele>230.0</ele><time>2026-04-11T09:58:05Z</time></trkpt><trkpt lat="45.677092700768824" lon="9.942640669750968"><ele>230.0</ele><time>2026-04-11T09:58:06Z</time></trkpt><trkpt lat="45.67698848215951" lon="9.942540838396729"><ele>230.0</ele><time>2026-04-11T09:58:08Z</time></trkpt><trkpt lat="45.676928450640105" lon="9.94248930811179"><ele>230.0</ele><time>2026-04-11T09:58:09Z</time></trkpt><trkpt lat="45.6768242423012" lon="9.942392470676623"><ele>230.0</ele><time>2026-04-11T09:58:11Z</time></trkpt><trkpt lat="45.67677279202187" lon="9.942337723179532"><ele>229.0</ele><time>2026-04-11T09:58:12Z</time></trkpt><trkpt lat="45.676679827346604" lon="9.94223250319316"><ele>228.0</ele><time>2026-04-11T09:58:14Z</time></trkpt><trkpt lat="45.676611124411856" lon="9.942179197905954"><ele>227.0</ele><time>2026-04-11T09:58:15Z</time></trkpt><trkpt lat="45.676516046263224" lon="9.942072719687133"><ele>226.0</ele><time>2026-04-11T09:58:17Z</time></trkpt><trkpt lat="45.67645984044407" lon="9.94202641420323"><ele>225.0</ele><time>2026-04-11T09:58:18Z</time></trkpt><trkpt lat="45.67636199384562" lon="9.941922164688688"><ele>225.0</ele><time>2026-04-11T09:58:20Z</time></trkpt><trkpt lat="45.6763087286515" lon="9.941873462056614"><ele>225.0</ele><time>2026-04-11T09:58:21Z</time></trkpt><trkpt lat="45.67625638924133" lon="9.941818936258413"><ele>225.0</ele><time>2026-04-11T09:58:22Z</time></trkpt><trkpt lat="45.67614988735434" lon="9.941705080739174"><ele>225.0</ele><time>2026-04-11T09:58:24Z</time></trkpt><trkpt lat="45.67605340083032" lon="9.941597412089427"><ele>225.0</ele><time>2026-04-11T09:58:26Z</time></trkpt><trkpt lat="45.67597885049339" lon="9.941459940044652"><ele>225.2</ele><time>2026-04-11T09:58:28Z</time></trkpt><trkpt lat="45.67589232393008" lon="9.941465056429744"><ele>225.4</ele><time>2026-04-11T09:58:29Z</time></trkpt><trkpt lat="45.675783700744645" lon="9.94138616524044"><ele>225.60000000000002</ele><time>2026-04-11T09:58:31Z</time></trkpt><trkpt lat="45.67571293319377" lon="9.941372612577052"><ele>225.8</ele><time>2026-04-11T09:58:32Z</time></trkpt><trkpt lat="45.67559727557765" lon="9.941352201292574"><ele>226.0</ele><time>2026-04-11T09:58:34Z</time></trkpt><trkpt lat="45.67547628655545" lon="9.941315044235072"><ele>226.0</ele><time>2026-04-11T09:58:36Z</time></trkpt><trkpt lat="45.67536606682953" lon="9.941292208629914"><ele>226.00000000000003</ele><time>2026-04-11T09:58:38Z</time></trkpt><trkpt lat="45.67530117152273" lon="9.941288673872176"><ele>226.00000000000003</ele><time>2026-04-11T09:58:39Z</time></trkpt><trkpt lat="45.67518528552305" lon="9.941270588695845"><ele>226.0</ele><time>2026-04-11T09:58:41Z</time></trkpt><trkpt lat="45.675080661292334" lon="9.941250640838673"><ele>226.0</ele><time>2026-04-11T09:58:43Z</time></trkpt><trkpt lat="45.6749732238528" lon="9.941235024216112"><ele>226.4</ele><time>2026-04-11T09:58:45Z</time></trkpt><trkpt lat="45.67486145591727" lon="9.941219218685363"><ele>226.8</ele><time>2026-04-11T09:58:47Z</time></trkpt><trkpt lat="45.674758411829565" lon="9.941198043449315"><ele>227.20000000000002</ele><time>2026-04-11T09:58:49Z</time></trkpt><trkpt lat="45.67465515861631" lon="9.941170480144486"><ele>227.60000000000002</ele><time>2026-04-11T09:58:51Z</time></trkpt><trkpt lat="45.674550996759706" lon="9.941153135709188"><ele>228.0</ele><time>2026-04-11T09:58:53Z</time></trkpt><trkpt lat="45.674445125916876" lon="9.941133188244157"><ele>229.25</ele><time>2026-04-11T09:58:55Z</time></trkpt><trkpt lat="45.67433531020745" lon="9.941102343935261"><ele>230.5</ele><time>2026-04-11T09:58:57Z</time></trkpt><trkpt lat="45.674219894952486" lon="9.941066980953368"><ele>231.75</ele><time>2026-04-11T09:58:59Z</time></trkpt><trkpt lat="45.674106648826736" lon="9.94102719411333"><ele>233.0</ele><time>2026-04-11T09:59:01Z</time></trkpt><trkpt lat="45.673989647557555" lon="9.940973787790117"><ele>233.0</ele><time>2026-04-11T09:59:03Z</time></trkpt><trkpt lat="45.67392956229139" lon="9.940944294796422"><ele>233.0</ele><time>2026-04-11T09:59:04Z</time></trkpt><trkpt lat="45.67381533183934" lon="9.940894469775545"><ele>233.0</ele><time>2026-04-11T09:59:06Z</time></trkpt><trkpt lat="45.673757098359296" lon="9.940858611523504"><ele>233.0</ele><time>2026-04-11T09:59:07Z</time></trkpt><trkpt lat="45.673641853697006" lon="9.940796848518945"><ele>233.0</ele><time>2026-04-11T09:59:09Z</time></trkpt><trkpt lat="45.67352571553252" lon="9.940740579944078"><ele>233.4</ele><time>2026-04-11T09:59:11Z</time></trkpt><trkpt lat="45.673409203106715" lon="9.940681908812484"><ele>233.8</ele><time>2026-04-11T09:59:13Z</time></trkpt><trkpt lat="45.67335000250873" lon="9.940650431438442"><ele>234.2</ele><time>2026-04-11T09:59:14Z</time></trkpt><trkpt lat="45.673235892575136" lon="9.940587984186616"><ele>234.6</ele><time>2026-04-11T09:59:16Z</time></trkpt><trkpt lat="45.67317562213797" lon="9.940553701955398"><ele>235.0</ele><time>2026-04-11T09:59:17Z</time></trkpt><trkpt lat="45.67305966158546" lon="9.940497048220514"><ele>235.0</ele><time>2026-04-11T09:59:19Z</time></trkpt><trkpt lat="45.67294229840737" lon="9.940436225944666"><ele>235.0</ele><time>2026-04-11T09:59:21Z</time></trkpt><trkpt lat="45.67283009676489" lon="9.940373881560035"><ele>235.0</ele><time>2026-04-11T09:59:23Z</time></trkpt><trkpt lat="45.67271160018105" lon="9.940324534587855"><ele>235.0</ele><time>2026-04-11T09:59:25Z</time></trkpt><trkpt lat="45.67258935516912" lon="9.940272649321871"><ele>234.0</ele><time>2026-04-11T09:59:27Z</time></trkpt><trkpt lat="45.67247059338397" lon="9.940237395720125"><ele>233.0</ele><time>2026-04-11T09:59:29Z</time></trkpt><trkpt lat="45.67240772460518" lon="9.94022270358752"><ele>232.0</ele><time>2026-04-11T09:59:30Z</time></trkpt><trkpt lat="45.6722849130434" lon="9.940198803289586"><ele>231.0</ele><time>2026-04-11T09:59:32Z</time></trkpt><trkpt lat="45.67215938449247" lon="9.940191328747229"><ele>230.0</ele><time>2026-04-11T09:59:34Z</time></trkpt><trkpt lat="45.67203435479648" lon="9.940180558372747"><ele>229.75</ele><time>2026-04-11T09:59:36Z</time></trkpt><trkpt lat="45.671911222927356" lon="9.940174685285667"><ele>229.5</ele><time>2026-04-11T09:59:38Z</time></trkpt><trkpt lat="45.671788517967705" lon="9.940170287954677"><ele>229.25</ele><time>2026-04-11T09:59:40Z</time></trkpt><trkpt lat="45.671669155488594" lon="9.94017328151976"><ele>229.0</ele><time>2026-04-11T09:59:42Z</time></trkpt><trkpt lat="45.67154761657575" lon="9.94017042230968"><ele>229.0</ele><time>2026-04-11T09:59:44Z</time></trkpt><trkpt lat="45.67142657510378" lon="9.940169211687936"><ele>229.0</ele><time>2026-04-11T09:59:46Z</time></trkpt><trkpt lat="45.671306289075574" lon="9.940165140080211"><ele>229.0</ele><time>2026-04-11T09:59:48Z</time></trkpt><trkpt lat="45.671187805612455" lon="9.940162616318037"><ele>229.0</ele><time>2026-04-11T09:59:50Z</time></trkpt><trkpt lat="45.67108033974243" lon="9.940165596140757"><ele>229.39999999999998</ele><time>2026-04-11T09:59:52Z</time></trkpt><trkpt lat="45.67101630310489" lon="9.940160743288754"><ele>229.79999999999998</ele><time>2026-04-11T09:59:53Z</time></trkpt><trkpt lat="45.67090348550301" lon="9.940156315007746"><ele>230.20000000000002</ele><time>2026-04-11T09:59:55Z</time></trkpt><trkpt lat="45.670786504190175" lon="9.940164920961832"><ele>230.60000000000002</ele><time>2026-04-11T09:59:57Z</time></trkpt><trkpt lat="45.67066852513937" lon="9.940161373909683"><ele>231.0</ele><time>2026-04-11T09:59:59Z</time></trkpt><trkpt lat="45.67055349675095" lon="9.940158205856408"><ele>231.0</ele><time>2026-04-11T10:00:01Z</time></trkpt><trkpt lat="45.67043848197301" lon="9.94015276713787"><ele>231.0</ele><time>2026-04-11T10:00:03Z</time></trkpt><trkpt lat="45.67032622070015" lon="9.940144658775406"><ele>231.0</ele><time>2026-04-11T10:00:05Z</time></trkpt><trkpt lat="45.67021381849438" lon="9.940143534158121"><ele>231.0</ele><time>2026-04-11T10:00:07Z</time></trkpt><trkpt lat="45.670096118816815" lon="9.940124437866098"><ele>231.20000000000002</ele><time>2026-04-11T10:00:09Z</time></trkpt><trkpt lat="45.66997891618069" lon="9.940112120677687"><ele>231.40000000000003</ele><time>2026-04-11T10:00:11Z</time></trkpt><trkpt lat="45.66986344862932" lon="9.94009400635811"><ele>231.6</ele><time>2026-04-11T10:00:13Z</time></trkpt><trkpt lat="45.669754055360116" lon="9.940061996532929"><ele>231.8</ele><time>2026-04-11T10:00:15Z</time></trkpt><trkpt lat="45.66965665577335" lon="9.940018964354136"><ele>232.0</ele><time>2026-04-11T10:00:17Z</time></trkpt><trkpt lat="45.66956703829666" lon="9.939969614980708"><ele>232.0</ele><time>2026-04-11T10:00:19Z</time></trkpt><trkpt lat="45.669483246979276" lon="9.939931278652715"><ele>232.0</ele><time>2026-04-11T10:00:21Z</time></trkpt><trkpt lat="45.66939435665866" lon="9.939879439162137"><ele>232.0</ele><time>2026-04-11T10:00:23Z</time></trkpt><trkpt lat="45.66929687559253" lon="9.939838928058121"><ele>232.0</ele><time>2026-04-11T10:00:25Z</time></trkpt><trkpt lat="45.66919662679151" lon="9.939810686560582"><ele>232.0</ele><time>2026-04-11T10:00:27Z</time></trkpt><trkpt lat="45.66910202556732" lon="9.939773147776492"><ele>231.99999999999997</ele><time>2026-04-11T10:00:29Z</time></trkpt><trkpt lat="45.66904591883667" lon="9.93973012486442"><ele>232.0</ele><time>2026-04-11T10:00:30Z</time></trkpt><trkpt lat="45.668975483931675" lon="9.939651245787383"><ele>232.0</ele><time>2026-04-11T10:00:32Z</time></trkpt><trkpt lat="45.66891456337251" lon="9.939535324595399"><ele>232.0</ele><time>2026-04-11T10:00:34Z</time></trkpt><trkpt lat="45.66886871157072" lon="9.939386013086846"><ele>231.99999999999997</ele><time>2026-04-11T10:00:36Z</time></trkpt><trkpt lat="45.66883981551163" lon="9.939305279987867"><ele>232.0</ele><time>2026-04-11T10:00:37Z</time></trkpt><trkpt lat="45.6687900656091" lon="9.939153587869905"><ele>232.2</ele><time>2026-04-11T10:00:39Z</time></trkpt><trkpt lat="45.668764533784426" lon="9.939070126825742"><ele>232.39999999999998</ele><time>2026-04-11T10:00:40Z</time></trkpt><trkpt lat="45.66871802134546" lon="9.938923290206073"><ele>232.60000000000002</ele><time>2026-04-11T10:00:42Z</time></trkpt><trkpt lat="45.668669035371174" lon="9.93878170207413"><ele>232.8</ele><time>2026-04-11T10:00:44Z</time></trkpt><trkpt lat="45.66862657164372" lon="9.938635298759744"><ele>233.0</ele><time>2026-04-11T10:00:46Z</time></trkpt><trkpt lat="45.66859766212736" lon="9.938549295949052"><ele>233.0</ele><time>2026-04-11T10:00:47Z</time></trkpt><trkpt lat="45.66854948104524" lon="9.93838353795101"><ele>233.0</ele><time>2026-04-11T10:00:49Z</time></trkpt><trkpt lat="45.66849798742949" lon="9.93822819144255"><ele>233.0</ele><time>2026-04-11T10:00:51Z</time></trkpt><trkpt lat="45.66844448196771" lon="9.938081263315599"><ele>233.0</ele><time>2026-04-11T10:00:53Z</time></trkpt><trkpt lat="45.66838677960411" lon="9.937934878617305"><ele>233.0</ele><time>2026-04-11T10:00:55Z</time></trkpt><trkpt lat="45.66832858422498" lon="9.93777591057321"><ele>233.0</ele><time>2026-04-11T10:00:57Z</time></trkpt><trkpt lat="45.66827483899859" lon="9.937619502536668"><ele>233.0</ele><time>2026-04-11T10:00:59Z</time></trkpt><trkpt lat="45.66822682140781" lon="9.93747589458474"><ele>233.0</ele><time>2026-04-11T10:01:01Z</time></trkpt><trkpt lat="45.66816804357465" lon="9.93735267315238"><ele>233.16666666666669</ele><time>2026-04-11T10:01:03Z</time></trkpt><trkpt lat="45.66810478850491" lon="9.937254400028497"><ele>233.33333333333334</ele><time>2026-04-11T10:01:05Z</time></trkpt><trkpt lat="45.66803716701144" lon="9.937231885515182"><ele>233.5</ele><time>2026-04-11T10:01:07Z</time></trkpt><trkpt lat="45.667980732302325" lon="9.93728539428525"><ele>233.66666666666669</ele><time>2026-04-11T10:01:09Z</time></trkpt><trkpt lat="45.66790964534019" lon="9.937315037527366"><ele>233.83333333333334</ele><time>2026-04-11T10:01:11Z</time></trkpt><trkpt lat="45.667890845671344" lon="9.937228699438034"><ele>234.0</ele><time>2026-04-11T10:01:13Z</time></trkpt><trkpt lat="45.66785642023861" lon="9.937091929355041"><ele>234.0</ele><time>2026-04-11T10:01:17Z</time></trkpt><trkpt lat="45.66786347217314" lon="9.936993730968588"><ele>234.00000000000003</ele><time>2026-04-11T10:01:19Z</time></trkpt><trkpt lat="45.66794815861056" lon="9.936993084707018"><ele>234.0</ele><time>2026-04-11T10:01:22Z</time></trkpt><trkpt lat="45.66790106154513" lon="9.93692773190416"><ele>234.0</ele><time>2026-04-11T10:03:07Z</time></trkpt><trkpt lat="45.667848444381626" lon="9.936986061461043"><ele>234.00000000000003</ele><time>2026-04-11T10:04:55Z</time></trkpt><trkpt lat="45.66784859863511" lon="9.936888469822625"><ele>234.0</ele><time>2026-04-11T10:05:58Z</time></trkpt><trkpt lat="45.66790090294469" lon="9.93694786179536"><ele>234.0</ele><time>2026-04-11T10:13:09Z</time></trkpt><trkpt lat="45.667944539391605" lon="9.937028311374998"><ele>234.0</ele><time>2026-04-11T10:13:12Z</time></trkpt><trkpt lat="45.667964965881374" lon="9.937115019788543"><ele>234.00000000000003</ele><time>2026-04-11T10:13:15Z</time></trkpt><trkpt lat="45.6679200768705" lon="9.937186314928178"><ele>234.0</ele><time>2026-04-11T10:13:19Z</time></trkpt><trkpt lat="45.66787713863171" lon="9.93725380643999"><ele>234.0</ele><time>2026-04-11T10:13:21Z</time></trkpt><trkpt lat="45.66784829017451" lon="9.937366506528079"><ele>234.00000000000003</ele><time>2026-04-11T10:13:24Z</time></trkpt><trkpt lat="45.66778861638042" lon="9.937395313534081"><ele>234.0</ele><time>2026-04-11T10:13:26Z</time></trkpt><trkpt lat="45.66772539334342" lon="9.937360415629358"><ele>234.0</ele><time>2026-04-11T10:13:28Z</time></trkpt><trkpt lat="45.66771520291868" lon="9.937227454219627"><ele>233.66666666666666</ele><time>2026-04-11T10:13:30Z</time></trkpt><trkpt lat="45.667728677845226" lon="9.937103866816951"><ele>233.33333333333331</ele><time>2026-04-11T10:13:32Z</time></trkpt><trkpt lat="45.66772959833943" lon="9.936995333975922"><ele>233.0</ele><time>2026-04-11T10:13:34Z</time></trkpt><trkpt lat="45.66773037863018" lon="9.936886196295353"><ele>232.66666666666666</ele><time>2026-04-11T10:13:36Z</time></trkpt><trkpt lat="45.667723502116885" lon="9.936759264591286"><ele>232.33333333333331</ele><time>2026-04-11T10:13:38Z</time></trkpt><trkpt lat="45.66773139276995" lon="9.936636741405485"><ele>232.0</ele><time>2026-04-11T10:13:40Z</time></trkpt><trkpt lat="45.66772735201993" lon="9.936521119451832"><ele>231.83333333333331</ele><time>2026-04-11T10:13:42Z</time></trkpt><trkpt lat="45.66771830307476" lon="9.936408459975024"><ele>231.66666666666666</ele><time>2026-04-11T10:13:44Z</time></trkpt><trkpt lat="45.66772022184259" lon="9.936304494794976"><ele>231.5</ele><time>2026-04-11T10:13:46Z</time></trkpt><trkpt lat="45.66772683433966" lon="9.936213969121313"><ele>231.33333333333331</ele><time>2026-04-11T10:13:48Z</time></trkpt><trkpt lat="45.667693127180485" lon="9.93609261235071"><ele>231.16666666666666</ele><time>2026-04-11T10:13:52Z</time></trkpt><trkpt lat="45.667604729050446" lon="9.936083737816405"><ele>231.0</ele><time>2026-04-11T10:13:54Z</time></trkpt><trkpt lat="45.667510077490036" lon="9.936130716420694"><ele>231.0</ele><time>2026-04-11T10:13:56Z</time></trkpt><trkpt lat="45.6674064279096" lon="9.93612609291767"><ele>231.00000000000003</ele><time>2026-04-11T10:13:58Z</time></trkpt><trkpt lat="45.6672996613069" lon="9.936112966728274"><ele>231.00000000000003</ele><time>2026-04-11T10:14:00Z</time></trkpt><trkpt lat="45.667201283791464" lon="9.936105168010865"><ele>231.0</ele><time>2026-04-11T10:14:02Z</time></trkpt><trkpt lat="45.667113681121776" lon="9.936116955360248"><ele>231.0</ele><time>2026-04-11T10:14:04Z</time></trkpt><trkpt lat="45.667031043083185" lon="9.936106312349688"><ele>231.0</ele><time>2026-04-11T10:14:06Z</time></trkpt><trkpt lat="45.66695312460903" lon="9.936111827182927"><ele>231.00000000000003</ele><time>2026-04-11T10:14:08Z</time></trkpt><trkpt lat="45.666846635965285" lon="9.936106445376593"><ele>231.00000000000003</ele><time>2026-04-11T10:14:10Z</time></trkpt><trkpt lat="45.666783627058855" lon="9.936107990759503"><ele>231.0</ele><time>2026-04-11T10:14:11Z</time></trkpt><trkpt lat="45.66666389539353" lon="9.93610221640507"><ele>231.0</ele><time>2026-04-11T10:14:13Z</time></trkpt><trkpt lat="45.66654001729666" lon="9.936104647959215"><ele>230.75</ele><time>2026-04-11T10:14:15Z</time></trkpt><trkpt lat="45.66641701261573" lon="9.936105291008465"><ele>230.5</ele><time>2026-04-11T10:14:17Z</time></trkpt><trkpt lat="45.66630101826853" lon="9.936100070550408"><ele>230.25</ele><time>2026-04-11T10:14:19Z</time></trkpt><trkpt lat="45.666190149841945" lon="9.936101951647272"><ele>230.0</ele><time>2026-04-11T10:14:21Z</time></trkpt><trkpt lat="45.666078270786365" lon="9.936100510897528"><ele>229.8</ele><time>2026-04-11T10:14:23Z</time></trkpt><trkpt lat="45.66601960988211" lon="9.936040228175681"><ele>229.6</ele><time>2026-04-11T10:14:25Z</time></trkpt><trkpt lat="45.666020629076534" lon="9.935891223149008"><ele>229.39999999999998</ele><time>2026-04-11T10:14:27Z</time></trkpt><trkpt lat="45.66603040812371" lon="9.935736333650148"><ele>229.2</ele><time>2026-04-11T10:14:29Z</time></trkpt><trkpt lat="45.66603186832393" lon="9.935558095703282"><ele>229.0</ele><time>2026-04-11T10:14:31Z</time></trkpt><trkpt lat="45.66603413478036" lon="9.935379575481473"><ele>228.83333333333331</ele><time>2026-04-11T10:14:33Z</time></trkpt><trkpt lat="45.66604375529426" lon="9.935206572823795"><ele>228.66666666666666</ele><time>2026-04-11T10:14:35Z</time></trkpt><trkpt lat="45.66605109825729" lon="9.935116900961853"><ele>228.5</ele><time>2026-04-11T10:14:36Z</time></trkpt><trkpt lat="45.666052187388075" lon="9.935026816736208"><ele>228.33333333333331</ele><time>2026-04-11T10:14:37Z</time></trkpt><trkpt lat="45.666050098517694" lon="9.934848812984958"><ele>228.16666666666666</ele><time>2026-04-11T10:14:39Z</time></trkpt><trkpt lat="45.66605156098266" lon="9.934756791281346"><ele>228.0</ele><time>2026-04-11T10:14:40Z</time></trkpt><trkpt lat="45.66605073336621" lon="9.934586253226076"><ele>228.0</ele><time>2026-04-11T10:14:42Z</time></trkpt><trkpt lat="45.66604937954049" lon="9.934408993480963"><ele>228.0</ele><time>2026-04-11T10:14:44Z</time></trkpt><trkpt lat="45.666046874633174" lon="9.934238357468042"><ele>228.0</ele><time>2026-04-11T10:14:46Z</time></trkpt><trkpt lat="45.666048048829666" lon="9.93408081511835"><ele>228.0</ele><time>2026-04-11T10:14:48Z</time></trkpt><trkpt lat="45.66604751342825" lon="9.933927704188593"><ele>228.2</ele><time>2026-04-11T10:14:50Z</time></trkpt><trkpt lat="45.66605052705739" lon="9.93377979286482"><ele>228.4</ele><time>2026-04-11T10:14:52Z</time></trkpt><trkpt lat="45.66605241935838" lon="9.933634482270937"><ele>228.59999999999997</ele><time>2026-04-11T10:14:54Z</time></trkpt><trkpt lat="45.66605803247935" lon="9.933504228631287"><ele>228.79999999999998</ele><time>2026-04-11T10:14:56Z</time></trkpt><trkpt lat="45.66604885988814" lon="9.933371692921247"><ele>229.0</ele><time>2026-04-11T10:14:58Z</time></trkpt><trkpt lat="45.66602103042092" lon="9.933266260710162"><ele>228.99999999999997</ele><time>2026-04-11T10:15:00Z</time></trkpt><trkpt lat="45.665994211184845" lon="9.933173227812107"><ele>229.0</ele><time>2026-04-11T10:15:02Z</time></trkpt><trkpt lat="45.66593424138082" lon="9.933090254558305"><ele>229.0</ele><time>2026-04-11T10:15:04Z</time></trkpt><trkpt lat="45.6658675722263" lon="9.932988769466759"><ele>229.0</ele><time>2026-04-11T10:15:06Z</time></trkpt><trkpt lat="45.665806130348756" lon="9.932892142483784"><ele>228.99999999999997</ele><time>2026-04-11T10:15:08Z</time></trkpt><trkpt lat="45.66575685802439" lon="9.932807516894037"><ele>229.0</ele><time>2026-04-11T10:15:10Z</time></trkpt><trkpt lat="45.66570367601691" lon="9.932730948396571"><ele>228.99999999999997</ele><time>2026-04-11T10:15:12Z</time></trkpt><trkpt lat="45.66565678575" lon="9.932648457495201"><ele>229.0</ele><time>2026-04-11T10:15:14Z</time></trkpt><trkpt lat="45.665609856193186" lon="9.932571025446677"><ele>229.0</ele><time>2026-04-11T10:15:16Z</time></trkpt><trkpt lat="45.66555714731277" lon="9.932488479890463"><ele>229.0</ele><time>2026-04-11T10:15:18Z</time></trkpt><trkpt lat="45.66549754897414" lon="9.932399720882227"><ele>228.99999999999997</ele><time>2026-04-11T10:15:20Z</time></trkpt><trkpt lat="45.665459590751844" lon="9.932307573404083"><ele>229.0</ele><time>2026-04-11T10:15:22Z</time></trkpt><trkpt lat="45.66542868873462" lon="9.932205089093978"><ele>229.0</ele><time>2026-04-11T10:15:24Z</time></trkpt><trkpt lat="45.665364480378386" lon="9.932090701234976"><ele>228.99999999999997</ele><time>2026-04-11T10:15:26Z</time></trkpt><trkpt lat="45.66529584532206" lon="9.931964291638565"><ele>228.99999999999997</ele><time>2026-04-11T10:15:28Z</time></trkpt><trkpt lat="45.665224031296134" lon="9.931833552718528"><ele>229.0</ele><time>2026-04-11T10:15:30Z</time></trkpt><trkpt lat="45.66517884697647" lon="9.931769650841575"><ele>229.0</ele><time>2026-04-11T10:15:31Z</time></trkpt><trkpt lat="45.665119655849146" lon="9.931619406413848"><ele>229.16666666666666</ele><time>2026-04-11T10:15:33Z</time></trkpt><trkpt lat="45.66510580934606" lon="9.931446817723657"><ele>229.33333333333331</ele><time>2026-04-11T10:15:35Z</time></trkpt><trkpt lat="45.6651059038201" lon="9.931355016774047"><ele>229.5</ele><time>2026-04-11T10:15:36Z</time></trkpt><trkpt lat="45.665090809747475" lon="9.931184139668838"><ele>229.66666666666669</ele><time>2026-04-11T10:15:38Z</time></trkpt><trkpt lat="45.665054940870746" lon="9.931104746158354"><ele>229.83333333333334</ele><time>2026-04-11T10:15:39Z</time></trkpt><trkpt lat="45.66500006023224" lon="9.931044023963933"><ele>230.0</ele><time>2026-04-11T10:15:40Z</time></trkpt><trkpt lat="45.66493373344498" lon="9.931017997994084"><ele>229.99999999999997</ele><time>2026-04-11T10:15:41Z</time></trkpt><trkpt lat="45.66487009443754" lon="9.93102581888285"><ele>230.0</ele><time>2026-04-11T10:15:42Z</time></trkpt><trkpt lat="45.66480723863566" lon="9.931038729431862"><ele>229.99999999999997</ele><time>2026-04-11T10:15:43Z</time></trkpt><trkpt lat="45.66469331082443" lon="9.931085967248643"><ele>229.99999999999997</ele><time>2026-04-11T10:15:45Z</time></trkpt><trkpt lat="45.66462781015549" lon="9.931084005309028"><ele>230.0</ele><time>2026-04-11T10:15:46Z</time></trkpt><trkpt lat="45.66456597558488" lon="9.931057280375295"><ele>229.99999999999997</ele><time>2026-04-11T10:15:47Z</time></trkpt><trkpt lat="45.66450482847584" lon="9.931025708713396"><ele>229.99999999999997</ele><time>2026-04-11T10:15:48Z</time></trkpt><trkpt lat="45.66444570534478" lon="9.930991787750273"><ele>229.99999999999997</ele><time>2026-04-11T10:15:49Z</time></trkpt><trkpt lat="45.664382144138045" lon="9.930963337223856"><ele>230.0</ele><time>2026-04-11T10:15:50Z</time></trkpt><trkpt lat="45.664319028604645" lon="9.93094956054104"><ele>229.99999999999997</ele><time>2026-04-11T10:15:51Z</time></trkpt><trkpt lat="45.66425475743621" lon="9.930925980468663"><ele>229.99999999999997</ele><time>2026-04-11T10:15:52Z</time></trkpt><trkpt lat="45.66419199342844" lon="9.930908521258711"><ele>230.0</ele><time>2026-04-11T10:15:53Z</time></trkpt><trkpt lat="45.66412934593972" lon="9.930883925347137"><ele>229.99999999999997</ele><time>2026-04-11T10:15:54Z</time></trkpt><trkpt lat="45.6640647417346" lon="9.930862775538026"><ele>229.99999999999997</ele><time>2026-04-11T10:15:55Z</time></trkpt><trkpt lat="45.664000514589304" lon="9.930840808149517"><ele>230.00000000000003</ele><time>2026-04-11T10:15:56Z</time></trkpt><trkpt lat="45.663937558398366" lon="9.930819530044941"><ele>230.0</ele><time>2026-04-11T10:15:57Z</time></trkpt><trkpt lat="45.663876120300145" lon="9.93079339891256"><ele>230.0</ele><time>2026-04-11T10:15:58Z</time></trkpt><trkpt lat="45.66375540993081" lon="9.930737105503491"><ele>230.0</ele><time>2026-04-11T10:16:00Z</time></trkpt><trkpt lat="45.66369175043545" lon="9.930710829885275"><ele>230.00000000000003</ele><time>2026-04-11T10:16:01Z</time></trkpt><trkpt lat="45.66357714220226" lon="9.93063515480548"><ele>230.0</ele><time>2026-04-11T10:16:03Z</time></trkpt><trkpt lat="45.66346676083747" lon="9.930546429503595"><ele>232.2</ele><time>2026-04-11T10:16:05Z</time></trkpt><trkpt lat="45.66341295588753" lon="9.930494965889268"><ele>234.4</ele><time>2026-04-11T10:16:06Z</time></trkpt><trkpt lat="45.66330730719005" lon="9.930394815065934"><ele>236.60000000000002</ele><time>2026-04-11T10:16:08Z</time></trkpt><trkpt lat="45.66319843304329" lon="9.930305521753409"><ele>238.8</ele><time>2026-04-11T10:16:10Z</time></trkpt><trkpt lat="45.663145423547476" lon="9.930244239004415"><ele>241.0</ele><time>2026-04-11T10:16:11Z</time></trkpt><trkpt lat="45.66303721674511" lon="9.93014307863562"><ele>240.0</ele><time>2026-04-11T10:16:13Z</time></trkpt><trkpt lat="45.66293701283177" lon="9.930036349094765"><ele>239.00000000000003</ele><time>2026-04-11T10:16:15Z</time></trkpt><trkpt lat="45.66287391457299" lon="9.929989014046862"><ele>238.00000000000003</ele><time>2026-04-11T10:16:16Z</time></trkpt><trkpt lat="45.66277256986749" lon="9.929885267506924"><ele>237.0</ele><time>2026-04-11T10:16:18Z</time></trkpt><trkpt lat="45.66271497884315" lon="9.929834332354364"><ele>236.0</ele><time>2026-04-11T10:16:19Z</time></trkpt><trkpt lat="45.662612211895365" lon="9.929736853995301"><ele>236.00000000000003</ele><time>2026-04-11T10:16:21Z</time></trkpt><trkpt lat="45.662562082034576" lon="9.929678458928933"><ele>236.0</ele><time>2026-04-11T10:16:22Z</time></trkpt><trkpt lat="45.66245229362817" lon="9.929577930898194"><ele>236.0</ele><time>2026-04-11T10:16:24Z</time></trkpt><trkpt lat="45.66240535624269" lon="9.929517487846958"><ele>236.0</ele><time>2026-04-11T10:16:25Z</time></trkpt><trkpt lat="45.6623538170921" lon="9.929459621860893"><ele>236.00000000000003</ele><time>2026-04-11T10:16:26Z</time></trkpt><trkpt lat="45.66230407451548" lon="9.929395911387246"><ele>236.0</ele><time>2026-04-11T10:16:27Z</time></trkpt><trkpt lat="45.66221017336626" lon="9.929270815987515"><ele>234.0</ele><time>2026-04-11T10:16:29Z</time></trkpt><trkpt lat="45.662134200985236" lon="9.929149462965917"><ele>232.00000000000003</ele><time>2026-04-11T10:16:31Z</time></trkpt><trkpt lat="45.66204805820687" lon="9.929013655919519"><ele>230.00000000000003</ele><time>2026-04-11T10:16:33Z</time></trkpt><trkpt lat="45.661974278155775" lon="9.928902864060259"><ele>228.0</ele><time>2026-04-11T10:16:35Z</time></trkpt><trkpt lat="45.66194635989765" lon="9.928818326343194"><ele>226.0</ele><time>2026-04-11T10:16:36Z</time></trkpt><trkpt lat="45.66189802567859" lon="9.92864229845637"><ele>226.0</ele><time>2026-04-11T10:16:38Z</time></trkpt><trkpt lat="45.661787877229294" lon="9.928577237931764"><ele>226.0</ele><time>2026-04-11T10:16:40Z</time></trkpt><trkpt lat="45.661724202212326" lon="9.928540948399311"><ele>226.0</ele><time>2026-04-11T10:16:41Z</time></trkpt><trkpt lat="45.66166230894059" lon="9.928521851156734"><ele>226.0</ele><time>2026-04-11T10:16:42Z</time></trkpt><trkpt lat="45.66160204199663" lon="9.92848716860435"><ele>226.0</ele><time>2026-04-11T10:16:43Z</time></trkpt><trkpt lat="45.661540011331" lon="9.928456467713152"><ele>226.0</ele><time>2026-04-11T10:16:44Z</time></trkpt><trkpt lat="45.66148131447015" lon="9.928415691512177"><ele>226.0</ele><time>2026-04-11T10:16:45Z</time></trkpt><trkpt lat="45.6613646801578" lon="9.928353979370364"><ele>225.75</ele><time>2026-04-11T10:16:47Z</time></trkpt><trkpt lat="45.66125119908868" lon="9.9282918097362"><ele>225.5</ele><time>2026-04-11T10:16:49Z</time></trkpt><trkpt lat="45.6611404994339" lon="9.928232311132817"><ele>225.25</ele><time>2026-04-11T10:16:51Z</time></trkpt><trkpt lat="45.661033831721895" lon="9.928170302081499"><ele>225.0</ele><time>2026-04-11T10:16:53Z</time></trkpt><trkpt lat="45.66093532901947" lon="9.928102090304098"><ele>224.8</ele><time>2026-04-11T10:16:55Z</time></trkpt><trkpt lat="45.66082744924408" lon="9.928027072881877"><ele>224.6</ele><time>2026-04-11T10:16:57Z</time></trkpt><trkpt lat="45.660764124168224" lon="9.92798777138129"><ele>224.39999999999998</ele><time>2026-04-11T10:16:58Z</time></trkpt><trkpt lat="45.660705073113625" lon="9.927935858642675"><ele>224.2</ele><time>2026-04-11T10:16:59Z</time></trkpt><trkpt lat="45.660590466966944" lon="9.92785261465446"><ele>224.0</ele><time>2026-04-11T10:17:01Z</time></trkpt><trkpt lat="45.660536275074136" lon="9.927800743211511"><ele>224.0</ele><time>2026-04-11T10:17:02Z</time></trkpt><trkpt lat="45.66047946711183" lon="9.927754032562278"><ele>224.0</ele><time>2026-04-11T10:17:03Z</time></trkpt><trkpt lat="45.66042571240251" lon="9.927702784584742"><ele>224.0</ele><time>2026-04-11T10:17:04Z</time></trkpt><trkpt lat="45.660371599539666" lon="9.927649285391277"><ele>224.0</ele><time>2026-04-11T10:17:05Z</time></trkpt><trkpt lat="45.66031810633213" lon="9.927594901833245"><ele>224.0</ele><time>2026-04-11T10:17:06Z</time></trkpt><trkpt lat="45.66026030973054" lon="9.927546538619733"><ele>224.0</ele><time>2026-04-11T10:17:07Z</time></trkpt><trkpt lat="45.6602084565325" lon="9.927487584262382"><ele>224.0</ele><time>2026-04-11T10:17:08Z</time></trkpt><trkpt lat="45.66014386258267" lon="9.92741781490914"><ele>223.28571428571428</ele><time>2026-04-11T10:17:09Z</time></trkpt><trkpt lat="45.66008901421102" lon="9.927364691953604"><ele>222.57142857142856</ele><time>2026-04-11T10:17:10Z</time></trkpt><trkpt lat="45.660029738539905" lon="9.927295379019924"><ele>221.85714285714286</ele><time>2026-04-11T10:17:11Z</time></trkpt><trkpt lat="45.65998531113489" lon="9.927212803260597"><ele>221.14285714285714</ele><time>2026-04-11T10:17:12Z</time></trkpt><trkpt lat="45.65992864612625" lon="9.927137648427227"><ele>220.42857142857142</ele><time>2026-04-11T10:17:13Z</time></trkpt><trkpt lat="45.65988785976344" lon="9.927045160643422"><ele>219.71428571428572</ele><time>2026-04-11T10:17:14Z</time></trkpt><trkpt lat="45.65986075569157" lon="9.926946463321805"><ele>219.0</ele><time>2026-04-11T10:17:15Z</time></trkpt><trkpt lat="45.659824259193954" lon="9.926848162509042"><ele>219.0</ele><time>2026-04-11T10:17:16Z</time></trkpt><trkpt lat="45.65978653404017" lon="9.926757282159233"><ele>219.0</ele><time>2026-04-11T10:17:17Z</time></trkpt><trkpt lat="45.65974460746455" lon="9.926667286990542"><ele>219.0</ele><time>2026-04-11T10:17:18Z</time></trkpt><trkpt lat="45.65969669323708" lon="9.926583216435294"><ele>219.0</ele><time>2026-04-11T10:17:19Z</time></trkpt><trkpt lat="45.659643010789424" lon="9.926508991929772"><ele>219.0</ele><time>2026-04-11T10:17:20Z</time></trkpt><trkpt lat="45.65958586699017" lon="9.926441489469676"><ele>219.0</ele><time>2026-04-11T10:17:21Z</time></trkpt><trkpt lat="45.65952782035144" lon="9.926383038392926"><ele>219.0</ele><time>2026-04-11T10:17:22Z</time></trkpt><trkpt lat="45.659468047688215" lon="9.926332567567552"><ele>218.66666666666666</ele><time>2026-04-11T10:17:23Z</time></trkpt><trkpt lat="45.659411703925485" lon="9.926282394068368"><ele>218.33333333333331</ele><time>2026-04-11T10:17:24Z</time></trkpt><trkpt lat="45.65935203311929" lon="9.926233327607436"><ele>218.0</ele><time>2026-04-11T10:17:25Z</time></trkpt><trkpt lat="45.65929974377605" lon="9.926182969772558"><ele>217.66666666666666</ele><time>2026-04-11T10:17:26Z</time></trkpt><trkpt lat="45.659241485060356" lon="9.926134111439968"><ele>217.33333333333331</ele><time>2026-04-11T10:17:27Z</time></trkpt><trkpt lat="45.659134419685664" lon="9.926043377666112"><ele>217.0</ele><time>2026-04-11T10:17:29Z</time></trkpt><trkpt lat="45.65902986101127" lon="9.925944734683638"><ele>217.2</ele><time>2026-04-11T10:17:31Z</time></trkpt><trkpt lat="45.65892386232571" lon="9.92584974047484"><ele>217.39999999999998</ele><time>2026-04-11T10:17:33Z</time></trkpt><trkpt lat="45.658819911784626" lon="9.925759038891153"><ele>217.60000000000002</ele><time>2026-04-11T10:17:35Z</time></trkpt><trkpt lat="45.65871913065797" lon="9.925666892693"><ele>217.8</ele><time>2026-04-11T10:17:37Z</time></trkpt><trkpt lat="45.658660136815556" lon="9.925621547254673"><ele>218.0</ele><time>2026-04-11T10:17:38Z</time></trkpt><trkpt lat="45.658554050724995" lon="9.925524143588227"><ele>218.0</ele><time>2026-04-11T10:17:40Z</time></trkpt><trkpt lat="45.65849767672777" lon="9.925476971632358"><ele>218.0</ele><time>2026-04-11T10:17:41Z</time></trkpt><trkpt lat="45.658397001638086" lon="9.925393853774167"><ele>218.0</ele><time>2026-04-11T10:17:43Z</time></trkpt><trkpt lat="45.65829865671326" lon="9.925301081650542"><ele>218.0</ele><time>2026-04-11T10:17:45Z</time></trkpt><trkpt lat="45.65824344472837" lon="9.925250926689266"><ele>218.0</ele><time>2026-04-11T10:17:46Z</time></trkpt><trkpt lat="45.65814043387426" lon="9.925162891311464"><ele>218.0</ele><time>2026-04-11T10:17:48Z</time></trkpt><trkpt lat="45.65803872465847" lon="9.92507304075556"><ele>218.0</ele><time>2026-04-11T10:17:50Z</time></trkpt><trkpt lat="45.65793316531149" lon="9.924977911229517"><ele>218.0</ele><time>2026-04-11T10:17:52Z</time></trkpt><trkpt lat="45.65782601999416" lon="9.924889406960018"><ele>218.0</ele><time>2026-04-11T10:17:54Z</time></trkpt><trkpt lat="45.657724933983836" lon="9.924790359443804"><ele>219.0</ele><time>2026-04-11T10:17:56Z</time></trkpt><trkpt lat="45.65762479108424" lon="9.92468663678682"><ele>220.0</ele><time>2026-04-11T10:17:58Z</time></trkpt><trkpt lat="45.65752691553323" lon="9.924576813163814"><ele>221.0</ele><time>2026-04-11T10:18:00Z</time></trkpt><trkpt lat="45.65743309284112" lon="9.924462573962172"><ele>222.0</ele><time>2026-04-11T10:18:02Z</time></trkpt><trkpt lat="45.657342502523974" lon="9.924346014942385"><ele>225.0</ele><time>2026-04-11T10:18:04Z</time></trkpt><trkpt lat="45.65725083930026" lon="9.924226074738245"><ele>228.0</ele><time>2026-04-11T10:18:06Z</time></trkpt><trkpt lat="45.657164832203456" lon="9.924096444890104"><ele>231.0</ele><time>2026-04-11T10:18:08Z</time></trkpt><trkpt lat="45.65707378094875" lon="9.923971047538677"><ele>234.0</ele><time>2026-04-11T10:18:10Z</time></trkpt><trkpt lat="45.65698921543838" lon="9.923846909183588"><ele>233.2</ele><time>2026-04-11T10:18:12Z</time></trkpt><trkpt lat="45.65694385017762" lon="9.92378431235094"><ele>232.39999999999998</ele><time>2026-04-11T10:18:13Z</time></trkpt><trkpt lat="45.656857352341326" lon="9.923654100041382"><ele>231.6</ele><time>2026-04-11T10:18:15Z</time></trkpt><trkpt lat="45.656790175060635" lon="9.923519735324572"><ele>230.8</ele><time>2026-04-11T10:18:17Z</time></trkpt><trkpt lat="45.656714089677926" lon="9.9233884364543"><ele>230.0</ele><time>2026-04-11T10:18:19Z</time></trkpt><trkpt lat="45.656647084953754" lon="9.92324434252256"><ele>230.00000000000003</ele><time>2026-04-11T10:18:21Z</time></trkpt><trkpt lat="45.656638710241815" lon="9.923073221561513"><ele>230.0</ele><time>2026-04-11T10:18:23Z</time></trkpt><trkpt lat="45.65661543591839" lon="9.922988114807199"><ele>230.0</ele><time>2026-04-11T10:18:24Z</time></trkpt><trkpt lat="45.656577630371736" lon="9.92291594991408"><ele>230.0</ele><time>2026-04-11T10:18:25Z</time></trkpt><trkpt lat="45.656524433659456" lon="9.922865549314212"><ele>230.00000000000003</ele><time>2026-04-11T10:18:26Z</time></trkpt><trkpt lat="45.65646337053683" lon="9.92284150364658"><ele>230.0</ele><time>2026-04-11T10:18:27Z</time></trkpt><trkpt lat="45.65634404139564" lon="9.922803553640511"><ele>230.0</ele><time>2026-04-11T10:18:29Z</time></trkpt><trkpt lat="45.65623777689033" lon="9.922713080484106"><ele>230.0</ele><time>2026-04-11T10:18:31Z</time></trkpt><trkpt lat="45.65615812590769" lon="9.922584118365831"><ele>230.0</ele><time>2026-04-11T10:18:33Z</time></trkpt><trkpt lat="45.65607693242626" lon="9.922452887011133"><ele>230.0</ele><time>2026-04-11T10:18:35Z</time></trkpt><trkpt lat="45.656003091900494" lon="9.922318615446851"><ele>228.5</ele><time>2026-04-11T10:18:37Z</time></trkpt><trkpt lat="45.655934647300796" lon="9.922184118015537"><ele>227.0</ele><time>2026-04-11T10:18:39Z</time></trkpt><trkpt lat="45.655865292585496" lon="9.922046889119757"><ele>225.5</ele><time>2026-04-11T10:18:41Z</time></trkpt><trkpt lat="45.65579282457972" lon="9.92191293863726"><ele>224.0</ele><time>2026-04-11T10:18:43Z</time></trkpt><trkpt lat="45.65572663700414" lon="9.921769228671673"><ele>228.0</ele><time>2026-04-11T10:18:45Z</time></trkpt><trkpt lat="45.65565488396345" lon="9.921631225324594"><ele>232.0</ele><time>2026-04-11T10:18:47Z</time></trkpt><trkpt lat="45.655575869139454" lon="9.921500301810989"><ele>236.0</ele><time>2026-04-11T10:18:49Z</time></trkpt><trkpt lat="45.65550314541663" lon="9.921371268856774"><ele>240.0</ele><time>2026-04-11T10:18:51Z</time></trkpt><trkpt lat="45.65542706671877" lon="9.921242171581964"><ele>240.0</ele><time>2026-04-11T10:18:53Z</time></trkpt><trkpt lat="45.65535339077832" lon="9.921111723397111"><ele>240.0</ele><time>2026-04-11T10:18:55Z</time></trkpt><trkpt lat="45.65527813460739" lon="9.920986822423695"><ele>240.0</ele><time>2026-04-11T10:18:57Z</time></trkpt><trkpt lat="45.65520032870454" lon="9.920856065190282"><ele>240.0</ele><time>2026-04-11T10:18:59Z</time></trkpt><trkpt lat="45.65512215986924" lon="9.920725042218288"><ele>237.8</ele><time>2026-04-11T10:19:01Z</time></trkpt><trkpt lat="45.65504906604968" lon="9.920595894091436"><ele>235.6</ele><time>2026-04-11T10:19:03Z</time></trkpt><trkpt lat="45.65496989359827" lon="9.920466312676568"><ele>233.39999999999998</ele><time>2026-04-11T10:19:05Z</time></trkpt><trkpt lat="45.65489974369949" lon="9.920343192443466"><ele>231.2</ele><time>2026-04-11T10:19:07Z</time></trkpt><trkpt lat="45.65485161385493" lon="9.920281000910421"><ele>229.0</ele><time>2026-04-11T10:19:08Z</time></trkpt><trkpt lat="45.65476611479742" lon="9.92017339559438"><ele>229.0</ele><time>2026-04-11T10:19:10Z</time></trkpt><trkpt lat="45.65467595923417" lon="9.920070208427484"><ele>229.0</ele><time>2026-04-11T10:19:12Z</time></trkpt><trkpt lat="45.65458056359941" lon="9.919971452934826"><ele>229.0</ele><time>2026-04-11T10:19:14Z</time></trkpt><trkpt lat="45.65448302918916" lon="9.919874141429103"><ele>229.0</ele><time>2026-04-11T10:19:16Z</time></trkpt><trkpt lat="45.6544008896333" lon="9.919765347344256"><ele>230.2</ele><time>2026-04-11T10:19:18Z</time></trkpt><trkpt lat="45.654314926504554" lon="9.919653866084932"><ele>231.39999999999998</ele><time>2026-04-11T10:19:20Z</time></trkpt><trkpt lat="45.654237483955335" lon="9.91953366093848"><ele>232.6</ele><time>2026-04-11T10:19:22Z</time></trkpt><trkpt lat="45.654175737547796" lon="9.919400961618079"><ele>233.8</ele><time>2026-04-11T10:19:24Z</time></trkpt><trkpt lat="45.654125839756176" lon="9.919344129231852"><ele>235.0</ele><time>2026-04-11T10:19:25Z</time></trkpt><trkpt lat="45.6540523307108" lon="9.919216502451"><ele>237.75</ele><time>2026-04-11T10:19:27Z</time></trkpt><trkpt lat="45.653984413412154" lon="9.919080635929422"><ele>240.5</ele><time>2026-04-11T10:19:29Z</time></trkpt><trkpt lat="45.65393382081253" lon="9.918933786342679"><ele>243.25</ele><time>2026-04-11T10:19:31Z</time></trkpt><trkpt lat="45.653892662407024" lon="9.918778027273724"><ele>246.0</ele><time>2026-04-11T10:19:33Z</time></trkpt><trkpt lat="45.65386871809569" lon="9.918617048961755"><ele>246.0</ele><time>2026-04-11T10:19:35Z</time></trkpt><trkpt lat="45.65385907915663" lon="9.91845544295257"><ele>246.0</ele><time>2026-04-11T10:19:37Z</time></trkpt><trkpt lat="45.6538501299137" lon="9.918291431776048"><ele>246.0</ele><time>2026-04-11T10:19:39Z</time></trkpt><trkpt lat="45.6538408092714" lon="9.918117682862883"><ele>246.0</ele><time>2026-04-11T10:19:41Z</time></trkpt><trkpt lat="45.653841388780044" lon="9.91794791014629"><ele>248.0</ele><time>2026-04-11T10:19:43Z</time></trkpt><trkpt lat="45.65383111677954" lon="9.917772204870019"><ele>250.0</ele><time>2026-04-11T10:19:45Z</time></trkpt><trkpt lat="45.653833335342526" lon="9.917613419069944"><ele>252.0</ele><time>2026-04-11T10:19:47Z</time></trkpt><trkpt lat="45.65383300347966" lon="9.917453233724132"><ele>254.0</ele><time>2026-04-11T10:19:49Z</time></trkpt><trkpt lat="45.653831638136474" lon="9.91727709575365"><ele>255.39999999999998</ele><time>2026-04-11T10:19:51Z</time></trkpt><trkpt lat="45.65382996230659" lon="9.917186130124753"><ele>256.79999999999995</ele><time>2026-04-11T10:19:52Z</time></trkpt><trkpt lat="45.65382059764244" lon="9.917011258601326"><ele>258.20000000000005</ele><time>2026-04-11T10:19:54Z</time></trkpt><trkpt lat="45.653812738079466" lon="9.91684443751727"><ele>259.6</ele><time>2026-04-11T10:19:56Z</time></trkpt><trkpt lat="45.653778812915945" lon="9.916671809170845"><ele>261.0</ele><time>2026-04-11T10:19:58Z</time></trkpt><trkpt lat="45.65372987917897" lon="9.916518331724872"><ele>261.0</ele><time>2026-04-11T10:20:00Z</time></trkpt><trkpt lat="45.6536612067723" lon="9.91638157958536"><ele>261.0</ele><time>2026-04-11T10:20:02Z</time></trkpt><trkpt lat="45.653574252031554" lon="9.916269413446694"><ele>261.0</ele><time>2026-04-11T10:20:04Z</time></trkpt><trkpt lat="45.65348588967856" lon="9.916159998115655"><ele>261.0</ele><time>2026-04-11T10:20:06Z</time></trkpt><trkpt lat="45.653432709693995" lon="9.916109832374792"><ele>261.0</ele><time>2026-04-11T10:20:07Z</time></trkpt><trkpt lat="45.653339991150716" lon="9.916003319488526"><ele>258.6</ele><time>2026-04-11T10:20:09Z</time></trkpt><trkpt lat="45.65325164524467" lon="9.915889701791729"><ele>256.20000000000005</ele><time>2026-04-11T10:20:11Z</time></trkpt><trkpt lat="45.6531730846069" lon="9.915767323412748"><ele>253.79999999999998</ele><time>2026-04-11T10:20:13Z</time></trkpt><trkpt lat="45.653129506615485" lon="9.915701804656942"><ele>251.39999999999998</ele><time>2026-04-11T10:20:14Z</time></trkpt><trkpt lat="45.65306731276922" lon="9.915560536974759"><ele>249.0</ele><time>2026-04-11T10:20:16Z</time></trkpt><trkpt lat="45.65299221928948" lon="9.915429773021712"><ele>249.0</ele><time>2026-04-11T10:20:18Z</time></trkpt><trkpt lat="45.652933192082" lon="9.91528467831038"><ele>249.0</ele><time>2026-04-11T10:20:20Z</time></trkpt><trkpt lat="45.6528708662538" lon="9.915145723488568"><ele>249.0</ele><time>2026-04-11T10:20:22Z</time></trkpt><trkpt lat="45.65281073975412" lon="9.914999818965073"><ele>249.0</ele><time>2026-04-11T10:20:24Z</time></trkpt><trkpt lat="45.652743884064655" lon="9.914857634756572"><ele>248.6</ele><time>2026-04-11T10:20:26Z</time></trkpt><trkpt lat="45.65267830796679" lon="9.914721330740024"><ele>248.2</ele><time>2026-04-11T10:20:28Z</time></trkpt><trkpt lat="45.65264997978295" lon="9.914640857676398"><ele>247.79999999999998</ele><time>2026-04-11T10:20:29Z</time></trkpt><trkpt lat="45.65258424274015" lon="9.91449919984806"><ele>247.39999999999998</ele><time>2026-04-11T10:20:31Z</time></trkpt><trkpt lat="45.65252193693791" lon="9.914348221924461"><ele>247.0</ele><time>2026-04-11T10:20:33Z</time></trkpt><trkpt lat="45.6524597626358" lon="9.914196146468807"><ele>248.75</ele><time>2026-04-11T10:20:35Z</time></trkpt><trkpt lat="45.652397234390065" lon="9.914043536418697"><ele>250.5</ele><time>2026-04-11T10:20:37Z</time></trkpt><trkpt lat="45.65233115659234" lon="9.913892743310438"><ele>252.25</ele><time>2026-04-11T10:20:39Z</time></trkpt><trkpt lat="45.652274542521134" lon="9.913735860713176"><ele>254.0</ele><time>2026-04-11T10:20:41Z</time></trkpt><trkpt lat="45.65221789219884" lon="9.913587887207358"><ele>254.00000000000003</ele><time>2026-04-11T10:20:43Z</time></trkpt><trkpt lat="45.65219050616795" lon="9.913496958931015"><ele>254.0</ele><time>2026-04-11T10:20:44Z</time></trkpt><trkpt lat="45.6521469480212" lon="9.913331138499542"><ele>254.0</ele><time>2026-04-11T10:20:46Z</time></trkpt><trkpt lat="45.65212107270726" lon="9.91324149827436"><ele>254.0</ele><time>2026-04-11T10:20:47Z</time></trkpt><trkpt lat="45.65210249828692" lon="9.913154363178734"><ele>254.00000000000003</ele><time>2026-04-11T10:20:48Z</time></trkpt><trkpt lat="45.652081491604115" lon="9.913063845446867"><ele>254.0</ele><time>2026-04-11T10:20:49Z</time></trkpt><trkpt lat="45.65205418416873" lon="9.912971994594294"><ele>253.2</ele><time>2026-04-11T10:20:50Z</time></trkpt><trkpt lat="45.65197246491215" lon="9.912827218772863"><ele>252.39999999999998</ele><time>2026-04-11T10:20:52Z</time></trkpt><trkpt lat="45.65192727738358" lon="9.912759768338148"><ele>251.6</ele><time>2026-04-11T10:20:53Z</time></trkpt><trkpt lat="45.65187302239564" lon="9.912713136870169"><ele>250.8</ele><time>2026-04-11T10:20:54Z</time></trkpt><trkpt lat="45.651776366912564" lon="9.912599410888642"><ele>250.0</ele><time>2026-04-11T10:20:56Z</time></trkpt><trkpt lat="45.651683445841414" lon="9.912496807117627"><ele>250.0</ele><time>2026-04-11T10:20:58Z</time></trkpt><trkpt lat="45.65160057326975" lon="9.912374114526672"><ele>250.0</ele><time>2026-04-11T10:21:00Z</time></trkpt><trkpt lat="45.65150239651062" lon="9.912261237501461"><ele>250.0</ele><time>2026-04-11T10:21:02Z</time></trkpt><trkpt lat="45.6514567501245" lon="9.912197160366826"><ele>250.0</ele><time>2026-04-11T10:21:03Z</time></trkpt><trkpt lat="45.65135834055572" lon="9.912086429232318"><ele>250.0</ele><time>2026-04-11T10:21:05Z</time></trkpt><trkpt lat="45.651268178484045" lon="9.911967602602065"><ele>249.99999999999997</ele><time>2026-04-11T10:21:07Z</time></trkpt><trkpt lat="45.65117756633005" lon="9.911849356745874"><ele>250.0</ele><time>2026-04-11T10:21:09Z</time></trkpt><trkpt lat="45.65112757191135" lon="9.911793251453945"><ele>250.0</ele><time>2026-04-11T10:21:10Z</time></trkpt><trkpt lat="45.65102464217742" lon="9.911693834412887"><ele>250.0</ele><time>2026-04-11T10:21:12Z</time></trkpt><trkpt lat="45.65096510774969" lon="9.911656814503573"><ele>249.99999999999997</ele><time>2026-04-11T10:21:13Z</time></trkpt><trkpt lat="45.65091026971305" lon="9.911605268278022"><ele>250.0</ele><time>2026-04-11T10:21:14Z</time></trkpt><trkpt lat="45.650806088495095" lon="9.911512161105724"><ele>249.8</ele><time>2026-04-11T10:21:16Z</time></trkpt><trkpt lat="45.65074670959195" lon="9.91147356713953"><ele>249.6</ele><time>2026-04-11T10:21:17Z</time></trkpt><trkpt lat="45.65064570846468" lon="9.911371814376093"><ele>249.39999999999998</ele><time>2026-04-11T10:21:19Z</time></trkpt><trkpt lat="45.650533094993" lon="9.91129378413941"><ele>249.2</ele><time>2026-04-11T10:21:21Z</time></trkpt><trkpt lat="45.650431458792895" lon="9.911201396310169"><ele>249.0</ele><time>2026-04-11T10:21:23Z</time></trkpt><trkpt lat="45.65032258028818" lon="9.911110337117783"><ele>248.2</ele><time>2026-04-11T10:21:25Z</time></trkpt><trkpt lat="45.6502142592141" lon="9.911010904243323"><ele>247.39999999999998</ele><time>2026-04-11T10:21:27Z</time></trkpt><trkpt lat="45.65010901185122" lon="9.910905036310908"><ele>246.6</ele><time>2026-04-11T10:21:29Z</time></trkpt><trkpt lat="45.650020231929545" lon="9.910784894536844"><ele>245.8</ele><time>2026-04-11T10:21:31Z</time></trkpt><trkpt lat="45.649977721645605" lon="9.910707551762977"><ele>245.0</ele><time>2026-04-11T10:21:32Z</time></trkpt><trkpt lat="45.64993749693239" lon="9.910632583372546"><ele>245.0</ele><time>2026-04-11T10:21:33Z</time></trkpt><trkpt lat="45.64986864594735" lon="9.910471636160842"><ele>245.0</ele><time>2026-04-11T10:21:35Z</time></trkpt><trkpt lat="45.64984006387802" lon="9.910373906962448"><ele>245.0</ele><time>2026-04-11T10:21:36Z</time></trkpt><trkpt lat="45.649847008682485" lon="9.910189824348747"><ele>245.0</ele><time>2026-04-11T10:21:38Z</time></trkpt><trkpt lat="45.6498540689722" lon="9.910023910102698"><ele>246.0</ele><time>2026-04-11T10:21:40Z</time></trkpt><trkpt lat="45.649870373447285" lon="9.90993175451802"><ele>247.0</ele><time>2026-04-11T10:21:41Z</time></trkpt><trkpt lat="45.64987117479398" lon="9.909768035306977"><ele>248.0</ele><time>2026-04-11T10:21:43Z</time></trkpt><trkpt lat="45.64985473616109" lon="9.909599637272278"><ele>249.0</ele><time>2026-04-11T10:21:45Z</time></trkpt><trkpt lat="45.64982641589808" lon="9.909511896547107"><ele>250.0</ele><time>2026-04-11T10:21:46Z</time></trkpt><trkpt lat="45.64975477732137" lon="9.909362736232904"><ele>249.99999999999997</ele><time>2026-04-11T10:21:48Z</time></trkpt><trkpt lat="45.64970923882367" lon="9.909300037769775"><ele>250.0</ele><time>2026-04-11T10:21:49Z</time></trkpt><trkpt lat="45.649605879919406" lon="9.909198874735255"><ele>250.0</ele><time>2026-04-11T10:21:51Z</time></trkpt><trkpt lat="45.64954169536733" lon="9.909183276371422"><ele>250.0</ele><time>2026-04-11T10:21:52Z</time></trkpt><trkpt lat="45.64947460578386" lon="9.909153151235461"><ele>249.99999999999997</ele><time>2026-04-11T10:21:53Z</time></trkpt><trkpt lat="45.64934963216226" lon="9.909143818757396"><ele>250.0</ele><time>2026-04-11T10:21:55Z</time></trkpt><trkpt lat="45.649284305417844" lon="9.90914241856101"><ele>248.66666666666666</ele><time>2026-04-11T10:21:56Z</time></trkpt><trkpt lat="45.6492159090024" lon="9.909148851688762"><ele>247.33333333333331</ele><time>2026-04-11T10:21:57Z</time></trkpt><trkpt lat="45.64915071690114" lon="9.909165241645114"><ele>246.0</ele><time>2026-04-11T10:21:58Z</time></trkpt><trkpt lat="45.6490867447617" lon="9.909179572590336"><ele>244.66666666666669</ele><time>2026-04-11T10:21:59Z</time></trkpt><trkpt lat="45.64901938811559" lon="9.909197554285644"><ele>243.33333333333334</ele><time>2026-04-11T10:22:00Z</time></trkpt><trkpt lat="45.64889354695114" lon="9.909226601712644"><ele>242.0</ele><time>2026-04-11T10:22:02Z</time></trkpt><trkpt lat="45.648771544615286" lon="9.909251985186723"><ele>241.83333333333334</ele><time>2026-04-11T10:22:04Z</time></trkpt><trkpt lat="45.64870940090186" lon="9.909271344933966"><ele>241.66666666666669</ele><time>2026-04-11T10:22:05Z</time></trkpt><trkpt lat="45.64864741139424" lon="9.909288982692598"><ele>241.5</ele><time>2026-04-11T10:22:06Z</time></trkpt><trkpt lat="45.64852213666305" lon="9.909312547945808"><ele>241.33333333333331</ele><time>2026-04-11T10:22:08Z</time></trkpt><trkpt lat="45.64845588116374" lon="9.90932669608024"><ele>241.16666666666666</ele><time>2026-04-11T10:22:09Z</time></trkpt><trkpt lat="45.648391917072345" lon="9.909340929519544"><ele>241.0</ele><time>2026-04-11T10:22:10Z</time></trkpt><trkpt lat="45.64832783109314" lon="9.90935446748637"><ele>240.71428571428572</ele><time>2026-04-11T10:22:11Z</time></trkpt><trkpt lat="45.648258144955776" lon="9.909372739275884"><ele>240.42857142857144</ele><time>2026-04-11T10:22:12Z</time></trkpt><trkpt lat="45.648194210863515" lon="9.909390723377916"><ele>240.14285714285717</ele><time>2026-04-11T10:22:13Z</time></trkpt><trkpt lat="45.64812690651409" lon="9.909404102552632"><ele>239.8571428571429</ele><time>2026-04-11T10:22:14Z</time></trkpt><trkpt lat="45.64806206507987" lon="9.909426886832987"><ele>239.57142857142858</ele><time>2026-04-11T10:22:15Z</time></trkpt><trkpt lat="45.64799595502649" lon="9.909436704955672"><ele>239.28571428571433</ele><time>2026-04-11T10:22:16Z</time></trkpt><trkpt lat="45.647931739089685" lon="9.909451588838921"><ele>239.00000000000003</ele><time>2026-04-11T10:22:17Z</time></trkpt><trkpt lat="45.64786381048756" lon="9.909459741273643"><ele>239.0</ele><time>2026-04-11T10:22:18Z</time></trkpt><trkpt lat="45.64780072980714" lon="9.909478853020046"><ele>238.99999999999997</ele><time>2026-04-11T10:22:19Z</time></trkpt><trkpt lat="45.64767344201329" lon="9.909509892245055"><ele>238.99999999999997</ele><time>2026-04-11T10:22:21Z</time></trkpt><trkpt lat="45.64755124717161" lon="9.909546279022111"><ele>239.0</ele><time>2026-04-11T10:22:23Z</time></trkpt><trkpt lat="45.64748764744473" lon="9.90955879727053"><ele>239.0</ele><time>2026-04-11T10:22:24Z</time></trkpt><trkpt lat="45.647365407753036" lon="9.909578049228719"><ele>238.39999999999998</ele><time>2026-04-11T10:22:26Z</time></trkpt><trkpt lat="45.647298376656934" lon="9.909592592625199"><ele>237.79999999999998</ele><time>2026-04-11T10:22:27Z</time></trkpt><trkpt lat="45.647179847907225" lon="9.909611637675063"><ele>237.20000000000002</ele><time>2026-04-11T10:22:29Z</time></trkpt><trkpt lat="45.64706110104425" lon="9.909636874988191"><ele>236.60000000000002</ele><time>2026-04-11T10:22:31Z</time></trkpt><trkpt lat="45.64699593538957" lon="9.909651985989024"><ele>236.0</ele><time>2026-04-11T10:22:32Z</time></trkpt><trkpt lat="45.6468710933844" lon="9.909673874321903"><ele>236.0</ele><time>2026-04-11T10:22:34Z</time></trkpt><trkpt lat="45.64675168227418" lon="9.909648799920106"><ele>236.00000000000003</ele><time>2026-04-11T10:22:36Z</time></trkpt><trkpt lat="45.646684101723466" lon="9.90965572104074"><ele>236.00000000000003</ele><time>2026-04-11T10:22:37Z</time></trkpt><trkpt lat="45.646562826705136" lon="9.90962749735384"><ele>236.0</ele><time>2026-04-11T10:22:39Z</time></trkpt><trkpt lat="45.646443168746785" lon="9.909590857275651"><ele>236.0</ele><time>2026-04-11T10:22:41Z</time></trkpt><trkpt lat="45.64631937017806" lon="9.909557583995188"><ele>236.0</ele><time>2026-04-11T10:22:43Z</time></trkpt><trkpt lat="45.64625401803615" lon="9.909539512315805"><ele>236.00000000000003</ele><time>2026-04-11T10:22:44Z</time></trkpt><trkpt lat="45.64618883402061" lon="9.909521011688286"><ele>236.00000000000003</ele><time>2026-04-11T10:22:45Z</time></trkpt><trkpt lat="45.64606526532165" lon="9.909480801895672"><ele>236.0</ele><time>2026-04-11T10:22:47Z</time></trkpt><trkpt lat="45.645999913740916" lon="9.909461827587268"><ele>236.0</ele><time>2026-04-11T10:22:48Z</time></trkpt><trkpt lat="45.64587175743672" lon="9.909428297058689"><ele>235.66666666666669</ele><time>2026-04-11T10:22:50Z</time></trkpt><trkpt lat="45.64580580094937" lon="9.909410895588215"><ele>235.33333333333334</ele><time>2026-04-11T10:22:51Z</time></trkpt><trkpt lat="45.64567774372331" lon="9.909370282744646"><ele>235.0</ele><time>2026-04-11T10:22:53Z</time></trkpt><trkpt lat="45.64561254185476" lon="9.9093562710773"><ele>234.66666666666669</ele><time>2026-04-11T10:22:54Z</time></trkpt><trkpt lat="45.64554987704207" lon="9.909336205354103"><ele>234.33333333333334</ele><time>2026-04-11T10:22:55Z</time></trkpt><trkpt lat="45.64548199210666" lon="9.909316558768099"><ele>234.0</ele><time>2026-04-11T10:22:56Z</time></trkpt><trkpt lat="45.64541576564861" lon="9.90930101877975"><ele>233.6</ele><time>2026-04-11T10:22:57Z</time></trkpt><trkpt lat="45.64528403667627" lon="9.909258506312135"><ele>233.2</ele><time>2026-04-11T10:22:59Z</time></trkpt><trkpt lat="45.645155880438075" lon="9.909222212602897"><ele>232.79999999999998</ele><time>2026-04-11T10:23:01Z</time></trkpt><trkpt lat="45.645088523840705" lon="9.909201995558725"><ele>232.39999999999998</ele><time>2026-04-11T10:23:02Z</time></trkpt><trkpt lat="45.64502187887724" lon="9.909181915447332"><ele>232.0</ele><time>2026-04-11T10:23:03Z</time></trkpt><trkpt lat="45.64495368673893" lon="9.909164343662582"><ele>232.00000000000003</ele><time>2026-04-11T10:23:04Z</time></trkpt><trkpt lat="45.644889763073245" lon="9.909145698547054"><ele>232.0</ele><time>2026-04-11T10:23:05Z</time></trkpt><trkpt lat="45.644822048408535" lon="9.909125349703398"><ele>232.00000000000003</ele><time>2026-04-11T10:23:06Z</time></trkpt><trkpt lat="45.64475346206111" lon="9.90910552652771"><ele>232.00000000000003</ele><time>2026-04-11T10:23:07Z</time></trkpt><trkpt lat="45.644687157098225" lon="9.909085171086673"><ele>232.0</ele><time>2026-04-11T10:23:08Z</time></trkpt><trkpt lat="45.644619092450554" lon="9.909065166841375"><ele>232.00000000000003</ele><time>2026-04-11T10:23:09Z</time></trkpt><trkpt lat="45.64455256855424" lon="9.90904624905116"><ele>232.00000000000003</ele><time>2026-04-11T10:23:10Z</time></trkpt><trkpt lat="45.64448368742871" lon="9.909028938420244"><ele>232.00000000000003</ele><time>2026-04-11T10:23:11Z</time></trkpt><trkpt lat="45.64441692986771" lon="9.909007724483937"><ele>232.0</ele><time>2026-04-11T10:23:12Z</time></trkpt><trkpt lat="45.64435019893462" lon="9.908988233908778"><ele>232.00000000000003</ele><time>2026-04-11T10:23:13Z</time></trkpt><trkpt lat="45.6442836995573" lon="9.908970452323942"><ele>232.00000000000003</ele><time>2026-04-11T10:23:14Z</time></trkpt><trkpt lat="45.644215523826496" lon="9.908949600511146"><ele>232.0</ele><time>2026-04-11T10:23:15Z</time></trkpt><trkpt lat="45.64414951817528" lon="9.908925978900278"><ele>232.00000000000003</ele><time>2026-04-11T10:23:16Z</time></trkpt><trkpt lat="45.64408189363672" lon="9.908905442667253"><ele>232.00000000000003</ele><time>2026-04-11T10:23:17Z</time></trkpt><trkpt lat="45.644012536751504" lon="9.908888074693373"><ele>232.00000000000003</ele><time>2026-04-11T10:23:18Z</time></trkpt><trkpt lat="45.643944475677245" lon="9.90886399539845"><ele>232.0</ele><time>2026-04-11T10:23:19Z</time></trkpt><trkpt lat="45.64387718283532" lon="9.908843626927421"><ele>232.00000000000003</ele><time>2026-04-11T10:23:20Z</time></trkpt><trkpt lat="45.643811038680944" lon="9.90882971659752"><ele>232.00000000000003</ele><time>2026-04-11T10:23:21Z</time></trkpt><trkpt lat="45.64374378172075" lon="9.9088028422735"><ele>232.0</ele><time>2026-04-11T10:23:22Z</time></trkpt><trkpt lat="45.64367747966741" lon="9.908786373918046"><ele>232.00000000000003</ele><time>2026-04-11T10:23:23Z</time></trkpt><trkpt lat="45.64360980845959" lon="9.908766484931105"><ele>232.00000000000003</ele><time>2026-04-11T10:23:24Z</time></trkpt><trkpt lat="45.643543118521244" lon="9.90874585514236"><ele>231.71428571428575</ele><time>2026-04-11T10:23:25Z</time></trkpt><trkpt lat="45.64347408105129" lon="9.908730762635736"><ele>231.42857142857144</ele><time>2026-04-11T10:23:26Z</time></trkpt><trkpt lat="45.643410619436274" lon="9.908706937355436"><ele>231.14285714285714</ele><time>2026-04-11T10:23:27Z</time></trkpt><trkpt lat="45.64334694377061" lon="9.908685042545779"><ele>230.85714285714286</ele><time>2026-04-11T10:23:28Z</time></trkpt><trkpt lat="45.643276416046476" lon="9.908673098852601"><ele>230.57142857142856</ele><time>2026-04-11T10:23:29Z</time></trkpt><trkpt lat="45.643212836964715" lon="9.908655830550172"><ele>230.28571428571425</ele><time>2026-04-11T10:23:30Z</time></trkpt><trkpt lat="45.64314716847158" lon="9.908640817048157"><ele>229.99999999999997</ele><time>2026-04-11T10:23:31Z</time></trkpt><trkpt lat="45.64307933312834" lon="9.908612743307149"><ele>230.00000000000003</ele><time>2026-04-11T10:23:32Z</time></trkpt><trkpt lat="45.64300957717106" lon="9.908594238515732"><ele>230.0</ele><time>2026-04-11T10:23:33Z</time></trkpt><trkpt lat="45.64289093080703" lon="9.908549585095445"><ele>230.0</ele><time>2026-04-11T10:23:35Z</time></trkpt><trkpt lat="45.64281720914546" lon="9.908543175212333"><ele>230.0</ele><time>2026-04-11T10:23:36Z</time></trkpt><trkpt lat="45.6427546669634" lon="9.908522403400617"><ele>230.00000000000003</ele><time>2026-04-11T10:23:37Z</time></trkpt><trkpt lat="45.64268963490586" lon="9.908507791219549"><ele>230.0</ele><time>2026-04-11T10:23:38Z</time></trkpt><trkpt lat="45.64262631637841" lon="9.908471112186376"><ele>229.83333333333334</ele><time>2026-04-11T10:23:39Z</time></trkpt><trkpt lat="45.6424994222591" lon="9.90842497659764"><ele>229.66666666666669</ele><time>2026-04-11T10:23:41Z</time></trkpt><trkpt lat="45.64243789891782" lon="9.908397998972754"><ele>229.5</ele><time>2026-04-11T10:23:42Z</time></trkpt><trkpt lat="45.64237584685425" lon="9.908374600172403"><ele>229.33333333333331</ele><time>2026-04-11T10:23:43Z</time></trkpt><trkpt lat="45.64231329598459" lon="9.908342958971586"><ele>229.16666666666666</ele><time>2026-04-11T10:23:44Z</time></trkpt><trkpt lat="45.64224669065612" lon="9.908321837669718"><ele>229.0</ele><time>2026-04-11T10:23:45Z</time></trkpt><trkpt lat="45.64213607056744" lon="9.908257801727672"><ele>229.0</ele><time>2026-04-11T10:23:47Z</time></trkpt><trkpt lat="45.642082354471135" lon="9.9082067228766"><ele>228.99999999999997</ele><time>2026-04-11T10:23:48Z</time></trkpt><trkpt lat="45.64202711844705" lon="9.90814975525173"><ele>228.99999999999997</ele><time>2026-04-11T10:23:49Z</time></trkpt><trkpt lat="45.64190274280973" lon="9.908091357338156"><ele>229.0</ele><time>2026-04-11T10:23:51Z</time></trkpt><trkpt lat="45.6418364446189" lon="9.908096382719599"><ele>229.0</ele><time>2026-04-11T10:23:52Z</time></trkpt><trkpt lat="45.64170677304027" lon="9.908077474876706"><ele>229.0</ele><time>2026-04-11T10:23:54Z</time></trkpt><trkpt lat="45.64164927799867" lon="9.908008941942523"><ele>229.0</ele><time>2026-04-11T10:23:55Z</time></trkpt><trkpt lat="45.64162083783413" lon="9.907904703921385"><ele>229.0</ele><time>2026-04-11T10:23:56Z</time></trkpt><trkpt lat="45.6416032867181" lon="9.907803097877816"><ele>229.0</ele><time>2026-04-11T10:23:57Z</time></trkpt><trkpt lat="45.64158065227368" lon="9.907709627825204"><ele>229.0</ele><time>2026-04-11T10:23:58Z</time></trkpt><trkpt lat="45.641555395058234" lon="9.907616969092972"><ele>229.0</ele><time>2026-04-11T10:23:59Z</time></trkpt><trkpt lat="45.641533944375865" lon="9.907526889684895"><ele>229.0</ele><time>2026-04-11T10:24:00Z</time></trkpt><trkpt lat="45.64151305595264" lon="9.907438716662764"><ele>228.85714285714283</ele><time>2026-04-11T10:24:01Z</time></trkpt><trkpt lat="45.6414931070964" lon="9.907349793716126"><ele>228.71428571428572</ele><time>2026-04-11T10:24:02Z</time></trkpt><trkpt lat="45.64147526677499" lon="9.907260780463858"><ele>228.57142857142856</ele><time>2026-04-11T10:24:03Z</time></trkpt><trkpt lat="45.64144946129188" lon="9.907176260022965"><ele>228.42857142857142</ele><time>2026-04-11T10:24:04Z</time></trkpt><trkpt lat="45.641429354069544" lon="9.907088201299008"><ele>228.28571428571428</ele><time>2026-04-11T10:24:05Z</time></trkpt><trkpt lat="45.6414079785315" lon="9.907003303100803"><ele>228.14285714285714</ele><time>2026-04-11T10:24:06Z</time></trkpt><trkpt lat="45.64138665008557" lon="9.906915876488846"><ele>228.0</ele><time>2026-04-11T10:24:07Z</time></trkpt><trkpt lat="45.64134740969022" lon="9.906743713646556"><ele>228.0</ele><time>2026-04-11T10:24:09Z</time></trkpt><trkpt lat="45.64130455581473" lon="9.906575818181274"><ele>228.0</ele><time>2026-04-11T10:24:11Z</time></trkpt><trkpt lat="45.64127176319335" lon="9.906410957457785"><ele>228.0</ele><time>2026-04-11T10:24:13Z</time></trkpt><trkpt lat="45.64123755030097" lon="9.906246515276298"><ele>228.0</ele><time>2026-04-11T10:24:15Z</time></trkpt><trkpt lat="45.64122034775313" lon="9.906158461432833"><ele>228.0</ele><time>2026-04-11T10:24:16Z</time></trkpt><trkpt lat="45.64118524578232" lon="9.905994707909677"><ele>228.0</ele><time>2026-04-11T10:24:18Z</time></trkpt><trkpt lat="45.64116556791991" lon="9.905904374589957"><ele>228.0</ele><time>2026-04-11T10:24:19Z</time></trkpt><trkpt lat="45.641127606215406" lon="9.905742745569588"><ele>228.0</ele><time>2026-04-11T10:24:21Z</time></trkpt><trkpt lat="45.64110010977107" lon="9.905582067235349"><ele>228.0</ele><time>2026-04-11T10:24:23Z</time></trkpt><trkpt lat="45.641064344748564" lon="9.905427290486534"><ele>228.0</ele><time>2026-04-11T10:24:25Z</time></trkpt><trkpt lat="45.64104740892469" lon="9.905336510391676"><ele>228.0</ele><time>2026-04-11T10:24:26Z</time></trkpt><trkpt lat="45.641033097286936" lon="9.90524820768864"><ele>228.0</ele><time>2026-04-11T10:24:27Z</time></trkpt><trkpt lat="45.6410215388642" lon="9.905152305548919"><ele>228.0</ele><time>2026-04-11T10:24:28Z</time></trkpt><trkpt lat="45.64103284969776" lon="9.905062442360254"><ele>228.0</ele><time>2026-04-11T10:24:29Z</time></trkpt><trkpt lat="45.641020032075055" lon="9.904890887089643"><ele>228.0</ele><time>2026-04-11T10:24:31Z</time></trkpt><trkpt lat="45.64098954063028" lon="9.904807342271921"><ele>228.0</ele><time>2026-04-11T10:24:32Z</time></trkpt><trkpt lat="45.64094261477862" lon="9.904637225649397"><ele>228.0</ele><time>2026-04-11T10:24:34Z</time></trkpt><trkpt lat="45.640883657638355" lon="9.904485102245296"><ele>228.0</ele><time>2026-04-11T10:24:36Z</time></trkpt><trkpt lat="45.64081868232731" lon="9.904339037702375"><ele>228.0</ele><time>2026-04-11T10:24:38Z</time></trkpt><trkpt lat="45.64079504603802" lon="9.90417309151399"><ele>228.0</ele><time>2026-04-11T10:24:40Z</time></trkpt><trkpt lat="45.640760674258125" lon="9.904006460237186"><ele>228.0</ele><time>2026-04-11T10:24:42Z</time></trkpt><trkpt lat="45.640704388692406" lon="9.903876557182489"><ele>228.0</ele><time>2026-04-11T10:24:44Z</time></trkpt><trkpt lat="45.64068322736493" lon="9.903773991628656"><ele>228.0</ele><time>2026-04-11T10:24:46Z</time></trkpt><trkpt lat="45.64064781391947" lon="9.903683932449942"><ele>228.0</ele><time>2026-04-11T10:24:48Z</time></trkpt><trkpt lat="45.64063116054685" lon="9.903507011386708"><ele>228.0</ele><time>2026-04-11T10:24:50Z</time></trkpt><trkpt lat="45.64062521713236" lon="9.903416682011507"><ele>228.0</ele><time>2026-04-11T10:24:51Z</time></trkpt><trkpt lat="45.64060110634468" lon="9.903242753715602"><ele>228.0</ele><time>2026-04-11T10:24:53Z</time></trkpt><trkpt lat="45.64058050200976" lon="9.903157058034536"><ele>228.0</ele><time>2026-04-11T10:24:54Z</time></trkpt><trkpt lat="45.64056261184116" lon="9.903070593895583"><ele>228.0</ele><time>2026-04-11T10:24:55Z</time></trkpt><trkpt lat="45.64052943867208" lon="9.9029009771854"><ele>228.0</ele><time>2026-04-11T10:24:57Z</time></trkpt><trkpt lat="45.64051112076615" lon="9.902813053600955"><ele>228.0</ele><time>2026-04-11T10:24:58Z</time></trkpt><trkpt lat="45.640480089583015" lon="9.902641870349811"><ele>228.0</ele><time>2026-04-11T10:25:00Z</time></trkpt><trkpt lat="45.640448398764846" lon="9.902468942000004"><ele>228.2</ele><time>2026-04-11T10:25:02Z</time></trkpt><trkpt lat="45.64041141968875" lon="9.902297846514756"><ele>228.4</ele><time>2026-04-11T10:25:04Z</time></trkpt><trkpt lat="45.64040416093868" lon="9.902203705140469"><ele>228.59999999999997</ele><time>2026-04-11T10:25:05Z</time></trkpt><trkpt lat="45.6403743081306" lon="9.902035333541141"><ele>228.79999999999998</ele><time>2026-04-11T10:25:07Z</time></trkpt><trkpt lat="45.64035779462016" lon="9.901941369525701"><ele>229.0</ele><time>2026-04-11T10:25:08Z</time></trkpt><trkpt lat="45.64032552791605" lon="9.901769661486785"><ele>228.79999999999998</ele><time>2026-04-11T10:25:10Z</time></trkpt><trkpt lat="45.640296150821136" lon="9.901596082779738"><ele>228.59999999999997</ele><time>2026-04-11T10:25:12Z</time></trkpt><trkpt lat="45.64028905276623" lon="9.901505093763728"><ele>228.4</ele><time>2026-04-11T10:25:13Z</time></trkpt><trkpt lat="45.640260520431895" lon="9.901334406452575"><ele>228.2</ele><time>2026-04-11T10:25:15Z</time></trkpt><trkpt lat="45.64023552776617" lon="9.901168240950557"><ele>228.0</ele><time>2026-04-11T10:25:17Z</time></trkpt><trkpt lat="45.640213816339894" lon="9.90100118706725"><ele>227.8</ele><time>2026-04-11T10:25:19Z</time></trkpt><trkpt lat="45.640186017393674" lon="9.90085072704545"><ele>227.60000000000002</ele><time>2026-04-11T10:25:21Z</time></trkpt><trkpt lat="45.6401580272798" lon="9.900702096852784"><ele>227.39999999999998</ele><time>2026-04-11T10:25:23Z</time></trkpt><trkpt lat="45.64013110513782" lon="9.900555723843075"><ele>227.2</ele><time>2026-04-11T10:25:25Z</time></trkpt><trkpt lat="45.640099972351024" lon="9.900384447599565"><ele>227.0</ele><time>2026-04-11T10:25:27Z</time></trkpt><trkpt lat="45.64007586854512" lon="9.900214293929556"><ele>227.0</ele><time>2026-04-11T10:25:29Z</time></trkpt><trkpt lat="45.64004701649474" lon="9.90004256983861"><ele>227.0</ele><time>2026-04-11T10:25:31Z</time></trkpt><trkpt lat="45.64002414973991" lon="9.899868638691013"><ele>227.0</ele><time>2026-04-11T10:25:33Z</time></trkpt><trkpt lat="45.64001168486126" lon="9.899779644680546"><ele>227.0</ele><time>2026-04-11T10:25:34Z</time></trkpt><trkpt lat="45.63998316021249" lon="9.899604306938071"><ele>227.0</ele><time>2026-04-11T10:25:36Z</time></trkpt><trkpt lat="45.639952974551655" lon="9.899430523598543"><ele>227.0</ele><time>2026-04-11T10:25:38Z</time></trkpt><trkpt lat="45.6399210343846" lon="9.899257532421673"><ele>227.0</ele><time>2026-04-11T10:25:40Z</time></trkpt><trkpt lat="45.639906964911845" lon="9.899168766903488"><ele>227.0</ele><time>2026-04-11T10:25:41Z</time></trkpt><trkpt lat="45.6398777418006" lon="9.898999314784357"><ele>227.0</ele><time>2026-04-11T10:25:43Z</time></trkpt><trkpt lat="45.63985821390744" lon="9.898910944550089"><ele>227.0</ele><time>2026-04-11T10:25:44Z</time></trkpt><trkpt lat="45.63982687396983" lon="9.898739164866566"><ele>227.0</ele><time>2026-04-11T10:25:46Z</time></trkpt><trkpt lat="45.63979552197879" lon="9.898565752013429"><ele>227.0</ele><time>2026-04-11T10:25:48Z</time></trkpt><trkpt lat="45.63976808810898" lon="9.898389588873636"><ele>227.0</ele><time>2026-04-11T10:25:50Z</time></trkpt><trkpt lat="45.639738770116594" lon="9.898215414089135"><ele>227.0</ele><time>2026-04-11T10:25:52Z</time></trkpt><trkpt lat="45.639710328017514" lon="9.898042081749285"><ele>226.5</ele><time>2026-04-11T10:25:54Z</time></trkpt><trkpt lat="45.639677702015824" lon="9.897867731733804"><ele>226.0</ele><time>2026-04-11T10:25:56Z</time></trkpt><trkpt lat="45.63965271855546" lon="9.897698000394316"><ele>225.5</ele><time>2026-04-11T10:25:58Z</time></trkpt><trkpt lat="45.63962480428626" lon="9.897530804194695"><ele>225.0</ele><time>2026-04-11T10:26:00Z</time></trkpt><trkpt lat="45.63959811903537" lon="9.897372440387782"><ele>225.0</ele><time>2026-04-11T10:26:02Z</time></trkpt><trkpt lat="45.639572579274535" lon="9.897218144663809"><ele>225.0</ele><time>2026-04-11T10:26:04Z</time></trkpt><trkpt lat="45.63955107851674" lon="9.89706816595902"><ele>225.0</ele><time>2026-04-11T10:26:06Z</time></trkpt><trkpt lat="45.639527909944654" lon="9.896911043437267"><ele>225.0</ele><time>2026-04-11T10:26:08Z</time></trkpt><trkpt lat="45.63952928725104" lon="9.896744821880798"><ele>225.0</ele><time>2026-04-11T10:26:10Z</time></trkpt><trkpt lat="45.63953783202023" lon="9.896649771691543"><ele>225.0</ele><time>2026-04-11T10:26:11Z</time></trkpt><trkpt lat="45.63950390380253" lon="9.896492157035144"><ele>225.0</ele><time>2026-04-11T10:26:13Z</time></trkpt><trkpt lat="45.639467051598054" lon="9.896413591382528"><ele>225.0</ele><time>2026-04-11T10:26:14Z</time></trkpt><trkpt lat="45.63940370237781" lon="9.896257426009168"><ele>225.0</ele><time>2026-04-11T10:26:16Z</time></trkpt><trkpt lat="45.63938249775685" lon="9.896167350694789"><ele>225.0</ele><time>2026-04-11T10:26:17Z</time></trkpt><trkpt lat="45.639353705340426" lon="9.89599366662253"><ele>224.8</ele><time>2026-04-11T10:26:19Z</time></trkpt><trkpt lat="45.63932856761197" lon="9.895815613015314"><ele>224.6</ele><time>2026-04-11T10:26:21Z</time></trkpt><trkpt lat="45.639306812559916" lon="9.895645634554468"><ele>224.39999999999998</ele><time>2026-04-11T10:26:23Z</time></trkpt><trkpt lat="45.639286242339864" lon="9.895557664349347"><ele>224.2</ele><time>2026-04-11T10:26:24Z</time></trkpt><trkpt lat="45.63926161186197" lon="9.895384741348773"><ele>224.0</ele><time>2026-04-11T10:26:26Z</time></trkpt><trkpt lat="45.63923820007447" lon="9.895211412622922"><ele>223.6</ele><time>2026-04-11T10:26:28Z</time></trkpt><trkpt lat="45.639212876089765" lon="9.895037987543668"><ele>223.2</ele><time>2026-04-11T10:26:30Z</time></trkpt><trkpt lat="45.63919821212678" lon="9.894949482207398"><ele>222.79999999999998</ele><time>2026-04-11T10:26:31Z</time></trkpt><trkpt lat="45.639170865298375" lon="9.894778240801099"><ele>222.39999999999998</ele><time>2026-04-11T10:26:33Z</time></trkpt><trkpt lat="45.639159866670255" lon="9.89468507075185"><ele>222.0</ele><time>2026-04-11T10:26:34Z</time></trkpt><trkpt lat="45.639129850532726" lon="9.894515101116491"><ele>222.0</ele><time>2026-04-11T10:26:36Z</time></trkpt><trkpt lat="45.63910200456215" lon="9.894339432050646"><ele>222.0</ele><time>2026-04-11T10:26:38Z</time></trkpt><trkpt lat="45.63907305474891" lon="9.89417361450086"><ele>222.0</ele><time>2026-04-11T10:26:40Z</time></trkpt><trkpt lat="45.63905209563992" lon="9.894009823223707"><ele>222.0</ele><time>2026-04-11T10:26:42Z</time></trkpt><trkpt lat="45.63903277334145" lon="9.89385194169692"><ele>221.8</ele><time>2026-04-11T10:26:44Z</time></trkpt><trkpt lat="45.639011496779986" lon="9.89369647809955"><ele>221.6</ele><time>2026-04-11T10:26:46Z</time></trkpt><trkpt lat="45.63897994920049" lon="9.893543865643725"><ele>221.40000000000003</ele><time>2026-04-11T10:26:48Z</time></trkpt><trkpt lat="45.638965347607495" lon="9.893450552204728"><ele>221.20000000000002</ele><time>2026-04-11T10:26:49Z</time></trkpt><trkpt lat="45.63893764871181" lon="9.893280467686873"><ele>221.0</ele><time>2026-04-11T10:26:51Z</time></trkpt><trkpt lat="45.638911565718196" lon="9.893111067203858"><ele>221.20000000000002</ele><time>2026-04-11T10:26:53Z</time></trkpt><trkpt lat="45.63888611897321" lon="9.892958079273399"><ele>221.40000000000003</ele><time>2026-04-11T10:26:55Z</time></trkpt><trkpt lat="45.638867538605744" lon="9.892851740088672"><ele>221.6</ele><time>2026-04-11T10:26:56Z</time></trkpt><trkpt lat="45.63884215602639" lon="9.892682535014677"><ele>221.8</ele><time>2026-04-11T10:26:58Z</time></trkpt><trkpt lat="45.638825800537106" lon="9.892590709114158"><ele>222.0</ele><time>2026-04-11T10:26:59Z</time></trkpt><trkpt lat="45.6387985314154" lon="9.89241698688255"><ele>222.0</ele><time>2026-04-11T10:27:01Z</time></trkpt><trkpt lat="45.63878308340091" lon="9.89232605463756"><ele>222.0</ele><time>2026-04-11T10:27:02Z</time></trkpt><trkpt lat="45.63877127963796" lon="9.892235613206154"><ele>222.0</ele><time>2026-04-11T10:27:03Z</time></trkpt><trkpt lat="45.63874795971413" lon="9.892058439447903"><ele>222.0</ele><time>2026-04-11T10:27:05Z</time></trkpt><trkpt lat="45.638722139826115" lon="9.891884417163668"><ele>222.0</ele><time>2026-04-11T10:27:07Z</time></trkpt><trkpt lat="45.63870731341025" lon="9.891794899322592"><ele>222.0</ele><time>2026-04-11T10:27:08Z</time></trkpt><trkpt lat="45.63867940442198" lon="9.891612653039687"><ele>222.39999999999998</ele><time>2026-04-11T10:27:10Z</time></trkpt><trkpt lat="45.63865088062546" lon="9.891436307858793"><ele>222.79999999999998</ele><time>2026-04-11T10:27:12Z</time></trkpt><trkpt lat="45.63863081701691" lon="9.891340770993136"><ele>223.2</ele><time>2026-04-11T10:27:13Z</time></trkpt><trkpt lat="45.638613425769535" lon="9.89116306940634"><ele>223.6</ele><time>2026-04-11T10:27:15Z</time></trkpt><trkpt lat="45.63859255898994" lon="9.89106622405028"><ele>224.0</ele><time>2026-04-11T10:27:16Z</time></trkpt><trkpt lat="45.63857039334342" lon="9.890881293840431"><ele>223.28571428571428</ele><time>2026-04-11T10:27:18Z</time></trkpt><trkpt lat="45.63855452029997" lon="9.890786590756221"><ele>222.57142857142856</ele><time>2026-04-11T10:27:19Z</time></trkpt><trkpt lat="45.63854487891306" lon="9.890694199470223"><ele>221.85714285714286</ele><time>2026-04-11T10:27:20Z</time></trkpt><trkpt lat="45.638531573068846" lon="9.890599677744627"><ele>221.14285714285714</ele><time>2026-04-11T10:27:21Z</time></trkpt><trkpt lat="45.63852247995639" lon="9.890501347264678"><ele>220.42857142857142</ele><time>2026-04-11T10:27:22Z</time></trkpt><trkpt lat="45.63849523501086" lon="9.890413387188145"><ele>219.71428571428572</ele><time>2026-04-11T10:27:23Z</time></trkpt><trkpt lat="45.63848625142453" lon="9.890319748062845"><ele>219.0</ele><time>2026-04-11T10:27:24Z</time></trkpt><trkpt lat="45.63847295972356" lon="9.890229854929236"><ele>219.0</ele><time>2026-04-11T10:27:25Z</time></trkpt><trkpt lat="45.63845427967614" lon="9.890136817561642"><ele>219.0</ele><time>2026-04-11T10:27:26Z</time></trkpt><trkpt lat="45.63843598816349" lon="9.890048973724477"><ele>219.0</ele><time>2026-04-11T10:27:27Z</time></trkpt><trkpt lat="45.638440582592914" lon="9.88995601540603"><ele>219.0</ele><time>2026-04-11T10:27:28Z</time></trkpt><trkpt lat="45.638420954044165" lon="9.889779384390852"><ele>219.0</ele><time>2026-04-11T10:27:30Z</time></trkpt><trkpt lat="45.638397045083984" lon="9.889603572234481"><ele>219.0</ele><time>2026-04-11T10:27:32Z</time></trkpt><trkpt lat="45.63837372499585" lon="9.889441316768403"><ele>218.6</ele><time>2026-04-11T10:27:34Z</time></trkpt><trkpt lat="45.63841724598469" lon="9.889253325250916"><ele>218.2</ele><time>2026-04-11T10:27:36Z</time></trkpt><trkpt lat="45.63846956332906" lon="9.889109237385464"><ele>217.79999999999998</ele><time>2026-04-11T10:27:37Z</time></trkpt><trkpt lat="45.63844103570977" lon="9.888948990372855"><ele>217.39999999999998</ele><time>2026-04-11T10:27:39Z</time></trkpt><trkpt lat="45.63840791146584" lon="9.88887059358137"><ele>217.0</ele><time>2026-04-11T10:27:40Z</time></trkpt><trkpt lat="45.63835442249492" lon="9.888812756756366"><ele>217.0</ele><time>2026-04-11T10:27:41Z</time></trkpt><trkpt lat="45.63828625538497" lon="9.888670092559606"><ele>217.0</ele><time>2026-04-11T10:27:43Z</time></trkpt><trkpt lat="45.638262123134126" lon="9.888498796661638"><ele>217.0</ele><time>2026-04-11T10:27:45Z</time></trkpt><trkpt lat="45.638246748733835" lon="9.888411358940939"><ele>217.0</ele><time>2026-04-11T10:27:46Z</time></trkpt><trkpt lat="45.63822873403818" lon="9.888322664959794"><ele>217.0</ele><time>2026-04-11T10:27:47Z</time></trkpt><trkpt lat="45.63819992347591" lon="9.888147649185042"><ele>217.0</ele><time>2026-04-11T10:27:49Z</time></trkpt><trkpt lat="45.63817503066277" lon="9.887972634302182"><ele>217.0</ele><time>2026-04-11T10:27:51Z</time></trkpt><trkpt lat="45.63815851783589" lon="9.887883955218802"><ele>217.0</ele><time>2026-04-11T10:27:52Z</time></trkpt><trkpt lat="45.6381310034717" lon="9.887709997583965"><ele>217.0</ele><time>2026-04-11T10:27:54Z</time></trkpt><trkpt lat="45.638108092578186" lon="9.88753499813339"><ele>217.0</ele><time>2026-04-11T10:27:56Z</time></trkpt><trkpt lat="45.63808007215525" lon="9.887361232355177"><ele>216.99999999999997</ele><time>2026-04-11T10:27:58Z</time></trkpt><trkpt lat="45.638064242125076" lon="9.887273335852056"><ele>217.0</ele><time>2026-04-11T10:27:59Z</time></trkpt><trkpt lat="45.6380392903014" lon="9.887097972901513"><ele>217.0</ele><time>2026-04-11T10:28:01Z</time></trkpt><trkpt lat="45.638019363848514" lon="9.88692421179882"><ele>217.0</ele><time>2026-04-11T10:28:03Z</time></trkpt><trkpt lat="45.63800296319162" lon="9.88683381824981"><ele>216.99999999999997</ele><time>2026-04-11T10:28:04Z</time></trkpt><trkpt lat="45.6379909689306" lon="9.88674497205182"><ele>217.0</ele><time>2026-04-11T10:28:05Z</time></trkpt><trkpt lat="45.63797818638657" lon="9.886656774369344"><ele>217.0</ele><time>2026-04-11T10:28:06Z</time></trkpt><trkpt lat="45.63794782953761" lon="9.88647975898791"><ele>217.0</ele><time>2026-04-11T10:28:08Z</time></trkpt><trkpt lat="45.63793096748112" lon="9.886306861814525"><ele>217.0</ele><time>2026-04-11T10:28:10Z</time></trkpt><trkpt lat="45.63792119988819" lon="9.886216687722508"><ele>217.0</ele><time>2026-04-11T10:28:11Z</time></trkpt><trkpt lat="45.637919365250845" lon="9.886047795621991"><ele>217.0</ele><time>2026-04-11T10:28:13Z</time></trkpt><trkpt lat="45.637982967775905" lon="9.885919000966327"><ele>216.71428571428572</ele><time>2026-04-11T10:28:15Z</time></trkpt><trkpt lat="45.638015892299364" lon="9.885834979550408"><ele>216.42857142857144</ele><time>2026-04-11T10:28:16Z</time></trkpt><trkpt lat="45.63803954091413" lon="9.885750747654948"><ele>216.14285714285714</ele><time>2026-04-11T10:28:17Z</time></trkpt><trkpt lat="45.63805341404547" lon="9.885661250659323"><ele>215.85714285714286</ele><time>2026-04-11T10:28:18Z</time></trkpt><trkpt lat="45.638051523839884" lon="9.885571104652417"><ele>215.57142857142858</ele><time>2026-04-11T10:28:19Z</time></trkpt><trkpt lat="45.63803833455268" lon="9.885482845721251"><ele>215.28571428571428</ele><time>2026-04-11T10:28:20Z</time></trkpt><trkpt lat="45.63800646254827" lon="9.885404592294813"><ele>215.0</ele><time>2026-04-11T10:28:21Z</time></trkpt><trkpt lat="45.63792277452193" lon="9.885274685425303"><ele>215.0</ele><time>2026-04-11T10:28:23Z</time></trkpt><trkpt lat="45.637820917987845" lon="9.885175992807609"><ele>215.0</ele><time>2026-04-11T10:28:25Z</time></trkpt><trkpt lat="45.63775142665944" lon="9.885034779861721"><ele>215.0</ele><time>2026-04-11T10:28:27Z</time></trkpt><trkpt lat="45.63773869388992" lon="9.884945866598631"><ele>215.0</ele><time>2026-04-11T10:28:28Z</time></trkpt><trkpt lat="45.63772245915021" lon="9.884772635508375"><ele>215.0</ele><time>2026-04-11T10:28:30Z</time></trkpt><trkpt lat="45.63771097216063" lon="9.884677944559876"><ele>214.83333333333334</ele><time>2026-04-11T10:28:31Z</time></trkpt><trkpt lat="45.63768852997226" lon="9.884589824030751"><ele>214.66666666666669</ele><time>2026-04-11T10:28:32Z</time></trkpt><trkpt lat="45.637681896818584" lon="9.884496894107137"><ele>214.5</ele><time>2026-04-11T10:28:33Z</time></trkpt><trkpt lat="45.63765643683159" lon="9.884325881259501"><ele>214.33333333333331</ele><time>2026-04-11T10:28:35Z</time></trkpt><trkpt lat="45.637641083740554" lon="9.884235328696533"><ele>214.16666666666666</ele><time>2026-04-11T10:28:36Z</time></trkpt><trkpt lat="45.637615440864536" lon="9.88406645818487"><ele>214.0</ele><time>2026-04-11T10:28:38Z</time></trkpt><trkpt lat="45.63759552229538" lon="9.883902305593109"><ele>213.75</ele><time>2026-04-11T10:28:40Z</time></trkpt><trkpt lat="45.637582397613485" lon="9.88374375186197"><ele>213.5</ele><time>2026-04-11T10:28:42Z</time></trkpt><trkpt lat="45.637558919527784" lon="9.88359281438388"><ele>213.25</ele><time>2026-04-11T10:28:44Z</time></trkpt><trkpt lat="45.637535890052675" lon="9.883439548512756"><ele>213.0</ele><time>2026-04-11T10:28:46Z</time></trkpt><trkpt lat="45.63751272788018" lon="9.883265926548871"><ele>213.0</ele><time>2026-04-11T10:28:48Z</time></trkpt><trkpt lat="45.637489339657606" lon="9.883092513413661"><ele>213.0</ele><time>2026-04-11T10:28:50Z</time></trkpt><trkpt lat="45.63746122181875" lon="9.882919636166916"><ele>213.0</ele><time>2026-04-11T10:28:52Z</time></trkpt><trkpt lat="45.637438601060126" lon="9.882752963196682"><ele>213.0</ele><time>2026-04-11T10:28:54Z</time></trkpt><trkpt lat="45.637409486507664" lon="9.882580406910751"><ele>213.0</ele><time>2026-04-11T10:28:56Z</time></trkpt><trkpt lat="45.63738011589941" lon="9.882407613387596"><ele>213.0</ele><time>2026-04-11T10:28:58Z</time></trkpt><trkpt lat="45.63735801205718" lon="9.882234319286255"><ele>213.0</ele><time>2026-04-11T10:29:00Z</time></trkpt><trkpt lat="45.63733618411896" lon="9.882058872785546"><ele>213.0</ele><time>2026-04-11T10:29:02Z</time></trkpt><trkpt lat="45.63731383908822" lon="9.881884372251422"><ele>213.0</ele><time>2026-04-11T10:29:04Z</time></trkpt><trkpt lat="45.63728893855358" lon="9.881713609822508"><ele>213.0</ele><time>2026-04-11T10:29:06Z</time></trkpt><trkpt lat="45.63727888106816" lon="9.881623800125416"><ele>213.0</ele><time>2026-04-11T10:29:07Z</time></trkpt><trkpt lat="45.63725190284399" lon="9.881451018908594"><ele>213.0</ele><time>2026-04-11T10:29:09Z</time></trkpt><trkpt lat="45.637240472465336" lon="9.881362438974701"><ele>213.0</ele><time>2026-04-11T10:29:10Z</time></trkpt><trkpt lat="45.63722088813051" lon="9.881186687043956"><ele>213.0</ele><time>2026-04-11T10:29:12Z</time></trkpt><trkpt lat="45.63720505516195" lon="9.881098216137737"><ele>213.0</ele><time>2026-04-11T10:29:13Z</time></trkpt><trkpt lat="45.63718302940721" lon="9.880920439274522"><ele>213.0</ele><time>2026-04-11T10:29:15Z</time></trkpt><trkpt lat="45.637171878167486" lon="9.880831447080583"><ele>213.0</ele><time>2026-04-11T10:29:16Z</time></trkpt><trkpt lat="45.63714710820977" lon="9.880653002798269"><ele>213.0</ele><time>2026-04-11T10:29:18Z</time></trkpt><trkpt lat="45.63711618010229" lon="9.880484219346453"><ele>213.0</ele><time>2026-04-11T10:29:20Z</time></trkpt><trkpt lat="45.637096085376236" lon="9.880319449645766"><ele>213.0</ele><time>2026-04-11T10:29:22Z</time></trkpt><trkpt lat="45.63708026411262" lon="9.880161809536645"><ele>213.0</ele><time>2026-04-11T10:29:24Z</time></trkpt><trkpt lat="45.63708528992706" lon="9.8800638864972"><ele>213.0</ele><time>2026-04-11T10:29:25Z</time></trkpt><trkpt lat="45.63707126399804" lon="9.87991578461986"><ele>213.0</ele><time>2026-04-11T10:29:27Z</time></trkpt><trkpt lat="45.63704277465189" lon="9.879832230479215"><ele>213.2</ele><time>2026-04-11T10:29:28Z</time></trkpt><trkpt lat="45.63698925995013" lon="9.87967274754677"><ele>213.4</ele><time>2026-04-11T10:29:30Z</time></trkpt><trkpt lat="45.636970512699165" lon="9.879585896664505"><ele>213.59999999999997</ele><time>2026-04-11T10:29:31Z</time></trkpt><trkpt lat="45.63693532739641" lon="9.8794179386219"><ele>213.79999999999998</ele><time>2026-04-11T10:29:33Z</time></trkpt><trkpt lat="45.6369106423928" lon="9.87924587332369"><ele>214.0</ele><time>2026-04-11T10:29:35Z</time></trkpt><trkpt lat="45.63690245974993" lon="9.879155087335944"><ele>213.6</ele><time>2026-04-11T10:29:36Z</time></trkpt><trkpt lat="45.63688933368844" lon="9.8789784078691"><ele>213.2</ele><time>2026-04-11T10:29:38Z</time></trkpt><trkpt lat="45.63687638714504" lon="9.878889581413006"><ele>212.79999999999998</ele><time>2026-04-11T10:29:39Z</time></trkpt><trkpt lat="45.63684855678398" lon="9.878715197668283"><ele>212.39999999999998</ele><time>2026-04-11T10:29:41Z</time></trkpt><trkpt lat="45.63682073462113" lon="9.87854243666984"><ele>212.0</ele><time>2026-04-11T10:29:43Z</time></trkpt><trkpt lat="45.636807289753136" lon="9.878453477779136"><ele>212.0</ele><time>2026-04-11T10:29:44Z</time></trkpt><trkpt lat="45.63679545387473" lon="9.878364515341234"><ele>212.0</ele><time>2026-04-11T10:29:45Z</time></trkpt><trkpt lat="45.63677004172809" lon="9.878185905805553"><ele>212.0</ele><time>2026-04-11T10:29:47Z</time></trkpt><trkpt lat="45.6367445674777" lon="9.878012531884018"><ele>212.0</ele><time>2026-04-11T10:29:49Z</time></trkpt><trkpt lat="45.63672711016008" lon="9.877922526334027"><ele>212.0</ele><time>2026-04-11T10:29:50Z</time></trkpt><trkpt lat="45.63670829857139" lon="9.877748625678361"><ele>212.00000000000003</ele><time>2026-04-11T10:29:52Z</time></trkpt><trkpt lat="45.636694039675874" lon="9.87765615148309"><ele>212.0</ele><time>2026-04-11T10:29:53Z</time></trkpt><trkpt lat="45.636683617115864" lon="9.87756633908459"><ele>212.0</ele><time>2026-04-11T10:29:54Z</time></trkpt><trkpt lat="45.6366552882517" lon="9.87738867883013"><ele>212.0</ele><time>2026-04-11T10:29:56Z</time></trkpt><trkpt lat="45.63663916946697" lon="9.877299736587704"><ele>212.00000000000003</ele><time>2026-04-11T10:29:57Z</time></trkpt><trkpt lat="45.63661015976239" lon="9.877125811180857"><ele>212.0</ele><time>2026-04-11T10:29:59Z</time></trkpt><trkpt lat="45.63658893407745" lon="9.876945487629742"><ele>212.0</ele><time>2026-04-11T10:30:01Z</time></trkpt><trkpt lat="45.636588004943384" lon="9.876775440397205"><ele>212.0</ele><time>2026-04-11T10:30:03Z</time></trkpt><trkpt lat="45.63656895875084" lon="9.87668152511801"><ele>212.0</ele><time>2026-04-11T10:30:04Z</time></trkpt><trkpt lat="45.63654670923217" lon="9.876501963713764"><ele>212.0</ele><time>2026-04-11T10:30:06Z</time></trkpt><trkpt lat="45.636522926588796" lon="9.876326071131523"><ele>212.0</ele><time>2026-04-11T10:30:08Z</time></trkpt><trkpt lat="45.636518154119486" lon="9.876225157676465"><ele>212.00000000000003</ele><time>2026-04-11T10:30:09Z</time></trkpt><trkpt lat="45.636494072924954" lon="9.876046332174042"><ele>212.0</ele><time>2026-04-11T10:30:11Z</time></trkpt><trkpt lat="45.63648258503865" lon="9.875955757583787"><ele>212.0</ele><time>2026-04-11T10:30:12Z</time></trkpt><trkpt lat="45.63646970457793" lon="9.875864643319513"><ele>212.0</ele><time>2026-04-11T10:30:13Z</time></trkpt><trkpt lat="45.63645253580714" lon="9.875775751054702"><ele>212.00000000000003</ele><time>2026-04-11T10:30:14Z</time></trkpt><trkpt lat="45.63643000342184" lon="9.875599439638288"><ele>212.0</ele><time>2026-04-11T10:30:16Z</time></trkpt><trkpt lat="45.63641190027514" lon="9.875425100627385"><ele>212.0</ele><time>2026-04-11T10:30:18Z</time></trkpt><trkpt lat="45.63638588411351" lon="9.875267729962399"><ele>212.0</ele><time>2026-04-11T10:30:20Z</time></trkpt><trkpt lat="45.63636365292976" lon="9.875104800964918"><ele>212.0</ele><time>2026-04-11T10:30:22Z</time></trkpt><trkpt lat="45.636338389437746" lon="9.874940300740423"><ele>212.0</ele><time>2026-04-11T10:30:24Z</time></trkpt><trkpt lat="45.63629502742624" lon="9.874779066870081"><ele>211.83333333333334</ele><time>2026-04-11T10:30:26Z</time></trkpt><trkpt lat="45.636283177351835" lon="9.874690419976325"><ele>211.66666666666669</ele><time>2026-04-11T10:30:27Z</time></trkpt><trkpt lat="45.63626846509137" lon="9.87460286918714"><ele>211.5</ele><time>2026-04-11T10:30:28Z</time></trkpt><trkpt lat="45.63623998644605" lon="9.874429128578077"><ele>211.33333333333331</ele><time>2026-04-11T10:30:30Z</time></trkpt><trkpt lat="45.63622498571039" lon="9.874339001734647"><ele>211.16666666666666</ele><time>2026-04-11T10:30:31Z</time></trkpt><trkpt lat="45.636198940692495" lon="9.874164935999021"><ele>211.0</ele><time>2026-04-11T10:30:33Z</time></trkpt><trkpt lat="45.636171902470096" lon="9.873991402243282"><ele>210.75</ele><time>2026-04-11T10:30:35Z</time></trkpt><trkpt lat="45.636150592886054" lon="9.873816111936865"><ele>210.5</ele><time>2026-04-11T10:30:37Z</time></trkpt><trkpt lat="45.63612918087855" lon="9.873641600448677"><ele>210.25</ele><time>2026-04-11T10:30:39Z</time></trkpt><trkpt lat="45.63610394626787" lon="9.87347190967782"><ele>210.0</ele><time>2026-04-11T10:30:41Z</time></trkpt><trkpt lat="45.63607570334023" lon="9.873299100977839"><ele>209.75</ele><time>2026-04-11T10:30:43Z</time></trkpt><trkpt lat="45.636049045408726" lon="9.873127796434972"><ele>209.5</ele><time>2026-04-11T10:30:45Z</time></trkpt><trkpt lat="45.63602867524608" lon="9.872966308952751"><ele>209.25</ele><time>2026-04-11T10:30:47Z</time></trkpt><trkpt lat="45.63601239167916" lon="9.872816051604579"><ele>209.0</ele><time>2026-04-11T10:30:49Z</time></trkpt><trkpt lat="45.6360040891149" lon="9.872654670333885"><ele>209.00000000000003</ele><time>2026-04-11T10:30:51Z</time></trkpt><trkpt lat="45.636003144109914" lon="9.872480761673845"><ele>209.0</ele><time>2026-04-11T10:30:53Z</time></trkpt><trkpt lat="45.63599799153808" lon="9.872301357722371"><ele>209.0</ele><time>2026-04-11T10:30:55Z</time></trkpt><trkpt lat="45.63600001513743" lon="9.872210865128347"><ele>209.0</ele><time>2026-04-11T10:30:56Z</time></trkpt><trkpt lat="45.63601028415305" lon="9.872118816287582"><ele>209.00000000000003</ele><time>2026-04-11T10:30:57Z</time></trkpt><trkpt lat="45.63601577787269" lon="9.872016688223148"><ele>209.0</ele><time>2026-04-11T10:30:58Z</time></trkpt><trkpt lat="45.63603057290375" lon="9.871841025952168"><ele>209.25</ele><time>2026-04-11T10:31:00Z</time></trkpt><trkpt lat="45.636054497304784" lon="9.871666970866986"><ele>209.5</ele><time>2026-04-11T10:31:02Z</time></trkpt><trkpt lat="45.63606690968088" lon="9.871507121592295"><ele>209.75</ele><time>2026-04-11T10:31:04Z</time></trkpt><trkpt lat="45.636087106866626" lon="9.871346075368118"><ele>210.0</ele><time>2026-04-11T10:31:06Z</time></trkpt><trkpt lat="45.63610513122942" lon="9.871185132181182"><ele>210.0</ele><time>2026-04-11T10:31:08Z</time></trkpt><trkpt lat="45.63610918660754" lon="9.871017761477152"><ele>210.0</ele><time>2026-04-11T10:31:10Z</time></trkpt><trkpt lat="45.6361306233219" lon="9.87085912248579"><ele>210.0</ele><time>2026-04-11T10:31:12Z</time></trkpt><trkpt lat="45.63614150505078" lon="9.870696402695026"><ele>210.0</ele><time>2026-04-11T10:31:14Z</time></trkpt><trkpt lat="45.63615410957816" lon="9.870534509079862"><ele>211.6</ele><time>2026-04-11T10:31:16Z</time></trkpt><trkpt lat="45.63616172580091" lon="9.870368151989389"><ele>213.2</ele><time>2026-04-11T10:31:18Z</time></trkpt><trkpt lat="45.63616716996249" lon="9.870205869453027"><ele>214.8</ele><time>2026-04-11T10:31:20Z</time></trkpt><trkpt lat="45.63617598874303" lon="9.870052280571468"><ele>216.4</ele><time>2026-04-11T10:31:22Z</time></trkpt><trkpt lat="45.636194221209095" lon="9.869911599902112"><ele>218.0</ele><time>2026-04-11T10:31:24Z</time></trkpt><trkpt lat="45.636201578330315" lon="9.86977325890957"><ele>218.00000000000003</ele><time>2026-04-11T10:31:26Z</time></trkpt><trkpt lat="45.6362127283347" lon="9.869642717864687"><ele>218.0</ele><time>2026-04-11T10:31:28Z</time></trkpt><trkpt lat="45.63622370113515" lon="9.869510415604061"><ele>218.0</ele><time>2026-04-11T10:31:30Z</time></trkpt><trkpt lat="45.636227760390526" lon="9.869400977612534"><ele>218.0</ele><time>2026-04-11T10:31:32Z</time></trkpt><trkpt lat="45.636235649544744" lon="9.869290845033827"><ele>218.00000000000003</ele><time>2026-04-11T10:31:34Z</time></trkpt><trkpt lat="45.63625073033447" lon="9.869155412012914"><ele>218.0</ele><time>2026-04-11T10:31:36Z</time></trkpt><trkpt lat="45.636246683325076" lon="9.868983692233572"><ele>217.60000000000002</ele><time>2026-04-11T10:31:38Z</time></trkpt><trkpt lat="45.63624517743846" lon="9.868804931182636"><ele>217.20000000000002</ele><time>2026-04-11T10:31:40Z</time></trkpt><trkpt lat="45.63625926048886" lon="9.868715085635735"><ele>216.8</ele><time>2026-04-11T10:31:41Z</time></trkpt><trkpt lat="45.636299315175684" lon="9.86853815335604"><ele>216.4</ele><time>2026-04-11T10:31:43Z</time></trkpt><trkpt lat="45.63633248495073" lon="9.868385463929346"><ele>216.0</ele><time>2026-04-11T10:31:45Z</time></trkpt><trkpt lat="45.636362126638254" lon="9.868215151230018"><ele>215.25</ele><time>2026-04-11T10:31:47Z</time></trkpt><trkpt lat="45.63639417207754" lon="9.868043085718975"><ele>214.5</ele><time>2026-04-11T10:31:49Z</time></trkpt><trkpt lat="45.63642519202914" lon="9.867871962745488"><ele>213.75</ele><time>2026-04-11T10:31:51Z</time></trkpt><trkpt lat="45.63646151281608" lon="9.867703444405604"><ele>213.0</ele><time>2026-04-11T10:31:53Z</time></trkpt><trkpt lat="45.63651025151274" lon="9.867545577496069"><ele>212.0</ele><time>2026-04-11T10:31:55Z</time></trkpt><trkpt lat="45.63656706777463" lon="9.86739365743336"><ele>211.0</ele><time>2026-04-11T10:31:57Z</time></trkpt><trkpt lat="45.63664108512077" lon="9.867256774528261"><ele>210.0</ele><time>2026-04-11T10:31:59Z</time></trkpt><trkpt lat="45.63671410830284" lon="9.867122785592308"><ele>209.0</ele><time>2026-04-11T10:32:01Z</time></trkpt><trkpt lat="45.6367895830495" lon="9.866991792211502"><ele>209.0</ele><time>2026-04-11T10:32:03Z</time></trkpt><trkpt lat="45.63687545981613" lon="9.86686474575611"><ele>209.0</ele><time>2026-04-11T10:32:05Z</time></trkpt><trkpt lat="45.636961524373724" lon="9.866751768730284"><ele>209.0</ele><time>2026-04-11T10:32:07Z</time></trkpt><trkpt lat="45.6370546186195" lon="9.866644498942755"><ele>209.0</ele><time>2026-04-11T10:32:09Z</time></trkpt><trkpt lat="45.63715154099187" lon="9.86654271465436"><ele>209.5</ele><time>2026-04-11T10:32:11Z</time></trkpt><trkpt lat="45.63724386028175" lon="9.866445430569257"><ele>210.0</ele><time>2026-04-11T10:32:13Z</time></trkpt><trkpt lat="45.63733348323627" lon="9.866362691699909"><ele>210.5</ele><time>2026-04-11T10:32:15Z</time></trkpt><trkpt lat="45.637438808089186" lon="9.866247074297025"><ele>211.0</ele><time>2026-04-11T10:32:17Z</time></trkpt><trkpt lat="45.63753234801002" lon="9.866156067897137"><ele>211.0</ele><time>2026-04-11T10:32:19Z</time></trkpt><trkpt lat="45.63761045882351" lon="9.866024273608126"><ele>211.0</ele><time>2026-04-11T10:32:21Z</time></trkpt><trkpt lat="45.63767348991178" lon="9.865882951529395"><ele>211.0</ele><time>2026-04-11T10:32:23Z</time></trkpt><trkpt lat="45.637736570191976" lon="9.865734848642552"><ele>211.0</ele><time>2026-04-11T10:32:25Z</time></trkpt><trkpt lat="45.63777301418716" lon="9.86566109071748"><ele>211.0</ele><time>2026-04-11T10:32:26Z</time></trkpt><trkpt lat="45.63784610893513" lon="9.865542724792006"><ele>211.20000000000002</ele><time>2026-04-11T10:32:28Z</time></trkpt><trkpt lat="45.63788943468158" lon="9.865470681886286"><ele>211.4</ele><time>2026-04-11T10:32:29Z</time></trkpt><trkpt lat="45.63797985836725" lon="9.865359098535217"><ele>211.6</ele><time>2026-04-11T10:32:31Z</time></trkpt><trkpt lat="45.63808060967966" lon="9.865251293529004"><ele>211.8</ele><time>2026-04-11T10:32:33Z</time></trkpt><trkpt lat="45.638134686760615" lon="9.865200437668596"><ele>212.0</ele><time>2026-04-11T10:32:34Z</time></trkpt><trkpt lat="45.638239855679196" lon="9.865100194750417"><ele>212.00000000000003</ele><time>2026-04-11T10:32:36Z</time></trkpt><trkpt lat="45.638292160989124" lon="9.865047270226093"><ele>212.0</ele><time>2026-04-11T10:32:37Z</time></trkpt><trkpt lat="45.63840010139775" lon="9.864946098869858"><ele>212.0</ele><time>2026-04-11T10:32:39Z</time></trkpt><trkpt lat="45.6384961857002" lon="9.864832516099826"><ele>212.0</ele><time>2026-04-11T10:32:41Z</time></trkpt><trkpt lat="45.63854091598237" lon="9.864768047185233"><ele>212.00000000000003</ele><time>2026-04-11T10:32:42Z</time></trkpt><trkpt lat="45.638585982724884" lon="9.864704805841622"><ele>212.0</ele><time>2026-04-11T10:32:43Z</time></trkpt><trkpt lat="45.63866909317852" lon="9.864572674046626"><ele>213.0</ele><time>2026-04-11T10:32:45Z</time></trkpt><trkpt lat="45.63874117454545" lon="9.86443052227301"><ele>214.0</ele><time>2026-04-11T10:32:47Z</time></trkpt><trkpt lat="45.63881872769489" lon="9.86429478528349"><ele>215.0</ele><time>2026-04-11T10:32:49Z</time></trkpt><trkpt lat="45.6388908528511" lon="9.864158737129625"><ele>216.0</ele><time>2026-04-11T10:32:51Z</time></trkpt><trkpt lat="45.6389607405753" lon="9.864014744864951"><ele>216.0</ele><time>2026-04-11T10:32:53Z</time></trkpt><trkpt lat="45.63902720606826" lon="9.863861856160794"><ele>216.00000000000003</ele><time>2026-04-11T10:32:55Z</time></trkpt><trkpt lat="45.639062351592" lon="9.86378168627017"><ele>216.00000000000003</ele><time>2026-04-11T10:32:56Z</time></trkpt><trkpt lat="45.639134480260815" lon="9.863630145982798"><ele>216.0</ele><time>2026-04-11T10:32:58Z</time></trkpt><trkpt lat="45.63920184843938" lon="9.863479439971318"><ele>216.0</ele><time>2026-04-11T10:33:00Z</time></trkpt><trkpt lat="45.639235650439645" lon="9.8633988296647"><ele>215.28571428571428</ele><time>2026-04-11T10:33:01Z</time></trkpt><trkpt lat="45.639276394762454" lon="9.863320717308378"><ele>214.57142857142856</ele><time>2026-04-11T10:33:02Z</time></trkpt><trkpt lat="45.63931611886577" lon="9.86324137350463"><ele>213.85714285714286</ele><time>2026-04-11T10:33:03Z</time></trkpt><trkpt lat="45.639364390879635" lon="9.863176033323596"><ele>213.14285714285714</ele><time>2026-04-11T10:33:04Z</time></trkpt><trkpt lat="45.63942182664272" lon="9.863118985358641"><ele>212.42857142857144</ele><time>2026-04-11T10:33:05Z</time></trkpt><trkpt lat="45.63948246157307" lon="9.86306788174187"><ele>211.71428571428572</ele><time>2026-04-11T10:33:06Z</time></trkpt><trkpt lat="45.63954149916695" lon="9.863025149330623"><ele>211.0</ele><time>2026-04-11T10:33:07Z</time></trkpt><trkpt lat="45.63960001324257" lon="9.86297408894716"><ele>212.42857142857144</ele><time>2026-04-11T10:33:08Z</time></trkpt><trkpt lat="45.639662728366226" lon="9.862928654060015"><ele>213.85714285714286</ele><time>2026-04-11T10:33:09Z</time></trkpt><trkpt lat="45.639722438642664" lon="9.862884804540807"><ele>215.28571428571428</ele><time>2026-04-11T10:33:10Z</time></trkpt><trkpt lat="45.63978440489493" lon="9.862848063140754"><ele>216.71428571428572</ele><time>2026-04-11T10:33:11Z</time></trkpt><trkpt lat="45.63984775392419" lon="9.862812512001963"><ele>218.14285714285714</ele><time>2026-04-11T10:33:12Z</time></trkpt><trkpt lat="45.63990922606707" lon="9.862787189383296"><ele>219.57142857142858</ele><time>2026-04-11T10:33:13Z</time></trkpt><trkpt lat="45.63997316312461" lon="9.862768659203846"><ele>221.0</ele><time>2026-04-11T10:33:14Z</time></trkpt><trkpt lat="45.640096171931305" lon="9.862718566029407"><ele>221.0</ele><time>2026-04-11T10:33:16Z</time></trkpt><trkpt lat="45.64021018801492" lon="9.862684260344716"><ele>221.00000000000003</ele><time>2026-04-11T10:33:18Z</time></trkpt><trkpt lat="45.64027597666115" lon="9.862653460770993"><ele>221.00000000000003</ele><time>2026-04-11T10:33:19Z</time></trkpt><trkpt lat="45.64039801516321" lon="9.862609826136483"><ele>221.0</ele><time>2026-04-11T10:33:21Z</time></trkpt><trkpt lat="45.640516475174586" lon="9.862567146071655"><ele>221.0</ele><time>2026-04-11T10:33:23Z</time></trkpt><trkpt lat="45.64063734795885" lon="9.862531472336814"><ele>219.0</ele><time>2026-04-11T10:33:25Z</time></trkpt><trkpt lat="45.64075881244454" lon="9.8624838431489"><ele>217.0</ele><time>2026-04-11T10:33:27Z</time></trkpt><trkpt lat="45.64087782035763" lon="9.862435491910913"><ele>215.0</ele><time>2026-04-11T10:33:29Z</time></trkpt><trkpt lat="45.640999748273295" lon="9.86239322269426"><ele>213.0</ele><time>2026-04-11T10:33:31Z</time></trkpt><trkpt lat="45.641125933165064" lon="9.862355952602908"><ele>213.33333333333334</ele><time>2026-04-11T10:33:33Z</time></trkpt><trkpt lat="45.64118895193051" lon="9.862347194187942"><ele>213.66666666666669</ele><time>2026-04-11T10:33:34Z</time></trkpt><trkpt lat="45.641252617977344" lon="9.862324546888788"><ele>214.0</ele><time>2026-04-11T10:33:35Z</time></trkpt><trkpt lat="45.6413175293488" lon="9.862310406153028"><ele>214.33333333333334</ele><time>2026-04-11T10:33:36Z</time></trkpt><trkpt lat="45.64138261531554" lon="9.86229620936038"><ele>214.66666666666669</ele><time>2026-04-11T10:33:37Z</time></trkpt><trkpt lat="45.64145130413538" lon="9.86228079169206"><ele>215.0</ele><time>2026-04-11T10:33:38Z</time></trkpt><trkpt lat="45.64157630438466" lon="9.862295148688116"><ele>215.0</ele><time>2026-04-11T10:33:40Z</time></trkpt><trkpt lat="45.64165530484413" lon="9.862236174148686"><ele>215.0</ele><time>2026-04-11T10:33:41Z</time></trkpt><trkpt lat="45.64172529355584" lon="9.862219008815357"><ele>215.0</ele><time>2026-04-11T10:33:42Z</time></trkpt><trkpt lat="45.64179248227509" lon="9.862203167603894"><ele>215.0</ele><time>2026-04-11T10:33:43Z</time></trkpt><trkpt lat="45.641859990099604" lon="9.8621867474389"><ele>215.0</ele><time>2026-04-11T10:33:44Z</time></trkpt><trkpt lat="45.64192658360227" lon="9.862174609166836"><ele>215.0</ele><time>2026-04-11T10:33:45Z</time></trkpt><trkpt lat="45.64199724962221" lon="9.862154051406417"><ele>215.0</ele><time>2026-04-11T10:33:46Z</time></trkpt><trkpt lat="45.64206466908301" lon="9.862139127677958"><ele>216.0</ele><time>2026-04-11T10:33:47Z</time></trkpt><trkpt lat="45.642135949480725" lon="9.86212135539806"><ele>217.0</ele><time>2026-04-11T10:33:48Z</time></trkpt><trkpt lat="45.64220566894944" lon="9.86210502715846"><ele>218.0</ele><time>2026-04-11T10:33:49Z</time></trkpt><trkpt lat="45.64227246698862" lon="9.862088137970234"><ele>219.0</ele><time>2026-04-11T10:33:50Z</time></trkpt><trkpt lat="45.64234691996216" lon="9.86207817460215"><ele>220.0</ele><time>2026-04-11T10:33:51Z</time></trkpt><trkpt lat="45.64241679731053" lon="9.862059885285491"><ele>221.0</ele><time>2026-04-11T10:33:52Z</time></trkpt><trkpt lat="45.64248379288876" lon="9.86202911872599"><ele>222.0</ele><time>2026-04-11T10:33:53Z</time></trkpt><trkpt lat="45.64254258960088" lon="9.86198806806151"><ele>222.0</ele><time>2026-04-11T10:33:54Z</time></trkpt><trkpt lat="45.64260234167993" lon="9.861950358876637"><ele>222.0</ele><time>2026-04-11T10:33:55Z</time></trkpt><trkpt lat="45.64270997651054" lon="9.861861586030841"><ele>222.0</ele><time>2026-04-11T10:33:57Z</time></trkpt><trkpt lat="45.64276529885096" lon="9.86180338865937"><ele>222.0</ele><time>2026-04-11T10:33:58Z</time></trkpt><trkpt lat="45.642814518108636" lon="9.861737030464928"><ele>222.0</ele><time>2026-04-11T10:33:59Z</time></trkpt><trkpt lat="45.6428553641045" lon="9.861664116968871"><ele>222.0</ele><time>2026-04-11T10:34:00Z</time></trkpt><trkpt lat="45.64290210153889" lon="9.861594780125342"><ele>220.66666666666666</ele><time>2026-04-11T10:34:01Z</time></trkpt><trkpt lat="45.642960705270376" lon="9.861549955969995"><ele>219.33333333333331</ele><time>2026-04-11T10:34:02Z</time></trkpt><trkpt lat="45.643040591250674" lon="9.861410573748351"><ele>218.0</ele><time>2026-04-11T10:34:04Z</time></trkpt><trkpt lat="45.64307909443865" lon="9.861336489571729"><ele>216.66666666666666</ele><time>2026-04-11T10:34:05Z</time></trkpt><trkpt lat="45.643119075645906" lon="9.861259930505222"><ele>215.33333333333331</ele><time>2026-04-11T10:34:06Z</time></trkpt><trkpt lat="45.64315831029487" lon="9.861180515086843"><ele>214.0</ele><time>2026-04-11T10:34:07Z</time></trkpt><trkpt lat="45.6431995078646" lon="9.861104080187596"><ele>214.00000000000003</ele><time>2026-04-11T10:34:08Z</time></trkpt><trkpt lat="45.643238990305505" lon="9.861026785580359"><ele>214.0</ele><time>2026-04-11T10:34:09Z</time></trkpt><trkpt lat="45.643285239763934" lon="9.86095323544766"><ele>214.0</ele><time>2026-04-11T10:34:10Z</time></trkpt><trkpt lat="45.643327636084976" lon="9.86087847740135"><ele>214.0</ele><time>2026-04-11T10:34:11Z</time></trkpt><trkpt lat="45.643370824013445" lon="9.86080268310521"><ele>214.0</ele><time>2026-04-11T10:34:12Z</time></trkpt><trkpt lat="45.64341293906211" lon="9.86072686635796"><ele>214.00000000000003</ele><time>2026-04-11T10:34:13Z</time></trkpt><trkpt lat="45.64345727813195" lon="9.86065234331784"><ele>214.0</ele><time>2026-04-11T10:34:14Z</time></trkpt><trkpt lat="45.64350082192574" lon="9.860576868807284"><ele>213.14285714285717</ele><time>2026-04-11T10:34:15Z</time></trkpt><trkpt lat="45.64354510487769" lon="9.860500779164843"><ele>212.28571428571428</ele><time>2026-04-11T10:34:16Z</time></trkpt><trkpt lat="45.64358855053067" lon="9.860425709954356"><ele>211.42857142857144</ele><time>2026-04-11T10:34:17Z</time></trkpt><trkpt lat="45.64363527309625" lon="9.860347698759055"><ele>210.57142857142858</ele><time>2026-04-11T10:34:18Z</time></trkpt><trkpt lat="45.64367922761915" lon="9.860273334171913"><ele>209.71428571428572</ele><time>2026-04-11T10:34:19Z</time></trkpt><trkpt lat="45.64372122922022" lon="9.860195157014557"><ele>208.85714285714286</ele><time>2026-04-11T10:34:20Z</time></trkpt><trkpt lat="45.64376334405737" lon="9.860119238453157"><ele>208.0</ele><time>2026-04-11T10:34:21Z</time></trkpt><trkpt lat="45.6438075931847" lon="9.860044865007747"><ele>207.57142857142856</ele><time>2026-04-11T10:34:22Z</time></trkpt><trkpt lat="45.643849704805795" lon="9.859971472508821"><ele>207.14285714285717</ele><time>2026-04-11T10:34:23Z</time></trkpt><trkpt lat="45.643890469376544" lon="9.859896947589652"><ele>206.71428571428572</ele><time>2026-04-11T10:34:24Z</time></trkpt><trkpt lat="45.6439315517021" lon="9.859824393719729"><ele>206.28571428571428</ele><time>2026-04-11T10:34:25Z</time></trkpt><trkpt lat="45.64397239250459" lon="9.859752441514635"><ele>205.85714285714283</ele><time>2026-04-11T10:34:26Z</time></trkpt><trkpt lat="45.64401315635272" lon="9.859677401599091"><ele>205.42857142857144</ele><time>2026-04-11T10:34:27Z</time></trkpt><trkpt lat="45.64408777352886" lon="9.859542494211823"><ele>205.0</ele><time>2026-04-11T10:34:29Z</time></trkpt><trkpt lat="45.64416004753593" lon="9.859400812996988"><ele>204.99999999999997</ele><time>2026-04-11T10:34:31Z</time></trkpt><trkpt lat="45.64420086181166" lon="9.85932139955034"><ele>205.0</ele><time>2026-04-11T10:34:32Z</time></trkpt><trkpt lat="45.64427397175788" lon="9.859195125315223"><ele>205.0</ele><time>2026-04-11T10:34:34Z</time></trkpt><trkpt lat="45.644314831276894" lon="9.859111922959693"><ele>205.0</ele><time>2026-04-11T10:34:35Z</time></trkpt><trkpt lat="45.64435370990057" lon="9.859038144840035"><ele>204.99999999999997</ele><time>2026-04-11T10:34:36Z</time></trkpt><trkpt lat="45.6444351507155" lon="9.858902906254233"><ele>205.0</ele><time>2026-04-11T10:34:38Z</time></trkpt><trkpt lat="45.6444711386102" lon="9.858824577386374"><ele>205.0</ele><time>2026-04-11T10:34:39Z</time></trkpt><trkpt lat="45.64455293137531" lon="9.858670430157884"><ele>205.0</ele><time>2026-04-11T10:34:41Z</time></trkpt><trkpt lat="45.644606646914525" lon="9.85851119962421"><ele>205.0</ele><time>2026-04-11T10:34:43Z</time></trkpt><trkpt lat="45.64463816528598" lon="9.858432497357231"><ele>205.0</ele><time>2026-04-11T10:34:44Z</time></trkpt><trkpt lat="45.64469138647072" lon="9.858267632087568"><ele>205.0</ele><time>2026-04-11T10:34:46Z</time></trkpt><trkpt lat="45.64473878172095" lon="9.858113037035226"><ele>204.75</ele><time>2026-04-11T10:34:48Z</time></trkpt><trkpt lat="45.64478735334419" lon="9.857955503587451"><ele>204.5</ele><time>2026-04-11T10:34:50Z</time></trkpt><trkpt lat="45.644838831011704" lon="9.857806212344586"><ele>204.25</ele><time>2026-04-11T10:34:52Z</time></trkpt><trkpt lat="45.64488570322127" lon="9.857662242715984"><ele>204.0</ele><time>2026-04-11T10:34:54Z</time></trkpt><trkpt lat="45.64493518856142" lon="9.85753348635431"><ele>203.6</ele><time>2026-04-11T10:34:56Z</time></trkpt><trkpt lat="45.64499094007808" lon="9.857418559073645"><ele>203.2</ele><time>2026-04-11T10:34:58Z</time></trkpt><trkpt lat="45.645050720708156" lon="9.85732297982789"><ele>202.79999999999998</ele><time>2026-04-11T10:35:00Z</time></trkpt><trkpt lat="45.64513543194113" lon="9.85722843768364"><ele>202.39999999999998</ele><time>2026-04-11T10:35:02Z</time></trkpt><trkpt lat="45.645218765296306" lon="9.857160631975221"><ele>202.0</ele><time>2026-04-11T10:35:04Z</time></trkpt><trkpt lat="45.645296095057226" lon="9.857109798402679"><ele>202.0</ele><time>2026-04-11T10:35:06Z</time></trkpt><trkpt lat="45.645365249342944" lon="9.857047620482048"><ele>202.0</ele><time>2026-04-11T10:35:08Z</time></trkpt><trkpt lat="45.64542375369057" lon="9.856937637216832"><ele>202.0</ele><time>2026-04-11T10:35:10Z</time></trkpt><trkpt lat="45.64543532234643" lon="9.856760688405252"><ele>202.0</ele><time>2026-04-11T10:35:12Z</time></trkpt><trkpt lat="45.64542639436646" lon="9.856588737793873"><ele>202.0</ele><time>2026-04-11T10:35:14Z</time></trkpt><trkpt lat="45.64546660476998" lon="9.856429798925552"><ele>202.0</ele><time>2026-04-11T10:35:16Z</time></trkpt><trkpt lat="45.64554001648369" lon="9.856282236287985"><ele>202.0</ele><time>2026-04-11T10:35:18Z</time></trkpt><trkpt lat="45.64561807229106" lon="9.85616305154729"><ele>202.0</ele><time>2026-04-11T10:35:20Z</time></trkpt><trkpt lat="45.645673700956976" lon="9.856098269139343"><ele>202.0</ele><time>2026-04-11T10:35:21Z</time></trkpt><trkpt lat="45.64576725389203" lon="9.85598360479597"><ele>202.0</ele><time>2026-04-11T10:35:23Z</time></trkpt><trkpt lat="45.64586098249967" lon="9.855872870281514"><ele>202.39999999999998</ele><time>2026-04-11T10:35:25Z</time></trkpt><trkpt lat="45.64594694206139" lon="9.855778419608846"><ele>202.79999999999998</ele><time>2026-04-11T10:35:27Z</time></trkpt><trkpt lat="45.64604077786413" lon="9.855691349843397"><ele>203.2</ele><time>2026-04-11T10:35:29Z</time></trkpt><trkpt lat="45.64613435098015" lon="9.855599207446321"><ele>203.6</ele><time>2026-04-11T10:35:31Z</time></trkpt><trkpt lat="45.646222570601765" lon="9.855514600050503"><ele>204.0</ele><time>2026-04-11T10:35:33Z</time></trkpt><trkpt lat="45.646305538552035" lon="9.855443413317282"><ele>204.0</ele><time>2026-04-11T10:35:35Z</time></trkpt><trkpt lat="45.64639768293951" lon="9.855359328131465"><ele>204.0</ele><time>2026-04-11T10:35:37Z</time></trkpt><trkpt lat="45.6464833369266" lon="9.855297259137387"><ele>204.0</ele><time>2026-04-11T10:35:39Z</time></trkpt><trkpt lat="45.64656110874877" lon="9.85524039329232"><ele>204.0</ele><time>2026-04-11T10:35:41Z</time></trkpt><trkpt lat="45.64663818816203" lon="9.855192111865534"><ele>204.0</ele><time>2026-04-11T10:35:43Z</time></trkpt><trkpt lat="45.646712564528485" lon="9.855141130986391"><ele>204.2</ele><time>2026-04-11T10:35:45Z</time></trkpt><trkpt lat="45.646814945908474" lon="9.855071604191437"><ele>204.39999999999998</ele><time>2026-04-11T10:35:47Z</time></trkpt><trkpt lat="45.64692298968091" lon="9.855015152534513"><ele>204.6</ele><time>2026-04-11T10:35:49Z</time></trkpt><trkpt lat="45.646978061298476" lon="9.854970344637392"><ele>204.8</ele><time>2026-04-11T10:35:50Z</time></trkpt><trkpt lat="45.64703879639404" lon="9.854931064009145"><ele>205.0</ele><time>2026-04-11T10:35:51Z</time></trkpt><trkpt lat="45.647156294764855" lon="9.854860923410392"><ele>205.0</ele><time>2026-04-11T10:35:53Z</time></trkpt><trkpt lat="45.647269718546184" lon="9.854802244435758"><ele>205.0</ele><time>2026-04-11T10:35:55Z</time></trkpt><trkpt lat="45.647380884886154" lon="9.854729304282454"><ele>205.0</ele><time>2026-04-11T10:35:57Z</time></trkpt><trkpt lat="45.64749172552114" lon="9.854661447102144"><ele>205.0</ele><time>2026-04-11T10:35:59Z</time></trkpt><trkpt lat="45.64760709730111" lon="9.854586685463527"><ele>204.99999999999997</ele><time>2026-04-11T10:36:01Z</time></trkpt><trkpt lat="45.647717708415385" lon="9.854535592246199"><ele>205.0</ele><time>2026-04-11T10:36:03Z</time></trkpt><trkpt lat="45.64777691872658" lon="9.854497586413672"><ele>205.0</ele><time>2026-04-11T10:36:04Z</time></trkpt><trkpt lat="45.64783276477697" lon="9.85444770450613"><ele>205.0</ele><time>2026-04-11T10:36:05Z</time></trkpt><trkpt lat="45.647939704722326" lon="9.854374167262083"><ele>204.99999999999997</ele><time>2026-04-11T10:36:07Z</time></trkpt><trkpt lat="45.6479987991635" lon="9.854339776696646"><ele>205.0</ele><time>2026-04-11T10:36:08Z</time></trkpt><trkpt lat="45.648111821971405" lon="9.854270709891885"><ele>205.75</ele><time>2026-04-11T10:36:10Z</time></trkpt><trkpt lat="45.648226690131885" lon="9.85419927651962"><ele>206.5</ele><time>2026-04-11T10:36:12Z</time></trkpt><trkpt lat="45.64834218381295" lon="9.854133665492615"><ele>207.25</ele><time>2026-04-11T10:36:14Z</time></trkpt><trkpt lat="45.648448920142506" lon="9.854066290407527"><ele>208.0</ele><time>2026-04-11T10:36:16Z</time></trkpt><trkpt lat="45.64856606317307" lon="9.853991219234016"><ele>208.60000000000002</ele><time>2026-04-11T10:36:18Z</time></trkpt><trkpt lat="45.648674092011376" lon="9.853935134409086"><ele>209.20000000000002</ele><time>2026-04-11T10:36:20Z</time></trkpt><trkpt lat="45.64873337587579" lon="9.853896294669022"><ele>209.8</ele><time>2026-04-11T10:36:21Z</time></trkpt><trkpt lat="45.64884614130139" lon="9.853828936472624"><ele>210.4</ele><time>2026-04-11T10:36:23Z</time></trkpt><trkpt lat="45.64895323116008" lon="9.853758289245539"><ele>211.0</ele><time>2026-04-11T10:36:25Z</time></trkpt><trkpt lat="45.64905490753653" lon="9.85373467050178"><ele>211.0</ele><time>2026-04-11T10:36:27Z</time></trkpt><trkpt lat="45.64913090221437" lon="9.853731516088985"><ele>211.0</ele><time>2026-04-11T10:36:29Z</time></trkpt><trkpt lat="45.64921226287147" lon="9.853692771944369"><ele>211.0</ele><time>2026-04-11T10:36:31Z</time></trkpt><trkpt lat="45.649304664459635" lon="9.853568542105899"><ele>211.0</ele><time>2026-04-11T10:36:33Z</time></trkpt><trkpt lat="45.649408331224365" lon="9.853477436415867"><ele>211.0</ele><time>2026-04-11T10:36:35Z</time></trkpt><trkpt lat="45.64951965419601" lon="9.853412648203086"><ele>211.25</ele><time>2026-04-11T10:36:37Z</time></trkpt><trkpt lat="45.64962533188948" lon="9.853327397011773"><ele>211.5</ele><time>2026-04-11T10:36:39Z</time></trkpt><trkpt lat="45.64972679208487" lon="9.853235602455651"><ele>211.75</ele><time>2026-04-11T10:36:41Z</time></trkpt><trkpt lat="45.64983024482797" lon="9.853152802217416"><ele>212.0</ele><time>2026-04-11T10:36:43Z</time></trkpt><trkpt lat="45.649921402283056" lon="9.853032468809346"><ele>212.0</ele><time>2026-04-11T10:36:45Z</time></trkpt><trkpt lat="45.650011545123725" lon="9.852921198845692"><ele>212.0</ele><time>2026-04-11T10:36:47Z</time></trkpt><trkpt lat="45.65009959721372" lon="9.852804413741639"><ele>212.0</ele><time>2026-04-11T10:36:49Z</time></trkpt><trkpt lat="45.65017554970179" lon="9.852674629082397"><ele>212.0</ele><time>2026-04-11T10:36:51Z</time></trkpt><trkpt lat="45.6502535921779" lon="9.852554718358258"><ele>212.6</ele><time>2026-04-11T10:36:53Z</time></trkpt><trkpt lat="45.6502935853631" lon="9.852476633097437"><ele>213.2</ele><time>2026-04-11T10:36:54Z</time></trkpt><trkpt lat="45.65035769419112" lon="9.85234037785891"><ele>213.8</ele><time>2026-04-11T10:36:56Z</time></trkpt><trkpt lat="45.650391449733085" lon="9.852259540273227"><ele>214.4</ele><time>2026-04-11T10:36:57Z</time></trkpt><trkpt lat="45.650449802170996" lon="9.85211611974138"><ele>215.0</ele><time>2026-04-11T10:36:59Z</time></trkpt><trkpt lat="45.65050795539728" lon="9.851969133257041"><ele>215.0</ele><time>2026-04-11T10:37:01Z</time></trkpt><trkpt lat="45.65055304892162" lon="9.851815002108316"><ele>215.0</ele><time>2026-04-11T10:37:03Z</time></trkpt><trkpt lat="45.65059771431656" lon="9.85165369496323"><ele>215.0</ele><time>2026-04-11T10:37:05Z</time></trkpt><trkpt lat="45.650631293312145" lon="9.8514995818948"><ele>215.0</ele><time>2026-04-11T10:37:07Z</time></trkpt><trkpt lat="45.65066319506004" lon="9.851334099373856"><ele>215.4</ele><time>2026-04-11T10:37:09Z</time></trkpt><trkpt lat="45.65068192887661" lon="9.851166877345463"><ele>215.8</ele><time>2026-04-11T10:37:11Z</time></trkpt><trkpt lat="45.650712532210314" lon="9.851008249721739"><ele>216.2</ele><time>2026-04-11T10:37:13Z</time></trkpt><trkpt lat="45.650732358561356" lon="9.850835947977632"><ele>216.6</ele><time>2026-04-11T10:37:15Z</time></trkpt><trkpt lat="45.650747845365224" lon="9.850747721246673"><ele>217.0</ele><time>2026-04-11T10:37:16Z</time></trkpt><trkpt lat="45.65076316899642" lon="9.85058571206887"><ele>217.0</ele><time>2026-04-11T10:37:18Z</time></trkpt><trkpt lat="45.650787346647874" lon="9.850408003622041"><ele>217.0</ele><time>2026-04-11T10:37:20Z</time></trkpt><trkpt lat="45.650800914399134" lon="9.850253059631573"><ele>217.0</ele><time>2026-04-11T10:37:22Z</time></trkpt><trkpt lat="45.65081285502911" lon="9.850157453198852"><ele>217.0</ele><time>2026-04-11T10:37:23Z</time></trkpt><trkpt lat="45.650838647255895" lon="9.85000519107561"><ele>217.0</ele><time>2026-04-11T10:37:25Z</time></trkpt><trkpt lat="45.65087550825913" lon="9.849845157563935"><ele>216.8</ele><time>2026-04-11T10:37:27Z</time></trkpt><trkpt lat="45.65089075382541" lon="9.849670100908174"><ele>216.6</ele><time>2026-04-11T10:37:29Z</time></trkpt><trkpt lat="45.65091744126143" lon="9.849499107181916"><ele>216.40000000000003</ele><time>2026-04-11T10:37:31Z</time></trkpt><trkpt lat="45.650969185944575" lon="9.849351077063812"><ele>216.20000000000002</ele><time>2026-04-11T10:37:33Z</time></trkpt><trkpt lat="45.65100568094675" lon="9.849271543582839"><ele>216.0</ele><time>2026-04-11T10:37:34Z</time></trkpt><trkpt lat="45.65102462531059" lon="9.8490980690193"><ele>216.0</ele><time>2026-04-11T10:37:36Z</time></trkpt><trkpt lat="45.65108990533797" lon="9.848948287906191"><ele>216.0</ele><time>2026-04-11T10:37:38Z</time></trkpt><trkpt lat="45.65113205523997" lon="9.848788350327247"><ele>216.0</ele><time>2026-04-11T10:37:40Z</time></trkpt><trkpt lat="45.65118086285947" lon="9.848637489278744"><ele>216.0</ele><time>2026-04-11T10:37:42Z</time></trkpt><trkpt lat="45.65122621013434" lon="9.848486233648766"><ele>216.75</ele><time>2026-04-11T10:37:44Z</time></trkpt><trkpt lat="45.651276633871795" lon="9.848332429679266"><ele>217.5</ele><time>2026-04-11T10:37:46Z</time></trkpt><trkpt lat="45.651319224387265" lon="9.848179438334057"><ele>218.25</ele><time>2026-04-11T10:37:48Z</time></trkpt><trkpt lat="45.651375278489716" lon="9.848025604336968"><ele>219.0</ele><time>2026-04-11T10:37:50Z</time></trkpt><trkpt lat="45.651437941771206" lon="9.847887261662544"><ele>219.0</ele><time>2026-04-11T10:37:52Z</time></trkpt><trkpt lat="45.65149463490203" lon="9.847779278830904"><ele>218.99999999999997</ele><time>2026-04-11T10:37:53Z</time></trkpt><trkpt lat="45.65151120794025" lon="9.847629949362922"><ele>218.99999999999997</ele><time>2026-04-11T10:37:55Z</time></trkpt><trkpt lat="45.65155956283937" lon="9.847478019695066"><ele>219.0</ele><time>2026-04-11T10:37:57Z</time></trkpt><trkpt lat="45.65160065473209" lon="9.84731305387142"><ele>219.0</ele><time>2026-04-11T10:37:59Z</time></trkpt><trkpt lat="45.65160843912191" lon="9.847219899152485"><ele>219.2</ele><time>2026-04-11T10:38:00Z</time></trkpt><trkpt lat="45.651665881391054" lon="9.847067949484396"><ele>219.39999999999998</ele><time>2026-04-11T10:38:02Z</time></trkpt><trkpt lat="45.65172068799161" lon="9.846911225017854"><ele>219.6</ele><time>2026-04-11T10:38:04Z</time></trkpt><trkpt lat="45.651748183713224" lon="9.846739610461604"><ele>219.8</ele><time>2026-04-11T10:38:06Z</time></trkpt><trkpt lat="45.65175942645263" lon="9.846648358142218"><ele>220.0</ele><time>2026-04-11T10:38:07Z</time></trkpt><trkpt lat="45.65182422116848" lon="9.846512381203036"><ele>220.0</ele><time>2026-04-11T10:38:09Z</time></trkpt><trkpt lat="45.651834087566804" lon="9.846422108200693"><ele>220.0</ele><time>2026-04-11T10:38:10Z</time></trkpt><trkpt lat="45.651851733340614" lon="9.846335237528905"><ele>220.0</ele><time>2026-04-11T10:38:11Z</time></trkpt><trkpt lat="45.65189278486073" lon="9.846177866703506"><ele>220.0</ele><time>2026-04-11T10:38:13Z</time></trkpt><trkpt lat="45.651917161638515" lon="9.8460128203025"><ele>220.0</ele><time>2026-04-11T10:38:15Z</time></trkpt><trkpt lat="45.65194892434062" lon="9.84584461397242"><ele>221.5</ele><time>2026-04-11T10:38:17Z</time></trkpt><trkpt lat="45.65197793942913" lon="9.84567391607733"><ele>223.0</ele><time>2026-04-11T10:38:19Z</time></trkpt><trkpt lat="45.65200659965064" lon="9.845505142200103"><ele>224.5</ele><time>2026-04-11T10:38:21Z</time></trkpt><trkpt lat="45.652042984007366" lon="9.845341651909068"><ele>226.0</ele><time>2026-04-11T10:38:23Z</time></trkpt><trkpt lat="45.652068408612465" lon="9.845173534825502"><ele>225.0</ele><time>2026-04-11T10:38:25Z</time></trkpt><trkpt lat="45.65210194436875" lon="9.845009353142316"><ele>224.0</ele><time>2026-04-11T10:38:27Z</time></trkpt><trkpt lat="45.6521331306949" lon="9.844846094987572"><ele>223.0</ele><time>2026-04-11T10:38:29Z</time></trkpt><trkpt lat="45.652164241294734" lon="9.844683048664637"><ele>222.0</ele><time>2026-04-11T10:38:31Z</time></trkpt><trkpt lat="45.652189189613786" lon="9.844511724734746"><ele>222.0</ele><time>2026-04-11T10:38:33Z</time></trkpt><trkpt lat="45.65222294519987" lon="9.84434212682318"><ele>222.0</ele><time>2026-04-11T10:38:35Z</time></trkpt><trkpt lat="45.65225644316574" lon="9.844169773165163"><ele>222.0</ele><time>2026-04-11T10:38:37Z</time></trkpt><trkpt lat="45.65228881885803" lon="9.843998648896722"><ele>222.0</ele><time>2026-04-11T10:38:39Z</time></trkpt><trkpt lat="45.652324588644376" lon="9.843830127530635"><ele>221.6</ele><time>2026-04-11T10:38:41Z</time></trkpt><trkpt lat="45.6523281059122" lon="9.843740152415497"><ele>221.2</ele><time>2026-04-11T10:38:42Z</time></trkpt><trkpt lat="45.65235362348636" lon="9.843655954452613"><ele>220.8</ele><time>2026-04-11T10:38:43Z</time></trkpt><trkpt lat="45.65238392639511" lon="9.84348972430741"><ele>220.4</ele><time>2026-04-11T10:38:45Z</time></trkpt><trkpt lat="45.65242721758653" lon="9.843320552180872"><ele>220.0</ele><time>2026-04-11T10:38:47Z</time></trkpt><trkpt lat="45.65245761429395" lon="9.843149669484012"><ele>219.8</ele><time>2026-04-11T10:38:49Z</time></trkpt><trkpt lat="45.65248444146481" lon="9.842979174195833"><ele>219.6</ele><time>2026-04-11T10:38:51Z</time></trkpt><trkpt lat="45.65250433459539" lon="9.842893247840722"><ele>219.39999999999998</ele><time>2026-04-11T10:38:52Z</time></trkpt><trkpt lat="45.65253337746687" lon="9.842731452851002"><ele>219.2</ele><time>2026-04-11T10:38:54Z</time></trkpt><trkpt lat="45.652564534574765" lon="9.842563801231874"><ele>219.0</ele><time>2026-04-11T10:38:56Z</time></trkpt><trkpt lat="45.652596629578326" lon="9.842396307800225"><ele>219.0</ele><time>2026-04-11T10:38:58Z</time></trkpt><trkpt lat="45.65263588660093" lon="9.842231723846131"><ele>218.99999999999997</ele><time>2026-04-11T10:39:00Z</time></trkpt><trkpt lat="45.65266741454666" lon="9.842058425356896"><ele>218.99999999999997</ele><time>2026-04-11T10:39:02Z</time></trkpt><trkpt lat="45.65270308003276" lon="9.841893071111834"><ele>219.0</ele><time>2026-04-11T10:39:04Z</time></trkpt><trkpt lat="45.65272530527498" lon="9.841804776897485"><ele>219.0</ele><time>2026-04-11T10:39:05Z</time></trkpt><trkpt lat="45.65276605132497" lon="9.841636021816038"><ele>220.0</ele><time>2026-04-11T10:39:07Z</time></trkpt><trkpt lat="45.652808432075105" lon="9.841469309058269"><ele>221.0</ele><time>2026-04-11T10:39:09Z</time></trkpt><trkpt lat="45.65285424685044" lon="9.841301856096907"><ele>222.0</ele><time>2026-04-11T10:39:11Z</time></trkpt><trkpt lat="45.65289989649391" lon="9.841134907553698"><ele>223.0</ele><time>2026-04-11T10:39:13Z</time></trkpt><trkpt lat="45.65294744447866" lon="9.840975670574917"><ele>222.60000000000002</ele><time>2026-04-11T10:39:15Z</time></trkpt><trkpt lat="45.652970595295166" lon="9.840890934940663"><ele>222.20000000000002</ele><time>2026-04-11T10:39:16Z</time></trkpt><trkpt lat="45.653020001413516" lon="9.840728999910269"><ele>221.8</ele><time>2026-04-11T10:39:18Z</time></trkpt><trkpt lat="45.65307718633086" lon="9.840572883513188"><ele>221.4</ele><time>2026-04-11T10:39:20Z</time></trkpt><trkpt lat="45.653131436938814" lon="9.840412770974085"><ele>221.0</ele><time>2026-04-11T10:39:22Z</time></trkpt><trkpt lat="45.65318954044417" lon="9.840256035904007"><ele>221.25</ele><time>2026-04-11T10:39:24Z</time></trkpt><trkpt lat="45.65324586711405" lon="9.840099468354557"><ele>221.5</ele><time>2026-04-11T10:39:26Z</time></trkpt><trkpt lat="45.653300222050085" lon="9.839943872094834"><ele>221.75</ele><time>2026-04-11T10:39:28Z</time></trkpt><trkpt lat="45.653351230555714" lon="9.839786017394983"><ele>222.0</ele><time>2026-04-11T10:39:30Z</time></trkpt><trkpt lat="45.653407544318995" lon="9.839634163557605"><ele>222.0</ele><time>2026-04-11T10:39:32Z</time></trkpt><trkpt lat="45.65346682914242" lon="9.839483545220487"><ele>222.0</ele><time>2026-04-11T10:39:34Z</time></trkpt><trkpt lat="45.653528224632446" lon="9.839332523910931"><ele>222.0</ele><time>2026-04-11T10:39:36Z</time></trkpt><trkpt lat="45.65358497288994" lon="9.839175549065219"><ele>222.0</ele><time>2026-04-11T10:39:38Z</time></trkpt><trkpt lat="45.653645713485524" lon="9.839020349055438"><ele>222.2</ele><time>2026-04-11T10:39:40Z</time></trkpt><trkpt lat="45.65370251575637" lon="9.838871535636315"><ele>222.39999999999998</ele><time>2026-04-11T10:39:42Z</time></trkpt><trkpt lat="45.653757005790155" lon="9.83872501098888"><ele>222.60000000000002</ele><time>2026-04-11T10:39:44Z</time></trkpt><trkpt lat="45.6538071493253" lon="9.838591389618827"><ele>222.8</ele><time>2026-04-11T10:39:46Z</time></trkpt><trkpt lat="45.65385847713347" lon="9.838472304088516"><ele>223.0</ele><time>2026-04-11T10:39:48Z</time></trkpt><trkpt lat="45.65390562963392" lon="9.838344977327932"><ele>223.0</ele><time>2026-04-11T10:39:50Z</time></trkpt><trkpt lat="45.65395646482058" lon="9.83819649654523"><ele>223.0</ele><time>2026-04-11T10:39:52Z</time></trkpt><trkpt lat="45.65401734618274" lon="9.838041853575884"><ele>223.0</ele><time>2026-04-11T10:39:54Z</time></trkpt><trkpt lat="45.65407582413728" lon="9.837887091598523"><ele>223.0</ele><time>2026-04-11T10:39:56Z</time></trkpt><trkpt lat="45.654129831803026" lon="9.837730787283979"><ele>222.5</ele><time>2026-04-11T10:39:58Z</time></trkpt><trkpt lat="45.65418562864558" lon="9.837578524633857"><ele>222.0</ele><time>2026-04-11T10:40:00Z</time></trkpt><trkpt lat="45.65424053661646" lon="9.837429333426451"><ele>221.5</ele><time>2026-04-11T10:40:02Z</time></trkpt><trkpt lat="45.65429677313749" lon="9.837277374237793"><ele>221.0</ele><time>2026-04-11T10:40:04Z</time></trkpt><trkpt lat="45.6543539069672" lon="9.83712815531636"><ele>221.0</ele><time>2026-04-11T10:40:06Z</time></trkpt><trkpt lat="45.65441342559264" lon="9.836974452030333"><ele>221.0</ele><time>2026-04-11T10:40:08Z</time></trkpt><trkpt lat="45.654468277622065" lon="9.836822610884484"><ele>221.0</ele><time>2026-04-11T10:40:10Z</time></trkpt><trkpt lat="45.65452193557691" lon="9.836669478364758"><ele>221.0</ele><time>2026-04-11T10:40:12Z</time></trkpt><trkpt lat="45.65457849579426" lon="9.836517078949914"><ele>221.0</ele><time>2026-04-11T10:40:14Z</time></trkpt><trkpt lat="45.654632765337105" lon="9.836362046691551"><ele>221.0</ele><time>2026-04-11T10:40:16Z</time></trkpt><trkpt lat="45.654689474925235" lon="9.83620865164019"><ele>221.0</ele><time>2026-04-11T10:40:18Z</time></trkpt><trkpt lat="45.65474716405063" lon="9.8360577113522"><ele>221.0</ele><time>2026-04-11T10:40:20Z</time></trkpt><trkpt lat="45.65480489174674" lon="9.835902329158232"><ele>221.0</ele><time>2026-04-11T10:40:22Z</time></trkpt><trkpt lat="45.6548612472671" lon="9.835748848094441"><ele>221.0</ele><time>2026-04-11T10:40:24Z</time></trkpt><trkpt lat="45.65492184380593" lon="9.835597568493242"><ele>221.0</ele><time>2026-04-11T10:40:26Z</time></trkpt><trkpt lat="45.65497627827974" lon="9.835443813020436"><ele>221.0</ele><time>2026-04-11T10:40:28Z</time></trkpt><trkpt lat="45.655032625735586" lon="9.835292220088096"><ele>221.0</ele><time>2026-04-11T10:40:30Z</time></trkpt><trkpt lat="45.6550893026764" lon="9.835143635845064"><ele>221.0</ele><time>2026-04-11T10:40:32Z</time></trkpt><trkpt lat="45.65514608116748" lon="9.834992296413002"><ele>221.0</ele><time>2026-04-11T10:40:34Z</time></trkpt><trkpt lat="45.65520182897816" lon="9.834839789738602"><ele>221.0</ele><time>2026-04-11T10:40:36Z</time></trkpt><trkpt lat="45.6552575893724" lon="9.834685801856201"><ele>222.25</ele><time>2026-04-11T10:40:38Z</time></trkpt><trkpt lat="45.65531485593174" lon="9.834533017663361"><ele>223.5</ele><time>2026-04-11T10:40:40Z</time></trkpt><trkpt lat="45.65537604764418" lon="9.834382484739631"><ele>224.75</ele><time>2026-04-11T10:40:42Z</time></trkpt><trkpt lat="45.655437742827836" lon="9.83423136840083"><ele>226.0</ele><time>2026-04-11T10:40:44Z</time></trkpt><trkpt lat="45.65550101834687" lon="9.834084542936301"><ele>226.0</ele><time>2026-04-11T10:40:46Z</time></trkpt><trkpt lat="45.65556350624962" lon="9.833932812058826"><ele>226.0</ele><time>2026-04-11T10:40:48Z</time></trkpt><trkpt lat="45.65563227147086" lon="9.833785023989225"><ele>226.0</ele><time>2026-04-11T10:40:50Z</time></trkpt><trkpt lat="45.65570328303977" lon="9.833639086139213"><ele>226.0</ele><time>2026-04-11T10:40:52Z</time></trkpt><trkpt lat="45.65577824767661" lon="9.833505774635784"><ele>225.60000000000002</ele><time>2026-04-11T10:40:54Z</time></trkpt><trkpt lat="45.655813815704164" lon="9.833427997009794"><ele>225.20000000000002</ele><time>2026-04-11T10:40:55Z</time></trkpt><trkpt lat="45.65589230011931" lon="9.833293311819915"><ele>224.79999999999998</ele><time>2026-04-11T10:40:57Z</time></trkpt><trkpt lat="45.65596916485413" lon="9.833166171891353"><ele>224.39999999999998</ele><time>2026-04-11T10:40:59Z</time></trkpt><trkpt lat="45.656038889203" lon="9.833045553457243"><ele>224.0</ele><time>2026-04-11T10:41:01Z</time></trkpt><trkpt lat="45.65610063055263" lon="9.832934073964056"><ele>224.33333333333334</ele><time>2026-04-11T10:41:03Z</time></trkpt><trkpt lat="45.65616463686931" lon="9.832839256528842"><ele>224.66666666666669</ele><time>2026-04-11T10:41:05Z</time></trkpt><trkpt lat="45.65623264956733" lon="9.832750364057967"><ele>225.0</ele><time>2026-04-11T10:41:07Z</time></trkpt><trkpt lat="45.65629313507143" lon="9.832671877194963"><ele>225.33333333333331</ele><time>2026-04-11T10:41:09Z</time></trkpt><trkpt lat="45.65635323330917" lon="9.832577338024533"><ele>225.66666666666666</ele><time>2026-04-11T10:41:11Z</time></trkpt><trkpt lat="45.65642597446775" lon="9.8325036149484"><ele>226.0</ele><time>2026-04-11T10:41:13Z</time></trkpt><trkpt lat="45.656510946952466" lon="9.832439772544381"><ele>226.0</ele><time>2026-04-11T10:41:15Z</time></trkpt><trkpt lat="45.65657074953041" lon="9.832296109405926"><ele>226.0</ele><time>2026-04-11T10:41:17Z</time></trkpt><trkpt lat="45.65665664700175" lon="9.83217495288387"><ele>226.0</ele><time>2026-04-11T10:41:19Z</time></trkpt><trkpt lat="45.65674355914399" lon="9.832052490135565"><ele>226.0</ele><time>2026-04-11T10:41:21Z</time></trkpt><trkpt lat="45.656829552945325" lon="9.831927578704372"><ele>226.0</ele><time>2026-04-11T10:41:23Z</time></trkpt><trkpt lat="45.656875612860745" lon="9.831864715738853"><ele>226.00000000000003</ele><time>2026-04-11T10:41:24Z</time></trkpt><trkpt lat="45.65696653290247" lon="9.831743630439732"><ele>226.00000000000003</ele><time>2026-04-11T10:41:26Z</time></trkpt><trkpt lat="45.6570569016933" lon="9.83162173651767"><ele>226.0</ele><time>2026-04-11T10:41:28Z</time></trkpt><trkpt lat="45.65714494237248" lon="9.831498694332623"><ele>226.0</ele><time>2026-04-11T10:41:30Z</time></trkpt><trkpt lat="45.6572314530738" lon="9.831377129037309"><ele>225.75</ele><time>2026-04-11T10:41:32Z</time></trkpt><trkpt lat="45.65731605918453" lon="9.831258155065832"><ele>225.5</ele><time>2026-04-11T10:41:34Z</time></trkpt><trkpt lat="45.657401249073835" lon="9.831137711469779"><ele>225.25</ele><time>2026-04-11T10:41:36Z</time></trkpt><trkpt lat="45.657490014829776" lon="9.83102251435883"><ele>225.0</ele><time>2026-04-11T10:41:38Z</time></trkpt><trkpt lat="45.65757704512381" lon="9.830902777025555"><ele>225.0</ele><time>2026-04-11T10:41:40Z</time></trkpt><trkpt lat="45.657662599500874" lon="9.830778828701595"><ele>225.0</ele><time>2026-04-11T10:41:42Z</time></trkpt><trkpt lat="45.65774768018857" lon="9.830656555473293"><ele>225.0</ele><time>2026-04-11T10:41:44Z</time></trkpt><trkpt lat="45.657836063823495" lon="9.830536987365345"><ele>225.0</ele><time>2026-04-11T10:41:46Z</time></trkpt><trkpt lat="45.65792265613875" lon="9.830418515949042"><ele>225.75</ele><time>2026-04-11T10:41:48Z</time></trkpt><trkpt lat="45.65800819587413" lon="9.830295473424162"><ele>226.5</ele><time>2026-04-11T10:41:50Z</time></trkpt><trkpt lat="45.65809659618646" lon="9.830174975252184"><ele>227.25</ele><time>2026-04-11T10:41:52Z</time></trkpt><trkpt lat="45.658186811419284" lon="9.830060284491612"><ele>228.0</ele><time>2026-04-11T10:41:54Z</time></trkpt><trkpt lat="45.65827448063886" lon="9.829938101180163"><ele>228.0</ele><time>2026-04-11T10:41:56Z</time></trkpt><trkpt lat="45.65836217765738" lon="9.829817188334985"><ele>228.0</ele><time>2026-04-11T10:41:58Z</time></trkpt><trkpt lat="45.65845161564672" lon="9.829700662168412"><ele>228.0</ele><time>2026-04-11T10:42:00Z</time></trkpt><trkpt lat="45.658535122308756" lon="9.829571994727747"><ele>228.0</ele><time>2026-04-11T10:42:02Z</time></trkpt><trkpt lat="45.658624632822686" lon="9.829449892254253"><ele>227.75</ele><time>2026-04-11T10:42:04Z</time></trkpt><trkpt lat="45.65871174168959" lon="9.829332891126096"><ele>227.5</ele><time>2026-04-11T10:42:06Z</time></trkpt><trkpt lat="45.65880157022875" lon="9.829211757038655"><ele>227.25</ele><time>2026-04-11T10:42:08Z</time></trkpt><trkpt lat="45.65889006076091" lon="9.829091489101389"><ele>227.0</ele><time>2026-04-11T10:42:10Z</time></trkpt><trkpt lat="45.6589763840177" lon="9.828968719492611"><ele>227.0</ele><time>2026-04-11T10:42:12Z</time></trkpt><trkpt lat="45.65906579871594" lon="9.828848694612967"><ele>227.0</ele><time>2026-04-11T10:42:14Z</time></trkpt><trkpt lat="45.6591541787077" lon="9.828727531905855"><ele>227.0</ele><time>2026-04-11T10:42:16Z</time></trkpt><trkpt lat="45.659243997672085" lon="9.828609392667257"><ele>227.0</ele><time>2026-04-11T10:42:18Z</time></trkpt><trkpt lat="45.65932895359612" lon="9.828489810449657"><ele>227.0</ele><time>2026-04-11T10:42:20Z</time></trkpt><trkpt lat="45.65941497288041" lon="9.828369019588866"><ele>227.0</ele><time>2026-04-11T10:42:22Z</time></trkpt><trkpt lat="45.65950083630363" lon="9.82824972880014"><ele>227.0</ele><time>2026-04-11T10:42:24Z</time></trkpt><trkpt lat="45.65958650998135" lon="9.828127354972462"><ele>227.0</ele><time>2026-04-11T10:42:26Z</time></trkpt><trkpt lat="45.65968003847886" lon="9.828008221890725"><ele>227.16666666666669</ele><time>2026-04-11T10:42:28Z</time></trkpt><trkpt lat="45.659726922493235" lon="9.827944022524939"><ele>227.33333333333334</ele><time>2026-04-11T10:42:29Z</time></trkpt><trkpt lat="45.65981740476654" lon="9.82781942599693"><ele>227.5</ele><time>2026-04-11T10:42:31Z</time></trkpt><trkpt lat="45.659863675909165" lon="9.82775676114489"><ele>227.66666666666669</ele><time>2026-04-11T10:42:32Z</time></trkpt><trkpt lat="45.659951722159754" lon="9.827628115559682"><ele>227.83333333333334</ele><time>2026-04-11T10:42:34Z</time></trkpt><trkpt lat="45.65999842769802" lon="9.827563813445835"><ele>228.0</ele><time>2026-04-11T10:42:35Z</time></trkpt><trkpt lat="45.66004646703257" lon="9.827502094360728"><ele>228.2</ele><time>2026-04-11T10:42:36Z</time></trkpt><trkpt lat="45.6600937063204" lon="9.82743722843043"><ele>228.4</ele><time>2026-04-11T10:42:37Z</time></trkpt><trkpt lat="45.660140883530495" lon="9.827374690183367"><ele>228.59999999999997</ele><time>2026-04-11T10:42:38Z</time></trkpt><trkpt lat="45.66023001622682" lon="9.827251460464888"><ele>228.79999999999998</ele><time>2026-04-11T10:42:40Z</time></trkpt><trkpt lat="45.66031785748514" lon="9.827128627983216"><ele>229.0</ele><time>2026-04-11T10:42:42Z</time></trkpt><trkpt lat="45.66040713616343" lon="9.827009542177958"><ele>229.0</ele><time>2026-04-11T10:42:44Z</time></trkpt><trkpt lat="45.66048816936699" lon="9.826891488392288"><ele>228.99999999999997</ele><time>2026-04-11T10:42:46Z</time></trkpt><trkpt lat="45.6605330035464" lon="9.82682588611813"><ele>228.99999999999997</ele><time>2026-04-11T10:42:47Z</time></trkpt><trkpt lat="45.66061789375628" lon="9.826725295426112"><ele>229.0</ele><time>2026-04-11T10:42:49Z</time></trkpt><trkpt lat="45.66069531108737" lon="9.826607484487281"><ele>229.0</ele><time>2026-04-11T10:42:51Z</time></trkpt><trkpt lat="45.660743786141786" lon="9.826538466160377"><ele>229.0</ele><time>2026-04-11T10:42:52Z</time></trkpt><trkpt lat="45.66083372503797" lon="9.8264179802178"><ele>229.0</ele><time>2026-04-11T10:42:54Z</time></trkpt><trkpt lat="45.66088039819456" lon="9.826354937070139"><ele>229.0</ele><time>2026-04-11T10:42:55Z</time></trkpt><trkpt lat="45.66092524876024" lon="9.826290800607417"><ele>229.0</ele><time>2026-04-11T10:42:56Z</time></trkpt><trkpt lat="45.660970820987586" lon="9.826225562422163"><ele>229.0</ele><time>2026-04-11T10:42:57Z</time></trkpt><trkpt lat="45.6610168400351" lon="9.82616000607619"><ele>229.0</ele><time>2026-04-11T10:42:58Z</time></trkpt><trkpt lat="45.66106297552942" lon="9.826096451654127"><ele>229.0</ele><time>2026-04-11T10:42:59Z</time></trkpt><trkpt lat="45.66110898514784" lon="9.82603200336782"><ele>229.16666666666666</ele><time>2026-04-11T10:43:00Z</time></trkpt><trkpt lat="45.66115424736908" lon="9.82596392307577"><ele>229.33333333333331</ele><time>2026-04-11T10:43:01Z</time></trkpt><trkpt lat="45.66124568640828" lon="9.825838702114085"><ele>229.5</ele><time>2026-04-11T10:43:03Z</time></trkpt><trkpt lat="45.66133596044736" lon="9.825717149817258"><ele>229.66666666666669</ele><time>2026-04-11T10:43:05Z</time></trkpt><trkpt lat="45.6613849931971" lon="9.825659323814001"><ele>229.83333333333334</ele><time>2026-04-11T10:43:06Z</time></trkpt><trkpt lat="45.661428219210684" lon="9.82559352509472"><ele>230.0</ele><time>2026-04-11T10:43:07Z</time></trkpt><trkpt lat="45.661474102260165" lon="9.825524669310928"><ele>230.00000000000003</ele><time>2026-04-11T10:43:08Z</time></trkpt><trkpt lat="45.6615670550575" lon="9.82540513455382"><ele>230.0</ele><time>2026-04-11T10:43:10Z</time></trkpt><trkpt lat="45.66166276988775" lon="9.825285650043954"><ele>230.0</ele><time>2026-04-11T10:43:12Z</time></trkpt><trkpt lat="45.66170958344441" lon="9.825222749365913"><ele>230.0</ele><time>2026-04-11T10:43:13Z</time></trkpt><trkpt lat="45.661755826888424" lon="9.825160560871792"><ele>230.00000000000003</ele><time>2026-04-11T10:43:14Z</time></trkpt><trkpt lat="45.66180060087086" lon="9.825093264272336"><ele>230.0</ele><time>2026-04-11T10:43:15Z</time></trkpt><trkpt lat="45.66184547679431" lon="9.825028685959959"><ele>229.85714285714283</ele><time>2026-04-11T10:43:16Z</time></trkpt><trkpt lat="45.66189141961928" lon="9.824962231268787"><ele>229.71428571428572</ele><time>2026-04-11T10:43:17Z</time></trkpt><trkpt lat="45.66197993090249" lon="9.824845203392282"><ele>229.57142857142856</ele><time>2026-04-11T10:43:19Z</time></trkpt><trkpt lat="45.66202679860294" lon="9.824771284012249"><ele>229.42857142857142</ele><time>2026-04-11T10:43:20Z</time></trkpt><trkpt lat="45.66207064203958" lon="9.824706069917937"><ele>229.28571428571428</ele><time>2026-04-11T10:43:21Z</time></trkpt><trkpt lat="45.66211394690492" lon="9.82463840340202"><ele>229.14285714285714</ele><time>2026-04-11T10:43:22Z</time></trkpt><trkpt lat="45.66216022170563" lon="9.824576875348157"><ele>229.0</ele><time>2026-04-11T10:43:23Z</time></trkpt><trkpt lat="45.662205939442345" lon="9.824510706152582"><ele>229.0</ele><time>2026-04-11T10:43:24Z</time></trkpt><trkpt lat="45.662251285703405" lon="9.824444687357657"><ele>228.99999999999997</ele><time>2026-04-11T10:43:25Z</time></trkpt><trkpt lat="45.66229705473295" lon="9.824382821882578"><ele>228.99999999999997</ele><time>2026-04-11T10:43:26Z</time></trkpt><trkpt lat="45.66238526287019" lon="9.82425471986333"><ele>229.0</ele><time>2026-04-11T10:43:28Z</time></trkpt><trkpt lat="45.66246966486594" lon="9.824123119910729"><ele>229.0</ele><time>2026-04-11T10:43:30Z</time></trkpt><trkpt lat="45.66255635659568" lon="9.823998171692818"><ele>228.875</ele><time>2026-04-11T10:43:32Z</time></trkpt><trkpt lat="45.662599544916304" lon="9.823930825913635"><ele>228.75</ele><time>2026-04-11T10:43:33Z</time></trkpt><trkpt lat="45.6626436778116" lon="9.82386473073052"><ele>228.625</ele><time>2026-04-11T10:43:34Z</time></trkpt><trkpt lat="45.66268536307422" lon="9.823796385442147"><ele>228.5</ele><time>2026-04-11T10:43:35Z</time></trkpt><trkpt lat="45.66272874639472" lon="9.82373079181069"><ele>228.375</ele><time>2026-04-11T10:43:36Z</time></trkpt><trkpt lat="45.66277298978298" lon="9.823665482734517"><ele>228.25</ele><time>2026-04-11T10:43:37Z</time></trkpt><trkpt lat="45.66281820672872" lon="9.8235973374058"><ele>228.125</ele><time>2026-04-11T10:43:38Z</time></trkpt><trkpt lat="45.662861893540175" lon="9.82353064280102"><ele>228.0</ele><time>2026-04-11T10:43:39Z</time></trkpt><trkpt lat="45.662904975874014" lon="9.8234603391685"><ele>227.0</ele><time>2026-04-11T10:43:40Z</time></trkpt><trkpt lat="45.66294950732089" lon="9.823388450020198"><ele>226.0</ele><time>2026-04-11T10:43:41Z</time></trkpt><trkpt lat="45.66303385134883" lon="9.823251891911973"><ele>225.0</ele><time>2026-04-11T10:43:43Z</time></trkpt><trkpt lat="45.66311765905955" lon="9.823123048329828"><ele>224.0</ele><time>2026-04-11T10:43:45Z</time></trkpt><trkpt lat="45.66316180137953" lon="9.823057244147414"><ele>223.0</ele><time>2026-04-11T10:43:46Z</time></trkpt><trkpt lat="45.66323853264585" lon="9.822929746165201"><ele>223.0</ele><time>2026-04-11T10:43:48Z</time></trkpt><trkpt lat="45.663314167940264" lon="9.822800030179437"><ele>223.0</ele><time>2026-04-11T10:43:50Z</time></trkpt><trkpt lat="45.66338930251611" lon="9.822678950443178"><ele>223.0</ele><time>2026-04-11T10:43:52Z</time></trkpt><trkpt lat="45.66347196050094" lon="9.822554772258627"><ele>223.0</ele><time>2026-04-11T10:43:54Z</time></trkpt><trkpt lat="45.663551392446266" lon="9.822416891729045"><ele>222.75</ele><time>2026-04-11T10:43:56Z</time></trkpt><trkpt lat="45.663633035021206" lon="9.822280453524169"><ele>222.5</ele><time>2026-04-11T10:43:58Z</time></trkpt><trkpt lat="45.66371210944094" lon="9.8221511011679"><ele>222.25</ele><time>2026-04-11T10:44:00Z</time></trkpt><trkpt lat="45.66379753395304" lon="9.822020944172419"><ele>222.0</ele><time>2026-04-11T10:44:02Z</time></trkpt><trkpt lat="45.66387936547121" lon="9.821885336268686"><ele>222.0</ele><time>2026-04-11T10:44:04Z</time></trkpt><trkpt lat="45.66392121487715" lon="9.821817422797835"><ele>222.0</ele><time>2026-04-11T10:44:05Z</time></trkpt><trkpt lat="45.66400608410326" lon="9.821684720541116"><ele>222.0</ele><time>2026-04-11T10:44:07Z</time></trkpt><trkpt lat="45.66408612862528" lon="9.82155255317647"><ele>222.0</ele><time>2026-04-11T10:44:09Z</time></trkpt><trkpt lat="45.664167007140385" lon="9.821419906994912"><ele>222.0</ele><time>2026-04-11T10:44:11Z</time></trkpt><trkpt lat="45.66420990339594" lon="9.821353899921679"><ele>222.5</ele><time>2026-04-11T10:44:12Z</time></trkpt><trkpt lat="45.66429135948668" lon="9.82122239341904"><ele>223.0</ele><time>2026-04-11T10:44:14Z</time></trkpt><trkpt lat="45.66437091880401" lon="9.821086415442506"><ele>223.5</ele><time>2026-04-11T10:44:16Z</time></trkpt><trkpt lat="45.66444876530141" lon="9.820957594768933"><ele>224.0</ele><time>2026-04-11T10:44:18Z</time></trkpt><trkpt lat="45.664530760553546" lon="9.82082894298217"><ele>224.0</ele><time>2026-04-11T10:44:20Z</time></trkpt><trkpt lat="45.664611293155424" lon="9.820698558422587"><ele>224.0</ele><time>2026-04-11T10:44:22Z</time></trkpt><trkpt lat="45.66469107195818" lon="9.820565919614326"><ele>224.0</ele><time>2026-04-11T10:44:24Z</time></trkpt><trkpt lat="45.664771998715366" lon="9.820435486601022"><ele>224.0</ele><time>2026-04-11T10:44:26Z</time></trkpt><trkpt lat="45.66485337311142" lon="9.82030321854543"><ele>224.0</ele><time>2026-04-11T10:44:28Z</time></trkpt><trkpt lat="45.66489612625951" lon="9.820236851764033"><ele>223.99999999999997</ele><time>2026-04-11T10:44:29Z</time></trkpt><trkpt lat="45.66497665706654" lon="9.82011319708832"><ele>223.99999999999997</ele><time>2026-04-11T10:44:31Z</time></trkpt><trkpt lat="45.665053927066225" lon="9.819984014403037"><ele>224.0</ele><time>2026-04-11T10:44:33Z</time></trkpt><trkpt lat="45.6651316586192" lon="9.81985296142811"><ele>224.0</ele><time>2026-04-11T10:44:35Z</time></trkpt><trkpt lat="45.66520955272423" lon="9.819723469117895"><ele>224.25</ele><time>2026-04-11T10:44:37Z</time></trkpt><trkpt lat="45.66528869762187" lon="9.819598984009984"><ele>224.5</ele><time>2026-04-11T10:44:39Z</time></trkpt><trkpt lat="45.665372729635656" lon="9.819471221331051"><ele>224.75</ele><time>2026-04-11T10:44:41Z</time></trkpt><trkpt lat="45.66544796749957" lon="9.819332890704457"><ele>225.0</ele><time>2026-04-11T10:44:43Z</time></trkpt><trkpt lat="45.6655272764828" lon="9.819199308755998"><ele>225.0</ele><time>2026-04-11T10:44:45Z</time></trkpt><trkpt lat="45.665608923382784" lon="9.819068354866577"><ele>225.0</ele><time>2026-04-11T10:44:47Z</time></trkpt><trkpt lat="45.665690163061406" lon="9.81893949435679"><ele>225.0</ele><time>2026-04-11T10:44:49Z</time></trkpt><trkpt lat="45.66577205319169" lon="9.818810115246745"><ele>225.0</ele><time>2026-04-11T10:44:51Z</time></trkpt><trkpt lat="45.665854103406055" lon="9.818678977606929"><ele>225.0</ele><time>2026-04-11T10:44:53Z</time></trkpt><trkpt lat="45.665936010008444" lon="9.818548748218527"><ele>225.0</ele><time>2026-04-11T10:44:55Z</time></trkpt><trkpt lat="45.66601618824871" lon="9.818418798414656"><ele>225.0</ele><time>2026-04-11T10:44:57Z</time></trkpt><trkpt lat="45.66609467726329" lon="9.81828451313851"><ele>225.0</ele><time>2026-04-11T10:44:59Z</time></trkpt><trkpt lat="45.66617058352245" lon="9.81815366264908"><ele>225.2</ele><time>2026-04-11T10:45:01Z</time></trkpt><trkpt lat="45.66624992788848" lon="9.81802438971547"><ele>225.4</ele><time>2026-04-11T10:45:03Z</time></trkpt><trkpt lat="45.66629347973045" lon="9.817958933385068"><ele>225.60000000000002</ele><time>2026-04-11T10:45:04Z</time></trkpt><trkpt lat="45.66637490710397" lon="9.817827331165532"><ele>225.8</ele><time>2026-04-11T10:45:06Z</time></trkpt><trkpt lat="45.666454356769414" lon="9.817696411581382"><ele>226.0</ele><time>2026-04-11T10:45:08Z</time></trkpt><trkpt lat="45.66653656425894" lon="9.817561894081576"><ele>225.4</ele><time>2026-04-11T10:45:10Z</time></trkpt><trkpt lat="45.66661421423406" lon="9.817426611350518"><ele>224.8</ele><time>2026-04-11T10:45:12Z</time></trkpt><trkpt lat="45.66669067495864" lon="9.817303684540915"><ele>224.20000000000002</ele><time>2026-04-11T10:45:14Z</time></trkpt><trkpt lat="45.66673744629888" lon="9.81723701463827"><ele>223.60000000000002</ele><time>2026-04-11T10:45:15Z</time></trkpt><trkpt lat="45.66681573704484" lon="9.817106927582184"><ele>223.0</ele><time>2026-04-11T10:45:17Z</time></trkpt><trkpt lat="45.66689336400092" lon="9.816976270162177"><ele>223.75</ele><time>2026-04-11T10:45:19Z</time></trkpt><trkpt lat="45.66697162784918" lon="9.81684525527488"><ele>224.5</ele><time>2026-04-11T10:45:21Z</time></trkpt><trkpt lat="45.66704875685031" lon="9.816717588161245"><ele>225.25</ele><time>2026-04-11T10:45:23Z</time></trkpt><trkpt lat="45.66712984311494" lon="9.816592621636829"><ele>226.0</ele><time>2026-04-11T10:45:25Z</time></trkpt><trkpt lat="45.66720955803493" lon="9.816462974715838"><ele>226.25</ele><time>2026-04-11T10:45:27Z</time></trkpt><trkpt lat="45.66728854173506" lon="9.816336004100483"><ele>226.5</ele><time>2026-04-11T10:45:29Z</time></trkpt><trkpt lat="45.66736788906145" lon="9.816209285763035"><ele>226.75</ele><time>2026-04-11T10:45:31Z</time></trkpt><trkpt lat="45.667447389659664" lon="9.816088423510815"><ele>227.0</ele><time>2026-04-11T10:45:33Z</time></trkpt><trkpt lat="45.66752757900574" lon="9.815963406449308"><ele>227.0</ele><time>2026-04-11T10:45:35Z</time></trkpt><trkpt lat="45.66761373707041" lon="9.815851392370696"><ele>227.0</ele><time>2026-04-11T10:45:37Z</time></trkpt><trkpt lat="45.66770672066096" lon="9.815747694561248"><ele>227.0</ele><time>2026-04-11T10:45:39Z</time></trkpt><trkpt lat="45.66779959435037" lon="9.815673624617377"><ele>227.0</ele><time>2026-04-11T10:45:41Z</time></trkpt><trkpt lat="45.66790899107013" lon="9.81564572903978"><ele>226.6</ele><time>2026-04-11T10:45:43Z</time></trkpt><trkpt lat="45.668025095139384" lon="9.815628654807785"><ele>226.2</ele><time>2026-04-11T10:45:45Z</time></trkpt><trkpt lat="45.66813376720329" lon="9.81556070469959"><ele>225.8</ele><time>2026-04-11T10:45:47Z</time></trkpt><trkpt lat="45.6682158074042" lon="9.815446524653165"><ele>225.4</ele><time>2026-04-11T10:45:49Z</time></trkpt><trkpt lat="45.66824241264577" lon="9.815364477545161"><ele>225.0</ele><time>2026-04-11T10:45:50Z</time></trkpt><trkpt lat="45.668255080863524" lon="9.815194423264854"><ele>225.0</ele><time>2026-04-11T10:45:52Z</time></trkpt><trkpt lat="45.66825517989652" lon="9.815021745979351"><ele>225.0</ele><time>2026-04-11T10:45:54Z</time></trkpt><trkpt lat="45.66829198148385" lon="9.81485927642423"><ele>225.0</ele><time>2026-04-11T10:45:56Z</time></trkpt><trkpt lat="45.66832712597434" lon="9.814784126258427"><ele>225.0</ele><time>2026-04-11T10:45:57Z</time></trkpt><trkpt lat="45.668363467273274" lon="9.814709005097324"><ele>225.0</ele><time>2026-04-11T10:45:58Z</time></trkpt><trkpt lat="45.668446362223214" lon="9.814582415706838"><ele>225.0</ele><time>2026-04-11T10:46:00Z</time></trkpt><trkpt lat="45.66853168190941" lon="9.81445343067749"><ele>225.0</ele><time>2026-04-11T10:46:02Z</time></trkpt><trkpt lat="45.66861294358077" lon="9.814326053553028"><ele>225.0</ele><time>2026-04-11T10:46:04Z</time></trkpt><trkpt lat="45.66869311981568" lon="9.814189754853729"><ele>225.0</ele><time>2026-04-11T10:46:06Z</time></trkpt><trkpt lat="45.668780063059494" lon="9.814077375856675"><ele>225.0</ele><time>2026-04-11T10:46:08Z</time></trkpt><trkpt lat="45.66883121905127" lon="9.814012303778496"><ele>225.0</ele><time>2026-04-11T10:46:09Z</time></trkpt><trkpt lat="45.668916761944516" lon="9.813895597953968"><ele>225.0</ele><time>2026-04-11T10:46:11Z</time></trkpt><trkpt lat="45.6689599171391" lon="9.813829729876598"><ele>225.0</ele><time>2026-04-11T10:46:12Z</time></trkpt><trkpt lat="45.66904859139472" lon="9.81370945220061"><ele>225.0</ele><time>2026-04-11T10:46:14Z</time></trkpt><trkpt lat="45.66913914058253" lon="9.813591633256152"><ele>224.8</ele><time>2026-04-11T10:46:16Z</time></trkpt><trkpt lat="45.669228154485914" lon="9.81347209575753"><ele>224.6</ele><time>2026-04-11T10:46:18Z</time></trkpt><trkpt lat="45.66931630889712" lon="9.813350964411248"><ele>224.39999999999998</ele><time>2026-04-11T10:46:20Z</time></trkpt><trkpt lat="45.66936260842906" lon="9.8132880373156"><ele>224.2</ele><time>2026-04-11T10:46:21Z</time></trkpt><trkpt lat="45.669454803199265" lon="9.813175676218917"><ele>224.0</ele><time>2026-04-11T10:46:23Z</time></trkpt><trkpt lat="45.66954612179888" lon="9.813061516556768"><ele>224.5</ele><time>2026-04-11T10:46:25Z</time></trkpt><trkpt lat="45.669631920022205" lon="9.812941455301482"><ele>225.0</ele><time>2026-04-11T10:46:27Z</time></trkpt><trkpt lat="45.66971826979022" lon="9.812816643793106"><ele>225.5</ele><time>2026-04-11T10:46:29Z</time></trkpt><trkpt lat="45.66980226810927" lon="9.812699322767214"><ele>226.0</ele><time>2026-04-11T10:46:31Z</time></trkpt><trkpt lat="45.66989445325978" lon="9.812585272559726"><ele>226.4</ele><time>2026-04-11T10:46:33Z</time></trkpt><trkpt lat="45.66998162570061" lon="9.81247084301723"><ele>226.8</ele><time>2026-04-11T10:46:35Z</time></trkpt><trkpt lat="45.67006746483974" lon="9.812353504870647"><ele>227.20000000000002</ele><time>2026-04-11T10:46:37Z</time></trkpt><trkpt lat="45.670114165104636" lon="9.812290583756326"><ele>227.60000000000002</ele><time>2026-04-11T10:46:38Z</time></trkpt><trkpt lat="45.670200854518484" lon="9.812174122498318"><ele>228.0</ele><time>2026-04-11T10:46:40Z</time></trkpt><trkpt lat="45.670289991528946" lon="9.812059877519134"><ele>228.4</ele><time>2026-04-11T10:46:42Z</time></trkpt><trkpt lat="45.67036879512764" lon="9.811946299811808"><ele>228.8</ele><time>2026-04-11T10:46:44Z</time></trkpt><trkpt lat="45.670442824179545" lon="9.811842913206181"><ele>229.2</ele><time>2026-04-11T10:46:46Z</time></trkpt><trkpt lat="45.67051552042449" lon="9.811752664212072"><ele>229.6</ele><time>2026-04-11T10:46:48Z</time></trkpt><trkpt lat="45.67057920059045" lon="9.811671285792093"><ele>230.0</ele><time>2026-04-11T10:46:50Z</time></trkpt><trkpt lat="45.67064070911823" lon="9.811591067378082"><ele>230.0</ele><time>2026-04-11T10:46:52Z</time></trkpt><trkpt lat="45.67071449277106" lon="9.811498963509242"><ele>230.0</ele><time>2026-04-11T10:46:54Z</time></trkpt><trkpt lat="45.67079884687864" lon="9.81138760782365"><ele>230.0</ele><time>2026-04-11T10:46:56Z</time></trkpt><trkpt lat="45.6708859125379" lon="9.811265336890923"><ele>230.0</ele><time>2026-04-11T10:46:58Z</time></trkpt><trkpt lat="45.67097530462469" lon="9.81114585192241"><ele>230.0</ele><time>2026-04-11T10:47:00Z</time></trkpt><trkpt lat="45.67106500935655" lon="9.811028639153845"><ele>230.0</ele><time>2026-04-11T10:47:02Z</time></trkpt><trkpt lat="45.67115505134569" lon="9.810909621431156"><ele>230.0</ele><time>2026-04-11T10:47:04Z</time></trkpt><trkpt lat="45.671243038559695" lon="9.810784170638078"><ele>230.0</ele><time>2026-04-11T10:47:06Z</time></trkpt><trkpt lat="45.671333017297414" lon="9.810669689052478"><ele>229.75</ele><time>2026-04-11T10:47:08Z</time></trkpt><trkpt lat="45.67142335902608" lon="9.810549193386217"><ele>229.5</ele><time>2026-04-11T10:47:10Z</time></trkpt><trkpt lat="45.67151192965663" lon="9.810432656639975"><ele>229.25</ele><time>2026-04-11T10:47:12Z</time></trkpt><trkpt lat="45.67159745020398" lon="9.810319574994102"><ele>229.0</ele><time>2026-04-11T10:47:14Z</time></trkpt><trkpt lat="45.67167163313089" lon="9.810215190733574"><ele>229.2</ele><time>2026-04-11T10:47:16Z</time></trkpt><trkpt lat="45.67175870711586" lon="9.810102315080908"><ele>229.39999999999998</ele><time>2026-04-11T10:47:18Z</time></trkpt><trkpt lat="45.67184962932829" lon="9.809975544343319"><ele>229.6</ele><time>2026-04-11T10:47:20Z</time></trkpt><trkpt lat="45.67193833924157" lon="9.80985007922173"><ele>229.8</ele><time>2026-04-11T10:47:22Z</time></trkpt><trkpt lat="45.671986209694694" lon="9.809790936168122"><ele>230.0</ele><time>2026-04-11T10:47:23Z</time></trkpt><trkpt lat="45.672032489078425" lon="9.809726611113582"><ele>230.28571428571425</ele><time>2026-04-11T10:47:24Z</time></trkpt><trkpt lat="45.67212516365567" lon="9.809605320032889"><ele>230.57142857142856</ele><time>2026-04-11T10:47:26Z</time></trkpt><trkpt lat="45.67217104625301" lon="9.80954344392756"><ele>230.85714285714286</ele><time>2026-04-11T10:47:27Z</time></trkpt><trkpt lat="45.67221840241878" lon="9.809481392718354"><ele>231.14285714285714</ele><time>2026-04-11T10:47:28Z</time></trkpt><trkpt lat="45.67226452087413" lon="9.809419677594573"><ele>231.42857142857144</ele><time>2026-04-11T10:47:29Z</time></trkpt><trkpt lat="45.67231206230838" lon="9.809356863177952"><ele>231.71428571428575</ele><time>2026-04-11T10:47:30Z</time></trkpt><trkpt lat="45.67235741125883" lon="9.809293384928823"><ele>232.00000000000003</ele><time>2026-04-11T10:47:31Z</time></trkpt><trkpt lat="45.672450296137775" lon="9.80916715681621"><ele>231.99999999999997</ele><time>2026-04-11T10:47:33Z</time></trkpt><trkpt lat="45.67254289912776" lon="9.809046701126963"><ele>232.0</ele><time>2026-04-11T10:47:35Z</time></trkpt><trkpt lat="45.67258967021766" lon="9.808984032140723"><ele>232.0</ele><time>2026-04-11T10:47:36Z</time></trkpt><trkpt lat="45.672678923385334" lon="9.808855194703135"><ele>232.0</ele><time>2026-04-11T10:47:38Z</time></trkpt><trkpt lat="45.67272436195871" lon="9.808792739924328"><ele>231.99999999999997</ele><time>2026-04-11T10:47:39Z</time></trkpt><trkpt lat="45.67277116852611" lon="9.80873063560394"><ele>232.0</ele><time>2026-04-11T10:47:40Z</time></trkpt><trkpt lat="45.67281843341228" lon="9.808670415472628"><ele>231.83333333333331</ele><time>2026-04-11T10:47:41Z</time></trkpt><trkpt lat="45.67286639105358" lon="9.80860916235661"><ele>231.66666666666666</ele><time>2026-04-11T10:47:42Z</time></trkpt><trkpt lat="45.67291347420422" lon="9.80854149585765"><ele>231.5</ele><time>2026-04-11T10:47:43Z</time></trkpt><trkpt lat="45.67300731128282" lon="9.808418969402284"><ele>231.33333333333331</ele><time>2026-04-11T10:47:45Z</time></trkpt><trkpt lat="45.67309647251745" lon="9.808299391533474"><ele>231.16666666666666</ele><time>2026-04-11T10:47:47Z</time></trkpt><trkpt lat="45.67314368863727" lon="9.808236478482323"><ele>231.0</ele><time>2026-04-11T10:47:48Z</time></trkpt><trkpt lat="45.67318969566255" lon="9.808173511855703"><ele>230.83333333333334</ele><time>2026-04-11T10:47:49Z</time></trkpt><trkpt lat="45.67323636772775" lon="9.808109800242583"><ele>230.66666666666669</ele><time>2026-04-11T10:47:50Z</time></trkpt><trkpt lat="45.67328295638389" lon="9.808049001467221"><ele>230.5</ele><time>2026-04-11T10:47:51Z</time></trkpt><trkpt lat="45.67337504739882" lon="9.807923919789568"><ele>230.33333333333334</ele><time>2026-04-11T10:47:53Z</time></trkpt><trkpt lat="45.673469111293045" lon="9.807802001323484"><ele>230.16666666666669</ele><time>2026-04-11T10:47:55Z</time></trkpt><trkpt lat="45.67351611696416" lon="9.807740568346139"><ele>230.0</ele><time>2026-04-11T10:47:56Z</time></trkpt><trkpt lat="45.67356364445063" lon="9.807679553959309"><ele>230.0</ele><time>2026-04-11T10:47:57Z</time></trkpt><trkpt lat="45.67365984127276" lon="9.807563042369917"><ele>230.0</ele><time>2026-04-11T10:47:59Z</time></trkpt><trkpt lat="45.673752814798334" lon="9.807447137298835"><ele>230.0</ele><time>2026-04-11T10:48:01Z</time></trkpt><trkpt lat="45.673838975526905" lon="9.807336264833733"><ele>230.0</ele><time>2026-04-11T10:48:03Z</time></trkpt><trkpt lat="45.6739336210187" lon="9.807250273912153"><ele>230.0</ele><time>2026-04-11T10:48:05Z</time></trkpt><trkpt lat="45.67404141034426" lon="9.807222439941185"><ele>230.0</ele><time>2026-04-11T10:48:07Z</time></trkpt><trkpt lat="45.67413609147878" lon="9.807135896273689"><ele>230.0</ele><time>2026-04-11T10:48:09Z</time></trkpt><trkpt lat="45.674186862380445" lon="9.806978025163813"><ele>230.0</ele><time>2026-04-11T10:48:11Z</time></trkpt><trkpt lat="45.6742361467526" lon="9.806816273269733"><ele>229.75</ele><time>2026-04-11T10:48:13Z</time></trkpt><trkpt lat="45.67429415766248" lon="9.806660641366923"><ele>229.5</ele><time>2026-04-11T10:48:15Z</time></trkpt><trkpt lat="45.67435298864176" lon="9.806506959629585"><ele>229.25</ele><time>2026-04-11T10:48:17Z</time></trkpt><trkpt lat="45.67444357079112" lon="9.806387393940001"><ele>229.0</ele><time>2026-04-11T10:48:19Z</time></trkpt><trkpt lat="45.674517127700526" lon="9.806257026052531"><ele>229.0</ele><time>2026-04-11T10:48:21Z</time></trkpt><trkpt lat="45.67455734432701" lon="9.806100182654621"><ele>228.99999999999997</ele><time>2026-04-11T10:48:23Z</time></trkpt><trkpt lat="45.67461734106017" lon="9.805970773088019"><ele>228.99999999999997</ele><time>2026-04-11T10:48:25Z</time></trkpt><trkpt lat="45.67468013936857" lon="9.805847221074835"><ele>229.0</ele><time>2026-04-11T10:48:27Z</time></trkpt><trkpt lat="45.67472114150426" lon="9.805716043756185"><ele>229.0</ele><time>2026-04-11T10:48:29Z</time></trkpt><trkpt lat="45.67475828722889" lon="9.805587507548273"><ele>229.0</ele><time>2026-04-11T10:48:31Z</time></trkpt><trkpt lat="45.67479313809768" lon="9.805465204304372"><ele>228.99999999999997</ele><time>2026-04-11T10:48:33Z</time></trkpt><trkpt lat="45.67483546790082" lon="9.805352456696939"><ele>228.99999999999997</ele><time>2026-04-11T10:48:35Z</time></trkpt><trkpt lat="45.674882881144576" lon="9.805231372339446"><ele>229.0</ele><time>2026-04-11T10:48:37Z</time></trkpt><trkpt lat="45.67492287493388" lon="9.805057902384993"><ele>229.0</ele><time>2026-04-11T10:48:39Z</time></trkpt><trkpt lat="45.67494561335868" lon="9.804969362289517"><ele>228.85714285714283</ele><time>2026-04-11T10:48:40Z</time></trkpt><trkpt lat="45.6749664550354" lon="9.804878377518557"><ele>228.71428571428572</ele><time>2026-04-11T10:48:41Z</time></trkpt><trkpt lat="45.67498818430212" lon="9.804782465919704"><ele>228.57142857142856</ele><time>2026-04-11T10:48:42Z</time></trkpt><trkpt lat="45.675013370173716" lon="9.80469581900316"><ele>228.42857142857142</ele><time>2026-04-11T10:48:43Z</time></trkpt><trkpt lat="45.67504011195028" lon="9.804609653906445"><ele>228.28571428571428</ele><time>2026-04-11T10:48:44Z</time></trkpt><trkpt lat="45.67506205135683" lon="9.804517023390362"><ele>228.14285714285714</ele><time>2026-04-11T10:48:45Z</time></trkpt><trkpt lat="45.675086076996934" lon="9.804428708278405"><ele>228.0</ele><time>2026-04-11T10:48:46Z</time></trkpt><trkpt lat="45.67511180211738" lon="9.804345859765561"><ele>228.0</ele><time>2026-04-11T10:48:47Z</time></trkpt><trkpt lat="45.675131812383775" lon="9.804257860496245"><ele>228.0</ele><time>2026-04-11T10:48:48Z</time></trkpt><trkpt lat="45.675169529032395" lon="9.80409134674357"><ele>228.0</ele><time>2026-04-11T10:48:50Z</time></trkpt><trkpt lat="45.675212029101125" lon="9.803930269795284"><ele>228.0</ele><time>2026-04-11T10:48:52Z</time></trkpt><trkpt lat="45.67525197698898" lon="9.803772109151337"><ele>228.0</ele><time>2026-04-11T10:48:54Z</time></trkpt><trkpt lat="45.67529646016229" lon="9.803600963627483"><ele>227.8</ele><time>2026-04-11T10:48:56Z</time></trkpt><trkpt lat="45.675340854882094" lon="9.803436556855903"><ele>227.60000000000002</ele><time>2026-04-11T10:48:58Z</time></trkpt><trkpt lat="45.675362350152156" lon="9.803345897576085"><ele>227.39999999999998</ele><time>2026-04-11T10:48:59Z</time></trkpt><trkpt lat="45.67541555317857" lon="9.803190919861505"><ele>227.2</ele><time>2026-04-11T10:49:01Z</time></trkpt><trkpt lat="45.675444840974016" lon="9.803109224851212"><ele>227.0</ele><time>2026-04-11T10:49:02Z</time></trkpt><trkpt lat="45.67548468637644" lon="9.802947670044727"><ele>227.0</ele><time>2026-04-11T10:49:04Z</time></trkpt><trkpt lat="45.675536863303776" lon="9.802784220303312"><ele>227.0</ele><time>2026-04-11T10:49:06Z</time></trkpt><trkpt lat="45.675588070684164" lon="9.802624385985474"><ele>227.0</ele><time>2026-04-11T10:49:08Z</time></trkpt><trkpt lat="45.675614456112655" lon="9.802539441079771"><ele>227.0</ele><time>2026-04-11T10:49:09Z</time></trkpt><trkpt lat="45.675672954199875" lon="9.802380748793672"><ele>227.0</ele><time>2026-04-11T10:49:11Z</time></trkpt><trkpt lat="45.675743911308054" lon="9.80223519820879"><ele>227.2</ele><time>2026-04-11T10:49:13Z</time></trkpt><trkpt lat="45.67580314098083" lon="9.802089449237693"><ele>227.39999999999998</ele><time>2026-04-11T10:49:15Z</time></trkpt><trkpt lat="45.67584035803467" lon="9.802014393913005"><ele>227.60000000000002</ele><time>2026-04-11T10:49:16Z</time></trkpt><trkpt lat="45.675904966529295" lon="9.80187110366158"><ele>227.8</ele><time>2026-04-11T10:49:18Z</time></trkpt><trkpt lat="45.67594688909782" lon="9.801795319746613"><ele>228.0</ele><time>2026-04-11T10:49:19Z</time></trkpt><trkpt lat="45.67601535390111" lon="9.801655273719883"><ele>228.0</ele><time>2026-04-11T10:49:21Z</time></trkpt><trkpt lat="45.67608783342235" lon="9.801515079187869"><ele>228.0</ele><time>2026-04-11T10:49:23Z</time></trkpt><trkpt lat="45.67616218517494" lon="9.801370330902229"><ele>228.0</ele><time>2026-04-11T10:49:25Z</time></trkpt><trkpt lat="45.676233977388335" lon="9.801228361712328"><ele>228.0</ele><time>2026-04-11T10:49:27Z</time></trkpt><trkpt lat="45.67630303536602" lon="9.801084003181435"><ele>228.0</ele><time>2026-04-11T10:49:29Z</time></trkpt><trkpt lat="45.67634357613458" lon="9.801014268218815"><ele>228.0</ele><time>2026-04-11T10:49:30Z</time></trkpt><trkpt lat="45.67641855121622" lon="9.800876207625512"><ele>228.0</ele><time>2026-04-11T10:49:32Z</time></trkpt><trkpt lat="45.67648628388909" lon="9.800737998042942"><ele>228.0</ele><time>2026-04-11T10:49:34Z</time></trkpt><trkpt lat="45.67655643510602" lon="9.800591662432973"><ele>228.0</ele><time>2026-04-11T10:49:36Z</time></trkpt><trkpt lat="45.67662868909939" lon="9.800449586725724"><ele>228.0</ele><time>2026-04-11T10:49:38Z</time></trkpt><trkpt lat="45.67666877452244" lon="9.800379814278605"><ele>228.0</ele><time>2026-04-11T10:49:39Z</time></trkpt><trkpt lat="45.67673416304876" lon="9.800238728089456"><ele>228.0</ele><time>2026-04-11T10:49:41Z</time></trkpt><trkpt lat="45.676771894868594" lon="9.800161639493139"><ele>228.0</ele><time>2026-04-11T10:49:42Z</time></trkpt><trkpt lat="45.67683584295074" lon="9.800021985804676"><ele>228.0</ele><time>2026-04-11T10:49:44Z</time></trkpt><trkpt lat="45.676873457618214" lon="9.799943961139423"><ele>228.0</ele><time>2026-04-11T10:49:45Z</time></trkpt><trkpt lat="45.676940620912646" lon="9.799797547742966"><ele>228.0</ele><time>2026-04-11T10:49:47Z</time></trkpt><trkpt lat="45.67697968556835" lon="9.79971406675803"><ele>228.0</ele><time>2026-04-11T10:49:48Z</time></trkpt><trkpt lat="45.677049858578634" lon="9.799573705964114"><ele>228.0</ele><time>2026-04-11T10:49:50Z</time></trkpt><trkpt lat="45.67708747007114" lon="9.799498477848427"><ele>228.0</ele><time>2026-04-11T10:49:51Z</time></trkpt><trkpt lat="45.677158274808136" lon="9.799351248660264"><ele>228.0</ele><time>2026-04-11T10:49:53Z</time></trkpt><trkpt lat="45.67722725019122" lon="9.799203168903261"><ele>228.0</ele><time>2026-04-11T10:49:55Z</time></trkpt><trkpt lat="45.677298408933005" lon="9.799058883895102"><ele>228.0</ele><time>2026-04-11T10:49:57Z</time></trkpt><trkpt lat="45.67736258934822" lon="9.798908060961782"><ele>228.0</ele><time>2026-04-11T10:49:59Z</time></trkpt><trkpt lat="45.6774215289772" lon="9.79876988820324"><ele>228.0</ele><time>2026-04-11T10:50:01Z</time></trkpt><trkpt lat="45.67748153098299" lon="9.798635016196558"><ele>228.0</ele><time>2026-04-11T10:50:03Z</time></trkpt><trkpt lat="45.67753601732207" lon="9.798507866652516"><ele>228.0</ele><time>2026-04-11T10:50:05Z</time></trkpt><trkpt lat="45.67758552697059" lon="9.798349611270236"><ele>228.0</ele><time>2026-04-11T10:50:07Z</time></trkpt><trkpt lat="45.67760213134353" lon="9.798262277102857"><ele>228.0</ele><time>2026-04-11T10:50:08Z</time></trkpt><trkpt lat="45.677619999794345" lon="9.798173603994242"><ele>228.0</ele><time>2026-04-11T10:50:09Z</time></trkpt><trkpt lat="45.67766143219641" lon="9.798007575511274"><ele>228.5</ele><time>2026-04-11T10:50:11Z</time></trkpt><trkpt lat="45.67771916272596" lon="9.797855656573361"><ele>229.0</ele><time>2026-04-11T10:50:13Z</time></trkpt><trkpt lat="45.67780904032546" lon="9.797763003191198"><ele>229.5</ele><time>2026-04-11T10:50:15Z</time></trkpt><trkpt lat="45.67792286887007" lon="9.797742176953465"><ele>230.0</ele><time>2026-04-11T10:50:17Z</time></trkpt><trkpt lat="45.67804347900825" lon="9.797762474006486"><ele>230.2</ele><time>2026-04-11T10:50:19Z</time></trkpt><trkpt lat="45.678165543596016" lon="9.797738074451088"><ele>230.4</ele><time>2026-04-11T10:50:21Z</time></trkpt><trkpt lat="45.678279555044384" lon="9.797665948607802"><ele>230.60000000000002</ele><time>2026-04-11T10:50:23Z</time></trkpt><trkpt lat="45.67837930262511" lon="9.797555187633346"><ele>230.8</ele><time>2026-04-11T10:50:25Z</time></trkpt><trkpt lat="45.67840911105208" lon="9.79746967317914"><ele>231.0</ele><time>2026-04-11T10:50:26Z</time></trkpt><trkpt lat="45.67843601651448" lon="9.797386216978092"><ele>231.20000000000002</ele><time>2026-04-11T10:50:27Z</time></trkpt><trkpt lat="45.67844166613812" lon="9.797208612494403"><ele>231.40000000000003</ele><time>2026-04-11T10:50:29Z</time></trkpt><trkpt lat="45.678413228486974" lon="9.797034919978792"><ele>231.6</ele><time>2026-04-11T10:50:31Z</time></trkpt><trkpt lat="45.67841112354284" lon="9.796858428228898"><ele>231.8</ele><time>2026-04-11T10:50:33Z</time></trkpt><trkpt lat="45.678436103431714" lon="9.79677262783998"><ele>232.0</ele><time>2026-04-11T10:50:34Z</time></trkpt><trkpt lat="45.678471769397945" lon="9.796695060086154"><ele>231.75</ele><time>2026-04-11T10:50:35Z</time></trkpt><trkpt lat="45.67854627346201" lon="9.79655215649729"><ele>231.5</ele><time>2026-04-11T10:50:37Z</time></trkpt><trkpt lat="45.678613577203095" lon="9.79640415578425"><ele>231.25</ele><time>2026-04-11T10:50:39Z</time></trkpt><trkpt lat="45.678678880780026" lon="9.796257555325589"><ele>231.0</ele><time>2026-04-11T10:50:41Z</time></trkpt><trkpt lat="45.678746209706205" lon="9.796110143682215"><ele>231.0</ele><time>2026-04-11T10:50:43Z</time></trkpt><trkpt lat="45.67878268562653" lon="9.79603425294733"><ele>231.00000000000003</ele><time>2026-04-11T10:50:44Z</time></trkpt><trkpt lat="45.67884904189559" lon="9.795893707281815"><ele>231.00000000000003</ele><time>2026-04-11T10:50:46Z</time></trkpt><trkpt lat="45.67892037187888" lon="9.795753932116238"><ele>231.0</ele><time>2026-04-11T10:50:48Z</time></trkpt><trkpt lat="45.678989942587485" lon="9.79561735516655"><ele>231.0</ele><time>2026-04-11T10:50:50Z</time></trkpt><trkpt lat="45.6790511384567" lon="9.795488170901036"><ele>231.0</ele><time>2026-04-11T10:50:52Z</time></trkpt><trkpt lat="45.67910459981634" lon="9.79536347435391"><ele>231.00000000000003</ele><time>2026-04-11T10:50:54Z</time></trkpt><trkpt lat="45.679178158555665" lon="9.795274116323567"><ele>231.00000000000003</ele><time>2026-04-11T10:50:56Z</time></trkpt><trkpt lat="45.67925550560959" lon="9.795186007564094"><ele>231.0</ele><time>2026-04-11T10:50:58Z</time></trkpt><trkpt lat="45.679321129499016" lon="9.795075666992151"><ele>231.0</ele><time>2026-04-11T10:51:00Z</time></trkpt><trkpt lat="45.67938928848678" lon="9.794939089448754"><ele>230.5</ele><time>2026-04-11T10:51:02Z</time></trkpt><trkpt lat="45.6794534280538" lon="9.794796395967628"><ele>230.0</ele><time>2026-04-11T10:51:04Z</time></trkpt><trkpt lat="45.67952815309708" lon="9.794656955210032"><ele>229.5</ele><time>2026-04-11T10:51:06Z</time></trkpt><trkpt lat="45.67959795178793" lon="9.794518908811659"><ele>229.0</ele><time>2026-04-11T10:51:08Z</time></trkpt><trkpt lat="45.6796644424286" lon="9.794379681960327"><ele>229.0</ele><time>2026-04-11T10:51:10Z</time></trkpt><trkpt lat="45.67972804990177" lon="9.794256798979932"><ele>228.99999999999997</ele><time>2026-04-11T10:51:12Z</time></trkpt><trkpt lat="45.679784162869765" lon="9.794159587824312"><ele>228.99999999999997</ele><time>2026-04-11T10:51:14Z</time></trkpt><trkpt lat="45.679853450561204" lon="9.794110225551062"><ele>229.0</ele><time>2026-04-11T10:51:16Z</time></trkpt><trkpt lat="45.67988886087548" lon="9.793994006593666"><ele>229.0</ele><time>2026-04-11T10:51:19Z</time></trkpt><trkpt lat="45.679872202807424" lon="9.79386049209717"><ele>229.0</ele><time>2026-04-11T10:51:21Z</time></trkpt><trkpt lat="45.67993047712256" lon="9.793733052490174"><ele>229.0</ele><time>2026-04-11T10:51:23Z</time></trkpt><trkpt lat="45.68000680545965" lon="9.793595244343335"><ele>229.0</ele><time>2026-04-11T10:51:25Z</time></trkpt><trkpt lat="45.6800751126482" lon="9.79344516823216"><ele>229.0</ele><time>2026-04-11T10:51:27Z</time></trkpt><trkpt lat="45.680148859772395" lon="9.793300087989268"><ele>229.25</ele><time>2026-04-11T10:51:29Z</time></trkpt><trkpt lat="45.680221833981264" lon="9.79315489514422"><ele>229.5</ele><time>2026-04-11T10:51:31Z</time></trkpt><trkpt lat="45.68029286886041" lon="9.793009302399149"><ele>229.75</ele><time>2026-04-11T10:51:33Z</time></trkpt><trkpt lat="45.68036402372416" lon="9.792864557787258"><ele>230.0</ele><time>2026-04-11T10:51:35Z</time></trkpt><trkpt lat="45.68044251876481" lon="9.792723419840994"><ele>230.0</ele><time>2026-04-11T10:51:37Z</time></trkpt><trkpt lat="45.68051708054656" lon="9.792582616431492"><ele>230.0</ele><time>2026-04-11T10:51:39Z</time></trkpt><trkpt lat="45.680593811063545" lon="9.792445005311736"><ele>230.0</ele><time>2026-04-11T10:51:41Z</time></trkpt><trkpt lat="45.68066786032284" lon="9.792303648356315"><ele>230.0</ele><time>2026-04-11T10:51:43Z</time></trkpt><trkpt lat="45.68074042359221" lon="9.792167542077737"><ele>230.0</ele><time>2026-04-11T10:51:45Z</time></trkpt><trkpt lat="45.68082094726281" lon="9.79203334511306"><ele>230.0</ele><time>2026-04-11T10:51:47Z</time></trkpt><trkpt lat="45.680895415783304" lon="9.791892444645612"><ele>230.0</ele><time>2026-04-11T10:51:49Z</time></trkpt><trkpt lat="45.68096144863857" lon="9.791747110954596"><ele>230.0</ele><time>2026-04-11T10:51:51Z</time></trkpt><trkpt lat="45.68099726432542" lon="9.791672895130334"><ele>230.0</ele><time>2026-04-11T10:51:52Z</time></trkpt><trkpt lat="45.68107063551281" lon="9.791531985097114"><ele>230.0</ele><time>2026-04-11T10:51:54Z</time></trkpt><trkpt lat="45.681139589432185" lon="9.79138977220205"><ele>230.0</ele><time>2026-04-11T10:51:56Z</time></trkpt><trkpt lat="45.681210403207515" lon="9.791249613831898"><ele>230.0</ele><time>2026-04-11T10:51:58Z</time></trkpt><trkpt lat="45.681279637360824" lon="9.791107574602082"><ele>230.0</ele><time>2026-04-11T10:52:00Z</time></trkpt><trkpt lat="45.68134911646517" lon="9.790963973180014"><ele>230.25</ele><time>2026-04-11T10:52:02Z</time></trkpt><trkpt lat="45.68141631287073" lon="9.790823501745274"><ele>230.5</ele><time>2026-04-11T10:52:04Z</time></trkpt><trkpt lat="45.68148615335373" lon="9.790684269107095"><ele>230.75</ele><time>2026-04-11T10:52:06Z</time></trkpt><trkpt lat="45.681555067214795" lon="9.790542915473655"><ele>231.0</ele><time>2026-04-11T10:52:08Z</time></trkpt><trkpt lat="45.681626534188226" lon="9.790401096180757"><ele>231.0</ele><time>2026-04-11T10:52:10Z</time></trkpt><trkpt lat="45.681696945816114" lon="9.790262412392762"><ele>231.0</ele><time>2026-04-11T10:52:12Z</time></trkpt><trkpt lat="45.681764925001396" lon="9.79012231426853"><ele>231.0</ele><time>2026-04-11T10:52:14Z</time></trkpt><trkpt lat="45.68183277844125" lon="9.789985767300719"><ele>231.0</ele><time>2026-04-11T10:52:16Z</time></trkpt><trkpt lat="45.68189813414355" lon="9.789847048655636"><ele>231.25</ele><time>2026-04-11T10:52:18Z</time></trkpt><trkpt lat="45.681960700219506" lon="9.789711479564765"><ele>231.5</ele><time>2026-04-11T10:52:20Z</time></trkpt><trkpt lat="45.68203222300241" lon="9.78957527175978"><ele>231.75</ele><time>2026-04-11T10:52:22Z</time></trkpt><trkpt lat="45.6820973375763" lon="9.789442428335187"><ele>232.0</ele><time>2026-04-11T10:52:24Z</time></trkpt><trkpt lat="45.68216999070267" lon="9.789308774894108"><ele>232.0</ele><time>2026-04-11T10:52:26Z</time></trkpt><trkpt lat="45.68223970377663" lon="9.78917238952364"><ele>232.0</ele><time>2026-04-11T10:52:28Z</time></trkpt><trkpt lat="45.682313320654366" lon="9.789035414954904"><ele>232.0</ele><time>2026-04-11T10:52:30Z</time></trkpt><trkpt lat="45.68238115336404" lon="9.788892316158483"><ele>232.0</ele><time>2026-04-11T10:52:32Z</time></trkpt><trkpt lat="45.68244235207227" lon="9.788749673141357"><ele>232.0</ele><time>2026-04-11T10:52:34Z</time></trkpt><trkpt lat="45.68250791677637" lon="9.788610132699105"><ele>232.0</ele><time>2026-04-11T10:52:36Z</time></trkpt><trkpt lat="45.6825776951663" lon="9.788476211954489"><ele>232.0</ele><time>2026-04-11T10:52:38Z</time></trkpt><trkpt lat="45.68264790469877" lon="9.788347406882151"><ele>232.0</ele><time>2026-04-11T10:52:40Z</time></trkpt><trkpt lat="45.682721491560116" lon="9.788232016839858"><ele>232.5</ele><time>2026-04-11T10:52:42Z</time></trkpt><trkpt lat="45.68280851141243" lon="9.788126242826516"><ele>233.0</ele><time>2026-04-11T10:52:44Z</time></trkpt><trkpt lat="45.682904532521434" lon="9.788053555714397"><ele>233.5</ele><time>2026-04-11T10:52:46Z</time></trkpt><trkpt lat="45.68301316020503" lon="9.78801916832707"><ele>234.0</ele><time>2026-04-11T10:52:48Z</time></trkpt><trkpt lat="45.68313317816595" lon="9.7879756606671"><ele>234.0</ele><time>2026-04-11T10:52:50Z</time></trkpt><trkpt lat="45.68319216336678" lon="9.787943107905978"><ele>233.99999999999997</ele><time>2026-04-11T10:52:51Z</time></trkpt><trkpt lat="45.6832989124554" lon="9.787854010534417"><ele>233.99999999999997</ele><time>2026-04-11T10:52:53Z</time></trkpt><trkpt lat="45.68337188321871" lon="9.787730309694938"><ele>234.0</ele><time>2026-04-11T10:52:55Z</time></trkpt><trkpt lat="45.68341063466173" lon="9.787590538480098"><ele>234.0</ele><time>2026-04-11T10:52:57Z</time></trkpt><trkpt lat="45.68340045186103" lon="9.787446302111679"><ele>234.39999999999998</ele><time>2026-04-11T10:52:59Z</time></trkpt><trkpt lat="45.68336840424113" lon="9.787315982910298"><ele>234.79999999999998</ele><time>2026-04-11T10:53:01Z</time></trkpt><trkpt lat="45.68333225275925" lon="9.78717598220513"><ele>235.20000000000002</ele><time>2026-04-11T10:53:03Z</time></trkpt><trkpt lat="45.68327949425689" lon="9.787012358924134"><ele>235.60000000000002</ele><time>2026-04-11T10:53:05Z</time></trkpt><trkpt lat="45.68325319639351" lon="9.786845541127816"><ele>236.0</ele><time>2026-04-11T10:53:07Z</time></trkpt><trkpt lat="45.68323029577281" lon="9.786689773038379"><ele>236.0</ele><time>2026-04-11T10:53:09Z</time></trkpt><trkpt lat="45.68322240656612" lon="9.786539532216619"><ele>236.00000000000003</ele><time>2026-04-11T10:53:11Z</time></trkpt><trkpt lat="45.683211545910005" lon="9.786388359074378"><ele>236.00000000000003</ele><time>2026-04-11T10:53:13Z</time></trkpt><trkpt lat="45.68319447630485" lon="9.786235819881421"><ele>236.0</ele><time>2026-04-11T10:53:15Z</time></trkpt><trkpt lat="45.683180356000705" lon="9.786086123046731"><ele>236.0</ele><time>2026-04-11T10:53:17Z</time></trkpt><trkpt lat="45.68317093714843" lon="9.785937639440437"><ele>235.60000000000002</ele><time>2026-04-11T10:53:19Z</time></trkpt><trkpt lat="45.683156926519615" lon="9.785793647646807"><ele>235.20000000000002</ele><time>2026-04-11T10:53:21Z</time></trkpt><trkpt lat="45.68314047267722" lon="9.785647096209054"><ele>234.79999999999998</ele><time>2026-04-11T10:53:23Z</time></trkpt><trkpt lat="45.68313025545215" lon="9.785505673314747"><ele>234.39999999999998</ele><time>2026-04-11T10:53:25Z</time></trkpt><trkpt lat="45.68310498154401" lon="9.785342421338342"><ele>234.0</ele><time>2026-04-11T10:53:27Z</time></trkpt><trkpt lat="45.68308820968574" lon="9.785170360003653"><ele>234.0</ele><time>2026-04-11T10:53:29Z</time></trkpt><trkpt lat="45.68307354275875" lon="9.784994729890142"><ele>233.99999999999997</ele><time>2026-04-11T10:53:31Z</time></trkpt><trkpt lat="45.6830602692378" lon="9.784906621568874"><ele>233.99999999999997</ele><time>2026-04-11T10:53:32Z</time></trkpt><trkpt lat="45.683045461729776" lon="9.784732719479711"><ele>234.0</ele><time>2026-04-11T10:53:34Z</time></trkpt><trkpt lat="45.68302982213599" lon="9.784560421418995"><ele>234.0</ele><time>2026-04-11T10:53:36Z</time></trkpt><trkpt lat="45.68301288993138" lon="9.784386665487801"><ele>234.25</ele><time>2026-04-11T10:53:38Z</time></trkpt><trkpt lat="45.68299804007337" lon="9.78421446842762"><ele>234.5</ele><time>2026-04-11T10:53:40Z</time></trkpt><trkpt lat="45.68298381091225" lon="9.78404413450512"><ele>234.75</ele><time>2026-04-11T10:53:42Z</time></trkpt><trkpt lat="45.68296837329373" lon="9.783872875404434"><ele>235.0</ele><time>2026-04-11T10:53:44Z</time></trkpt><trkpt lat="45.68295046355113" lon="9.783704102842165"><ele>235.0</ele><time>2026-04-11T10:53:46Z</time></trkpt><trkpt lat="45.68292940183212" lon="9.783537547971463"><ele>235.0</ele><time>2026-04-11T10:53:48Z</time></trkpt><trkpt lat="45.682904933364576" lon="9.783372200565587"><ele>235.0</ele><time>2026-04-11T10:53:50Z</time></trkpt><trkpt lat="45.68287487380949" lon="9.783204632867903"><ele>235.0</ele><time>2026-04-11T10:53:52Z</time></trkpt><trkpt lat="45.68284579729032" lon="9.783040355213656"><ele>235.25</ele><time>2026-04-11T10:53:54Z</time></trkpt><trkpt lat="45.682846572817105" lon="9.782870518188853"><ele>235.5</ele><time>2026-04-11T10:53:56Z</time></trkpt><trkpt lat="45.682849265160215" lon="9.782693963432399"><ele>235.75</ele><time>2026-04-11T10:53:58Z</time></trkpt><trkpt lat="45.682828134819815" lon="9.782526852573973"><ele>236.0</ele><time>2026-04-11T10:54:00Z</time></trkpt><trkpt lat="45.68280848640392" lon="9.782352538437578"><ele>236.0</ele><time>2026-04-11T10:54:02Z</time></trkpt><trkpt lat="45.68280885636424" lon="9.782260198850194"><ele>236.00000000000003</ele><time>2026-04-11T10:54:03Z</time></trkpt><trkpt lat="45.68282465754059" lon="9.782081946724897"><ele>236.00000000000003</ele><time>2026-04-11T10:54:05Z</time></trkpt><trkpt lat="45.682835333042334" lon="9.781905038337076"><ele>236.0</ele><time>2026-04-11T10:54:07Z</time></trkpt><trkpt lat="45.68283104997009" lon="9.78181435377862"><ele>236.0</ele><time>2026-04-11T10:54:08Z</time></trkpt><trkpt lat="45.682838577844684" lon="9.781641555591815"><ele>236.0</ele><time>2026-04-11T10:54:10Z</time></trkpt><trkpt lat="45.68284560541956" lon="9.78147111775927"><ele>236.00000000000003</ele><time>2026-04-11T10:54:12Z</time></trkpt><trkpt lat="45.68286393524958" lon="9.78129681108677"><ele>236.00000000000003</ele><time>2026-04-11T10:54:14Z</time></trkpt><trkpt lat="45.68287657577252" lon="9.781122929043471"><ele>236.0</ele><time>2026-04-11T10:54:16Z</time></trkpt><trkpt lat="45.68288800066432" lon="9.781033974156161"><ele>236.0</ele><time>2026-04-11T10:54:17Z</time></trkpt><trkpt lat="45.68290684813059" lon="9.780864484767823"><ele>236.0</ele><time>2026-04-11T10:54:19Z</time></trkpt><trkpt lat="45.68293121065921" lon="9.780693472196269"><ele>236.0</ele><time>2026-04-11T10:54:21Z</time></trkpt><trkpt lat="45.68294870137461" lon="9.780529382192347"><ele>236.0</ele><time>2026-04-11T10:54:23Z</time></trkpt><trkpt lat="45.682969802869636" lon="9.780355122289786"><ele>236.0</ele><time>2026-04-11T10:54:25Z</time></trkpt><trkpt lat="45.682987359094334" lon="9.780179086561045"><ele>236.0</ele><time>2026-04-11T10:54:27Z</time></trkpt><trkpt lat="45.68301706732211" lon="9.780003269645572"><ele>236.0</ele><time>2026-04-11T10:54:29Z</time></trkpt><trkpt lat="45.683039634871115" lon="9.779828484240316"><ele>236.0</ele><time>2026-04-11T10:54:31Z</time></trkpt><trkpt lat="45.68306594323299" lon="9.779654022911647"><ele>236.0</ele><time>2026-04-11T10:54:33Z</time></trkpt><trkpt lat="45.68308791635488" lon="9.779482488486105"><ele>235.75</ele><time>2026-04-11T10:54:35Z</time></trkpt><trkpt lat="45.68311198850437" lon="9.779306524484657"><ele>235.5</ele><time>2026-04-11T10:54:37Z</time></trkpt><trkpt lat="45.683134946191736" lon="9.779134716265458"><ele>235.25</ele><time>2026-04-11T10:54:39Z</time></trkpt><trkpt lat="45.68315421408218" lon="9.778961038517492"><ele>235.0</ele><time>2026-04-11T10:54:41Z</time></trkpt><trkpt lat="45.68317715212113" lon="9.778789903037172"><ele>235.0</ele><time>2026-04-11T10:54:43Z</time></trkpt><trkpt lat="45.68319853975059" lon="9.77861173921155"><ele>235.0</ele><time>2026-04-11T10:54:45Z</time></trkpt><trkpt lat="45.683221225990586" lon="9.778442166858177"><ele>235.0</ele><time>2026-04-11T10:54:47Z</time></trkpt><trkpt lat="45.683243555287625" lon="9.77827225262435"><ele>235.0</ele><time>2026-04-11T10:54:49Z</time></trkpt><trkpt lat="45.68326468057731" lon="9.778100247856354"><ele>235.0</ele><time>2026-04-11T10:54:51Z</time></trkpt><trkpt lat="45.683289557538934" lon="9.77793034963657"><ele>235.0</ele><time>2026-04-11T10:54:53Z</time></trkpt><trkpt lat="45.683313104959126" lon="9.777756423680456"><ele>235.0</ele><time>2026-04-11T10:54:55Z</time></trkpt><trkpt lat="45.683332999050926" lon="9.777585792991115"><ele>235.0</ele><time>2026-04-11T10:54:57Z</time></trkpt><trkpt lat="45.68335535184458" lon="9.777413441864969"><ele>235.0</ele><time>2026-04-11T10:54:59Z</time></trkpt><trkpt lat="45.683374641417224" lon="9.777240879368641"><ele>235.0</ele><time>2026-04-11T10:55:01Z</time></trkpt><trkpt lat="45.68339582935531" lon="9.777074107056587"><ele>235.0</ele><time>2026-04-11T10:55:03Z</time></trkpt><trkpt lat="45.68341679330461" lon="9.776918336002815"><ele>235.0</ele><time>2026-04-11T10:55:05Z</time></trkpt><trkpt lat="45.683457838768774" lon="9.776781826233533"><ele>235.16666666666666</ele><time>2026-04-11T10:55:07Z</time></trkpt><trkpt lat="45.68354837367005" lon="9.776700493380885"><ele>235.33333333333331</ele><time>2026-04-11T10:55:09Z</time></trkpt><trkpt lat="45.68361737904066" lon="9.77656180558758"><ele>235.5</ele><time>2026-04-11T10:55:11Z</time></trkpt><trkpt lat="45.68362101438141" lon="9.776470416580239"><ele>235.66666666666669</ele><time>2026-04-11T10:55:12Z</time></trkpt><trkpt lat="45.683601844843075" lon="9.776380308251403"><ele>235.83333333333334</ele><time>2026-04-11T10:55:13Z</time></trkpt><trkpt lat="45.68356757981733" lon="9.776298417603098"><ele>236.0</ele><time>2026-04-11T10:55:14Z</time></trkpt><trkpt lat="45.68351217262058" lon="9.776148724317126"><ele>236.0</ele><time>2026-04-11T10:55:16Z</time></trkpt><trkpt lat="45.68352460447493" lon="9.775979096227468"><ele>236.00000000000003</ele><time>2026-04-11T10:55:18Z</time></trkpt><trkpt lat="45.68355465760068" lon="9.77580744643697"><ele>236.00000000000003</ele><time>2026-04-11T10:55:20Z</time></trkpt><trkpt lat="45.6835811547994" lon="9.775634350760805"><ele>236.0</ele><time>2026-04-11T10:55:22Z</time></trkpt><trkpt lat="45.68359345091792" lon="9.775540779566525"><ele>236.0</ele><time>2026-04-11T10:55:23Z</time></trkpt><trkpt lat="45.68362279489968" lon="9.775369385237001"><ele>236.25</ele><time>2026-04-11T10:55:25Z</time></trkpt><trkpt lat="45.683661477579804" lon="9.775204287823765"><ele>236.5</ele><time>2026-04-11T10:55:27Z</time></trkpt><trkpt lat="45.68369728872911" lon="9.775030659747145"><ele>236.75</ele><time>2026-04-11T10:55:29Z</time></trkpt><trkpt lat="45.68373502319817" lon="9.774866444976572"><ele>237.0</ele><time>2026-04-11T10:55:31Z</time></trkpt><trkpt lat="45.68377285370225" lon="9.774706013882318"><ele>237.0</ele><time>2026-04-11T10:55:33Z</time></trkpt><trkpt lat="45.683811635349294" lon="9.774540498674751"><ele>237.0</ele><time>2026-04-11T10:55:35Z</time></trkpt><trkpt lat="45.68385164220765" lon="9.774377784528543"><ele>237.0</ele><time>2026-04-11T10:55:37Z</time></trkpt><trkpt lat="45.68389032545474" lon="9.774210899091734"><ele>237.0</ele><time>2026-04-11T10:55:39Z</time></trkpt><trkpt lat="45.68392759063763" lon="9.774042843204827"><ele>237.2</ele><time>2026-04-11T10:55:41Z</time></trkpt><trkpt lat="45.68396567126767" lon="9.773875871244446"><ele>237.39999999999998</ele><time>2026-04-11T10:55:43Z</time></trkpt><trkpt lat="45.6840068188581" lon="9.773709453540235"><ele>237.60000000000002</ele><time>2026-04-11T10:55:45Z</time></trkpt><trkpt lat="45.68404828286402" lon="9.773542613113483"><ele>237.8</ele><time>2026-04-11T10:55:47Z</time></trkpt><trkpt lat="45.684068007378805" lon="9.773452340152781"><ele>238.0</ele><time>2026-04-11T10:55:48Z</time></trkpt><trkpt lat="45.68411206113756" lon="9.77328716070716"><ele>238.0</ele><time>2026-04-11T10:55:50Z</time></trkpt><trkpt lat="45.68415374670523" lon="9.773124587929349"><ele>238.0</ele><time>2026-04-11T10:55:52Z</time></trkpt><trkpt lat="45.68419669138476" lon="9.772965405757134"><ele>238.0</ele><time>2026-04-11T10:55:54Z</time></trkpt><trkpt lat="45.68424323960168" lon="9.77280708108244"><ele>238.0</ele><time>2026-04-11T10:55:56Z</time></trkpt><trkpt lat="45.684284637428505" lon="9.772646764984417"><ele>238.0</ele><time>2026-04-11T10:55:58Z</time></trkpt><trkpt lat="45.684335373774985" lon="9.772524407634481"><ele>238.0</ele><time>2026-04-11T10:56:00Z</time></trkpt><trkpt lat="45.68442592533325" lon="9.772484856360078"><ele>238.0</ele><time>2026-04-11T10:56:02Z</time></trkpt><trkpt lat="45.684515977867505" lon="9.772532383435223"><ele>238.0</ele><time>2026-04-11T10:56:04Z</time></trkpt><trkpt lat="45.684610170536665" lon="9.772606863501954"><ele>238.0</ele><time>2026-04-11T10:56:06Z</time></trkpt><trkpt lat="45.68469248206599" lon="9.772594742642745"><ele>238.60000000000002</ele><time>2026-04-11T10:56:08Z</time></trkpt><trkpt lat="45.68470381510302" lon="9.772447562874857"><ele>239.20000000000002</ele><time>2026-04-11T10:56:10Z</time></trkpt><trkpt lat="45.68471785632259" lon="9.77228570149803"><ele>239.8</ele><time>2026-04-11T10:56:12Z</time></trkpt><trkpt lat="45.68475219615827" lon="9.772134665694928"><ele>240.4</ele><time>2026-04-11T10:56:14Z</time></trkpt><trkpt lat="45.68477211619265" lon="9.772001747686923"><ele>241.0</ele><time>2026-04-11T10:56:16Z</time></trkpt><trkpt lat="45.6847880464963" lon="9.771870391296419"><ele>241.0</ele><time>2026-04-11T10:56:18Z</time></trkpt><trkpt lat="45.68481659358054" lon="9.771751456159718"><ele>241.00000000000003</ele><time>2026-04-11T10:56:20Z</time></trkpt><trkpt lat="45.68483700369654" lon="9.771605556887183"><ele>241.00000000000003</ele><time>2026-04-11T10:56:22Z</time></trkpt><trkpt lat="45.68484933869902" lon="9.771444223504586"><ele>241.0</ele><time>2026-04-11T10:56:24Z</time></trkpt><trkpt lat="45.68486763799094" lon="9.77128446193151"><ele>241.0</ele><time>2026-04-11T10:56:26Z</time></trkpt><trkpt lat="45.68488026921389" lon="9.77111987777672"><ele>241.0</ele><time>2026-04-11T10:56:28Z</time></trkpt><trkpt lat="45.68489508648445" lon="9.77095553020901"><ele>241.0</ele><time>2026-04-11T10:56:30Z</time></trkpt><trkpt lat="45.68491224363476" lon="9.770794437278928"><ele>241.0</ele><time>2026-04-11T10:56:32Z</time></trkpt><trkpt lat="45.68492493954881" lon="9.770634878863262"><ele>241.0</ele><time>2026-04-11T10:56:34Z</time></trkpt><trkpt lat="45.68494106982006" lon="9.770477869404397"><ele>241.0</ele><time>2026-04-11T10:56:36Z</time></trkpt><trkpt lat="45.68497071510327" lon="9.770330568696815"><ele>241.00000000000003</ele><time>2026-04-11T10:56:38Z</time></trkpt><trkpt lat="45.685012502414544" lon="9.770196445340549"><ele>241.00000000000003</ele><time>2026-04-11T10:56:40Z</time></trkpt><trkpt lat="45.68505367486211" lon="9.7700476573689"><ele>241.0</ele><time>2026-04-11T10:56:42Z</time></trkpt><trkpt lat="45.6850858600479" lon="9.769890593035568"><ele>241.0</ele><time>2026-04-11T10:56:44Z</time></trkpt><trkpt lat="45.68511201625012" lon="9.769737351974957"><ele>241.4</ele><time>2026-04-11T10:56:46Z</time></trkpt><trkpt lat="45.685124608225614" lon="9.769582632853682"><ele>241.8</ele><time>2026-04-11T10:56:48Z</time></trkpt><trkpt lat="45.685149310378605" lon="9.769427152823301"><ele>242.20000000000002</ele><time>2026-04-11T10:56:50Z</time></trkpt><trkpt lat="45.685180249369246" lon="9.769282558888442"><ele>242.60000000000002</ele><time>2026-04-11T10:56:52Z</time></trkpt><trkpt lat="45.68521405841272" lon="9.769155469392679"><ele>243.0</ele><time>2026-04-11T10:56:54Z</time></trkpt><trkpt lat="45.68526445330949" lon="9.769036452032962"><ele>243.16666666666666</ele><time>2026-04-11T10:56:56Z</time></trkpt><trkpt lat="45.685317953922585" lon="9.76892650061741"><ele>243.33333333333331</ele><time>2026-04-11T10:56:58Z</time></trkpt><trkpt lat="45.68537881703664" lon="9.768828095139346"><ele>243.5</ele><time>2026-04-11T10:57:00Z</time></trkpt><trkpt lat="45.685424968473335" lon="9.768745677936641"><ele>243.66666666666666</ele><time>2026-04-11T10:57:02Z</time></trkpt><trkpt lat="45.68551904013278" lon="9.768753467120563"><ele>243.83333333333331</ele><time>2026-04-11T10:57:04Z</time></trkpt><trkpt lat="45.685581338186786" lon="9.768834111347038"><ele>244.0</ele><time>2026-04-11T10:57:06Z</time></trkpt><trkpt lat="45.68567993586337" lon="9.768831148235966"><ele>244.0</ele><time>2026-04-11T10:57:08Z</time></trkpt><trkpt lat="45.68573755860453" lon="9.76871989235773"><ele>243.99999999999997</ele><time>2026-04-11T10:57:10Z</time></trkpt><trkpt lat="45.68578379171101" lon="9.768591426955181"><ele>243.99999999999997</ele><time>2026-04-11T10:57:12Z</time></trkpt><trkpt lat="45.6857495470682" lon="9.768461771201553"><ele>244.0</ele><time>2026-04-11T10:57:14Z</time></trkpt><trkpt lat="45.685666182128145" lon="9.768389585960827"><ele>244.0</ele><time>2026-04-11T10:57:16Z</time></trkpt><trkpt lat="45.685594115378315" lon="9.768303785273101"><ele>243.83333333333331</ele><time>2026-04-11T10:57:18Z</time></trkpt><trkpt lat="45.68552397162325" lon="9.768215744594833"><ele>243.66666666666666</ele><time>2026-04-11T10:57:20Z</time></trkpt><trkpt lat="45.68546405180023" lon="9.768147943975594"><ele>243.5</ele><time>2026-04-11T10:57:22Z</time></trkpt><trkpt lat="45.6854726419356" lon="9.768048659417364"><ele>243.33333333333331</ele><time>2026-04-11T10:57:24Z</time></trkpt><trkpt lat="45.68553933942413" lon="9.76794902654583"><ele>243.16666666666666</ele><time>2026-04-11T10:57:26Z</time></trkpt><trkpt lat="45.68560420512554" lon="9.767844446125006"><ele>243.0</ele><time>2026-04-11T10:57:28Z</time></trkpt><trkpt lat="45.685679978288704" lon="9.76773214254266"><ele>243.25</ele><time>2026-04-11T10:57:30Z</time></trkpt><trkpt lat="45.68575052303506" lon="9.767609946415787"><ele>243.5</ele><time>2026-04-11T10:57:32Z</time></trkpt><trkpt lat="45.68581761771815" lon="9.767468881551368"><ele>243.75</ele><time>2026-04-11T10:57:34Z</time></trkpt><trkpt lat="45.685878703658084" lon="9.76732801359339"><ele>244.0</ele><time>2026-04-11T10:57:36Z</time></trkpt><trkpt lat="45.68593053131253" lon="9.767177281820013"><ele>244.0</ele><time>2026-04-11T10:57:38Z</time></trkpt><trkpt lat="45.68597338991963" lon="9.767022589385386"><ele>243.99999999999997</ele><time>2026-04-11T10:57:40Z</time></trkpt><trkpt lat="45.686020518732015" lon="9.766887636508734"><ele>243.99999999999997</ele><time>2026-04-11T10:57:42Z</time></trkpt><trkpt lat="45.686064167754544" lon="9.766759076384863"><ele>244.0</ele><time>2026-04-11T10:57:44Z</time></trkpt><trkpt lat="45.68609841569844" lon="9.766611302530068"><ele>244.0</ele><time>2026-04-11T10:57:46Z</time></trkpt><trkpt lat="45.68614584251952" lon="9.76647350503183"><ele>244.6</ele><time>2026-04-11T10:57:48Z</time></trkpt><trkpt lat="45.68618432386129" lon="9.76635331678192"><ele>245.2</ele><time>2026-04-11T10:57:50Z</time></trkpt><trkpt lat="45.686251589352224" lon="9.766289136272356"><ele>245.79999999999998</ele><time>2026-04-11T10:57:52Z</time></trkpt><trkpt lat="45.68634699684606" lon="9.766339640965759"><ele>246.39999999999998</ele><time>2026-04-11T10:57:54Z</time></trkpt><trkpt lat="45.6864490779042" lon="9.766405017321079"><ele>247.0</ele><time>2026-04-11T10:57:56Z</time></trkpt><trkpt lat="45.68656052326129" lon="9.766469305321984"><ele>247.0</ele><time>2026-04-11T10:57:58Z</time></trkpt><trkpt lat="45.68666641265491" lon="9.76653194668136"><ele>247.0</ele><time>2026-04-11T10:58:00Z</time></trkpt><trkpt lat="45.686783768402876" lon="9.76659522174766"><ele>247.0</ele><time>2026-04-11T10:58:02Z</time></trkpt><trkpt lat="45.68689905698261" lon="9.766665325201027"><ele>247.0</ele><time>2026-04-11T10:58:04Z</time></trkpt><trkpt lat="45.687014863315746" lon="9.766725568408857"><ele>246.39999999999998</ele><time>2026-04-11T10:58:06Z</time></trkpt><trkpt lat="45.68713348416388" lon="9.766780578619322"><ele>245.79999999999998</ele><time>2026-04-11T10:58:08Z</time></trkpt><trkpt lat="45.68725151748013" lon="9.76682419325674"><ele>245.2</ele><time>2026-04-11T10:58:10Z</time></trkpt><trkpt lat="45.68737487151384" lon="9.766848553647815"><ele>244.6</ele><time>2026-04-11T10:58:12Z</time></trkpt><trkpt lat="45.68743774612205" lon="9.766861721095298"><ele>244.0</ele><time>2026-04-11T10:58:13Z</time></trkpt><trkpt lat="45.687501426791044" lon="9.766868726234947"><ele>244.0</ele><time>2026-04-11T10:58:14Z</time></trkpt><trkpt lat="45.68762597705944" lon="9.766858979627537"><ele>243.99999999999997</ele><time>2026-04-11T10:58:16Z</time></trkpt><trkpt lat="45.68775012625442" lon="9.766832876081835"><ele>243.99999999999997</ele><time>2026-04-11T10:58:18Z</time></trkpt><trkpt lat="45.68781276787091" lon="9.766814861480729"><ele>244.0</ele><time>2026-04-11T10:58:19Z</time></trkpt><trkpt lat="45.687874188857265" lon="9.766792614998831"><ele>244.0</ele><time>2026-04-11T10:58:20Z</time></trkpt><trkpt lat="45.68799012212964" lon="9.766748569506005"><ele>244.5</ele><time>2026-04-11T10:58:22Z</time></trkpt><trkpt lat="45.68810146683538" lon="9.766716743530576"><ele>245.0</ele><time>2026-04-11T10:58:24Z</time></trkpt><trkpt lat="45.688203153188994" lon="9.766675877766255"><ele>245.5</ele><time>2026-04-11T10:58:26Z</time></trkpt><trkpt lat="45.6883153277002" lon="9.76663039047587"><ele>246.0</ele><time>2026-04-11T10:58:28Z</time></trkpt><trkpt lat="45.688432069165124" lon="9.766585288246151"><ele>246.0</ele><time>2026-04-11T10:58:30Z</time></trkpt><trkpt lat="45.68854917940922" lon="9.766546763444168"><ele>246.0</ele><time>2026-04-11T10:58:32Z</time></trkpt><trkpt lat="45.68866680489524" lon="9.766506517130152"><ele>246.0</ele><time>2026-04-11T10:58:34Z</time></trkpt><trkpt lat="45.68878310104163" lon="9.76646799288555"><ele>246.0</ele><time>2026-04-11T10:58:36Z</time></trkpt><trkpt lat="45.68890118518571" lon="9.766430449761401"><ele>246.25</ele><time>2026-04-11T10:58:38Z</time></trkpt><trkpt lat="45.689020670238975" lon="9.766405406631462"><ele>246.5</ele><time>2026-04-11T10:58:40Z</time></trkpt><trkpt lat="45.68914492926645" lon="9.76638461119508"><ele>246.75</ele><time>2026-04-11T10:58:42Z</time></trkpt><trkpt lat="45.68926710838731" lon="9.766387564235135"><ele>247.0</ele><time>2026-04-11T10:58:44Z</time></trkpt><trkpt lat="45.68938763298333" lon="9.766403755785664"><ele>247.5</ele><time>2026-04-11T10:58:46Z</time></trkpt><trkpt lat="45.68950450334948" lon="9.766432554736335"><ele>248.0</ele><time>2026-04-11T10:58:48Z</time></trkpt><trkpt lat="45.68962132398307" lon="9.766473904585993"><ele>248.5</ele><time>2026-04-11T10:58:50Z</time></trkpt><trkpt lat="45.6897383224811" lon="9.766512074587547"><ele>249.0</ele><time>2026-04-11T10:58:52Z</time></trkpt><trkpt lat="45.68985731538902" lon="9.766559255859773"><ele>249.0</ele><time>2026-04-11T10:58:54Z</time></trkpt><trkpt lat="45.68997354965632" lon="9.766603231007103"><ele>248.99999999999997</ele><time>2026-04-11T10:58:56Z</time></trkpt><trkpt lat="45.69008912449043" lon="9.766651336763374"><ele>248.99999999999997</ele><time>2026-04-11T10:58:58Z</time></trkpt><trkpt lat="45.69020403547872" lon="9.766699575149579"><ele>249.0</ele><time>2026-04-11T10:59:00Z</time></trkpt><trkpt lat="45.69026432899758" lon="9.766725736350098"><ele>249.0</ele><time>2026-04-11T10:59:01Z</time></trkpt><trkpt lat="45.69037805455486" lon="9.766770157547933"><ele>249.25</ele><time>2026-04-11T10:59:03Z</time></trkpt><trkpt lat="45.69049169474167" lon="9.766809118885186"><ele>249.5</ele><time>2026-04-11T10:59:05Z</time></trkpt><trkpt lat="45.690604778069925" lon="9.766847831746002"><ele>249.75</ele><time>2026-04-11T10:59:07Z</time></trkpt><trkpt lat="45.69071879154964" lon="9.766898514731336"><ele>250.0</ele><time>2026-04-11T10:59:09Z</time></trkpt><trkpt lat="45.690833573343475" lon="9.766943915007857"><ele>250.0</ele><time>2026-04-11T10:59:11Z</time></trkpt><trkpt lat="45.69094683577343" lon="9.766984288021037"><ele>250.0</ele><time>2026-04-11T10:59:13Z</time></trkpt><trkpt lat="45.69106467487251" lon="9.767009724612656"><ele>250.0</ele><time>2026-04-11T10:59:15Z</time></trkpt><trkpt lat="45.69118587252223" lon="9.767014970074156"><ele>250.0</ele><time>2026-04-11T10:59:17Z</time></trkpt><trkpt lat="45.691301288527484" lon="9.766989128049456"><ele>250.0</ele><time>2026-04-11T10:59:19Z</time></trkpt><trkpt lat="45.69136226315555" lon="9.766960673503146"><ele>250.0</ele><time>2026-04-11T10:59:20Z</time></trkpt><trkpt lat="45.69142340309953" lon="9.766924546070788"><ele>250.0</ele><time>2026-04-11T10:59:21Z</time></trkpt><trkpt lat="45.691528691263834" lon="9.766846956797547"><ele>250.0</ele><time>2026-04-11T10:59:23Z</time></trkpt><trkpt lat="45.691634268545194" lon="9.766761704596005"><ele>250.0</ele><time>2026-04-11T10:59:25Z</time></trkpt><trkpt lat="45.69173937482854" lon="9.766682443979763"><ele>250.0</ele><time>2026-04-11T10:59:27Z</time></trkpt><trkpt lat="45.69184526379604" lon="9.766599818330576"><ele>250.0</ele><time>2026-04-11T10:59:29Z</time></trkpt><trkpt lat="45.691945700354275" lon="9.766519105592748"><ele>250.0</ele><time>2026-04-11T10:59:31Z</time></trkpt><trkpt lat="45.69204907309237" lon="9.766440716959405"><ele>250.0</ele><time>2026-04-11T10:59:33Z</time></trkpt><trkpt lat="45.69215551786591" lon="9.766356961672574"><ele>250.5</ele><time>2026-04-11T10:59:35Z</time></trkpt><trkpt lat="45.69225708350811" lon="9.76627916451732"><ele>251.0</ele><time>2026-04-11T10:59:37Z</time></trkpt><trkpt lat="45.69236185168976" lon="9.766199030392967"><ele>251.5</ele><time>2026-04-11T10:59:39Z</time></trkpt><trkpt lat="45.692466642212594" lon="9.766113960957167"><ele>252.0</ele><time>2026-04-11T10:59:41Z</time></trkpt><trkpt lat="45.69257261528408" lon="9.766029600736498"><ele>252.0</ele><time>2026-04-11T10:59:43Z</time></trkpt><trkpt lat="45.692676385697084" lon="9.765945682014108"><ele>252.0</ele><time>2026-04-11T10:59:45Z</time></trkpt><trkpt lat="45.69278422833635" lon="9.765867241567268"><ele>252.0</ele><time>2026-04-11T10:59:47Z</time></trkpt><trkpt lat="45.692888358389986" lon="9.76578410294892"><ele>252.0</ele><time>2026-04-11T10:59:49Z</time></trkpt><trkpt lat="45.6929904817917" lon="9.765697425585671"><ele>252.0</ele><time>2026-04-11T10:59:51Z</time></trkpt><trkpt lat="45.6930919783757" lon="9.765612616636497"><ele>252.0</ele><time>2026-04-11T10:59:53Z</time></trkpt><trkpt lat="45.6931519681155" lon="9.765574703011875"><ele>252.0</ele><time>2026-04-11T10:59:54Z</time></trkpt><trkpt lat="45.69325493339045" lon="9.765490145593839"><ele>252.0</ele><time>2026-04-11T10:59:56Z</time></trkpt><trkpt lat="45.69335445221734" lon="9.765406548793974"><ele>252.0</ele><time>2026-04-11T10:59:58Z</time></trkpt><trkpt lat="45.69344624027388" lon="9.765334206303221"><ele>252.0</ele><time>2026-04-11T11:00:00Z</time></trkpt><trkpt lat="45.69355011815675" lon="9.76525134347062"><ele>252.0</ele><time>2026-04-11T11:00:02Z</time></trkpt><trkpt lat="45.693658600144744" lon="9.765174334629858"><ele>252.0</ele><time>2026-04-11T11:00:04Z</time></trkpt><trkpt lat="45.693764027322935" lon="9.765088622619153"><ele>252.0</ele><time>2026-04-11T11:00:06Z</time></trkpt><trkpt lat="45.693870395698234" lon="9.76500786226325"><ele>253.0</ele><time>2026-04-11T11:00:08Z</time></trkpt><trkpt lat="45.69397339833155" lon="9.764925290640962"><ele>254.0</ele><time>2026-04-11T11:00:10Z</time></trkpt><trkpt lat="45.694075551676406" lon="9.76484934749978"><ele>255.0</ele><time>2026-04-11T11:00:12Z</time></trkpt><trkpt lat="45.694174789014234" lon="9.764768832409688"><ele>256.0</ele><time>2026-04-11T11:00:14Z</time></trkpt><trkpt lat="45.694270368917365" lon="9.764691282197653"><ele>256.0</ele><time>2026-04-11T11:00:16Z</time></trkpt><trkpt lat="45.694374142375054" lon="9.764604386051134"><ele>256.0</ele><time>2026-04-11T11:00:18Z</time></trkpt><trkpt lat="45.69447490429358" lon="9.764524224734833"><ele>256.0</ele><time>2026-04-11T11:00:20Z</time></trkpt><trkpt lat="45.69457465697968" lon="9.764439911823892"><ele>256.0</ele><time>2026-04-11T11:00:22Z</time></trkpt><trkpt lat="45.69467752527761" lon="9.764362326550625"><ele>256.25</ele><time>2026-04-11T11:00:24Z</time></trkpt><trkpt lat="45.69478222401335" lon="9.764282993671774"><ele>256.5</ele><time>2026-04-11T11:00:26Z</time></trkpt><trkpt lat="45.694887857172695" lon="9.764201876364208"><ele>256.75</ele><time>2026-04-11T11:00:28Z</time></trkpt><trkpt lat="45.694991312877846" lon="9.764118537653205"><ele>257.0</ele><time>2026-04-11T11:00:30Z</time></trkpt><trkpt lat="45.69507895989532" lon="9.764039431477206"><ele>257.0</ele><time>2026-04-11T11:00:32Z</time></trkpt><trkpt lat="45.69516485443676" lon="9.7639707707423"><ele>257.0</ele><time>2026-04-11T11:00:34Z</time></trkpt><trkpt lat="45.69524140989423" lon="9.763911468563153"><ele>257.0</ele><time>2026-04-11T11:00:36Z</time></trkpt><trkpt lat="45.695317199302444" lon="9.763858323842115"><ele>257.0</ele><time>2026-04-11T11:00:38Z</time></trkpt><trkpt lat="45.69538068672787" lon="9.763799846624805"><ele>257.0</ele><time>2026-04-11T11:00:40Z</time></trkpt><trkpt lat="45.69545822090355" lon="9.763743543960246"><ele>257.0</ele><time>2026-04-11T11:00:42Z</time></trkpt><trkpt lat="45.695543641650495" lon="9.763672698463255"><ele>256.8</ele><time>2026-04-11T11:00:44Z</time></trkpt><trkpt lat="45.69562880639309" lon="9.763598232021781"><ele>256.6</ele><time>2026-04-11T11:00:46Z</time></trkpt><trkpt lat="45.6957047527628" lon="9.76352287068985"><ele>256.40000000000003</ele><time>2026-04-11T11:00:48Z</time></trkpt><trkpt lat="45.69578369137021" lon="9.763451531828734"><ele>256.2</ele><time>2026-04-11T11:00:50Z</time></trkpt><trkpt lat="45.69585097372022" lon="9.763370492976753"><ele>256.0</ele><time>2026-04-11T11:00:52Z</time></trkpt><trkpt lat="45.695929891248696" lon="9.76332160715776"><ele>256.2857142857143</ele><time>2026-04-11T11:00:54Z</time></trkpt><trkpt lat="45.69600057437705" lon="9.763282102369395"><ele>256.57142857142856</ele><time>2026-04-11T11:00:56Z</time></trkpt><trkpt lat="45.6960693792436" lon="9.763242045669944"><ele>256.85714285714283</ele><time>2026-04-11T11:00:58Z</time></trkpt><trkpt lat="45.69613085473744" lon="9.763220096957188"><ele>257.1428571428571</ele><time>2026-04-11T11:01:00Z</time></trkpt><trkpt lat="45.69619239256716" lon="9.76319608834568"><ele>257.42857142857144</ele><time>2026-04-11T11:01:02Z</time></trkpt><trkpt lat="45.69627222907618" lon="9.763127237256555"><ele>257.71428571428567</ele><time>2026-04-11T11:01:04Z</time></trkpt><trkpt lat="45.696332951606365" lon="9.763101446496727"><ele>258.0</ele><time>2026-04-11T11:01:05Z</time></trkpt><trkpt lat="45.696394442274354" lon="9.763081939699545"><ele>258.0</ele><time>2026-04-11T11:01:06Z</time></trkpt><trkpt lat="45.69645617391992" lon="9.763053438274827"><ele>258.0</ele><time>2026-04-11T11:01:07Z</time></trkpt><trkpt lat="45.69657384043605" lon="9.763000548812178"><ele>258.0</ele><time>2026-04-11T11:01:09Z</time></trkpt><trkpt lat="45.69669406337672" lon="9.76295730099928"><ele>258.0</ele><time>2026-04-11T11:01:11Z</time></trkpt><trkpt lat="45.69681389598725" lon="9.762914678355335"><ele>258.0</ele><time>2026-04-11T11:01:13Z</time></trkpt><trkpt lat="45.69693260688146" lon="9.762874364231688"><ele>258.0</ele><time>2026-04-11T11:01:15Z</time></trkpt><trkpt lat="45.69705028326204" lon="9.762832469607659"><ele>258.0</ele><time>2026-04-11T11:01:17Z</time></trkpt><trkpt lat="45.697168027327024" lon="9.762790410248098"><ele>258.0</ele><time>2026-04-11T11:01:19Z</time></trkpt><trkpt lat="45.697287758585986" lon="9.76274473019855"><ele>258.0</ele><time>2026-04-11T11:01:21Z</time></trkpt><trkpt lat="45.697405117195" lon="9.76269932115194"><ele>258.25</ele><time>2026-04-11T11:01:23Z</time></trkpt><trkpt lat="45.69751911668378" lon="9.762652762081228"><ele>258.5</ele><time>2026-04-11T11:01:25Z</time></trkpt><trkpt lat="45.6976331920123" lon="9.76260947988192"><ele>258.75</ele><time>2026-04-11T11:01:27Z</time></trkpt><trkpt lat="45.69775063136006" lon="9.762568335048837"><ele>259.0</ele><time>2026-04-11T11:01:29Z</time></trkpt><trkpt lat="45.697869195913036" lon="9.762525589571341"><ele>259.3333333333333</ele><time>2026-04-11T11:01:31Z</time></trkpt><trkpt lat="45.69793063357817" lon="9.762493398876696"><ele>259.66666666666663</ele><time>2026-04-11T11:01:32Z</time></trkpt><trkpt lat="45.69804449017403" lon="9.76245693452343"><ele>260.0</ele><time>2026-04-11T11:01:34Z</time></trkpt><trkpt lat="45.69810859724411" lon="9.762431164480978"><ele>260.3333333333333</ele><time>2026-04-11T11:01:35Z</time></trkpt><trkpt lat="45.69822281945818" lon="9.762382566349116"><ele>260.6666666666667</ele><time>2026-04-11T11:01:37Z</time></trkpt><trkpt lat="45.698284801722544" lon="9.76236168140564"><ele>261.0</ele><time>2026-04-11T11:01:38Z</time></trkpt><trkpt lat="45.69839757959669" lon="9.762315114404277"><ele>261.0</ele><time>2026-04-11T11:01:40Z</time></trkpt><trkpt lat="45.69845880989689" lon="9.762291566376945"><ele>261.0</ele><time>2026-04-11T11:01:41Z</time></trkpt><trkpt lat="45.69857337438778" lon="9.762236180433788"><ele>261.0</ele><time>2026-04-11T11:01:43Z</time></trkpt><trkpt lat="45.69869195298363" lon="9.762193483712714"><ele>261.0</ele><time>2026-04-11T11:01:45Z</time></trkpt><trkpt lat="45.698753437109566" lon="9.76216838282013"><ele>261.0</ele><time>2026-04-11T11:01:46Z</time></trkpt><trkpt lat="45.698872192398724" lon="9.762118172638761"><ele>260.6</ele><time>2026-04-11T11:01:48Z</time></trkpt><trkpt lat="45.69893496616997" lon="9.76210489702805"><ele>260.20000000000005</ele><time>2026-04-11T11:01:49Z</time></trkpt><trkpt lat="45.69905516506412" lon="9.76206033028412"><ele>259.79999999999995</ele><time>2026-04-11T11:01:51Z</time></trkpt><trkpt lat="45.699170760015484" lon="9.762000350035638"><ele>259.4</ele><time>2026-04-11T11:01:53Z</time></trkpt><trkpt lat="45.699291262174164" lon="9.761962658741572"><ele>259.0</ele><time>2026-04-11T11:01:55Z</time></trkpt><trkpt lat="45.69940916139156" lon="9.76191656195997"><ele>258.8</ele><time>2026-04-11T11:01:57Z</time></trkpt><trkpt lat="45.69946987399575" lon="9.761889375402264"><ele>258.59999999999997</ele><time>2026-04-11T11:01:58Z</time></trkpt><trkpt lat="45.69958686364455" lon="9.76184113063974"><ele>258.4</ele><time>2026-04-11T11:02:00Z</time></trkpt><trkpt lat="45.69970424261661" lon="9.761795587207606"><ele>258.2</ele><time>2026-04-11T11:02:02Z</time></trkpt><trkpt lat="45.69981795250075" lon="9.761754817968665"><ele>258.0</ele><time>2026-04-11T11:02:04Z</time></trkpt><trkpt lat="45.69993536625952" lon="9.761706395637306"><ele>258.4</ele><time>2026-04-11T11:02:06Z</time></trkpt><trkpt lat="45.69999781877821" lon="9.761683176391633"><ele>258.8</ele><time>2026-04-11T11:02:07Z</time></trkpt><trkpt lat="45.70011458359442" lon="9.7616423116246"><ele>259.2</ele><time>2026-04-11T11:02:09Z</time></trkpt><trkpt lat="45.70023074348401" lon="9.761595473893571"><ele>259.6</ele><time>2026-04-11T11:02:11Z</time></trkpt><trkpt lat="45.70034463418116" lon="9.76154803780079"><ele>260.0</ele><time>2026-04-11T11:02:13Z</time></trkpt><trkpt lat="45.70046029583433" lon="9.76151762110336"><ele>260.0</ele><time>2026-04-11T11:02:15Z</time></trkpt><trkpt lat="45.700574949432706" lon="9.761455832132508"><ele>260.0</ele><time>2026-04-11T11:02:17Z</time></trkpt><trkpt lat="45.700694481590034" lon="9.761424222240187"><ele>260.0</ele><time>2026-04-11T11:02:19Z</time></trkpt><trkpt lat="45.70080868177176" lon="9.76137176747805"><ele>260.0</ele><time>2026-04-11T11:02:21Z</time></trkpt><trkpt lat="45.70092457694939" lon="9.76132444595479"><ele>260.0</ele><time>2026-04-11T11:02:23Z</time></trkpt><trkpt lat="45.700985859038205" lon="9.761294064396402"><ele>260.0</ele><time>2026-04-11T11:02:24Z</time></trkpt><trkpt lat="45.70109331112992" lon="9.761246670752495"><ele>260.0</ele><time>2026-04-11T11:02:26Z</time></trkpt><trkpt lat="45.70115631763678" lon="9.761223890869472"><ele>260.0</ele><time>2026-04-11T11:02:27Z</time></trkpt><trkpt lat="45.70127554856932" lon="9.761183580762948"><ele>260.0</ele><time>2026-04-11T11:02:29Z</time></trkpt><trkpt lat="45.70139526305058" lon="9.761142922883447"><ele>260.25</ele><time>2026-04-11T11:02:31Z</time></trkpt><trkpt lat="45.70150367368713" lon="9.76108748023998"><ele>260.5</ele><time>2026-04-11T11:02:33Z</time></trkpt><trkpt lat="45.701624011777945" lon="9.761062024524486"><ele>260.75</ele><time>2026-04-11T11:02:35Z</time></trkpt><trkpt lat="45.70174033817699" lon="9.761009864423224"><ele>261.0</ele><time>2026-04-11T11:02:37Z</time></trkpt><trkpt lat="45.70185805384325" lon="9.76095730515638"><ele>261.2</ele><time>2026-04-11T11:02:39Z</time></trkpt><trkpt lat="45.70197155503406" lon="9.760918410318155"><ele>261.40000000000003</ele><time>2026-04-11T11:02:41Z</time></trkpt><trkpt lat="45.70203271718269" lon="9.76089477699962"><ele>261.6</ele><time>2026-04-11T11:02:42Z</time></trkpt><trkpt lat="45.7021465783682" lon="9.760864380883184"><ele>261.8</ele><time>2026-04-11T11:02:44Z</time></trkpt><trkpt lat="45.70226576116555" lon="9.760835232892582"><ele>262.0</ele><time>2026-04-11T11:02:46Z</time></trkpt><trkpt lat="45.70238137363025" lon="9.760813460452518"><ele>262.0</ele><time>2026-04-11T11:02:48Z</time></trkpt><trkpt lat="45.70244639333639" lon="9.76080213108891"><ele>262.0</ele><time>2026-04-11T11:02:49Z</time></trkpt><trkpt lat="45.70256169413053" lon="9.760784346753155"><ele>262.0</ele><time>2026-04-11T11:02:51Z</time></trkpt><trkpt lat="45.702674668883134" lon="9.76077196412327"><ele>262.0</ele><time>2026-04-11T11:02:53Z</time></trkpt><trkpt lat="45.70278686255075" lon="9.760760887584613"><ele>262.0</ele><time>2026-04-11T11:02:55Z</time></trkpt><trkpt lat="45.70289768267355" lon="9.760753899901383"><ele>261.75</ele><time>2026-04-11T11:02:57Z</time></trkpt><trkpt lat="45.70301140365702" lon="9.760741000626664"><ele>261.5</ele><time>2026-04-11T11:02:59Z</time></trkpt><trkpt lat="45.703126221523355" lon="9.760730880233014"><ele>261.25</ele><time>2026-04-11T11:03:01Z</time></trkpt><trkpt lat="45.703246879551095" lon="9.760716492249601"><ele>261.0</ele><time>2026-04-11T11:03:03Z</time></trkpt><trkpt lat="45.703367518339284" lon="9.760707250871405"><ele>261.0</ele><time>2026-04-11T11:03:05Z</time></trkpt><trkpt lat="45.70348991964652" lon="9.760697221535953"><ele>261.0</ele><time>2026-04-11T11:03:07Z</time></trkpt><trkpt lat="45.703613980945164" lon="9.760678485300852"><ele>261.0</ele><time>2026-04-11T11:03:09Z</time></trkpt><trkpt lat="45.70367918683675" lon="9.760679938478404"><ele>261.0</ele><time>2026-04-11T11:03:10Z</time></trkpt><trkpt lat="45.70380187361784" lon="9.760658540607773"><ele>261.0</ele><time>2026-04-11T11:03:12Z</time></trkpt><trkpt lat="45.70393100447668" lon="9.760648062561518"><ele>262.2</ele><time>2026-04-11T11:03:14Z</time></trkpt><trkpt lat="45.70399644762166" lon="9.76063461396369"><ele>263.40000000000003</ele><time>2026-04-11T11:03:15Z</time></trkpt><trkpt lat="45.704120151844926" lon="9.760624668003196"><ele>264.6</ele><time>2026-04-11T11:03:17Z</time></trkpt><trkpt lat="45.70423433502031" lon="9.760613095874037"><ele>265.8</ele><time>2026-04-11T11:03:19Z</time></trkpt><trkpt lat="45.70434730116039" lon="9.760603906388445"><ele>267.0</ele><time>2026-04-11T11:03:21Z</time></trkpt><trkpt lat="45.704461505075045" lon="9.760590546694234"><ele>267.25</ele><time>2026-04-11T11:03:23Z</time></trkpt><trkpt lat="45.70457547746513" lon="9.760580089423495"><ele>267.5</ele><time>2026-04-11T11:03:25Z</time></trkpt><trkpt lat="45.7046914655285" lon="9.760566460805517"><ele>267.75</ele><time>2026-04-11T11:03:27Z</time></trkpt><trkpt lat="45.70480624912475" lon="9.760555741835454"><ele>268.0</ele><time>2026-04-11T11:03:29Z</time></trkpt><trkpt lat="45.70492395357108" lon="9.760541620964503"><ele>268.0</ele><time>2026-04-11T11:03:31Z</time></trkpt><trkpt lat="45.70503599213951" lon="9.760528141786873"><ele>268.0</ele><time>2026-04-11T11:03:33Z</time></trkpt><trkpt lat="45.70515280508515" lon="9.760506527638043"><ele>268.0</ele><time>2026-04-11T11:03:35Z</time></trkpt><trkpt lat="45.705268554175746" lon="9.760482309247775"><ele>268.0</ele><time>2026-04-11T11:03:37Z</time></trkpt><trkpt lat="45.705387566643545" lon="9.760460444667975"><ele>268.5</ele><time>2026-04-11T11:03:39Z</time></trkpt><trkpt lat="45.70550221821098" lon="9.760430802809257"><ele>269.0</ele><time>2026-04-11T11:03:41Z</time></trkpt><trkpt lat="45.70562065940496" lon="9.760407806540696"><ele>269.5</ele><time>2026-04-11T11:03:43Z</time></trkpt><trkpt lat="45.705738474263846" lon="9.760396452371005"><ele>270.0</ele><time>2026-04-11T11:03:45Z</time></trkpt><trkpt lat="45.70586268349847" lon="9.760407501458602"><ele>270.0</ele><time>2026-04-11T11:03:47Z</time></trkpt><trkpt lat="45.705976492646805" lon="9.760412794951794"><ele>270.0</ele><time>2026-04-11T11:03:49Z</time></trkpt><trkpt lat="45.70608911467616" lon="9.760418305447464"><ele>270.0</ele><time>2026-04-11T11:03:51Z</time></trkpt><trkpt lat="45.70620682302264" lon="9.76043013364843"><ele>270.0</ele><time>2026-04-11T11:03:53Z</time></trkpt><trkpt lat="45.70632311377648" lon="9.760438946500184"><ele>270.4</ele><time>2026-04-11T11:03:55Z</time></trkpt><trkpt lat="45.706388054615374" lon="9.760442768453357"><ele>270.8</ele><time>2026-04-11T11:03:56Z</time></trkpt><trkpt lat="45.70650235196797" lon="9.760457327085714"><ele>271.2</ele><time>2026-04-11T11:03:58Z</time></trkpt><trkpt lat="45.70662390911192" lon="9.76046753760475"><ele>271.6</ele><time>2026-04-11T11:04:00Z</time></trkpt><trkpt lat="45.70674461054774" lon="9.760475392178117"><ele>272.0</ele><time>2026-04-11T11:04:02Z</time></trkpt><trkpt lat="45.70686470303477" lon="9.760469240784555"><ele>272.25</ele><time>2026-04-11T11:04:04Z</time></trkpt><trkpt lat="45.70698162363151" lon="9.76043073898497"><ele>272.5</ele><time>2026-04-11T11:04:06Z</time></trkpt><trkpt lat="45.70709680680958" lon="9.760380158308285"><ele>272.75</ele><time>2026-04-11T11:04:08Z</time></trkpt><trkpt lat="45.70721137964561" lon="9.760329570524494"><ele>273.0</ele><time>2026-04-11T11:04:10Z</time></trkpt><trkpt lat="45.707332929115516" lon="9.760303883065635"><ele>273.0</ele><time>2026-04-11T11:04:12Z</time></trkpt><trkpt lat="45.70745255426679" lon="9.760303993082298"><ele>273.0</ele><time>2026-04-11T11:04:14Z</time></trkpt><trkpt lat="45.70757178102911" lon="9.76026792550719"><ele>273.0</ele><time>2026-04-11T11:04:16Z</time></trkpt><trkpt lat="45.70763352975222" lon="9.760248243923044"><ele>273.0</ele><time>2026-04-11T11:04:17Z</time></trkpt><trkpt lat="45.70769806918979" lon="9.760225042388841"><ele>273.0</ele><time>2026-04-11T11:04:18Z</time></trkpt><trkpt lat="45.70783022546808" lon="9.760189485052042"><ele>272.5</ele><time>2026-04-11T11:04:20Z</time></trkpt><trkpt lat="45.707891354761095" lon="9.76015676403112"><ele>272.0</ele><time>2026-04-11T11:04:21Z</time></trkpt><trkpt lat="45.70796378895064" lon="9.76014794021396"><ele>271.5</ele><time>2026-04-11T11:04:22Z</time></trkpt><trkpt lat="45.708070351686395" lon="9.760107167502516"><ele>271.0</ele><time>2026-04-11T11:04:24Z</time></trkpt><trkpt lat="45.708150410430584" lon="9.760120566981902"><ele>270.5</ele><time>2026-04-11T11:04:26Z</time></trkpt><trkpt lat="45.70820181230671" lon="9.760233471379921"><ele>270.0</ele><time>2026-04-11T11:04:28Z</time></trkpt><trkpt lat="45.70821695744892" lon="9.760392447619711"><ele>270.0</ele><time>2026-04-11T11:04:30Z</time></trkpt><trkpt lat="45.708235800757485" lon="9.760481467627717"><ele>270.0</ele><time>2026-04-11T11:04:31Z</time></trkpt><trkpt lat="45.70825332927378" lon="9.76057303592453"><ele>270.0</ele><time>2026-04-11T11:04:32Z</time></trkpt><trkpt lat="45.70826505985725" lon="9.760665025736882"><ele>270.0</ele><time>2026-04-11T11:04:33Z</time></trkpt><trkpt lat="45.70827791363122" lon="9.760756269143112"><ele>270.0</ele><time>2026-04-11T11:04:34Z</time></trkpt><trkpt lat="45.708292692599876" lon="9.760847069237117"><ele>270.0</ele><time>2026-04-11T11:04:35Z</time></trkpt><trkpt lat="45.70831218721101" lon="9.760935383726073"><ele>270.0</ele><time>2026-04-11T11:04:36Z</time></trkpt><trkpt lat="45.70833360509871" lon="9.761023667163004"><ele>270.0</ele><time>2026-04-11T11:04:37Z</time></trkpt><trkpt lat="45.708355983891344" lon="9.76120215317055"><ele>270.0</ele><time>2026-04-11T11:04:39Z</time></trkpt><trkpt lat="45.70837312507463" lon="9.76129138826597"><ele>270.0</ele><time>2026-04-11T11:04:40Z</time></trkpt><trkpt lat="45.70838922967411" lon="9.761379161342937"><ele>270.0</ele><time>2026-04-11T11:04:41Z</time></trkpt><trkpt lat="45.708401843501996" lon="9.761469860801727"><ele>270.0</ele><time>2026-04-11T11:04:42Z</time></trkpt><trkpt lat="45.7084214489834" lon="9.761562548311518"><ele>270.0</ele><time>2026-04-11T11:04:43Z</time></trkpt><trkpt lat="45.708451519825935" lon="9.76173721610751"><ele>269.75</ele><time>2026-04-11T11:04:45Z</time></trkpt><trkpt lat="45.70847969625999" lon="9.761912201825195"><ele>269.5</ele><time>2026-04-11T11:04:47Z</time></trkpt><trkpt lat="45.708506160969634" lon="9.762087150023495"><ele>269.25</ele><time>2026-04-11T11:04:49Z</time></trkpt><trkpt lat="45.70853960230244" lon="9.76225750500441"><ele>269.0</ele><time>2026-04-11T11:04:51Z</time></trkpt><trkpt lat="45.70858423094119" lon="9.76241885118854"><ele>269.0</ele><time>2026-04-11T11:04:53Z</time></trkpt><trkpt lat="45.70865035542592" lon="9.762556293311135"><ele>269.0</ele><time>2026-04-11T11:04:55Z</time></trkpt><trkpt lat="45.70873362170032" lon="9.762659775346243"><ele>269.0</ele><time>2026-04-11T11:04:57Z</time></trkpt><trkpt lat="45.70883764046259" lon="9.762740338894305"><ele>269.0</ele><time>2026-04-11T11:04:59Z</time></trkpt><trkpt lat="45.70889566998995" lon="9.762779921215094"><ele>269.0</ele><time>2026-04-11T11:05:00Z</time></trkpt><trkpt lat="45.70895171465459" lon="9.76282385661926"><ele>269.8</ele><time>2026-04-11T11:05:01Z</time></trkpt><trkpt lat="45.709008974241506" lon="9.762861429871228"><ele>270.59999999999997</ele><time>2026-04-11T11:05:02Z</time></trkpt><trkpt lat="45.70912156420312" lon="9.762938909110298"><ele>271.4</ele><time>2026-04-11T11:05:04Z</time></trkpt><trkpt lat="45.70923098085395" lon="9.763015513407568"><ele>272.2</ele><time>2026-04-11T11:05:06Z</time></trkpt><trkpt lat="45.70934452521008" lon="9.763080834881618"><ele>273.0</ele><time>2026-04-11T11:05:08Z</time></trkpt><trkpt lat="45.709456477043446" lon="9.763144863960239"><ele>273.0</ele><time>2026-04-11T11:05:10Z</time></trkpt><trkpt lat="45.70956939972803" lon="9.76318586693797"><ele>273.0</ele><time>2026-04-11T11:05:12Z</time></trkpt><trkpt lat="45.709684627715454" lon="9.763245396698"><ele>273.0</ele><time>2026-04-11T11:05:14Z</time></trkpt><trkpt lat="45.709799582038514" lon="9.763289206235383"><ele>273.0</ele><time>2026-04-11T11:05:16Z</time></trkpt><trkpt lat="45.709860628637195" lon="9.76331674745178"><ele>273.0</ele><time>2026-04-11T11:05:17Z</time></trkpt><trkpt lat="45.70996748622952" lon="9.763388837744003"><ele>273.0</ele><time>2026-04-11T11:05:19Z</time></trkpt><trkpt lat="45.710019527844366" lon="9.76344751585853"><ele>273.0</ele><time>2026-04-11T11:05:20Z</time></trkpt><trkpt lat="45.71010669108316" lon="9.763562009867211"><ele>273.0</ele><time>2026-04-11T11:05:22Z</time></trkpt><trkpt lat="45.710189925838996" lon="9.763688891994144"><ele>273.0</ele><time>2026-04-11T11:05:24Z</time></trkpt><trkpt lat="45.710272929507944" lon="9.763818497955203"><ele>273.0</ele><time>2026-04-11T11:05:26Z</time></trkpt><trkpt lat="45.71034516688403" lon="9.763938200072662"><ele>274.2</ele><time>2026-04-11T11:05:28Z</time></trkpt><trkpt lat="45.710394877315906" lon="9.76400720843563"><ele>275.4</ele><time>2026-04-11T11:05:29Z</time></trkpt><trkpt lat="45.71046851142616" lon="9.764120982259152"><ele>276.59999999999997</ele><time>2026-04-11T11:05:31Z</time></trkpt><trkpt lat="45.710540537987804" lon="9.764245519313203"><ele>277.8</ele><time>2026-04-11T11:05:33Z</time></trkpt><trkpt lat="45.710610103778436" lon="9.764386881967782"><ele>279.0</ele><time>2026-04-11T11:05:35Z</time></trkpt><trkpt lat="45.710657792647865" lon="9.764527143257768"><ele>280.0</ele><time>2026-04-11T11:05:37Z</time></trkpt><trkpt lat="45.7107071528067" lon="9.764672939087662"><ele>281.0</ele><time>2026-04-11T11:05:39Z</time></trkpt><trkpt lat="45.71073298864778" lon="9.764827293140069"><ele>282.0</ele><time>2026-04-11T11:05:41Z</time></trkpt><trkpt lat="45.71077247920216" lon="9.764983478429635"><ele>283.0</ele><time>2026-04-11T11:05:43Z</time></trkpt><trkpt lat="45.71080917902871" lon="9.7651363287298"><ele>284.4</ele><time>2026-04-11T11:05:45Z</time></trkpt><trkpt lat="45.71084073011219" lon="9.765285034991003"><ele>285.8</ele><time>2026-04-11T11:05:47Z</time></trkpt><trkpt lat="45.710880045619746" lon="9.765427973123698"><ele>287.2</ele><time>2026-04-11T11:05:49Z</time></trkpt><trkpt lat="45.710930077148966" lon="9.765565401659549"><ele>288.6</ele><time>2026-04-11T11:05:51Z</time></trkpt><trkpt lat="45.71099153765119" lon="9.765689955384724"><ele>290.0</ele><time>2026-04-11T11:05:53Z</time></trkpt><trkpt lat="45.711068981039375" lon="9.7658011424681"><ele>289.8</ele><time>2026-04-11T11:05:55Z</time></trkpt><trkpt lat="45.71115151386107" lon="9.765902625613776"><ele>289.6</ele><time>2026-04-11T11:05:57Z</time></trkpt><trkpt lat="45.711225877161" lon="9.766012624291703"><ele>289.4</ele><time>2026-04-11T11:05:59Z</time></trkpt><trkpt lat="45.71130917733087" lon="9.766118956846954"><ele>289.2</ele><time>2026-04-11T11:06:01Z</time></trkpt><trkpt lat="45.711387104669555" lon="9.76621951551569"><ele>289.0</ele><time>2026-04-11T11:06:03Z</time></trkpt><trkpt lat="45.71146291305701" lon="9.766330584545614"><ele>291.0</ele><time>2026-04-11T11:06:05Z</time></trkpt><trkpt lat="45.71155084258734" lon="9.766433309927782"><ele>293.0</ele><time>2026-04-11T11:06:07Z</time></trkpt><trkpt lat="45.71162771558128" lon="9.766537431857637"><ele>295.0</ele><time>2026-04-11T11:06:09Z</time></trkpt><trkpt lat="45.71170422083044" lon="9.766627942884478"><ele>297.0</ele><time>2026-04-11T11:06:11Z</time></trkpt><trkpt lat="45.7117862647658" lon="9.766714113834544"><ele>299.0</ele><time>2026-04-11T11:06:13Z</time></trkpt><trkpt lat="45.71187643325463" lon="9.76678454255358"><ele>299.2</ele><time>2026-04-11T11:06:15Z</time></trkpt><trkpt lat="45.71197633721295" lon="9.766839434307364"><ele>299.4</ele><time>2026-04-11T11:06:17Z</time></trkpt><trkpt lat="45.71206727289677" lon="9.76689611572472"><ele>299.6</ele><time>2026-04-11T11:06:19Z</time></trkpt><trkpt lat="45.712159186218685" lon="9.76695197596504"><ele>299.8</ele><time>2026-04-11T11:06:21Z</time></trkpt><trkpt lat="45.7122563089217" lon="9.767003183940474"><ele>300.0</ele><time>2026-04-11T11:06:23Z</time></trkpt><trkpt lat="45.712348973584845" lon="9.767062944580456"><ele>301.2</ele><time>2026-04-11T11:06:25Z</time></trkpt><trkpt lat="45.71243473145792" lon="9.767127357912337"><ele>302.4</ele><time>2026-04-11T11:06:27Z</time></trkpt><trkpt lat="45.71251982345525" lon="9.767193277331423"><ele>303.6</ele><time>2026-04-11T11:06:29Z</time></trkpt><trkpt lat="45.71260246112176" lon="9.76726690637282"><ele>304.8</ele><time>2026-04-11T11:06:31Z</time></trkpt><trkpt lat="45.712686010091616" lon="9.767342527769094"><ele>306.0</ele><time>2026-04-11T11:06:33Z</time></trkpt><trkpt lat="45.712772394651736" lon="9.767428396094568"><ele>306.0</ele><time>2026-04-11T11:06:35Z</time></trkpt><trkpt lat="45.71285489256557" lon="9.76750939562247"><ele>306.0</ele><time>2026-04-11T11:06:37Z</time></trkpt><trkpt lat="45.712953069834676" lon="9.767593788480777"><ele>306.0</ele><time>2026-04-11T11:06:39Z</time></trkpt><trkpt lat="45.7130549824567" lon="9.767676553375985"><ele>306.0</ele><time>2026-04-11T11:06:41Z</time></trkpt><trkpt lat="45.71315984359747" lon="9.767761688225294"><ele>307.0</ele><time>2026-04-11T11:06:43Z</time></trkpt><trkpt lat="45.713265419547916" lon="9.767846999207949"><ele>308.0</ele><time>2026-04-11T11:06:45Z</time></trkpt><trkpt lat="45.713374975686484" lon="9.767927039325054"><ele>309.0</ele><time>2026-04-11T11:06:47Z</time></trkpt><trkpt lat="45.71347925864151" lon="9.768006871203216"><ele>310.0</ele><time>2026-04-11T11:06:49Z</time></trkpt><trkpt lat="45.713586600119825" lon="9.768081713032613"><ele>311.5</ele><time>2026-04-11T11:06:51Z</time></trkpt><trkpt lat="45.71368872934204" lon="9.768173415689555"><ele>313.0</ele><time>2026-04-11T11:06:53Z</time></trkpt><trkpt lat="45.71379809644074" lon="9.768251286713351"><ele>314.5</ele><time>2026-04-11T11:06:55Z</time></trkpt><trkpt lat="45.71389598340482" lon="9.768346432247489"><ele>316.0</ele><time>2026-04-11T11:06:57Z</time></trkpt><trkpt lat="45.71397189105763" lon="9.768469040132372"><ele>316.0</ele><time>2026-04-11T11:06:59Z</time></trkpt><trkpt lat="45.71402348197725" lon="9.768525169755355"><ele>316.0</ele><time>2026-04-11T11:07:00Z</time></trkpt><trkpt lat="45.71411000331234" lon="9.768642477929346"><ele>316.0</ele><time>2026-04-11T11:07:02Z</time></trkpt><trkpt lat="45.71419138312925" lon="9.768755462654907"><ele>316.0</ele><time>2026-04-11T11:07:04Z</time></trkpt><trkpt lat="45.71426963926598" lon="9.7688801124623"><ele>316.0</ele><time>2026-04-11T11:07:06Z</time></trkpt><trkpt lat="45.71435230825126" lon="9.768997410091613"><ele>317.25</ele><time>2026-04-11T11:07:08Z</time></trkpt><trkpt lat="45.71443148198361" lon="9.769118416853628"><ele>318.5</ele><time>2026-04-11T11:07:10Z</time></trkpt><trkpt lat="45.714507281394035" lon="9.769253363687735"><ele>319.75</ele><time>2026-04-11T11:07:12Z</time></trkpt><trkpt lat="45.71459756365964" lon="9.769371860619287"><ele>321.0</ele><time>2026-04-11T11:07:14Z</time></trkpt><trkpt lat="45.71467948658743" lon="9.769497062335935"><ele>321.0</ele><time>2026-04-11T11:07:16Z</time></trkpt><trkpt lat="45.714758630560425" lon="9.769630854719004"><ele>321.0</ele><time>2026-04-11T11:07:18Z</time></trkpt><trkpt lat="45.71483212572106" lon="9.769771340763818"><ele>321.0</ele><time>2026-04-11T11:07:20Z</time></trkpt><trkpt lat="45.71490316480367" lon="9.769920019940658"><ele>321.0</ele><time>2026-04-11T11:07:22Z</time></trkpt><trkpt lat="45.71496971031404" lon="9.770072695287709"><ele>320.6</ele><time>2026-04-11T11:07:24Z</time></trkpt><trkpt lat="45.7150275054568" lon="9.770230368450814"><ele>320.20000000000005</ele><time>2026-04-11T11:07:26Z</time></trkpt><trkpt lat="45.715079407933864" lon="9.770398654541657"><ele>319.79999999999995</ele><time>2026-04-11T11:07:28Z</time></trkpt><trkpt lat="45.71512076692525" lon="9.770562029345692"><ele>319.4</ele><time>2026-04-11T11:07:30Z</time></trkpt><trkpt lat="45.71514116857629" lon="9.7706524649456"><ele>319.0</ele><time>2026-04-11T11:07:31Z</time></trkpt><trkpt lat="45.71516794424951" lon="9.770828318139497"><ele>319.0</ele><time>2026-04-11T11:07:33Z</time></trkpt><trkpt lat="45.71517613453144" lon="9.7709178178318"><ele>319.0</ele><time>2026-04-11T11:07:34Z</time></trkpt><trkpt lat="45.71518181789011" lon="9.771007827112117"><ele>319.0</ele><time>2026-04-11T11:07:35Z</time></trkpt><trkpt lat="45.715181355709994" lon="9.771186343447324"><ele>319.0</ele><time>2026-04-11T11:07:37Z</time></trkpt><trkpt lat="45.715176487672565" lon="9.771355669845857"><ele>319.0</ele><time>2026-04-11T11:07:39Z</time></trkpt><trkpt lat="45.715180399940806" lon="9.77152791592166"><ele>319.79999999999995</ele><time>2026-04-11T11:07:41Z</time></trkpt><trkpt lat="45.71516796296215" lon="9.771699633972144"><ele>320.59999999999997</ele><time>2026-04-11T11:07:43Z</time></trkpt><trkpt lat="45.7151565952062" lon="9.771866203792554"><ele>321.4</ele><time>2026-04-11T11:07:45Z</time></trkpt><trkpt lat="45.71514356635149" lon="9.772019857091667"><ele>322.2</ele><time>2026-04-11T11:07:47Z</time></trkpt><trkpt lat="45.71513313488237" lon="9.772114884377675"><ele>323.0</ele><time>2026-04-11T11:07:48Z</time></trkpt><trkpt lat="45.71512714818012" lon="9.772261327422482"><ele>324.0</ele><time>2026-04-11T11:07:50Z</time></trkpt><trkpt lat="45.715124651734484" lon="9.77241808654846"><ele>325.0</ele><time>2026-04-11T11:07:52Z</time></trkpt><trkpt lat="45.715122959076076" lon="9.772509743202848"><ele>326.0</ele><time>2026-04-11T11:07:53Z</time></trkpt><trkpt lat="45.71514460781161" lon="9.772660104321545"><ele>327.0</ele><time>2026-04-11T11:07:55Z</time></trkpt><trkpt lat="45.71517489052258" lon="9.772801216378467"><ele>328.0</ele><time>2026-04-11T11:07:57Z</time></trkpt><trkpt lat="45.71520097372783" lon="9.772938357043882"><ele>328.3333333333333</ele><time>2026-04-11T11:07:59Z</time></trkpt><trkpt lat="45.71522386226601" lon="9.773054179502562"><ele>328.66666666666663</ele><time>2026-04-11T11:08:01Z</time></trkpt><trkpt lat="45.715267624074734" lon="9.773157222704102"><ele>329.0</ele><time>2026-04-11T11:08:03Z</time></trkpt><trkpt lat="45.71533820017307" lon="9.773205332653959"><ele>329.3333333333333</ele><time>2026-04-11T11:08:05Z</time></trkpt><trkpt lat="45.715417343161235" lon="9.77311777402013"><ele>329.6666666666667</ele><time>2026-04-11T11:08:07Z</time></trkpt><trkpt lat="45.715482440637125" lon="9.77301889691055"><ele>330.0</ele><time>2026-04-11T11:08:09Z</time></trkpt><trkpt lat="45.71556685033826" lon="9.772904851003874"><ele>330.0</ele><time>2026-04-11T11:08:11Z</time></trkpt><trkpt lat="45.71562016178032" lon="9.772844114671786"><ele>330.0</ele><time>2026-04-11T11:08:12Z</time></trkpt><trkpt lat="45.715673530481475" lon="9.772773000290682"><ele>330.0</ele><time>2026-04-11T11:08:13Z</time></trkpt><trkpt lat="45.715732824976236" lon="9.772695331722462"><ele>330.0</ele><time>2026-04-11T11:08:14Z</time></trkpt><trkpt lat="45.71579924381638" lon="9.772622698224495"><ele>330.0</ele><time>2026-04-11T11:08:15Z</time></trkpt><trkpt lat="45.71586290853859" lon="9.772539513911315"><ele>330.0</ele><time>2026-04-11T11:08:16Z</time></trkpt><trkpt lat="45.71592970039819" lon="9.772447618862993"><ele>330.4</ele><time>2026-04-11T11:08:17Z</time></trkpt><trkpt lat="45.715999816763684" lon="9.772356036647537"><ele>330.8</ele><time>2026-04-11T11:08:18Z</time></trkpt><trkpt lat="45.716073408174964" lon="9.77226602759206"><ele>331.20000000000005</ele><time>2026-04-11T11:08:19Z</time></trkpt><trkpt lat="45.716147550374394" lon="9.772172505675147"><ele>331.6</ele><time>2026-04-11T11:08:20Z</time></trkpt><trkpt lat="45.71621926504044" lon="9.77207667303256"><ele>332.0</ele><time>2026-04-11T11:08:21Z</time></trkpt><trkpt lat="45.71629082761842" lon="9.771981690239736"><ele>330.6</ele><time>2026-04-11T11:08:22Z</time></trkpt><trkpt lat="45.71636372975244" lon="9.771889556438879"><ele>329.20000000000005</ele><time>2026-04-11T11:08:23Z</time></trkpt><trkpt lat="45.71643263298729" lon="9.771796337077431"><ele>327.8</ele><time>2026-04-11T11:08:24Z</time></trkpt><trkpt lat="45.716502159572336" lon="9.771706748592806"><ele>326.4</ele><time>2026-04-11T11:08:25Z</time></trkpt><trkpt lat="45.7165670719323" lon="9.77161798740263"><ele>325.0</ele><time>2026-04-11T11:08:26Z</time></trkpt><trkpt lat="45.71662767221892" lon="9.77152656077413"><ele>325.0</ele><time>2026-04-11T11:08:27Z</time></trkpt><trkpt lat="45.716691232660196" lon="9.771446245226851"><ele>325.0</ele><time>2026-04-11T11:08:28Z</time></trkpt><trkpt lat="45.71675826016184" lon="9.771375282822612"><ele>325.0</ele><time>2026-04-11T11:08:29Z</time></trkpt><trkpt lat="45.71683391900085" lon="9.7713327105006"><ele>325.0</ele><time>2026-04-11T11:08:30Z</time></trkpt><trkpt lat="45.71691956104389" lon="9.771359432247168"><ele>325.0</ele><time>2026-04-11T11:08:31Z</time></trkpt><trkpt lat="45.71698550752255" lon="9.771375609927645"><ele>325.0</ele><time>2026-04-11T11:08:32Z</time></trkpt><trkpt lat="45.71704772186133" lon="9.771393661143536"><ele>325.8</ele><time>2026-04-11T11:08:33Z</time></trkpt><trkpt lat="45.717160548095876" lon="9.771427267933822"><ele>326.6</ele><time>2026-04-11T11:08:35Z</time></trkpt><trkpt lat="45.71726125384974" lon="9.771462923843899"><ele>327.4</ele><time>2026-04-11T11:08:37Z</time></trkpt><trkpt lat="45.717351080166985" lon="9.771496151487986"><ele>328.2</ele><time>2026-04-11T11:08:39Z</time></trkpt><trkpt lat="45.71744111756771" lon="9.771498165260848"><ele>329.0</ele><time>2026-04-11T11:08:41Z</time></trkpt><trkpt lat="45.717514251509755" lon="9.771404695086014"><ele>329.0</ele><time>2026-04-11T11:08:43Z</time></trkpt><trkpt lat="45.71753776173576" lon="9.771274505951977"><ele>329.0</ele><time>2026-04-11T11:08:45Z</time></trkpt><trkpt lat="45.717579442444816" lon="9.771115963559454"><ele>329.0</ele><time>2026-04-11T11:08:47Z</time></trkpt><trkpt lat="45.71763038372636" lon="9.770968844895247"><ele>329.0</ele><time>2026-04-11T11:08:49Z</time></trkpt><trkpt lat="45.71769808839335" lon="9.770853826051562"><ele>329.0</ele><time>2026-04-11T11:08:51Z</time></trkpt><trkpt lat="45.71777529815114" lon="9.77075263195337"><ele>329.79999999999995</ele><time>2026-04-11T11:08:53Z</time></trkpt><trkpt lat="45.7178506790222" lon="9.770648043154724"><ele>330.59999999999997</ele><time>2026-04-11T11:08:55Z</time></trkpt><trkpt lat="45.71794029492975" lon="9.770584643782618"><ele>331.4</ele><time>2026-04-11T11:08:57Z</time></trkpt><trkpt lat="45.71803643944592" lon="9.770656005335592"><ele>332.2</ele><time>2026-04-11T11:08:59Z</time></trkpt><trkpt lat="45.71812551996919" lon="9.770714856824302"><ele>333.0</ele><time>2026-04-11T11:09:01Z</time></trkpt><trkpt lat="45.71820963031852" lon="9.770777559439956"><ele>333.0</ele><time>2026-04-11T11:09:03Z</time></trkpt><trkpt lat="45.718281863546935" lon="9.770833048762782"><ele>333.0</ele><time>2026-04-11T11:09:05Z</time></trkpt><trkpt lat="45.718350356479625" lon="9.770879993125254"><ele>333.0</ele><time>2026-04-11T11:09:07Z</time></trkpt><trkpt lat="45.71841810405534" lon="9.770904748575385"><ele>333.0</ele><time>2026-04-11T11:09:09Z</time></trkpt><trkpt lat="45.71847895636433" lon="9.770930208592493"><ele>333.0</ele><time>2026-04-11T11:09:11Z</time></trkpt><trkpt lat="45.718552104853075" lon="9.770958340218227"><ele>333.0</ele><time>2026-04-11T11:09:14Z</time></trkpt><trkpt lat="45.718592959928905" lon="9.770868943551624"><ele>343.0</ele><time>2026-04-11T11:09:17Z</time></trkpt></trkseg></trk></gpx>